Wetterdaten: Montag, 21.05.2018
Datum Zeit Temp. A. Pool Temp. Feuchte A. Luftdruck Regen Wind Richtung Richtung Sonnenschein ET UV Solar Taupunkt Windchill Windben Empfang
21.05.2018 00:00 12,9 C 17,8 C 80 % 1017,5 hPa 0,0 l/m 6,3 km/h (2 Bft) O 97 0 min 0,000 mm 0,0 UV-I 0 W/m 9,5 C 12,9 C 9,7 km/h (2 Bft) 100,00 %
21.05.2018 00:02 12,9 C 17,8 C 80 % 1017,5 hPa 0,0 l/m 6,7 km/h (2 Bft) O-SO 111 0 min 0,000 mm 0,0 UV-I 0 W/m 9,5 C 12,7 C 9,7 km/h (2 Bft) 97,56 %
21.05.2018 00:03 12,9 C 17,8 C 80 % 1017,5 hPa 0,0 l/m 7,0 km/h (2 Bft) O 82 0 min 0,000 mm 0,0 UV-I 0 W/m 9,5 C 12,5 C 9,7 km/h (2 Bft) 96,30 %
21.05.2018 00:04 12,9 C 17,8 C 80 % 1017,4 hPa 0,0 l/m 6,5 km/h (2 Bft) O 91 0 min 0,000 mm 0,0 UV-I 0 W/m 9,5 C 12,9 C 9,7 km/h (2 Bft) 100,00 %
21.05.2018 00:05 12,9 C 17,8 C 80 % 1017,5 hPa 0,0 l/m 6,2 km/h (2 Bft) O 95 0 min 0,000 mm 0,0 UV-I 0 W/m 9,5 C 12,9 C 9,7 km/h (2 Bft) 97,44 %
21.05.2018 00:06 12,9 C 17,8 C 80 % 1017,5 hPa 0,0 l/m 5,8 km/h (2 Bft) O-NO 75 0 min 0,000 mm 0,0 UV-I 0 W/m 9,5 C 12,9 C 9,7 km/h (2 Bft) 100,00 %
21.05.2018 00:07 12,9 C 17,8 C 80 % 1017,5 hPa 0,0 l/m 4,9 km/h (1 Bft) O-NO 72 0 min 0,000 mm 0,0 UV-I 0 W/m 9,5 C 12,9 C 6,4 km/h (2 Bft) 96,30 %
21.05.2018 00:08 12,8 C 17,8 C 80 % 1017,4 hPa 0,0 l/m 4,6 km/h (1 Bft) O 85 0 min 0,000 mm 0,0 UV-I 0 W/m 9,4 C 12,8 C 6,4 km/h (2 Bft) 96,15 %
21.05.2018 00:09 12,6 C 17,8 C 80 % 1017,4 hPa 0,0 l/m 5,1 km/h (1 Bft) O-NO 69 0 min 0,000 mm 0,0 UV-I 0 W/m 9,2 C 12,6 C 6,4 km/h (2 Bft) 100,00 %
21.05.2018 00:10 12,6 C 17,8 C 81 % 1017,4 hPa 0,0 l/m 6,4 km/h (2 Bft) O 93 0 min 0,000 mm 0,0 UV-I 0 W/m 9,4 C 12,6 C 9,7 km/h (2 Bft) 95,65 %
21.05.2018 00:11 12,6 C 17,8 C 82 % 1017,5 hPa 0,0 l/m 6,9 km/h (2 Bft) O 92 0 min 0,000 mm 0,0 UV-I 0 W/m 9,6 C 12,3 C 9,7 km/h (2 Bft) 100,00 %
21.05.2018 00:12 12,5 C 17,8 C 82 % 1017,5 hPa 0,0 l/m 7,3 km/h (2 Bft) O 100 0 min 0,000 mm 0,0 UV-I 0 W/m 9,5 C 11,9 C 9,7 km/h (2 Bft) 91,30 %
21.05.2018 00:13 12,5 C 17,8 C 82 % 1017,5 hPa 0,0 l/m 8,4 km/h (2 Bft) O 86 0 min 0,000 mm 0,0 UV-I 0 W/m 9,5 C 11,2 C 11,3 km/h (2 Bft) 100,00 %
21.05.2018 00:14 12,5 C 17,8 C 82 % 1017,5 hPa 0,0 l/m 6,2 km/h (2 Bft) O 89 0 min 0,000 mm 0,0 UV-I 0 W/m 9,5 C 12,5 C 9,7 km/h (2 Bft) 95,65 %
21.05.2018 00:15 12,5 C 17,8 C 82 % 1017,5 hPa 0,0 l/m 7,8 km/h (2 Bft) O 88 0 min 0,000 mm 0,0 UV-I 0 W/m 9,5 C 11,6 C 11,3 km/h (2 Bft) 95,83 %
21.05.2018 00:16 12,5 C 17,8 C 82 % 1017,5 hPa 0,0 l/m 8,5 km/h (2 Bft) O 91 0 min 0,000 mm 0,0 UV-I 0 W/m 9,5 C 11,2 C 11,3 km/h (2 Bft) 95,65 %
21.05.2018 00:17 12,6 C 17,8 C 82 % 1017,5 hPa 0,0 l/m 7,4 km/h (2 Bft) O 91 0 min 0,000 mm 0,0 UV-I 0 W/m 9,6 C 12,0 C 11,3 km/h (2 Bft) 96,30 %
21.05.2018 00:18 12,6 C 17,8 C 82 % 1017,5 hPa 0,0 l/m 8,6 km/h (2 Bft) O-NO 77 0 min 0,000 mm 0,0 UV-I 0 W/m 9,6 C 11,2 C 11,3 km/h (2 Bft) 100,00 %
21.05.2018 00:19 12,7 C 17,8 C 82 % 1017,5 hPa 0,0 l/m 9,9 km/h (2 Bft) NO 55 0 min 0,000 mm 0,0 UV-I 0 W/m 9,7 C 10,6 C 14,5 km/h (3 Bft) 95,65 %
21.05.2018 00:20 12,7 C 17,8 C 82 % 1017,4 hPa 0,0 l/m 11,0 km/h (2 Bft) O-NO 78 0 min 0,000 mm 0,0 UV-I 0 W/m 9,7 C 10,1 C 14,5 km/h (3 Bft) 100,00 %
21.05.2018 00:21 12,7 C 17,8 C 82 % 1017,4 hPa 0,0 l/m 10,4 km/h (2 Bft) O 91 0 min 0,000 mm 0,0 UV-I 0 W/m 9,7 C 10,4 C 14,5 km/h (3 Bft) 95,65 %
21.05.2018 00:22 12,6 C 17,8 C 82 % 1017,5 hPa 0,0 l/m 11,6 km/h (2 Bft) O 88 0 min 0,000 mm 0,0 UV-I 0 W/m 9,6 C 9,7 C 14,5 km/h (3 Bft) 96,30 %
21.05.2018 00:23 12,6 C 17,8 C 82 % 1017,4 hPa 0,0 l/m 11,6 km/h (2 Bft) O 90 0 min 0,000 mm 0,0 UV-I 0 W/m 9,6 C 9,7 C 14,5 km/h (3 Bft) 92,86 %
21.05.2018 00:24 12,5 C 17,8 C 82 % 1017,4 hPa 0,0 l/m 10,8 km/h (2 Bft) O 90 0 min 0,000 mm 0,0 UV-I 0 W/m 9,5 C 10,0 C 14,5 km/h (3 Bft) 100,00 %
21.05.2018 00:25 12,5 C 17,8 C 82 % 1017,4 hPa 0,0 l/m 10,8 km/h (2 Bft) O 88 0 min 0,000 mm 0,0 UV-I 0 W/m 9,5 C 10,0 C 14,5 km/h (3 Bft) 96,88 %
21.05.2018 00:26 12,6 C 17,8 C 82 % 1017,4 hPa 0,0 l/m 8,6 km/h (2 Bft) O 82 0 min 0,000 mm 0,0 UV-I 0 W/m 9,6 C 11,2 C 12,9 km/h (3 Bft) 100,00 %
21.05.2018 00:27 12,6 C 17,8 C 82 % 1017,4 hPa 0,0 l/m 10,2 km/h (2 Bft) O-NO 65 0 min 0,000 mm 0,0 UV-I 0 W/m 9,6 C 10,4 C 14,5 km/h (3 Bft) 96,15 %
21.05.2018 00:28 12,6 C 17,8 C 82 % 1017,3 hPa 0,0 l/m 10,5 km/h (2 Bft) O 94 0 min 0,000 mm 0,0 UV-I 0 W/m 9,6 C 10,2 C 12,9 km/h (3 Bft) 96,97 %
21.05.2018 00:29 12,6 C 17,8 C 82 % 1017,4 hPa 0,0 l/m 7,6 km/h (2 Bft) O-NO 57 0 min 0,000 mm 0,0 UV-I 0 W/m 9,6 C 11,8 C 11,3 km/h (2 Bft) 100,00 %
21.05.2018 00:30 12,4 C 17,8 C 82 % 1017,4 hPa 0,0 l/m 7,0 km/h (2 Bft) NO 43 0 min 0,000 mm 0,0 UV-I 0 W/m 9,4 C 12,0 C 9,7 km/h (2 Bft) 95,83 %
21.05.2018 00:31 12,4 C 17,8 C 83 % 1017,4 hPa 0,0 l/m 6,9 km/h (2 Bft) O-NO 60 0 min 0,000 mm 0,0 UV-I 0 W/m 9,6 C 12,1 C 8,0 km/h (2 Bft) 100,00 %
21.05.2018 00:32 12,3 C 17,8 C 83 % 1017,3 hPa 0,0 l/m 6,8 km/h (2 Bft) O-NO 65 0 min 0,000 mm 0,0 UV-I 0 W/m 9,5 C 12,0 C 11,3 km/h (2 Bft) 96,30 %
21.05.2018 00:33 12,3 C 17,8 C 83 % 1017,4 hPa 0,0 l/m 7,0 km/h (2 Bft) NO 54 0 min 0,000 mm 0,0 UV-I 0 W/m 9,5 C 11,9 C 11,3 km/h (2 Bft) 100,00 %
21.05.2018 00:34 12,3 C 17,8 C 83 % 1017,4 hPa 0,0 l/m 7,7 km/h (2 Bft) O-NO 78 0 min 0,000 mm 0,0 UV-I 0 W/m 9,5 C 11,5 C 11,3 km/h (2 Bft) 96,55 %
21.05.2018 00:35 12,3 C 17,8 C 83 % 1017,4 hPa 0,0 l/m 9,7 km/h (2 Bft) NO 55 0 min 0,000 mm 0,0 UV-I 0 W/m 9,5 C 10,3 C 14,5 km/h (3 Bft) 100,00 %
21.05.2018 00:36 12,3 C 17,8 C 84 % 1017,4 hPa 0,0 l/m 8,4 km/h (2 Bft) O-NO 64 0 min 0,000 mm 0,0 UV-I 0 W/m 9,7 C 11,0 C 12,9 km/h (3 Bft) 96,30 %
21.05.2018 00:37 12,3 C 17,8 C 84 % 1017,3 hPa 0,0 l/m 10,0 km/h (2 Bft) O-NO 65 0 min 0,000 mm 0,0 UV-I 0 W/m 9,7 C 10,1 C 16,1 km/h (3 Bft) 97,27 %
21.05.2018 00:38 12,4 C 17,8 C 84 % 1017,4 hPa 0,0 l/m 11,5 km/h (2 Bft) O 92 0 min 0,000 mm 0,0 UV-I 0 W/m 9,8 C 9,5 C 14,5 km/h (3 Bft) 95,45 %
21.05.2018 00:39 12,4 C 17,8 C 83 % 1017,4 hPa 0,0 l/m 11,3 km/h (2 Bft) O-NO 70 0 min 0,000 mm 0,0 UV-I 0 W/m 9,6 C 9,6 C 14,5 km/h (3 Bft) 96,15 %
21.05.2018 00:40 12,4 C 17,8 C 83 % 1017,3 hPa 0,0 l/m 10,2 km/h (2 Bft) O 97 0 min 0,000 mm 0,0 UV-I 0 W/m 9,6 C 10,1 C 14,5 km/h (3 Bft) 100,00 %
21.05.2018 00:41 12,4 C 17,8 C 83 % 1017,4 hPa 0,0 l/m 7,4 km/h (2 Bft) O-NO 57 0 min 0,000 mm 0,0 UV-I 0 W/m 9,6 C 11,7 C 12,9 km/h (3 Bft) 96,30 %
21.05.2018 00:42 12,4 C 17,8 C 83 % 1017,3 hPa 0,0 l/m 6,5 km/h (2 Bft) NO 37 0 min 0,000 mm 0,0 UV-I 0 W/m 9,6 C 12,4 C 12,9 km/h (3 Bft) 95,65 %
21.05.2018 00:43 12,4 C 17,8 C 84 % 1017,3 hPa 0,0 l/m 3,9 km/h (1 Bft) O-SO 108 0 min 0,000 mm 0,0 UV-I 0 W/m 9,8 C 12,4 C 6,4 km/h (2 Bft) 96,30 %
21.05.2018 00:44 12,3 C 17,8 C 84 % 1017,3 hPa 0,0 l/m 7,7 km/h (2 Bft) O-NO 70 0 min 0,000 mm 0,0 UV-I 0 W/m 9,7 C 11,5 C 12,9 km/h (3 Bft) 100,00 %
21.05.2018 00:45 12,4 C 17,8 C 84 % 1017,4 hPa 0,0 l/m 10,5 km/h (2 Bft) O 92 0 min 0,000 mm 0,0 UV-I 0 W/m 9,8 C 10,0 C 14,5 km/h (3 Bft) 95,83 %
21.05.2018 00:46 12,3 C 17,8 C 84 % 1017,3 hPa 0,0 l/m 9,9 km/h (2 Bft) O 96 0 min 0,000 mm 0,0 UV-I 0 W/m 9,7 C 10,2 C 12,9 km/h (3 Bft) 100,00 %
21.05.2018 00:47 12,3 C 17,8 C 84 % 1017,3 hPa 0,0 l/m 12,3 km/h (3 Bft) SO 126 0 min 0,000 mm 0,0 UV-I 0 W/m 9,7 C 9,0 C 16,1 km/h (3 Bft) 95,83 %
21.05.2018 00:48 12,3 C 17,8 C 84 % 1017,3 hPa 0,0 l/m 11,3 km/h (2 Bft) O 88 0 min 0,000 mm 0,0 UV-I 0 W/m 9,7 C 9,5 C 14,5 km/h (3 Bft) 100,00 %
21.05.2018 00:49 12,3 C 17,8 C 84 % 1017,4 hPa 0,0 l/m 9,0 km/h (2 Bft) O 96 0 min 0,000 mm 0,0 UV-I 0 W/m 9,7 C 10,7 C 12,9 km/h (3 Bft) 96,30 %
21.05.2018 00:50 12,4 C 17,8 C 84 % 1017,4 hPa 0,0 l/m 9,5 km/h (2 Bft) O-NO 73 0 min 0,000 mm 0,0 UV-I 0 W/m 9,8 C 10,5 C 14,5 km/h (3 Bft) 96,15 %
21.05.2018 00:51 12,4 C 17,8 C 84 % 1017,4 hPa 0,0 l/m 10,1 km/h (2 Bft) O 96 0 min 0,000 mm 0,0 UV-I 0 W/m 9,8 C 10,2 C 12,9 km/h (3 Bft) 100,00 %
21.05.2018 00:52 12,5 C 17,8 C 84 % 1017,4 hPa 0,0 l/m 11,2 km/h (2 Bft) O-SO 106 0 min 0,000 mm 0,0 UV-I 0 W/m 9,9 C 9,8 C 14,5 km/h (3 Bft) 92,86 %
21.05.2018 00:53 12,5 C 17,8 C 84 % 1017,4 hPa 0,0 l/m 9,3 km/h (2 Bft) O-SO 113 0 min 0,000 mm 0,0 UV-I 0 W/m 9,9 C 10,7 C 14,5 km/h (3 Bft) 100,00 %
21.05.2018 00:54 12,6 C 17,8 C 83 % 1017,4 hPa 0,0 l/m 11,4 km/h (2 Bft) O-SO 111 0 min 0,000 mm 0,0 UV-I 0 W/m 9,8 C 9,8 C 14,5 km/h (3 Bft) 86,67 %
21.05.2018 00:55 12,7 C 17,8 C 83 % 1017,4 hPa 0,0 l/m 10,1 km/h (2 Bft) O 92 0 min 0,000 mm 0,0 UV-I 0 W/m 9,9 C 10,5 C 12,9 km/h (3 Bft) 100,00 %
21.05.2018 00:56 12,7 C 17,8 C 83 % 1017,4 hPa 0,0 l/m 10,2 km/h (2 Bft) O 100 0 min 0,000 mm 0,0 UV-I 0 W/m 9,9 C 10,5 C 14,5 km/h (3 Bft) 96,30 %
21.05.2018 00:57 12,7 C 17,8 C 82 % 1017,4 hPa 0,0 l/m 10,6 km/h (2 Bft) O-SO 109 0 min 0,000 mm 0,0 UV-I 0 W/m 9,7 C 10,3 C 12,9 km/h (3 Bft) 100,00 %
21.05.2018 00:58 12,8 C 17,8 C 82 % 1017,5 hPa 0,0 l/m 10,8 km/h (2 Bft) O-SO 110 0 min 0,000 mm 0,0 UV-I 0 W/m 9,8 C 10,3 C 14,5 km/h (3 Bft) 95,83 %
21.05.2018 00:59 12,8 C 17,8 C 82 % 1017,4 hPa 0,0 l/m 9,9 km/h (2 Bft) O 101 0 min 0,000 mm 0,0 UV-I 0 W/m 9,8 C 10,7 C 12,9 km/h (3 Bft) 100,00 %
21.05.2018 01:00 12,8 C 17,8 C 82 % 1017,4 hPa 0,0 l/m 8,9 km/h (2 Bft) O-SO 105 0 min 0,025 mm 0,0 UV-I 0 W/m 9,8 C 11,3 C 11,3 km/h (2 Bft) 100,00 %
21.05.2018 01:01 12,8 C 17,8 C 82 % 1017,4 hPa 0,0 l/m 10,1 km/h (2 Bft) O-SO 113 0 min 0,000 mm 0,0 UV-I 0 W/m 9,8 C 10,6 C 12,9 km/h (3 Bft) 100,00 %
21.05.2018 01:03 12,9 C 17,8 C 81 % 1017,4 hPa 0,0 l/m 11,4 km/h (2 Bft) O-SO 104 0 min 0,000 mm 0,0 UV-I 0 W/m 9,7 C 10,1 C 14,5 km/h (3 Bft) 100,00 %
21.05.2018 01:04 12,9 C 17,8 C 81 % 1017,4 hPa 0,0 l/m 8,2 km/h (2 Bft) O 101 0 min 0,000 mm 0,0 UV-I 0 W/m 9,7 C 11,8 C 11,3 km/h (2 Bft) 100,00 %
21.05.2018 01:05 12,8 C 17,8 C 81 % 1017,3 hPa 0,0 l/m 10,0 km/h (2 Bft) O 81 0 min 0,000 mm 0,0 UV-I 0 W/m 9,6 C 10,7 C 12,9 km/h (3 Bft) 95,45 %
21.05.2018 01:06 12,8 C 17,8 C 82 % 1017,3 hPa 0,0 l/m 10,5 km/h (2 Bft) O 98 0 min 0,000 mm 0,0 UV-I 0 W/m 9,8 C 10,4 C 16,1 km/h (3 Bft) 100,00 %
21.05.2018 01:07 12,7 C 17,8 C 82 % 1017,3 hPa 0,0 l/m 10,0 km/h (2 Bft) O 98 0 min 0,000 mm 0,0 UV-I 0 W/m 9,7 C 10,6 C 12,9 km/h (3 Bft) 96,55 %
21.05.2018 01:08 12,7 C 17,8 C 82 % 1017,3 hPa 0,0 l/m 13,4 km/h (3 Bft) O 96 0 min 0,000 mm 0,0 UV-I 0 W/m 9,7 C 9,0 C 17,7 km/h (3 Bft) 97,38 %
21.05.2018 01:09 12,7 C 17,8 C 82 % 1017,3 hPa 0,0 l/m 12,5 km/h (3 Bft) O 87 0 min 0,000 mm 0,0 UV-I 0 W/m 9,7 C 9,4 C 16,1 km/h (3 Bft) 97,62 %
21.05.2018 01:10 12,7 C 17,8 C 82 % 1017,3 hPa 0,0 l/m 10,3 km/h (2 Bft) O-SO 103 0 min 0,000 mm 0,0 UV-I 0 W/m 9,7 C 10,4 C 16,1 km/h (3 Bft) 100,00 %
21.05.2018 01:11 12,7 C 17,8 C 82 % 1017,3 hPa 0,0 l/m 11,7 km/h (2 Bft) O-NO 57 0 min 0,000 mm 0,0 UV-I 0 W/m 9,7 C 9,8 C 14,5 km/h (3 Bft) 95,65 %
21.05.2018 01:12 12,7 C 17,8 C 82 % 1017,3 hPa 0,0 l/m 11,9 km/h (2 Bft) O-NO 76 0 min 0,000 mm 0,0 UV-I 0 W/m 9,7 C 9,7 C 16,1 km/h (3 Bft) 100,00 %
21.05.2018 01:13 12,7 C 17,8 C 82 % 1017,3 hPa 0,0 l/m 12,0 km/h (2 Bft) O 98 0 min 0,000 mm 0,0 UV-I 0 W/m 9,7 C 9,6 C 16,1 km/h (3 Bft) 95,65 %
21.05.2018 01:14 12,7 C 17,8 C 82 % 1017,2 hPa 0,0 l/m 14,6 km/h (3 Bft) O 92 0 min 0,000 mm 0,0 UV-I 0 W/m 9,7 C 8,6 C 19,3 km/h (3 Bft) 96,30 %
21.05.2018 01:15 12,6 C 17,8 C 82 % 1017,2 hPa 0,0 l/m 12,0 km/h (2 Bft) O-NO 69 0 min 0,000 mm 0,0 UV-I 0 W/m 9,6 C 9,5 C 14,5 km/h (3 Bft) 95,65 %
21.05.2018 01:16 12,6 C 17,8 C 82 % 1017,3 hPa 0,0 l/m 12,6 km/h (3 Bft) O 94 0 min 0,000 mm 0,0 UV-I 0 W/m 9,6 C 9,2 C 16,1 km/h (3 Bft) 95,83 %
21.05.2018 01:17 12,7 C 17,8 C 82 % 1017,3 hPa 0,0 l/m 10,5 km/h (2 Bft) O 95 0 min 0,000 mm 0,0 UV-I 0 W/m 9,7 C 10,3 C 16,1 km/h (3 Bft) 100,00 %
21.05.2018 01:18 12,7 C 17,8 C 82 % 1017,3 hPa 0,0 l/m 10,9 km/h (2 Bft) O-SO 104 0 min 0,000 mm 0,0 UV-I 0 W/m 9,7 C 10,1 C 14,5 km/h (3 Bft) 96,55 %
21.05.2018 01:19 12,8 C 17,8 C 82 % 1017,2 hPa 0,0 l/m 10,6 km/h (2 Bft) O 89 0 min 0,000 mm 0,0 UV-I 0 W/m 9,8 C 10,4 C 14,5 km/h (3 Bft) 100,00 %
21.05.2018 01:20 12,8 C 17,8 C 81 % 1017,2 hPa 0,0 l/m 11,1 km/h (2 Bft) O-SO 105 0 min 0,000 mm 0,0 UV-I 0 W/m 9,6 C 10,1 C 14,5 km/h (3 Bft) 95,65 %
21.05.2018 01:21 12,8 C 17,8 C 81 % 1017,2 hPa 0,0 l/m 10,1 km/h (2 Bft) O-SO 113 0 min 0,000 mm 0,0 UV-I 0 W/m 9,6 C 10,6 C 12,9 km/h (3 Bft) 100,00 %
21.05.2018 01:22 12,8 C 17,8 C 81 % 1017,3 hPa 0,0 l/m 12,2 km/h (2 Bft) O 90 0 min 0,000 mm 0,0 UV-I 0 W/m 9,6 C 9,7 C 14,5 km/h (3 Bft) 92,86 %
21.05.2018 01:23 12,8 C 17,8 C 81 % 1017,2 hPa 0,0 l/m 12,6 km/h (3 Bft) O 81 0 min 0,000 mm 0,0 UV-I 0 W/m 9,6 C 9,5 C 16,1 km/h (3 Bft) 96,30 %
21.05.2018 01:24 12,8 C 17,8 C 81 % 1017,3 hPa 0,0 l/m 10,0 km/h (2 Bft) O-NO 77 0 min 0,000 mm 0,0 UV-I 0 W/m 9,6 C 10,7 C 12,9 km/h (3 Bft) 96,55 %
21.05.2018 01:25 12,8 C 17,8 C 81 % 1017,2 hPa 0,0 l/m 14,1 km/h (3 Bft) O 100 0 min 0,000 mm 0,0 UV-I 0 W/m 9,6 C 8,9 C 19,3 km/h (3 Bft) 100,00 %
21.05.2018 01:26 12,7 C 17,8 C 81 % 1017,2 hPa 0,0 l/m 11,8 km/h (2 Bft) O 93 0 min 0,000 mm 0,0 UV-I 0 W/m 9,5 C 9,7 C 16,1 km/h (3 Bft) 96,15 %
21.05.2018 01:27 12,7 C 17,8 C 81 % 1017,2 hPa 0,0 l/m 11,2 km/h (2 Bft) O-NO 78 0 min 0,000 mm 0,0 UV-I 0 W/m 9,5 C 10,0 C 14,5 km/h (3 Bft) 95,83 %
21.05.2018 01:28 12,7 C 17,8 C 81 % 1017,2 hPa 0,0 l/m 8,9 km/h (2 Bft) O-SO 106 0 min 0,000 mm 0,0 UV-I 0 W/m 9,5 C 11,2 C 14,5 km/h (3 Bft) 100,00 %
21.05.2018 01:29 12,7 C 17,8 C 81 % 1017,2 hPa 0,0 l/m 9,7 km/h (2 Bft) O-NO 75 0 min 0,000 mm 0,0 UV-I 0 W/m 9,5 C 10,7 C 12,9 km/h (3 Bft) 96,67 %
21.05.2018 01:30 12,7 C 17,8 C 81 % 1017,2 hPa 0,0 l/m 9,0 km/h (2 Bft) NO 54 0 min 0,000 mm 0,0 UV-I 0 W/m 9,5 C 11,1 C 12,9 km/h (3 Bft) 100,00 %
21.05.2018 01:31 12,7 C 17,8 C 81 % 1017,2 hPa 0,0 l/m 10,1 km/h (2 Bft) O 86 0 min 0,000 mm 0,0 UV-I 0 W/m 9,5 C 10,5 C 12,9 km/h (3 Bft) 96,67 %
21.05.2018 01:32 12,7 C 17,8 C 81 % 1017,2 hPa 0,0 l/m 12,6 km/h (3 Bft) O-NO 78 0 min 0,000 mm 0,0 UV-I 0 W/m 9,5 C 9,4 C 16,1 km/h (3 Bft) 91,30 %
21.05.2018 01:33 12,7 C 17,8 C 81 % 1017,2 hPa 0,0 l/m 11,2 km/h (2 Bft) O-NO 75 0 min 0,000 mm 0,0 UV-I 0 W/m 9,5 C 10,0 C 14,5 km/h (3 Bft) 100,00 %
21.05.2018 01:34 12,7 C 17,8 C 81 % 1017,1 hPa 0,0 l/m 8,9 km/h (2 Bft) O-NO 76 0 min 0,000 mm 0,0 UV-I 0 W/m 9,5 C 11,2 C 12,9 km/h (3 Bft) 94,74 %
21.05.2018 01:35 12,7 C 17,8 C 81 % 1017,1 hPa 0,0 l/m 10,7 km/h (2 Bft) NO 53 0 min 0,000 mm 0,0 UV-I 0 W/m 9,5 C 10,2 C 14,5 km/h (3 Bft) 100,00 %
21.05.2018 01:36 12,7 C 17,8 C 81 % 1017,1 hPa 0,0 l/m 9,4 km/h (2 Bft) O-NO 76 0 min 0,000 mm 0,0 UV-I 0 W/m 9,5 C 10,9 C 14,5 km/h (3 Bft) 100,00 %
21.05.2018 01:37 12,6 C 17,8 C 81 % 1017,1 hPa 0,0 l/m 10,4 km/h (2 Bft) O 80 0 min 0,000 mm 0,0 UV-I 0 W/m 9,4 C 10,3 C 14,5 km/h (3 Bft) 96,55 %
21.05.2018 01:38 12,6 C 17,8 C 81 % 1017,1 hPa 0,0 l/m 7,7 km/h (2 Bft) O 90 0 min 0,000 mm 0,0 UV-I 0 W/m 9,4 C 11,8 C 11,3 km/h (2 Bft) 100,00 %
21.05.2018 01:39 12,6 C 17,8 C 81 % 1017,1 hPa 0,0 l/m 11,7 km/h (2 Bft) O 82 0 min 0,000 mm 0,0 UV-I 0 W/m 9,4 C 9,6 C 16,1 km/h (3 Bft) 100,00 %
21.05.2018 01:40 12,6 C 17,8 C 81 % 1017,1 hPa 0,0 l/m 9,7 km/h (2 Bft) O-NO 78 0 min 0,000 mm 0,0 UV-I 0 W/m 9,4 C 10,6 C 12,9 km/h (3 Bft) 97,37 %
21.05.2018 01:41 12,6 C 17,8 C 81 % 1017,1 hPa 0,0 l/m 9,1 km/h (2 Bft) O-NO 74 0 min 0,000 mm 0,0 UV-I 0 W/m 9,4 C 10,9 C 14,5 km/h (3 Bft) 97,37 %
21.05.2018 01:42 12,6 C 17,8 C 81 % 1017,1 hPa 0,0 l/m 9,6 km/h (2 Bft) NO 53 0 min 0,000 mm 0,0 UV-I 0 W/m 9,4 C 10,7 C 12,9 km/h (3 Bft) 100,00 %
21.05.2018 01:43 12,6 C 17,8 C 81 % 1017,0 hPa 0,0 l/m 11,0 km/h (2 Bft) O-NO 71 0 min 0,000 mm 0,0 UV-I 0 W/m 9,4 C 10,0 C 14,5 km/h (3 Bft) 95,65 %
21.05.2018 01:44 12,6 C 17,8 C 81 % 1017,0 hPa 0,0 l/m 10,7 km/h (2 Bft) O 87 0 min 0,000 mm 0,0 UV-I 0 W/m 9,4 C 10,1 C 14,5 km/h (3 Bft) 100,00 %
21.05.2018 01:45 12,6 C 17,8 C 81 % 1017,0 hPa 0,0 l/m 11,8 km/h (2 Bft) O-NO 72 0 min 0,000 mm 0,0 UV-I 0 W/m 9,4 C 9,6 C 16,1 km/h (3 Bft) 100,00 %
21.05.2018 01:46 12,6 C 17,8 C 81 % 1016,9 hPa 0,0 l/m 11,0 km/h (2 Bft) O 90 0 min 0,000 mm 0,0 UV-I 0 W/m 9,4 C 10,0 C 14,5 km/h (3 Bft) 100,00 %
21.05.2018 01:47 12,6 C 17,8 C 81 % 1016,9 hPa 0,0 l/m 9,1 km/h (2 Bft) O-NO 63 0 min 0,000 mm 0,0 UV-I 0 W/m 9,4 C 10,9 C 14,5 km/h (3 Bft) 100,00 %
21.05.2018 01:48 12,6 C 17,8 C 81 % 1016,9 hPa 0,0 l/m 14,2 km/h (3 Bft) O-NO 78 0 min 0,000 mm 0,0 UV-I 0 W/m 9,4 C 8,6 C 16,1 km/h (3 Bft) 100,00 %
21.05.2018 01:49 12,6 C 17,8 C 80 % 1016,9 hPa 0,0 l/m 13,3 km/h (3 Bft) O 79 0 min 0,000 mm 0,0 UV-I 0 W/m 9,2 C 9,0 C 17,7 km/h (3 Bft) 100,00 %
21.05.2018 01:50 12,7 C 17,8 C 80 % 1016,8 hPa 0,0 l/m 13,0 km/h (3 Bft) O 86 0 min 0,000 mm 0,0 UV-I 0 W/m 9,3 C 9,2 C 17,7 km/h (3 Bft) 100,00 %
21.05.2018 01:51 12,7 C 17,8 C 79 % 1016,8 hPa 0,0 l/m 14,6 km/h (3 Bft) O-NO 71 0 min 0,000 mm 0,0 UV-I 0 W/m 9,2 C 8,6 C 19,3 km/h (3 Bft) 100,00 %
21.05.2018 01:52 12,8 C 17,8 C 79 % 1016,8 hPa 0,0 l/m 15,1 km/h (3 Bft) O 89 0 min 0,000 mm 0,0 UV-I 0 W/m 9,2 C 8,5 C 19,3 km/h (3 Bft) 100,00 %
21.05.2018 01:53 12,8 C 17,8 C 78 % 1016,8 hPa 0,0 l/m 14,6 km/h (3 Bft) O 88 0 min 0,000 mm 0,0 UV-I 0 W/m 9,1 C 8,7 C 17,7 km/h (3 Bft) 100,00 %
21.05.2018 01:54 12,9 C 17,8 C 78 % 1016,8 hPa 0,0 l/m 15,9 km/h (3 Bft) O 87 0 min 0,000 mm 0,0 UV-I 0 W/m 9,2 C 8,3 C 19,3 km/h (3 Bft) 100,00 %
21.05.2018 01:55 13,0 C 17,8 C 78 % 1016,8 hPa 0,0 l/m 15,2 km/h (3 Bft) O-NO 62 0 min 0,000 mm 0,0 UV-I 0 W/m 9,3 C 8,7 C 17,7 km/h (3 Bft) 100,00 %
21.05.2018 01:56 13,0 C 17,8 C 77 % 1016,8 hPa 0,0 l/m 17,7 km/h (3 Bft) O 87 0 min 0,000 mm 0,0 UV-I 0 W/m 9,1 C 7,9 C 27,4 km/h (4 Bft) 100,00 %
21.05.2018 01:57 13,1 C 17,8 C 77 % 1016,8 hPa 0,0 l/m 17,7 km/h (3 Bft) O-NO 71 0 min 0,000 mm 0,0 UV-I 0 W/m 9,2 C 8,0 C 22,5 km/h (4 Bft) 100,00 %
21.05.2018 01:58 13,2 C 17,2 C 76 % 1016,8 hPa 0,0 l/m 16,8 km/h (3 Bft) O-NO 72 0 min 0,000 mm 0,0 UV-I 0 W/m 9,1 C 8,4 C 20,9 km/h (4 Bft) 100,00 %
21.05.2018 01:59 13,2 C 17,2 C 76 % 1016,8 hPa 0,0 l/m 18,0 km/h (3 Bft) O-NO 75 0 min 0,000 mm 0,0 UV-I 0 W/m 9,1 C 8,0 C 20,9 km/h (4 Bft) 100,00 %
21.05.2018 02:00 13,3 C 17,2 C 76 % 1016,8 hPa 0,0 l/m 15,3 km/h (3 Bft) O-NO 58 0 min 0,000 mm 0,0 UV-I 0 W/m 9,2 C 9,0 C 20,9 km/h (4 Bft) 100,00 %
21.05.2018 02:01 13,3 C 17,2 C 76 % 1016,8 hPa 0,0 l/m 17,0 km/h (3 Bft) O-NO 59 0 min 0,026 mm 0,0 UV-I 0 W/m 9,2 C 8,5 C 19,3 km/h (3 Bft) 100,00 %
21.05.2018 02:02 13,3 C 17,2 C 75 % 1016,8 hPa 0,0 l/m 13,7 km/h (3 Bft) O-NO 76 0 min 0,000 mm 0,0 UV-I 0 W/m 9,0 C 9,6 C 20,9 km/h (4 Bft) 100,00 %
21.05.2018 02:03 13,3 C 17,8 C 75 % 1016,7 hPa 0,0 l/m 16,2 km/h (3 Bft) O-NO 76 0 min 0,000 mm 0,0 UV-I 0 W/m 9,0 C 8,7 C 20,9 km/h (4 Bft) 100,00 %
21.05.2018 02:04 13,3 C 17,8 C 75 % 1016,8 hPa 0,0 l/m 14,2 km/h (3 Bft) O-NO 67 0 min 0,000 mm 0,0 UV-I 0 W/m 9,0 C 9,4 C 17,7 km/h (3 Bft) 100,00 %
21.05.2018 02:05 13,3 C 17,8 C 75 % 1016,7 hPa 0,0 l/m 16,1 km/h (3 Bft) O-NO 71 0 min 0,000 mm 0,0 UV-I 0 W/m 9,0 C 8,7 C 22,5 km/h (4 Bft) 100,00 %
21.05.2018 02:06 13,3 C 17,8 C 75 % 1016,7 hPa 0,0 l/m 14,9 km/h (3 Bft) O-NO 78 0 min 0,000 mm 0,0 UV-I 0 W/m 9,0 C 9,2 C 20,9 km/h (4 Bft) 91,67 %
21.05.2018 02:07 13,4 C 17,8 C 75 % 1016,7 hPa 0,0 l/m 14,3 km/h (3 Bft) O 87 0 min 0,000 mm 0,0 UV-I 0 W/m 9,1 C 9,5 C 17,7 km/h (3 Bft) 100,00 %
21.05.2018 02:08 13,3 C 17,8 C 75 % 1016,7 hPa 0,0 l/m 16,8 km/h (3 Bft) O-NO 63 0 min 0,000 mm 0,0 UV-I 0 W/m 9,0 C 8,5 C 20,9 km/h (4 Bft) 100,00 %
21.05.2018 02:09 13,3 C 17,8 C 76 % 1016,6 hPa 0,0 l/m 15,4 km/h (3 Bft) NO 56 0 min 0,000 mm 0,0 UV-I 0 W/m 9,2 C 9,0 C 20,9 km/h (4 Bft) 100,00 %
21.05.2018 02:10 13,3 C 17,8 C 76 % 1016,6 hPa 0,0 l/m 16,3 km/h (3 Bft) O-NO 76 0 min 0,000 mm 0,0 UV-I 0 W/m 9,2 C 8,7 C 20,9 km/h (4 Bft) 95,65 %
21.05.2018 02:11 13,3 C 17,8 C 76 % 1016,6 hPa 0,0 l/m 13,9 km/h (3 Bft) O-NO 72 0 min 0,000 mm 0,0 UV-I 0 W/m 9,2 C 9,5 C 17,7 km/h (3 Bft) 100,00 %
21.05.2018 02:12 13,3 C 17,8 C 76 % 1016,6 hPa 0,0 l/m 15,1 km/h (3 Bft) O-NO 76 0 min 0,000 mm 0,0 UV-I 0 W/m 9,2 C 9,1 C 19,3 km/h (3 Bft) 100,00 %
21.05.2018 02:13 13,3 C 17,8 C 76 % 1016,6 hPa 0,0 l/m 12,6 km/h (3 Bft) O-SO 107 0 min 0,000 mm 0,0 UV-I 0 W/m 9,2 C 10,1 C 17,7 km/h (3 Bft) 100,00 %
21.05.2018 02:14 13,3 C 17,8 C 76 % 1016,6 hPa 0,0 l/m 12,6 km/h (3 Bft) O-NO 78 0 min 0,000 mm 0,0 UV-I 0 W/m 9,2 C 10,1 C 17,7 km/h (3 Bft) 100,00 %
21.05.2018 02:15 13,2 C 17,8 C 76 % 1016,6 hPa 0,0 l/m 14,4 km/h (3 Bft) O 85 0 min 0,000 mm 0,0 UV-I 0 W/m 9,1 C 9,2 C 19,3 km/h (3 Bft) 100,00 %
21.05.2018 02:16 13,2 C 17,8 C 76 % 1016,6 hPa 0,0 l/m 14,1 km/h (3 Bft) O 92 0 min 0,000 mm 0,0 UV-I 0 W/m 9,1 C 9,3 C 17,7 km/h (3 Bft) 100,00 %
21.05.2018 02:17 13,2 C 17,8 C 76 % 1016,6 hPa 0,0 l/m 14,0 km/h (3 Bft) O 80 0 min 0,000 mm 0,0 UV-I 0 W/m 9,1 C 9,4 C 19,3 km/h (3 Bft) 92,86 %
21.05.2018 02:18 13,1 C 17,8 C 76 % 1016,6 hPa 0,0 l/m 15,0 km/h (3 Bft) O-NO 73 0 min 0,000 mm 0,0 UV-I 0 W/m 9,0 C 8,9 C 19,3 km/h (3 Bft) 100,00 %
21.05.2018 02:19 13,1 C 17,8 C 76 % 1016,6 hPa 0,0 l/m 15,4 km/h (3 Bft) O-NO 78 0 min 0,000 mm 0,0 UV-I 0 W/m 9,0 C 8,7 C 19,3 km/h (3 Bft) 100,00 %
21.05.2018 02:20 13,1 C 17,8 C 77 % 1016,6 hPa 0,0 l/m 13,3 km/h (3 Bft) O-NO 73 0 min 0,000 mm 0,0 UV-I 0 W/m 9,2 C 9,5 C 20,9 km/h (4 Bft) 100,00 %
21.05.2018 02:21 13,1 C 17,8 C 77 % 1016,6 hPa 0,0 l/m 14,7 km/h (3 Bft) O 84 0 min 0,000 mm 0,0 UV-I 0 W/m 9,2 C 9,0 C 17,7 km/h (3 Bft) 100,00 %
21.05.2018 02:22 13,1 C 17,8 C 77 % 1016,6 hPa 0,0 l/m 13,7 km/h (3 Bft) O 95 0 min 0,000 mm 0,0 UV-I 0 W/m 9,2 C 9,4 C 16,1 km/h (3 Bft) 100,00 %
21.05.2018 02:23 13,0 C 17,8 C 77 % 1016,6 hPa 0,0 l/m 14,3 km/h (3 Bft) O-NO 66 0 min 0,000 mm 0,0 UV-I 0 W/m 9,1 C 9,0 C 19,3 km/h (3 Bft) 100,00 %
21.05.2018 02:24 13,0 C 17,8 C 77 % 1016,6 hPa 0,0 l/m 15,2 km/h (3 Bft) O-NO 78 0 min 0,000 mm 0,0 UV-I 0 W/m 9,1 C 8,7 C 24,1 km/h (4 Bft) 95,83 %
21.05.2018 02:25 13,0 C 17,8 C 77 % 1016,5 hPa 0,0 l/m 15,2 km/h (3 Bft) O-NO 69 0 min 0,000 mm 0,0 UV-I 0 W/m 9,1 C 8,7 C 17,7 km/h (3 Bft) 96,15 %
21.05.2018 02:26 13,0 C 17,8 C 77 % 1016,5 hPa 0,0 l/m 14,9 km/h (3 Bft) O 84 0 min 0,000 mm 0,0 UV-I 0 W/m 9,1 C 8,8 C 20,9 km/h (4 Bft) 100,00 %
21.05.2018 02:27 12,9 C 17,8 C 77 % 1016,5 hPa 0,0 l/m 11,6 km/h (2 Bft) O-NO 67 0 min 0,000 mm 0,0 UV-I 0 W/m 9,0 C 10,0 C 14,5 km/h (3 Bft) 100,00 %
21.05.2018 02:28 13,0 C 17,8 C 77 % 1016,5 hPa 0,0 l/m 13,9 km/h (3 Bft) NO 54 0 min 0,000 mm 0,0 UV-I 0 W/m 9,1 C 9,2 C 16,1 km/h (3 Bft) 94,44 %
21.05.2018 02:29 13,0 C 17,8 C 77 % 1016,5 hPa 0,0 l/m 17,0 km/h (3 Bft) O-NO 62 0 min 0,000 mm 0,0 UV-I 0 W/m 9,1 C 8,1 C 24,1 km/h (4 Bft) 100,00 %
21.05.2018 02:30 13,0 C 17,8 C 77 % 1016,5 hPa 0,0 l/m 15,7 km/h (3 Bft) O-NO 76 0 min 0,000 mm 0,0 UV-I 0 W/m 9,1 C 8,5 C 19,3 km/h (3 Bft) 96,15 %
21.05.2018 02:31 13,1 C 17,2 C 77 % 1016,5 hPa 0,0 l/m 11,2 km/h (2 Bft) O-NO 65 0 min 0,000 mm 0,0 UV-I 0 W/m 9,2 C 10,4 C 14,5 km/h (3 Bft) 100,00 %
21.05.2018 02:32 13,1 C 17,2 C 77 % 1016,5 hPa 0,0 l/m 12,8 km/h (3 Bft) O 80 0 min 0,000 mm 0,0 UV-I 0 W/m 9,2 C 9,7 C 17,7 km/h (3 Bft) 100,00 %
21.05.2018 02:33 13,1 C 17,2 C 77 % 1016,4 hPa 0,0 l/m 14,4 km/h (3 Bft) O 92 0 min 0,000 mm 0,0 UV-I 0 W/m 9,2 C 9,1 C 19,3 km/h (3 Bft) 100,00 %
21.05.2018 02:34 13,1 C 17,2 C 77 % 1016,4 hPa 0,0 l/m 11,7 km/h (2 Bft) O 94 0 min 0,000 mm 0,0 UV-I 0 W/m 9,2 C 10,2 C 14,5 km/h (3 Bft) 100,00 %
21.05.2018 02:35 13,1 C 17,2 C 77 % 1016,4 hPa 0,0 l/m 14,3 km/h (3 Bft) O-NO 77 0 min 0,000 mm 0,0 UV-I 0 W/m 9,2 C 9,1 C 17,7 km/h (3 Bft) 100,00 %
21.05.2018 02:36 13,1 C 17,2 C 77 % 1016,4 hPa 0,0 l/m 13,1 km/h (3 Bft) O-NO 74 0 min 0,000 mm 0,0 UV-I 0 W/m 9,2 C 9,6 C 14,5 km/h (3 Bft) 100,00 %
21.05.2018 02:37 13,0 C 17,2 C 77 % 1016,4 hPa 0,0 l/m 13,4 km/h (3 Bft) O 82 0 min 0,000 mm 0,0 UV-I 0 W/m 9,1 C 9,4 C 17,7 km/h (3 Bft) 100,00 %
21.05.2018 02:38 13,0 C 17,2 C 77 % 1016,4 hPa 0,0 l/m 11,0 km/h (2 Bft) O-NO 72 0 min 0,000 mm 0,0 UV-I 0 W/m 9,1 C 10,4 C 14,5 km/h (3 Bft) 95,65 %
21.05.2018 02:39 12,9 C 17,2 C 77 % 1016,4 hPa 0,0 l/m 8,2 km/h (2 Bft) O-NO 70 0 min 0,000 mm 0,0 UV-I 0 W/m 9,0 C 11,8 C 11,3 km/h (2 Bft) 100,00 %
21.05.2018 02:40 12,9 C 17,2 C 77 % 1016,3 hPa 0,0 l/m 10,7 km/h (2 Bft) O 94 0 min 0,000 mm 0,0 UV-I 0 W/m 9,0 C 10,5 C 19,3 km/h (3 Bft) 100,00 %
21.05.2018 02:41 12,9 C 17,2 C 78 % 1016,3 hPa 0,0 l/m 15,9 km/h (3 Bft) O-NO 62 0 min 0,000 mm 0,0 UV-I 0 W/m 9,2 C 8,3 C 20,9 km/h (4 Bft) 100,00 %
21.05.2018 02:42 12,9 C 17,2 C 78 % 1016,3 hPa 0,0 l/m 12,6 km/h (3 Bft) O-NO 77 0 min 0,000 mm 0,0 UV-I 0 W/m 9,2 C 9,6 C 19,3 km/h (3 Bft) 100,00 %
21.05.2018 02:43 12,9 C 17,2 C 78 % 1016,3 hPa 0,0 l/m 15,1 km/h (3 Bft) O-NO 67 0 min 0,000 mm 0,0 UV-I 0 W/m 9,2 C 8,6 C 20,9 km/h (4 Bft) 91,67 %
21.05.2018 02:44 12,9 C 17,2 C 78 % 1016,3 hPa 0,0 l/m 16,8 km/h (3 Bft) O-NO 69 0 min 0,000 mm 0,0 UV-I 0 W/m 9,2 C 8,0 C 20,9 km/h (4 Bft) 96,15 %
21.05.2018 02:45 12,9 C 17,2 C 78 % 1016,3 hPa 0,0 l/m 13,5 km/h (3 Bft) O 93 0 min 0,000 mm 0,0 UV-I 0 W/m 9,2 C 9,2 C 17,7 km/h (3 Bft) 100,00 %
21.05.2018 02:46 12,9 C 17,2 C 78 % 1016,3 hPa 0,0 l/m 11,2 km/h (2 Bft) O-NO 63 0 min 0,000 mm 0,0 UV-I 0 W/m 9,2 C 10,2 C 17,7 km/h (3 Bft) 100,00 %
21.05.2018 02:47 12,9 C 17,2 C 78 % 1016,3 hPa 0,0 l/m 12,6 km/h (3 Bft) O-NO 65 0 min 0,000 mm 0,0 UV-I 0 W/m 9,2 C 9,6 C 17,7 km/h (3 Bft) 100,00 %
21.05.2018 02:48 12,9 C 17,2 C 77 % 1016,3 hPa 0,0 l/m 15,7 km/h (3 Bft) O-NO 76 0 min 0,000 mm 0,0 UV-I 0 W/m 9,0 C 8,4 C 19,3 km/h (3 Bft) 100,00 %
21.05.2018 02:49 13,0 C 17,2 C 77 % 1016,3 hPa 0,0 l/m 15,2 km/h (3 Bft) O 94 0 min 0,000 mm 0,0 UV-I 0 W/m 9,1 C 8,7 C 20,9 km/h (4 Bft) 100,00 %
21.05.2018 02:50 13,0 C 17,2 C 77 % 1016,3 hPa 0,0 l/m 16,2 km/h (3 Bft) O 88 0 min 0,000 mm 0,0 UV-I 0 W/m 9,1 C 8,3 C 20,9 km/h (4 Bft) 95,65 %
21.05.2018 02:51 13,0 C 17,2 C 77 % 1016,3 hPa 0,0 l/m 13,4 km/h (3 Bft) O-NO 69 0 min 0,000 mm 0,0 UV-I 0 W/m 9,1 C 9,4 C 16,1 km/h (3 Bft) 100,00 %
21.05.2018 02:52 13,0 C 17,2 C 77 % 1016,3 hPa 0,0 l/m 10,6 km/h (2 Bft) O-NO 70 0 min 0,000 mm 0,0 UV-I 0 W/m 9,1 C 10,6 C 14,5 km/h (3 Bft) 100,00 %
21.05.2018 02:53 13,0 C 17,2 C 78 % 1016,2 hPa 0,0 l/m 14,6 km/h (3 Bft) O-SO 105 0 min 0,000 mm 0,0 UV-I 0 W/m 9,3 C 8,9 C 20,9 km/h (4 Bft) 100,00 %
21.05.2018 02:54 13,1 C 17,2 C 77 % 1016,2 hPa 0,0 l/m 14,2 km/h (3 Bft) O-NO 74 0 min 0,000 mm 0,0 UV-I 0 W/m 9,2 C 9,2 C 16,1 km/h (3 Bft) 100,00 %
21.05.2018 02:55 13,1 C 17,2 C 77 % 1016,3 hPa 0,0 l/m 13,9 km/h (3 Bft) O-SO 106 0 min 0,000 mm 0,0 UV-I 0 W/m 9,2 C 9,3 C 17,7 km/h (3 Bft) 100,00 %
21.05.2018 02:56 13,1 C 17,2 C 77 % 1016,2 hPa 0,0 l/m 16,2 km/h (3 Bft) O 86 0 min 0,000 mm 0,0 UV-I 0 W/m 9,2 C 8,5 C 22,5 km/h (4 Bft) 100,00 %
21.05.2018 02:57 13,1 C 17,2 C 77 % 1016,2 hPa 0,0 l/m 15,5 km/h (3 Bft) O 79 0 min 0,000 mm 0,0 UV-I 0 W/m 9,2 C 8,7 C 20,9 km/h (4 Bft) 100,00 %
21.05.2018 02:58 13,1 C 17,2 C 77 % 1016,2 hPa 0,0 l/m 13,6 km/h (3 Bft) O 88 0 min 0,000 mm 0,0 UV-I 0 W/m 9,2 C 9,4 C 17,7 km/h (3 Bft) 100,00 %
21.05.2018 02:59 13,1 C 17,2 C 77 % 1016,2 hPa 0,0 l/m 13,5 km/h (3 Bft) O-NO 65 0 min 0,000 mm 0,0 UV-I 0 W/m 9,2 C 9,5 C 17,7 km/h (3 Bft) 100,00 %
21.05.2018 03:00 13,1 C 17,2 C 77 % 1016,2 hPa 0,0 l/m 14,1 km/h (3 Bft) O-NO 70 0 min 0,051 mm 0,0 UV-I 0 W/m 9,2 C 9,2 C 17,7 km/h (3 Bft) 96,30 %
21.05.2018 03:02 13,1 C 17,2 C 77 % 1016,1 hPa 0,0 l/m 13,1 km/h (3 Bft) NO 53 0 min 0,000 mm 0,0 UV-I 0 W/m 9,2 C 9,6 C 17,7 km/h (3 Bft) 97,87 %
21.05.2018 03:03 13,1 C 17,2 C 77 % 1016,1 hPa 0,0 l/m 13,9 km/h (3 Bft) O-NO 71 0 min 0,000 mm 0,0 UV-I 0 W/m 9,2 C 9,3 C 19,3 km/h (3 Bft) 100,00 %
21.05.2018 03:04 13,1 C 17,2 C 77 % 1016,2 hPa 0,0 l/m 16,5 km/h (3 Bft) O-NO 78 0 min 0,000 mm 0,0 UV-I 0 W/m 9,2 C 8,4 C 19,3 km/h (3 Bft) 96,15 %
21.05.2018 03:05 13,1 C 17,2 C 77 % 1016,1 hPa 0,0 l/m 14,3 km/h (3 Bft) NO 55 0 min 0,000 mm 0,0 UV-I 0 W/m 9,2 C 9,1 C 17,7 km/h (3 Bft) 100,00 %
21.05.2018 03:06 13,0 C 17,2 C 78 % 1016,0 hPa 0,0 l/m 17,2 km/h (3 Bft) O-NO 70 0 min 0,000 mm 0,0 UV-I 0 W/m 9,3 C 8,0 C 27,4 km/h (4 Bft) 91,67 %
21.05.2018 03:07 13,0 C 17,2 C 78 % 1016,0 hPa 0,0 l/m 14,4 km/h (3 Bft) O-NO 66 0 min 0,000 mm 0,0 UV-I 0 W/m 9,3 C 9,0 C 19,3 km/h (3 Bft) 100,00 %
21.05.2018 03:08 13,0 C 17,2 C 78 % 1015,9 hPa 0,0 l/m 13,4 km/h (3 Bft) O 86 0 min 0,000 mm 0,0 UV-I 0 W/m 9,3 C 9,4 C 17,7 km/h (3 Bft) 95,65 %
21.05.2018 03:09 13,0 C 17,2 C 78 % 1016,0 hPa 0,0 l/m 12,6 km/h (3 Bft) O-NO 72 0 min 0,000 mm 0,0 UV-I 0 W/m 9,3 C 9,7 C 17,7 km/h (3 Bft) 96,30 %
21.05.2018 03:10 13,0 C 17,2 C 78 % 1015,9 hPa 0,0 l/m 13,4 km/h (3 Bft) O-NO 75 0 min 0,000 mm 0,0 UV-I 0 W/m 9,3 C 9,4 C 20,9 km/h (4 Bft) 100,00 %
21.05.2018 03:11 13,0 C 17,2 C 78 % 1015,9 hPa 0,0 l/m 16,0 km/h (3 Bft) O-NO 70 0 min 0,000 mm 0,0 UV-I 0 W/m 9,3 C 8,4 C 19,3 km/h (3 Bft) 95,83 %
21.05.2018 03:12 12,9 C 17,2 C 78 % 1016,0 hPa 0,0 l/m 14,9 km/h (3 Bft) O-NO 74 0 min 0,000 mm 0,0 UV-I 0 W/m 9,2 C 8,7 C 22,5 km/h (4 Bft) 100,00 %
21.05.2018 03:13 12,9 C 17,2 C 78 % 1015,9 hPa 0,0 l/m 15,8 km/h (3 Bft) O 79 0 min 0,000 mm 0,0 UV-I 0 W/m 9,2 C 8,4 C 17,7 km/h (3 Bft) 95,83 %
21.05.2018 03:14 12,9 C 17,2 C 78 % 1015,9 hPa 0,0 l/m 16,3 km/h (3 Bft) O 87 0 min 0,000 mm 0,0 UV-I 0 W/m 9,2 C 8,2 C 22,5 km/h (4 Bft) 100,00 %
21.05.2018 03:15 12,9 C 17,2 C 78 % 1015,9 hPa 0,0 l/m 15,9 km/h (3 Bft) O-SO 103 0 min 0,000 mm 0,0 UV-I 0 W/m 9,2 C 8,3 C 20,9 km/h (4 Bft) 96,30 %
21.05.2018 03:16 12,9 C 17,2 C 78 % 1015,9 hPa 0,0 l/m 15,8 km/h (3 Bft) O 80 0 min 0,000 mm 0,0 UV-I 0 W/m 9,2 C 8,4 C 19,3 km/h (3 Bft) 100,00 %
21.05.2018 03:17 12,9 C 17,2 C 78 % 1015,9 hPa 0,0 l/m 15,3 km/h (3 Bft) O-NO 76 0 min 0,000 mm 0,0 UV-I 0 W/m 9,2 C 8,5 C 22,5 km/h (4 Bft) 96,67 %
21.05.2018 03:18 12,9 C 17,2 C 78 % 1015,9 hPa 0,0 l/m 12,5 km/h (3 Bft) NO 44 0 min 0,000 mm 0,0 UV-I 0 W/m 9,2 C 9,6 C 16,1 km/h (3 Bft) 96,15 %
21.05.2018 03:19 12,9 C 17,2 C 78 % 1015,9 hPa 0,0 l/m 13,9 km/h (3 Bft) O 98 0 min 0,000 mm 0,0 UV-I 0 W/m 9,2 C 9,1 C 19,3 km/h (3 Bft) 100,00 %
21.05.2018 03:20 12,9 C 17,2 C 78 % 1015,8 hPa 0,0 l/m 15,0 km/h (3 Bft) O-NO 74 0 min 0,000 mm 0,0 UV-I 0 W/m 9,2 C 8,6 C 20,9 km/h (4 Bft) 92,86 %
21.05.2018 03:21 12,9 C 17,2 C 78 % 1015,8 hPa 0,0 l/m 13,7 km/h (3 Bft) O-NO 63 0 min 0,000 mm 0,0 UV-I 0 W/m 9,2 C 9,1 C 19,3 km/h (3 Bft) 100,00 %
21.05.2018 03:22 12,9 C 17,2 C 78 % 1015,8 hPa 0,0 l/m 13,1 km/h (3 Bft) O 79 0 min 0,000 mm 0,0 UV-I 0 W/m 9,2 C 9,4 C 20,9 km/h (4 Bft) 95,65 %
21.05.2018 03:23 12,9 C 17,2 C 79 % 1015,8 hPa 0,0 l/m 11,9 km/h (2 Bft) O-NO 59 0 min 0,000 mm 0,0 UV-I 0 W/m 9,3 C 9,9 C 16,1 km/h (3 Bft) 100,00 %
21.05.2018 03:24 12,8 C 17,2 C 79 % 1015,8 hPa 0,0 l/m 11,4 km/h (2 Bft) O 86 0 min 0,000 mm 0,0 UV-I 0 W/m 9,2 C 10,0 C 16,1 km/h (3 Bft) 96,15 %
21.05.2018 03:25 12,8 C 17,2 C 79 % 1015,9 hPa 0,0 l/m 15,6 km/h (3 Bft) O 79 0 min 0,000 mm 0,0 UV-I 0 W/m 9,2 C 8,3 C 22,5 km/h (4 Bft) 95,83 %
21.05.2018 03:26 12,8 C 17,2 C 79 % 1015,8 hPa 0,0 l/m 15,7 km/h (3 Bft) O-NO 70 0 min 0,000 mm 0,0 UV-I 0 W/m 9,2 C 8,3 C 22,5 km/h (4 Bft) 100,00 %
21.05.2018 03:27 12,9 C 17,2 C 79 % 1015,8 hPa 0,0 l/m 13,5 km/h (3 Bft) NO 49 0 min 0,000 mm 0,0 UV-I 0 W/m 9,3 C 9,2 C 17,7 km/h (3 Bft) 95,83 %
21.05.2018 03:28 12,9 C 17,2 C 79 % 1015,8 hPa 0,0 l/m 15,7 km/h (3 Bft) O-NO 59 0 min 0,000 mm 0,0 UV-I 0 W/m 9,3 C 8,4 C 22,5 km/h (4 Bft) 100,00 %
21.05.2018 03:29 12,8 C 17,2 C 79 % 1015,9 hPa 0,0 l/m 14,5 km/h (3 Bft) O-SO 102 0 min 0,000 mm 0,0 UV-I 0 W/m 9,2 C 8,7 C 19,3 km/h (3 Bft) 93,33 %
21.05.2018 03:30 12,8 C 17,2 C 79 % 1015,9 hPa 0,0 l/m 16,2 km/h (3 Bft) O-NO 57 0 min 0,000 mm 0,0 UV-I 0 W/m 9,2 C 8,1 C 22,5 km/h (4 Bft) 100,00 %
21.05.2018 03:31 12,8 C 17,2 C 79 % 1015,9 hPa 0,0 l/m 15,2 km/h (3 Bft) O 86 0 min 0,000 mm 0,0 UV-I 0 W/m 9,2 C 8,5 C 25,7 km/h (4 Bft) 95,65 %
21.05.2018 03:32 12,8 C 17,2 C 79 % 1015,8 hPa 0,0 l/m 14,6 km/h (3 Bft) O-NO 65 0 min 0,000 mm 0,0 UV-I 0 W/m 9,2 C 8,7 C 20,9 km/h (4 Bft) 100,00 %
21.05.2018 03:33 12,9 C 17,2 C 79 % 1015,9 hPa 0,0 l/m 17,9 km/h (3 Bft) O-NO 69 0 min 0,000 mm 0,0 UV-I 0 W/m 9,3 C 7,7 C 24,1 km/h (4 Bft) 95,65 %
21.05.2018 03:34 12,9 C 17,2 C 79 % 1015,8 hPa 0,0 l/m 15,8 km/h (3 Bft) O 81 0 min 0,000 mm 0,0 UV-I 0 W/m 9,3 C 8,4 C 20,9 km/h (4 Bft) 100,00 %
21.05.2018 03:35 12,9 C 17,2 C 79 % 1015,9 hPa 0,0 l/m 16,4 km/h (3 Bft) O 85 0 min 0,000 mm 0,0 UV-I 0 W/m 9,3 C 8,2 C 22,5 km/h (4 Bft) 96,15 %
21.05.2018 03:36 12,9 C 17,2 C 79 % 1015,9 hPa 0,0 l/m 20,8 km/h (4 Bft) O-NO 74 0 min 0,000 mm 0,0 UV-I 0 W/m 9,3 C 6,8 C 25,7 km/h (4 Bft) 100,00 %
21.05.2018 03:37 12,9 C 17,2 C 79 % 1015,8 hPa 0,0 l/m 20,2 km/h (4 Bft) O-NO 75 0 min 0,000 mm 0,0 UV-I 0 W/m 9,3 C 7,0 C 27,4 km/h (4 Bft) 100,00 %
21.05.2018 03:38 13,0 C 17,2 C 79 % 1015,9 hPa 0,0 l/m 17,1 km/h (3 Bft) O-NO 76 0 min 0,000 mm 0,0 UV-I 0 W/m 9,4 C 8,0 C 22,5 km/h (4 Bft) 100,00 %
21.05.2018 03:39 13,1 C 17,2 C 78 % 1015,9 hPa 0,0 l/m 17,9 km/h (3 Bft) O 84 0 min 0,000 mm 0,0 UV-I 0 W/m 9,4 C 7,9 C 22,5 km/h (4 Bft) 100,00 %
21.05.2018 03:40 13,1 C 17,2 C 78 % 1015,9 hPa 0,0 l/m 16,8 km/h (3 Bft) O 87 0 min 0,000 mm 0,0 UV-I 0 W/m 9,4 C 8,3 C 20,9 km/h (4 Bft) 96,30 %
21.05.2018 03:41 13,1 C 17,2 C 78 % 1015,9 hPa 0,0 l/m 19,7 km/h (3 Bft) O 87 0 min 0,000 mm 0,0 UV-I 0 W/m 9,4 C 7,4 C 32,2 km/h (5 Bft) 100,00 %
21.05.2018 03:42 13,1 C 17,2 C 78 % 1015,9 hPa 0,0 l/m 21,1 km/h (4 Bft) O 85 0 min 0,000 mm 0,0 UV-I 0 W/m 9,4 C 7,0 C 29,0 km/h (5 Bft) 100,00 %
21.05.2018 03:43 13,1 C 17,2 C 78 % 1015,9 hPa 0,0 l/m 14,7 km/h (3 Bft) O 94 0 min 0,000 mm 0,0 UV-I 0 W/m 9,4 C 9,0 C 19,3 km/h (3 Bft) 100,00 %
21.05.2018 03:44 13,1 C 17,2 C 78 % 1015,9 hPa 0,0 l/m 19,3 km/h (3 Bft) O-NO 62 0 min 0,000 mm 0,0 UV-I 0 W/m 9,4 C 7,5 C 27,4 km/h (4 Bft) 100,00 %
21.05.2018 03:45 13,1 C 17,2 C 78 % 1015,9 hPa 0,0 l/m 18,9 km/h (3 Bft) O 84 0 min 0,000 mm 0,0 UV-I 0 W/m 9,4 C 7,6 C 25,7 km/h (4 Bft) 100,00 %
21.05.2018 03:46 13,1 C 17,2 C 78 % 1015,9 hPa 0,0 l/m 18,0 km/h (3 Bft) O-NO 69 0 min 0,000 mm 0,0 UV-I 0 W/m 9,4 C 7,9 C 22,5 km/h (4 Bft) 96,55 %
21.05.2018 03:47 13,1 C 17,2 C 78 % 1015,9 hPa 0,0 l/m 17,2 km/h (3 Bft) O 94 0 min 0,000 mm 0,0 UV-I 0 W/m 9,4 C 8,1 C 20,9 km/h (4 Bft) 100,00 %
21.05.2018 03:48 13,1 C 17,2 C 78 % 1015,9 hPa 0,0 l/m 19,2 km/h (3 Bft) O-NO 68 0 min 0,000 mm 0,0 UV-I 0 W/m 9,4 C 7,5 C 24,1 km/h (4 Bft) 96,15 %
21.05.2018 03:49 13,1 C 17,2 C 78 % 1015,9 hPa 0,0 l/m 17,1 km/h (3 Bft) O 100 0 min 0,000 mm 0,0 UV-I 0 W/m 9,4 C 8,2 C 20,9 km/h (4 Bft) 94,44 %
21.05.2018 03:50 13,1 C 17,2 C 78 % 1015,9 hPa 0,0 l/m 15,6 km/h (3 Bft) O 89 0 min 0,000 mm 0,0 UV-I 0 W/m 9,4 C 8,7 C 19,3 km/h (3 Bft) 96,15 %
21.05.2018 03:51 13,1 C 17,2 C 78 % 1015,9 hPa 0,0 l/m 16,7 km/h (3 Bft) O-SO 103 0 min 0,000 mm 0,0 UV-I 0 W/m 9,4 C 8,3 C 22,5 km/h (4 Bft) 96,30 %
21.05.2018 03:52 13,1 C 17,2 C 78 % 1015,9 hPa 0,0 l/m 14,6 km/h (3 Bft) O-NO 78 0 min 0,000 mm 0,0 UV-I 0 W/m 9,4 C 9,0 C 20,9 km/h (4 Bft) 100,00 %
21.05.2018 03:53 13,1 C 17,2 C 78 % 1015,9 hPa 0,0 l/m 18,0 km/h (3 Bft) O 84 0 min 0,000 mm 0,0 UV-I 0 W/m 9,4 C 7,9 C 22,5 km/h (4 Bft) 95,83 %
21.05.2018 03:54 13,1 C 17,2 C 78 % 1015,8 hPa 0,0 l/m 17,1 km/h (3 Bft) O-NO 73 0 min 0,000 mm 0,0 UV-I 0 W/m 9,4 C 8,2 C 22,5 km/h (4 Bft) 100,00 %
21.05.2018 03:55 13,0 C 17,2 C 78 % 1015,8 hPa 0,0 l/m 17,8 km/h (3 Bft) O-NO 76 0 min 0,000 mm 0,0 UV-I 0 W/m 9,3 C 7,8 C 24,1 km/h (4 Bft) 95,83 %
21.05.2018 03:56 13,0 C 17,2 C 78 % 1015,8 hPa 0,0 l/m 20,5 km/h (4 Bft) O 91 0 min 0,000 mm 0,0 UV-I 0 W/m 9,3 C 7,0 C 27,4 km/h (4 Bft) 100,00 %
21.05.2018 03:57 13,0 C 17,2 C 78 % 1015,8 hPa 0,0 l/m 14,8 km/h (3 Bft) O 86 0 min 0,000 mm 0,0 UV-I 0 W/m 9,3 C 8,8 C 19,3 km/h (3 Bft) 93,33 %
21.05.2018 03:58 13,0 C 17,2 C 78 % 1015,8 hPa 0,0 l/m 16,2 km/h (3 Bft) O-NO 68 0 min 0,000 mm 0,0 UV-I 0 W/m 9,3 C 8,3 C 24,1 km/h (4 Bft) 100,00 %
21.05.2018 03:59 12,9 C 17,2 C 79 % 1015,8 hPa 0,0 l/m 22,5 km/h (4 Bft) O 79 0 min 0,000 mm 0,0 UV-I 0 W/m 9,3 C 6,4 C 29,0 km/h (5 Bft) 96,30 %
21.05.2018 04:00 13,0 C 17,2 C 79 % 1015,8 hPa 0,0 l/m 22,3 km/h (4 Bft) O-NO 68 0 min 0,050 mm 0,0 UV-I 0 W/m 9,4 C 6,5 C 29,0 km/h (5 Bft) 100,00 %
21.05.2018 04:01 13,0 C 17,2 C 78 % 1015,7 hPa 0,0 l/m 17,6 km/h (3 Bft) O 87 0 min 0,000 mm 0,0 UV-I 0 W/m 9,3 C 7,9 C 22,5 km/h (4 Bft) 100,00 %
21.05.2018 04:02 13,0 C 17,2 C 78 % 1015,8 hPa 0,0 l/m 16,0 km/h (3 Bft) O 100 0 min 0,000 mm 0,0 UV-I 0 W/m 9,3 C 8,4 C 19,3 km/h (3 Bft) 96,15 %
21.05.2018 04:03 13,0 C 17,2 C 78 % 1015,8 hPa 0,0 l/m 15,4 km/h (3 Bft) O-NO 59 0 min 0,000 mm 0,0 UV-I 0 W/m 9,3 C 8,6 C 22,5 km/h (4 Bft) 100,00 %
21.05.2018 04:04 13,0 C 17,2 C 79 % 1015,8 hPa 0,0 l/m 15,1 km/h (3 Bft) O 79 0 min 0,000 mm 0,0 UV-I 0 W/m 9,4 C 8,7 C 17,7 km/h (3 Bft) 95,65 %
21.05.2018 04:05 12,9 C 17,2 C 79 % 1015,8 hPa 0,0 l/m 14,1 km/h (3 Bft) O-NO 65 0 min 0,000 mm 0,0 UV-I 0 W/m 9,3 C 9,0 C 17,7 km/h (3 Bft) 100,00 %
21.05.2018 04:06 12,9 C 17,2 C 79 % 1015,8 hPa 0,0 l/m 18,3 km/h (3 Bft) O-NO 78 0 min 0,000 mm 0,0 UV-I 0 W/m 9,3 C 7,5 C 27,4 km/h (4 Bft) 96,88 %
21.05.2018 04:07 12,9 C 17,2 C 79 % 1015,8 hPa 0,0 l/m 22,2 km/h (4 Bft) O 88 0 min 0,000 mm 0,0 UV-I 0 W/m 9,3 C 6,4 C 29,0 km/h (5 Bft) 100,00 %
21.05.2018 04:08 12,9 C 17,2 C 79 % 1015,8 hPa 0,0 l/m 18,9 km/h (3 Bft) O-NO 66 0 min 0,000 mm 0,0 UV-I 0 W/m 9,3 C 7,4 C 27,4 km/h (4 Bft) 96,30 %
21.05.2018 04:09 12,9 C 17,2 C 79 % 1015,7 hPa 0,0 l/m 21,0 km/h (4 Bft) O 80 0 min 0,000 mm 0,0 UV-I 0 W/m 9,3 C 6,8 C 27,4 km/h (4 Bft) 100,00 %
21.05.2018 04:10 12,9 C 17,2 C 79 % 1015,7 hPa 0,0 l/m 23,0 km/h (4 Bft) O-SO 107 0 min 0,000 mm 0,0 UV-I 0 W/m 9,3 C 6,2 C 30,6 km/h (5 Bft) 96,67 %
21.05.2018 04:11 12,9 C 17,2 C 79 % 1015,7 hPa 0,0 l/m 17,5 km/h (3 Bft) O 98 0 min 0,000 mm 0,0 UV-I 0 W/m 9,3 C 7,8 C 27,4 km/h (4 Bft) 100,00 %
21.05.2018 04:12 12,9 C 17,2 C 79 % 1015,7 hPa 0,0 l/m 20,2 km/h (4 Bft) O 90 0 min 0,000 mm 0,0 UV-I 0 W/m 9,3 C 7,0 C 32,2 km/h (5 Bft) 96,30 %
21.05.2018 04:13 12,9 C 17,2 C 79 % 1015,7 hPa 0,0 l/m 14,9 km/h (3 Bft) O-NO 69 0 min 0,000 mm 0,0 UV-I 0 W/m 9,3 C 8,7 C 17,7 km/h (3 Bft) 96,55 %
21.05.2018 04:14 12,9 C 17,2 C 79 % 1015,7 hPa 0,0 l/m 19,6 km/h (3 Bft) O-NO 68 0 min 0,000 mm 0,0 UV-I 0 W/m 9,3 C 7,1 C 25,7 km/h (4 Bft) 100,00 %
21.05.2018 04:15 12,9 C 17,2 C 79 % 1015,7 hPa 0,0 l/m 20,2 km/h (4 Bft) O 83 0 min 0,000 mm 0,0 UV-I 0 W/m 9,3 C 7,0 C 27,4 km/h (4 Bft) 96,15 %
21.05.2018 04:16 12,9 C 17,2 C 79 % 1015,7 hPa 0,0 l/m 18,1 km/h (3 Bft) O 101 0 min 0,000 mm 0,0 UV-I 0 W/m 9,3 C 7,6 C 24,1 km/h (4 Bft) 100,00 %
21.05.2018 04:17 12,8 C 17,2 C 79 % 1015,7 hPa 0,0 l/m 17,2 km/h (3 Bft) O 86 0 min 0,000 mm 0,0 UV-I 0 W/m 9,2 C 7,8 C 29,0 km/h (5 Bft) 96,15 %
21.05.2018 04:18 12,8 C 17,2 C 79 % 1015,7 hPa 0,0 l/m 18,2 km/h (3 Bft) O-SO 109 0 min 0,000 mm 0,0 UV-I 0 W/m 9,2 C 7,4 C 24,1 km/h (4 Bft) 100,00 %
21.05.2018 04:19 12,8 C 17,2 C 79 % 1015,7 hPa 0,0 l/m 19,8 km/h (3 Bft) O-NO 63 0 min 0,000 mm 0,0 UV-I 0 W/m 9,2 C 7,0 C 25,7 km/h (4 Bft) 96,55 %
21.05.2018 04:20 12,8 C 17,2 C 79 % 1015,7 hPa 0,0 l/m 19,9 km/h (4 Bft) O-NO 78 0 min 0,000 mm 0,0 UV-I 0 W/m 9,2 C 6,9 C 24,1 km/h (4 Bft) 100,00 %
21.05.2018 04:21 12,8 C 17,2 C 79 % 1015,7 hPa 0,0 l/m 17,3 km/h (3 Bft) O 82 0 min 0,000 mm 0,0 UV-I 0 W/m 9,2 C 7,7 C 22,5 km/h (4 Bft) 95,65 %
21.05.2018 04:22 12,8 C 17,2 C 79 % 1015,7 hPa 0,0 l/m 17,9 km/h (3 Bft) O-NO 75 0 min 0,000 mm 0,0 UV-I 0 W/m 9,2 C 7,5 C 24,1 km/h (4 Bft) 100,00 %
21.05.2018 04:23 12,8 C 17,2 C 79 % 1015,7 hPa 0,0 l/m 17,4 km/h (3 Bft) O 82 0 min 0,000 mm 0,0 UV-I 0 W/m 9,2 C 7,7 C 24,1 km/h (4 Bft) 97,76 %
21.05.2018 04:24 12,8 C 17,2 C 79 % 1015,7 hPa 0,0 l/m 13,7 km/h (3 Bft) O 97 0 min 0,000 mm 0,0 UV-I 0 W/m 9,2 C 9,0 C 19,3 km/h (3 Bft) 96,61 %
21.05.2018 04:25 12,8 C 17,2 C 79 % 1015,7 hPa 0,0 l/m 17,3 km/h (3 Bft) O-NO 69 0 min 0,000 mm 0,0 UV-I 0 W/m 9,2 C 7,7 C 25,7 km/h (4 Bft) 100,00 %
21.05.2018 04:26 12,8 C 17,2 C 79 % 1015,7 hPa 0,0 l/m 18,2 km/h (3 Bft) O-NO 72 0 min 0,000 mm 0,0 UV-I 0 W/m 9,2 C 7,4 C 22,5 km/h (4 Bft) 91,30 %
21.05.2018 04:27 12,8 C 17,2 C 79 % 1015,6 hPa 0,0 l/m 18,9 km/h (3 Bft) O-NO 61 0 min 0,000 mm 0,0 UV-I 0 W/m 9,2 C 7,2 C 27,4 km/h (4 Bft) 100,00 %
21.05.2018 04:28 12,7 C 17,2 C 79 % 1015,8 hPa 0,0 l/m 17,7 km/h (3 Bft) O 96 0 min 0,000 mm 0,0 UV-I 0 W/m 9,2 C 7,5 C 25,7 km/h (4 Bft) 95,65 %
21.05.2018 04:29 12,7 C 17,2 C 79 % 1015,7 hPa 0,0 l/m 18,6 km/h (3 Bft) O-NO 57 0 min 0,000 mm 0,0 UV-I 0 W/m 9,2 C 7,2 C 25,7 km/h (4 Bft) 100,00 %
21.05.2018 04:30 12,7 C 17,2 C 80 % 1015,7 hPa 0,0 l/m 15,1 km/h (3 Bft) O-NO 70 0 min 0,000 mm 0,0 UV-I 0 W/m 9,3 C 8,4 C 22,5 km/h (4 Bft) 92,86 %
21.05.2018 04:31 12,7 C 17,2 C 80 % 1015,7 hPa 0,0 l/m 16,0 km/h (3 Bft) O 97 0 min 0,000 mm 0,0 UV-I 0 W/m 9,3 C 8,0 C 22,5 km/h (4 Bft) 100,00 %
21.05.2018 04:32 12,7 C 17,2 C 80 % 1015,7 hPa 0,0 l/m 18,9 km/h (3 Bft) O 90 0 min 0,000 mm 0,0 UV-I 0 W/m 9,3 C 7,1 C 22,5 km/h (4 Bft) 96,15 %
21.05.2018 04:33 12,7 C 17,2 C 80 % 1015,7 hPa 0,0 l/m 21,2 km/h (4 Bft) O-NO 65 0 min 0,000 mm 0,0 UV-I 0 W/m 9,3 C 6,4 C 29,0 km/h (5 Bft) 92,59 %
21.05.2018 04:34 12,7 C 17,2 C 80 % 1015,7 hPa 0,0 l/m 20,9 km/h (4 Bft) O 91 0 min 0,000 mm 0,0 UV-I 0 W/m 9,3 C 6,5 C 25,7 km/h (4 Bft) 100,00 %
21.05.2018 04:35 12,7 C 17,2 C 80 % 1015,7 hPa 0,0 l/m 20,8 km/h (4 Bft) O 81 0 min 0,000 mm 0,0 UV-I 0 W/m 9,3 C 6,5 C 29,0 km/h (5 Bft) 96,30 %
21.05.2018 04:36 12,7 C 17,2 C 80 % 1015,7 hPa 0,0 l/m 17,3 km/h (3 Bft) O-NO 78 0 min 0,000 mm 0,0 UV-I 0 W/m 9,3 C 7,6 C 25,7 km/h (4 Bft) 100,00 %
21.05.2018 04:37 12,7 C 17,2 C 80 % 1015,7 hPa 0,0 l/m 20,4 km/h (4 Bft) O-SO 104 0 min 0,000 mm 0,0 UV-I 0 W/m 9,3 C 6,7 C 24,1 km/h (4 Bft) 95,83 %
21.05.2018 04:38 12,7 C 17,2 C 80 % 1015,7 hPa 0,0 l/m 15,9 km/h (3 Bft) O 82 0 min 0,000 mm 0,0 UV-I 0 W/m 9,3 C 8,1 C 22,5 km/h (4 Bft) 95,65 %
21.05.2018 04:39 12,7 C 17,2 C 80 % 1015,7 hPa 0,0 l/m 18,6 km/h (3 Bft) O-NO 65 0 min 0,000 mm 0,0 UV-I 0 W/m 9,3 C 7,2 C 24,1 km/h (4 Bft) 96,30 %
21.05.2018 04:40 12,6 C 17,2 C 80 % 1015,6 hPa 0,0 l/m 20,5 km/h (4 Bft) O-NO 77 0 min 0,000 mm 0,0 UV-I 0 W/m 9,2 C 6,5 C 25,7 km/h (4 Bft) 100,00 %
21.05.2018 04:41 12,6 C 17,2 C 80 % 1015,6 hPa 0,0 l/m 17,9 km/h (3 Bft) O-NO 65 0 min 0,000 mm 0,0 UV-I 0 W/m 9,2 C 7,3 C 25,7 km/h (4 Bft) 95,83 %
21.05.2018 04:42 12,6 C 17,2 C 80 % 1015,7 hPa 0,0 l/m 12,7 km/h (3 Bft) O 84 0 min 0,000 mm 0,0 UV-I 0 W/m 9,2 C 9,2 C 17,7 km/h (3 Bft) 100,00 %
21.05.2018 04:43 12,6 C 17,2 C 80 % 1015,7 hPa 0,0 l/m 20,3 km/h (4 Bft) O-SO 104 0 min 0,000 mm 0,0 UV-I 0 W/m 9,2 C 6,6 C 24,1 km/h (4 Bft) 96,15 %
21.05.2018 04:44 12,6 C 17,2 C 80 % 1015,7 hPa 0,0 l/m 17,8 km/h (3 Bft) O-SO 107 0 min 0,000 mm 0,0 UV-I 0 W/m 9,2 C 7,3 C 24,1 km/h (4 Bft) 100,00 %
21.05.2018 04:45 12,6 C 17,2 C 80 % 1015,6 hPa 0,0 l/m 16,3 km/h (3 Bft) O-NO 70 0 min 0,000 mm 0,0 UV-I 0 W/m 9,2 C 7,8 C 24,1 km/h (4 Bft) 92,31 %
21.05.2018 04:46 12,6 C 17,2 C 80 % 1015,6 hPa 0,0 l/m 16,7 km/h (3 Bft) O 96 0 min 0,000 mm 0,0 UV-I 0 W/m 9,2 C 7,7 C 22,5 km/h (4 Bft) 96,67 %
21.05.2018 04:47 12,6 C 17,2 C 80 % 1015,6 hPa 0,0 l/m 15,9 km/h (3 Bft) O 85 0 min 0,000 mm 0,0 UV-I 0 W/m 9,2 C 8,0 C 20,9 km/h (4 Bft) 100,00 %
21.05.2018 04:48 12,6 C 17,2 C 80 % 1015,6 hPa 0,0 l/m 16,8 km/h (3 Bft) O 79 0 min 0,000 mm 0,0 UV-I 0 W/m 9,2 C 7,6 C 20,9 km/h (4 Bft) 100,00 %
21.05.2018 04:49 12,6 C 17,2 C 80 % 1015,7 hPa 0,0 l/m 14,6 km/h (3 Bft) O 79 0 min 0,000 mm 0,0 UV-I 0 W/m 9,2 C 8,4 C 17,7 km/h (3 Bft) 96,88 %
21.05.2018 04:50 12,5 C 17,2 C 80 % 1015,7 hPa 0,0 l/m 18,4 km/h (3 Bft) O 83 0 min 0,000 mm 0,0 UV-I 0 W/m 9,1 C 7,0 C 25,7 km/h (4 Bft) 91,67 %
21.05.2018 04:51 12,5 C 17,2 C 80 % 1015,6 hPa 0,0 l/m 17,2 km/h (3 Bft) O-NO 66 0 min 0,000 mm 0,0 UV-I 0 W/m 9,1 C 7,4 C 22,5 km/h (4 Bft) 95,65 %
21.05.2018 04:52 12,5 C 17,2 C 80 % 1015,7 hPa 0,0 l/m 15,0 km/h (3 Bft) O 85 0 min 0,000 mm 0,0 UV-I 0 W/m 9,1 C 8,2 C 22,5 km/h (4 Bft) 95,83 %
21.05.2018 04:53 12,5 C 17,2 C 80 % 1015,7 hPa 0,0 l/m 15,2 km/h (3 Bft) O-NO 78 0 min 0,000 mm 0,0 UV-I 0 W/m 9,1 C 8,1 C 20,9 km/h (4 Bft) 100,00 %
21.05.2018 04:54 12,5 C 17,2 C 80 % 1015,7 hPa 0,0 l/m 17,4 km/h (3 Bft) O 80 0 min 0,000 mm 0,0 UV-I 0 W/m 9,1 C 7,3 C 22,5 km/h (4 Bft) 95,83 %
21.05.2018 04:55 12,5 C 17,2 C 80 % 1015,7 hPa 0,0 l/m 21,5 km/h (4 Bft) O-SO 102 0 min 0,000 mm 0,0 UV-I 0 W/m 9,1 C 6,1 C 29,0 km/h (5 Bft) 95,65 %
21.05.2018 04:56 12,6 C 17,2 C 80 % 1015,6 hPa 0,0 l/m 17,4 km/h (3 Bft) O-NO 73 0 min 0,000 mm 0,0 UV-I 0 W/m 9,2 C 7,4 C 24,1 km/h (4 Bft) 100,00 %
21.05.2018 04:57 12,5 C 17,2 C 81 % 1015,6 hPa 0,0 l/m 14,7 km/h (3 Bft) O-NO 78 0 min 0,000 mm 0,0 UV-I 0 W/m 9,3 C 8,3 C 22,5 km/h (4 Bft) 100,00 %
21.05.2018 04:58 12,5 C 17,2 C 81 % 1015,6 hPa 0,0 l/m 15,7 km/h (3 Bft) O 101 0 min 0,000 mm 0,0 UV-I 0 W/m 9,3 C 7,9 C 20,9 km/h (4 Bft) 95,65 %
21.05.2018 04:59 12,4 C 17,2 C 81 % 1015,6 hPa 0,0 l/m 17,1 km/h (3 Bft) O 90 0 min 0,000 mm 0,0 UV-I 0 W/m 9,2 C 7,3 C 25,7 km/h (4 Bft) 100,00 %
21.05.2018 05:00 12,5 C 17,2 C 81 % 1015,6 hPa 0,0 l/m 20,4 km/h (4 Bft) O 95 0 min 0,000 mm 0,0 UV-I 0 W/m 9,3 C 6,4 C 27,4 km/h (4 Bft) 100,00 %
21.05.2018 05:01 12,5 C 17,2 C 81 % 1015,6 hPa 0,0 l/m 19,2 km/h (3 Bft) O 101 0 min 0,051 mm 0,0 UV-I 0 W/m 9,3 C 6,8 C 25,7 km/h (4 Bft) 96,15 %
21.05.2018 05:02 12,5 C 17,2 C 81 % 1015,6 hPa 0,0 l/m 16,5 km/h (3 Bft) O-NO 64 0 min 0,000 mm 0,0 UV-I 0 W/m 9,3 C 7,6 C 24,1 km/h (4 Bft) 100,00 %
21.05.2018 05:03 12,5 C 17,2 C 81 % 1015,6 hPa 0,0 l/m 15,4 km/h (3 Bft) O-NO 58 0 min 0,000 mm 0,0 UV-I 4 W/m 9,3 C 8,0 C 19,3 km/h (3 Bft) 92,59 %
21.05.2018 05:04 12,4 C 17,2 C 81 % 1015,6 hPa 0,0 l/m 16,1 km/h (3 Bft) O 96 0 min 0,000 mm 0,0 UV-I 5 W/m 9,2 C 7,6 C 20,9 km/h (4 Bft) 96,15 %
21.05.2018 05:05 12,4 C 17,2 C 81 % 1015,6 hPa 0,0 l/m 16,9 km/h (3 Bft) NO 50 0 min 0,000 mm 0,0 UV-I 5 W/m 9,2 C 7,4 C 20,9 km/h (4 Bft) 100,00 %
21.05.2018 05:06 12,4 C 17,2 C 81 % 1015,6 hPa 0,0 l/m 15,8 km/h (3 Bft) O 88 0 min 0,000 mm 0,0 UV-I 5 W/m 9,2 C 7,7 C 22,5 km/h (4 Bft) 95,65 %
21.05.2018 05:07 12,4 C 16,7 C 81 % 1015,6 hPa 0,0 l/m 18,5 km/h (3 Bft) O 90 0 min 0,000 mm 0,0 UV-I 5 W/m 9,2 C 6,8 C 22,5 km/h (4 Bft) 96,30 %
21.05.2018 05:08 12,4 C 17,2 C 81 % 1015,6 hPa 0,0 l/m 17,5 km/h (3 Bft) O 83 0 min 0,000 mm 0,0 UV-I 5 W/m 9,2 C 7,2 C 22,5 km/h (4 Bft) 92,86 %
21.05.2018 05:09 12,4 C 17,2 C 81 % 1015,6 hPa 0,0 l/m 17,8 km/h (3 Bft) O-NO 67 0 min 0,000 mm 0,0 UV-I 5 W/m 9,2 C 7,1 C 22,5 km/h (4 Bft) 96,15 %
21.05.2018 05:10 12,4 C 17,2 C 81 % 1015,6 hPa 0,0 l/m 17,1 km/h (3 Bft) O-NO 75 0 min 0,000 mm 0,0 UV-I 5 W/m 9,2 C 7,3 C 24,1 km/h (4 Bft) 94,12 %
21.05.2018 05:11 12,4 C 17,2 C 81 % 1015,6 hPa 0,0 l/m 19,0 km/h (3 Bft) O 90 0 min 0,000 mm 0,0 UV-I 5 W/m 9,2 C 6,7 C 24,1 km/h (4 Bft) 92,86 %
21.05.2018 05:12 12,4 C 16,7 C 81 % 1015,6 hPa 0,0 l/m 15,7 km/h (3 Bft) O-NO 67 0 min 0,000 mm 0,0 UV-I 5 W/m 9,2 C 7,8 C 20,9 km/h (4 Bft) 96,15 %
21.05.2018 05:13 12,4 C 16,7 C 81 % 1015,6 hPa 0,0 l/m 17,2 km/h (3 Bft) O-NO 71 0 min 0,000 mm 0,0 UV-I 7 W/m 9,2 C 7,3 C 22,5 km/h (4 Bft) 94,44 %
21.05.2018 05:14 12,3 C 16,7 C 81 % 1015,6 hPa 0,0 l/m 19,6 km/h (3 Bft) O-NO 67 0 min 0,000 mm 0,0 UV-I 7 W/m 9,1 C 6,4 C 24,1 km/h (4 Bft) 100,00 %
21.05.2018 05:15 12,4 C 16,7 C 81 % 1015,6 hPa 0,0 l/m 17,2 km/h (3 Bft) O-NO 74 0 min 0,000 mm 0,0 UV-I 7 W/m 9,2 C 7,3 C 24,1 km/h (4 Bft) 93,33 %
21.05.2018 05:16 12,4 C 16,7 C 81 % 1015,6 hPa 0,0 l/m 15,8 km/h (3 Bft) O 87 0 min 0,000 mm 0,0 UV-I 7 W/m 9,2 C 7,7 C 20,9 km/h (4 Bft) 100,00 %
21.05.2018 05:17 12,4 C 16,7 C 81 % 1015,6 hPa 0,0 l/m 16,7 km/h (3 Bft) O 96 0 min 0,000 mm 0,0 UV-I 7 W/m 9,2 C 7,4 C 22,5 km/h (4 Bft) 96,55 %
21.05.2018 05:18 12,4 C 16,7 C 81 % 1015,7 hPa 0,0 l/m 16,4 km/h (3 Bft) O 90 0 min 0,000 mm 0,0 UV-I 7 W/m 9,2 C 7,5 C 20,9 km/h (4 Bft) 96,55 %
21.05.2018 05:19 12,3 C 16,7 C 81 % 1015,6 hPa 0,0 l/m 14,3 km/h (3 Bft) O-NO 69 0 min 0,000 mm 0,0 UV-I 9 W/m 9,1 C 8,2 C 17,7 km/h (3 Bft) 100,00 %
21.05.2018 05:20 12,3 C 16,7 C 81 % 1015,7 hPa 0,0 l/m 15,0 km/h (3 Bft) O 81 0 min 0,000 mm 0,0 UV-I 9 W/m 9,1 C 7,9 C 20,9 km/h (4 Bft) 93,33 %
21.05.2018 05:21 12,3 C 16,7 C 81 % 1015,7 hPa 0,0 l/m 18,5 km/h (3 Bft) O 86 0 min 0,000 mm 0,0 UV-I 9 W/m 9,1 C 6,7 C 24,1 km/h (4 Bft) 100,00 %
21.05.2018 05:22 12,3 C 16,7 C 81 % 1015,7 hPa 0,0 l/m 17,3 km/h (3 Bft) O-NO 69 0 min 0,000 mm 0,0 UV-I 9 W/m 9,1 C 7,1 C 20,9 km/h (4 Bft) 95,83 %
21.05.2018 05:23 12,3 C 17,2 C 81 % 1015,7 hPa 0,0 l/m 16,5 km/h (3 Bft) O-NO 77 0 min 0,000 mm 0,0 UV-I 11 W/m 9,1 C 7,4 C 19,3 km/h (3 Bft) 100,00 %
21.05.2018 05:24 12,3 C 17,2 C 81 % 1015,6 hPa 0,0 l/m 19,6 km/h (3 Bft) O-NO 69 0 min 0,000 mm 0,0 UV-I 11 W/m 9,1 C 6,4 C 27,4 km/h (4 Bft) 91,67 %
21.05.2018 05:25 12,3 C 16,7 C 81 % 1015,6 hPa 0,0 l/m 17,5 km/h (3 Bft) O-NO 69 0 min 0,000 mm 0,0 UV-I 11 W/m 9,1 C 7,0 C 20,9 km/h (4 Bft) 100,00 %
21.05.2018 05:26 12,3 C 16,7 C 81 % 1015,6 hPa 0,0 l/m 20,6 km/h (4 Bft) O-NO 69 0 min 0,000 mm 0,0 UV-I 11 W/m 9,1 C 6,1 C 24,1 km/h (4 Bft) 96,30 %
21.05.2018 05:27 12,3 C 16,7 C 81 % 1015,6 hPa 0,0 l/m 17,0 km/h (3 Bft) O 96 0 min 0,000 mm 0,0 UV-I 12 W/m 9,1 C 7,2 C 22,5 km/h (4 Bft) 96,15 %
21.05.2018 05:28 12,3 C 16,7 C 81 % 1015,6 hPa 0,0 l/m 19,1 km/h (3 Bft) O-NO 69 0 min 0,000 mm 0,0 UV-I 12 W/m 9,1 C 6,5 C 27,4 km/h (4 Bft) 100,00 %
21.05.2018 05:29 12,3 C 16,7 C 81 % 1015,6 hPa 0,0 l/m 20,2 km/h (4 Bft) O-NO 71 0 min 0,000 mm 0,0 UV-I 12 W/m 9,1 C 6,2 C 30,6 km/h (5 Bft) 100,00 %
21.05.2018 05:30 12,3 C 16,7 C 81 % 1015,6 hPa 0,0 l/m 20,0 km/h (4 Bft) O-NO 59 1 min 0,000 mm 0,0 UV-I 14 W/m 9,1 C 6,3 C 24,1 km/h (4 Bft) 96,30 %
21.05.2018 05:31 12,3 C 16,7 C 81 % 1015,6 hPa 0,0 l/m 19,7 km/h (3 Bft) O 94 1 min 0,000 mm 0,0 UV-I 14 W/m 9,1 C 6,3 C 24,1 km/h (4 Bft) 96,15 %
21.05.2018 05:32 12,3 C 16,7 C 81 % 1015,6 hPa 0,0 l/m 16,2 km/h (3 Bft) O 98 1 min 0,000 mm 0,0 UV-I 14 W/m 9,1 C 7,5 C 19,3 km/h (3 Bft) 96,30 %
21.05.2018 05:33 12,3 C 16,7 C 81 % 1015,6 hPa 0,0 l/m 21,3 km/h (4 Bft) O 85 1 min 0,000 mm 0,0 UV-I 15 W/m 9,1 C 5,9 C 29,0 km/h (5 Bft) 96,15 %
21.05.2018 05:34 12,3 C 16,7 C 81 % 1015,6 hPa 0,0 l/m 17,0 km/h (3 Bft) O 94 1 min 0,000 mm 0,0 UV-I 18 W/m 9,1 C 7,2 C 25,7 km/h (4 Bft) 100,00 %
21.05.2018 05:35 12,3 C 16,7 C 81 % 1015,6 hPa 0,0 l/m 18,9 km/h (3 Bft) O-NO 63 1 min 0,000 mm 0,0 UV-I 18 W/m 9,1 C 6,6 C 27,4 km/h (4 Bft) 96,15 %
21.05.2018 05:36 12,3 C 16,7 C 81 % 1015,6 hPa 0,0 l/m 17,9 km/h (3 Bft) O 87 1 min 0,000 mm 0,0 UV-I 19 W/m 9,1 C 6,9 C 22,5 km/h (4 Bft) 96,30 %
21.05.2018 05:37 12,3 C 16,7 C 81 % 1015,6 hPa 0,0 l/m 17,8 km/h (3 Bft) O 82 1 min 0,000 mm 0,0 UV-I 20 W/m 9,1 C 6,9 C 25,7 km/h (4 Bft) 100,00 %
21.05.2018 05:38 12,3 C 16,7 C 81 % 1015,7 hPa 0,0 l/m 16,0 km/h (3 Bft) O 82 1 min 0,000 mm 0,0 UV-I 22 W/m 9,1 C 7,6 C 24,1 km/h (4 Bft) 100,00 %
21.05.2018 05:39 12,3 C 16,7 C 81 % 1015,6 hPa 0,0 l/m 16,9 km/h (3 Bft) O 83 1 min 0,000 mm 0,0 UV-I 24 W/m 9,1 C 7,2 C 20,9 km/h (4 Bft) 100,00 %
21.05.2018 05:40 12,3 C 16,7 C 81 % 1015,6 hPa 0,0 l/m 21,1 km/h (4 Bft) O-NO 71 1 min 0,000 mm 0,0 UV-I 25 W/m 9,1 C 5,9 C 24,1 km/h (4 Bft) 100,00 %
21.05.2018 05:41 12,3 C 16,7 C 81 % 1015,7 hPa 0,0 l/m 18,9 km/h (3 Bft) O 92 1 min 0,000 mm 0,0 UV-I 26 W/m 9,1 C 6,6 C 22,5 km/h (4 Bft) 100,00 %
21.05.2018 05:42 12,3 C 16,7 C 81 % 1015,7 hPa 0,0 l/m 20,8 km/h (4 Bft) O 94 1 min 0,000 mm 0,0 UV-I 28 W/m 9,1 C 6,0 C 29,0 km/h (5 Bft) 100,00 %
21.05.2018 05:43 12,3 C 16,7 C 81 % 1015,6 hPa 0,0 l/m 18,0 km/h (3 Bft) O 90 1 min 0,000 mm 0,0 UV-I 30 W/m 9,1 C 6,9 C 25,7 km/h (4 Bft) 100,00 %
21.05.2018 05:44 12,3 C 16,7 C 81 % 1015,6 hPa 0,0 l/m 18,3 km/h (3 Bft) O-NO 77 1 min 0,000 mm 0,0 UV-I 31 W/m 9,1 C 6,8 C 24,1 km/h (4 Bft) 100,00 %
21.05.2018 05:45 12,3 C 16,7 C 81 % 1015,6 hPa 0,0 l/m 22,0 km/h (4 Bft) O-NO 73 1 min 0,000 mm 0,0 UV-I 33 W/m 9,1 C 5,7 C 27,4 km/h (4 Bft) 100,00 %
21.05.2018 05:46 12,3 C 16,7 C 81 % 1015,6 hPa 0,0 l/m 20,5 km/h (4 Bft) O-NO 57 1 min 0,000 mm 0,0 UV-I 35 W/m 9,1 C 6,1 C 27,4 km/h (4 Bft) 96,55 %
21.05.2018 05:47 12,3 C 16,7 C 81 % 1015,6 hPa 0,0 l/m 20,2 km/h (4 Bft) O-NO 69 1 min 0,000 mm 0,0 UV-I 37 W/m 9,1 C 6,2 C 27,4 km/h (4 Bft) 100,00 %
21.05.2018 05:48 12,3 C 16,7 C 81 % 1015,6 hPa 0,0 l/m 18,8 km/h (3 Bft) O-NO 57 1 min 0,000 mm 0,0 UV-I 39 W/m 9,1 C 6,6 C 25,7 km/h (4 Bft) 100,00 %
21.05.2018 05:49 12,3 C 16,7 C 81 % 1015,6 hPa 0,0 l/m 16,7 km/h (3 Bft) O 94 1 min 0,000 mm 0,0 UV-I 41 W/m 9,1 C 7,3 C 19,3 km/h (3 Bft) 100,00 %
21.05.2018 05:50 12,3 C 16,7 C 81 % 1015,6 hPa 0,0 l/m 18,5 km/h (3 Bft) O 96 1 min 0,000 mm 0,0 UV-I 43 W/m 9,1 C 6,7 C 27,4 km/h (4 Bft) 100,00 %
21.05.2018 05:51 12,3 C 16,7 C 81 % 1015,6 hPa 0,0 l/m 17,8 km/h (3 Bft) O 85 1 min 0,000 mm 0,0 UV-I 44 W/m 9,1 C 6,9 C 25,7 km/h (4 Bft) 100,00 %
21.05.2018 05:52 12,3 C 16,7 C 81 % 1015,6 hPa 0,0 l/m 18,1 km/h (3 Bft) O-NO 65 1 min 0,000 mm 0,0 UV-I 46 W/m 9,1 C 6,8 C 25,7 km/h (4 Bft) 96,43 %
21.05.2018 05:53 12,3 C 16,7 C 81 % 1015,6 hPa 0,0 l/m 19,4 km/h (3 Bft) O-NO 69 1 min 0,000 mm 0,0 UV-I 47 W/m 9,1 C 6,4 C 25,7 km/h (4 Bft) 100,00 %
21.05.2018 05:54 12,3 C 16,7 C 81 % 1015,6 hPa 0,0 l/m 19,0 km/h (3 Bft) O 94 1 min 0,000 mm 0,0 UV-I 50 W/m 9,1 C 6,6 C 24,1 km/h (4 Bft) 100,00 %
21.05.2018 05:55 12,3 C 16,7 C 81 % 1015,6 hPa 0,0 l/m 19,7 km/h (3 Bft) O 86 1 min 0,000 mm 0,0 UV-I 52 W/m 9,1 C 6,3 C 22,5 km/h (4 Bft) 100,00 %
21.05.2018 05:56 12,3 C 16,7 C 81 % 1015,6 hPa 0,0 l/m 14,6 km/h (3 Bft) O-NO 65 1 min 0,000 mm 0,0 UV-I 54 W/m 9,1 C 8,1 C 19,3 km/h (3 Bft) 100,00 %
21.05.2018 05:57 12,3 C 16,7 C 81 % 1015,6 hPa 0,0 l/m 16,9 km/h (3 Bft) O-NO 67 1 min 0,000 mm 0,0 UV-I 56 W/m 9,1 C 7,2 C 20,9 km/h (4 Bft) 100,00 %
21.05.2018 05:58 12,3 C 16,7 C 80 % 1015,6 hPa 0,0 l/m 15,1 km/h (3 Bft) O-NO 77 1 min 0,000 mm 0,0 UV-I 58 W/m 8,9 C 7,9 C 19,3 km/h (3 Bft) 100,00 %
21.05.2018 05:59 12,3 C 16,7 C 80 % 1015,6 hPa 0,0 l/m 16,9 km/h (3 Bft) O-NO 78 1 min 0,000 mm 0,0 UV-I 60 W/m 8,9 C 7,2 C 27,4 km/h (4 Bft) 100,00 %
21.05.2018 06:00 12,3 C 16,7 C 80 % 1015,6 hPa 0,0 l/m 16,3 km/h (3 Bft) O-NO 65 1 min 0,000 mm 0,0 UV-I 62 W/m 8,9 C 7,4 C 22,5 km/h (4 Bft) 100,00 %
21.05.2018 06:01 12,3 C 16,7 C 80 % 1015,6 hPa 0,0 l/m 19,3 km/h (3 Bft) O-NO 69 1 min 0,051 mm 0,0 UV-I 64 W/m 8,9 C 6,5 C 22,5 km/h (4 Bft) 100,00 %
21.05.2018 06:02 12,3 C 16,7 C 80 % 1015,6 hPa 0,0 l/m 18,6 km/h (3 Bft) O-NO 73 1 min 0,000 mm 0,0 UV-I 66 W/m 8,9 C 6,7 C 22,5 km/h (4 Bft) 100,00 %
21.05.2018 06:03 12,3 C 16,7 C 80 % 1015,6 hPa 0,0 l/m 15,8 km/h (3 Bft) O-NO 76 1 min 0,000 mm 0,0 UV-I 69 W/m 8,9 C 7,6 C 20,9 km/h (4 Bft) 100,00 %
21.05.2018 06:04 12,3 C 16,7 C 81 % 1015,7 hPa 0,0 l/m 15,0 km/h (3 Bft) O-NO 65 1 min 0,000 mm 0,0 UV-I 70 W/m 9,1 C 7,9 C 22,5 km/h (4 Bft) 100,00 %
21.05.2018 06:05 12,3 C 16,7 C 81 % 1015,6 hPa 0,0 l/m 15,1 km/h (3 Bft) O 82 1 min 0,000 mm 0,0 UV-I 72 W/m 9,1 C 7,9 C 19,3 km/h (3 Bft) 100,00 %
21.05.2018 06:06 12,3 C 16,7 C 80 % 1015,6 hPa 0,0 l/m 14,1 km/h (3 Bft) NO 48 1 min 0,000 mm 0,0 UV-I 71 W/m 8,9 C 8,3 C 17,7 km/h (3 Bft) 100,00 %
21.05.2018 06:07 12,3 C 16,7 C 80 % 1015,6 hPa 0,0 l/m 14,0 km/h (3 Bft) O-NO 61 1 min 0,000 mm 0,0 UV-I 73 W/m 8,9 C 8,3 C 19,3 km/h (3 Bft) 100,00 %
21.05.2018 06:08 12,3 C 16,7 C 80 % 1015,6 hPa 0,0 l/m 14,1 km/h (3 Bft) O-NO 63 1 min 0,000 mm 0,0 UV-I 75 W/m 8,9 C 8,3 C 17,7 km/h (3 Bft) 100,00 %
21.05.2018 06:09 12,3 C 16,7 C 80 % 1015,7 hPa 0,0 l/m 14,0 km/h (3 Bft) NO 40 1 min 0,000 mm 0,0 UV-I 78 W/m 8,9 C 8,3 C 19,3 km/h (3 Bft) 100,00 %
21.05.2018 06:10 12,3 C 16,7 C 81 % 1015,7 hPa 0,0 l/m 13,6 km/h (3 Bft) O-NO 63 1 min 0,000 mm 0,0 UV-I 83 W/m 9,1 C 8,5 C 16,1 km/h (3 Bft) 100,00 %
21.05.2018 06:11 12,3 C 16,7 C 81 % 1015,7 hPa 0,0 l/m 14,2 km/h (3 Bft) O 101 1 min 0,000 mm 0,0 UV-I 84 W/m 9,1 C 8,2 C 17,7 km/h (3 Bft) 100,00 %
21.05.2018 06:12 12,3 C 16,7 C 81 % 1015,7 hPa 0,0 l/m 17,2 km/h (3 Bft) O 84 1 min 0,000 mm 0,0 UV-I 87 W/m 9,1 C 7,1 C 25,7 km/h (4 Bft) 100,00 %
21.05.2018 06:13 12,3 C 16,7 C 81 % 1015,7 hPa 0,0 l/m 13,8 km/h (3 Bft) O 79 1 min 0,000 mm 0,0 UV-I 89 W/m 9,1 C 8,4 C 17,7 km/h (3 Bft) 100,00 %
21.05.2018 06:14 12,3 C 16,7 C 81 % 1015,7 hPa 0,0 l/m 10,9 km/h (2 Bft) O 82 1 min 0,000 mm 0,0 UV-I 91 W/m 9,1 C 9,7 C 17,7 km/h (3 Bft) 100,00 %
21.05.2018 06:15 12,3 C 16,7 C 81 % 1015,7 hPa 0,0 l/m 12,8 km/h (3 Bft) O-NO 61 1 min 0,000 mm 0,0 UV-I 93 W/m 9,1 C 8,8 C 17,7 km/h (3 Bft) 100,00 %
21.05.2018 06:16 12,3 C 16,7 C 81 % 1015,7 hPa 0,0 l/m 14,0 km/h (3 Bft) O-NO 67 1 min 0,000 mm 0,0 UV-I 95 W/m 9,1 C 8,3 C 19,3 km/h (3 Bft) 100,00 %
21.05.2018 06:17 12,3 C 16,7 C 81 % 1015,7 hPa 0,0 l/m 12,6 km/h (3 Bft) N-NO 26 1 min 0,000 mm 0,0 UV-I 97 W/m 9,1 C 8,9 C 14,5 km/h (3 Bft) 100,00 %
21.05.2018 06:18 12,3 C 16,7 C 81 % 1015,8 hPa 0,0 l/m 13,7 km/h (3 Bft) O-NO 58 1 min 0,000 mm 0,0 UV-I 99 W/m 9,1 C 8,4 C 19,3 km/h (3 Bft) 100,00 %
21.05.2018 06:19 12,3 C 16,7 C 81 % 1015,8 hPa 0,0 l/m 15,1 km/h (3 Bft) O 80 1 min 0,000 mm 0,0 UV-I 101 W/m 9,1 C 7,9 C 20,9 km/h (4 Bft) 100,00 %
21.05.2018 06:20 12,3 C 16,7 C 81 % 1015,7 hPa 0,0 l/m 11,6 km/h (2 Bft) O-NO 71 1 min 0,000 mm 0,0 UV-I 103 W/m 9,1 C 9,3 C 16,1 km/h (3 Bft) 100,00 %
21.05.2018 06:21 12,3 C 16,7 C 81 % 1015,8 hPa 0,0 l/m 15,6 km/h (3 Bft) O-NO 72 1 min 0,000 mm 0,0 UV-I 105 W/m 9,1 C 7,7 C 19,3 km/h (3 Bft) 100,00 %
21.05.2018 06:22 12,4 C 16,7 C 81 % 1015,8 hPa 0,0 l/m 15,5 km/h (3 Bft) O-NO 59 1 min 0,000 mm 0,0 UV-I 107 W/m 9,2 C 7,9 C 19,3 km/h (3 Bft) 100,00 %
21.05.2018 06:23 12,4 C 16,7 C 81 % 1015,8 hPa 0,0 l/m 15,2 km/h (3 Bft) O-NO 69 1 min 0,000 mm 0,0 UV-I 110 W/m 9,2 C 8,0 C 20,9 km/h (4 Bft) 100,00 %
21.05.2018 06:24 12,4 C 16,7 C 81 % 1015,8 hPa 0,0 l/m 16,2 km/h (3 Bft) O-NO 62 1 min 0,000 mm 0,0 UV-I 112 W/m 9,2 C 7,6 C 22,5 km/h (4 Bft) 100,00 %
21.05.2018 06:25 12,4 C 16,7 C 80 % 1015,8 hPa 0,0 l/m 15,0 km/h (3 Bft) O-NO 70 1 min 0,000 mm 0,0 UV-I 114 W/m 9,0 C 8,0 C 20,9 km/h (4 Bft) 100,00 %
21.05.2018 06:26 12,4 C 16,7 C 80 % 1015,8 hPa 0,0 l/m 15,1 km/h (3 Bft) O-NO 61 1 min 0,000 mm 0,0 UV-I 117 W/m 9,0 C 8,0 C 20,9 km/h (4 Bft) 100,00 %
21.05.2018 06:27 12,5 C 16,7 C 80 % 1015,8 hPa 0,0 l/m 13,7 km/h (3 Bft) O-NO 77 1 min 0,000 mm 0,0 UV-I 120 W/m 9,1 C 8,7 C 16,1 km/h (3 Bft) 100,00 %
21.05.2018 06:28 12,5 C 16,7 C 80 % 1015,8 hPa 0,0 l/m 14,1 km/h (3 Bft) O 92 1 min 0,000 mm 0,0 UV-I 121 W/m 9,1 C 8,5 C 20,9 km/h (4 Bft) 94,74 %
21.05.2018 06:29 12,5 C 16,7 C 80 % 1015,8 hPa 0,0 l/m 14,2 km/h (3 Bft) O-NO 67 1 min 0,000 mm 0,0 UV-I 124 W/m 9,1 C 8,5 C 22,5 km/h (4 Bft) 92,59 %
21.05.2018 06:30 12,6 C 16,7 C 80 % 1015,8 hPa 0,0 l/m 15,7 km/h (3 Bft) O 90 1 min 0,000 mm 0,0 UV-I 126 W/m 9,2 C 8,0 C 24,1 km/h (4 Bft) 100,00 %
21.05.2018 06:31 12,6 C 16,7 C 80 % 1015,8 hPa 0,0 l/m 15,2 km/h (3 Bft) O 87 1 min 0,000 mm 0,0 UV-I 128 W/m 9,2 C 8,2 C 20,9 km/h (4 Bft) 98,00 %
21.05.2018 06:32 12,6 C 16,7 C 80 % 1015,8 hPa 0,0 l/m 12,1 km/h (2 Bft) O-NO 78 1 min 0,000 mm 0,0 UV-I 130 W/m 9,2 C 9,5 C 16,1 km/h (3 Bft) 97,44 %
21.05.2018 06:33 12,6 C 16,7 C 80 % 1015,8 hPa 0,0 l/m 13,2 km/h (3 Bft) O-NO 70 1 min 0,000 mm 0,0 UV-I 132 W/m 9,2 C 9,0 C 16,1 km/h (3 Bft) 100,00 %
21.05.2018 06:34 12,6 C 16,7 C 80 % 1015,8 hPa 0,0 l/m 13,3 km/h (3 Bft) O 81 1 min 0,000 mm 0,0 UV-I 135 W/m 9,2 C 9,0 C 17,7 km/h (3 Bft) 96,15 %
21.05.2018 06:35 12,6 C 16,7 C 80 % 1015,8 hPa 0,0 l/m 16,7 km/h (3 Bft) O-NO 62 1 min 0,000 mm 0,0 UV-I 138 W/m 9,2 C 7,7 C 20,9 km/h (4 Bft) 100,00 %
21.05.2018 06:36 12,6 C 16,7 C 80 % 1015,8 hPa 0,0 l/m 13,9 km/h (3 Bft) O-NO 63 1 min 0,000 mm 0,0 UV-I 140 W/m 9,2 C 8,7 C 20,9 km/h (4 Bft) 100,00 %
21.05.2018 06:37 12,6 C 16,7 C 80 % 1015,8 hPa 0,0 l/m 15,4 km/h (3 Bft) O 81 1 min 0,000 mm 0,0 UV-I 142 W/m 9,2 C 8,1 C 20,9 km/h (4 Bft) 100,00 %
21.05.2018 06:38 12,7 C 16,7 C 80 % 1015,8 hPa 0,0 l/m 19,3 km/h (3 Bft) O-NO 76 1 min 0,000 mm 0,0 UV-I 144 W/m 9,3 C 7,0 C 27,4 km/h (4 Bft) 96,30 %
21.05.2018 06:39 12,7 C 16,7 C 80 % 1015,8 hPa 0,0 l/m 16,6 km/h (3 Bft) O-NO 71 1 min 0,000 mm 0,0 UV-I 147 W/m 9,3 C 7,8 C 22,5 km/h (4 Bft) 100,00 %
21.05.2018 06:40 12,7 C 16,7 C 80 % 1015,8 hPa 0,0 l/m 15,3 km/h (3 Bft) O-NO 65 1 min 0,000 mm 0,0 UV-I 149 W/m 9,3 C 8,3 C 22,5 km/h (4 Bft) 100,00 %
21.05.2018 06:41 12,7 C 16,7 C 80 % 1015,8 hPa 0,0 l/m 13,4 km/h (3 Bft) O 79 1 min 0,000 mm 0,0 UV-I 152 W/m 9,3 C 9,0 C 16,1 km/h (3 Bft) 85,71 %
21.05.2018 06:42 12,7 C 16,7 C 80 % 1015,7 hPa 0,0 l/m 18,3 km/h (3 Bft) O 89 1 min 0,000 mm 0,0 UV-I 155 W/m 9,3 C 7,3 C 24,1 km/h (4 Bft) 100,00 %
21.05.2018 06:43 12,7 C 16,7 C 80 % 1015,8 hPa 0,0 l/m 13,5 km/h (3 Bft) O-NO 71 1 min 0,000 mm 0,0 UV-I 158 W/m 9,3 C 9,0 C 17,7 km/h (3 Bft) 100,00 %
21.05.2018 06:44 12,7 C 16,7 C 80 % 1015,8 hPa 0,0 l/m 14,1 km/h (3 Bft) O 96 1 min 0,000 mm 0,0 UV-I 160 W/m 9,3 C 8,7 C 20,9 km/h (4 Bft) 92,59 %
21.05.2018 06:45 12,8 C 16,7 C 80 % 1015,8 hPa 0,0 l/m 13,7 km/h (3 Bft) O 83 1 min 0,000 mm 0,0 UV-I 163 W/m 9,4 C 9,0 C 17,7 km/h (3 Bft) 100,00 %
21.05.2018 06:46 12,8 C 16,7 C 79 % 1015,8 hPa 0,0 l/m 14,6 km/h (3 Bft) O-NO 58 1 min 0,000 mm 0,0 UV-I 165 W/m 9,2 C 8,7 C 19,3 km/h (3 Bft) 100,00 %
21.05.2018 06:47 12,8 C 16,7 C 79 % 1015,8 hPa 0,0 l/m 16,9 km/h (3 Bft) O-NO 66 1 min 0,000 mm 0,0 UV-I 168 W/m 9,2 C 7,9 C 24,1 km/h (4 Bft) 100,00 %
21.05.2018 06:48 12,8 C 16,7 C 79 % 1015,8 hPa 0,0 l/m 16,7 km/h (3 Bft) O 81 1 min 0,000 mm 0,0 UV-I 170 W/m 9,2 C 7,9 C 22,5 km/h (4 Bft) 100,00 %
21.05.2018 06:49 12,9 C 16,7 C 79 % 1015,7 hPa 0,0 l/m 14,3 km/h (3 Bft) SO 125 1 min 0,000 mm 0,0 UV-I 173 W/m 9,3 C 8,9 C 25,7 km/h (4 Bft) 100,00 %
21.05.2018 06:50 12,9 C 16,7 C 79 % 1015,8 hPa 0,0 l/m 16,9 km/h (3 Bft) O-NO 75 1 min 0,000 mm 0,0 UV-I 176 W/m 9,3 C 8,0 C 24,1 km/h (4 Bft) 100,00 %
21.05.2018 06:51 12,9 C 16,7 C 79 % 1015,7 hPa 0,0 l/m 15,1 km/h (3 Bft) O-NO 67 1 min 0,000 mm 0,0 UV-I 178 W/m 9,3 C 8,6 C 19,3 km/h (3 Bft) 100,00 %
21.05.2018 06:52 12,9 C 16,7 C 79 % 1015,7 hPa 0,0 l/m 17,6 km/h (3 Bft) O-SO 107 1 min 0,000 mm 0,0 UV-I 179 W/m 9,3 C 7,8 C 24,1 km/h (4 Bft) 100,00 %
21.05.2018 06:53 12,9 C 16,7 C 79 % 1015,7 hPa 0,0 l/m 19,4 km/h (3 Bft) O-NO 74 1 min 0,000 mm 0,0 UV-I 184 W/m 9,3 C 7,2 C 22,5 km/h (4 Bft) 96,15 %
21.05.2018 06:54 13,0 C 16,7 C 79 % 1015,7 hPa 0,0 l/m 20,9 km/h (4 Bft) O 79 1 min 0,000 mm 0,0 UV-I 185 W/m 9,4 C 6,9 C 25,7 km/h (4 Bft) 100,00 %
21.05.2018 06:55 13,0 C 16,7 C 79 % 1015,7 hPa 0,0 l/m 19,1 km/h (3 Bft) O-NO 65 1 min 0,000 mm 0,0 UV-I 187 W/m 9,4 C 7,4 C 24,1 km/h (4 Bft) 100,00 %
21.05.2018 06:56 13,0 C 16,7 C 78 % 1015,7 hPa 0,0 l/m 17,6 km/h (3 Bft) NO 55 1 min 0,000 mm 0,0 UV-I 192 W/m 9,3 C 7,9 C 22,5 km/h (4 Bft) 100,00 %
21.05.2018 06:57 13,1 C 16,7 C 78 % 1015,7 hPa 0,0 l/m 17,8 km/h (3 Bft) O-NO 65 1 min 0,000 mm 0,0 UV-I 193 W/m 9,4 C 7,9 C 20,9 km/h (4 Bft) 100,00 %
21.05.2018 06:58 13,1 C 16,7 C 78 % 1015,7 hPa 0,0 l/m 18,0 km/h (3 Bft) O-NO 72 1 min 0,000 mm 0,0 UV-I 196 W/m 9,4 C 7,9 C 22,5 km/h (4 Bft) 100,00 %
21.05.2018 06:59 13,1 C 16,7 C 78 % 1015,7 hPa 0,0 l/m 20,4 km/h (4 Bft) O 82 1 min 0,000 mm 0,0 UV-I 198 W/m 9,4 C 7,2 C 25,7 km/h (4 Bft) 100,00 %
21.05.2018 07:00 13,1 C 16,7 C 78 % 1015,7 hPa 0,0 l/m 19,2 km/h (3 Bft) O 83 1 min 0,102 mm 0,0 UV-I 201 W/m 9,4 C 7,5 C 27,4 km/h (4 Bft) 92,31 %
21.05.2018 07:01 13,2 C 16,7 C 78 % 1015,7 hPa 0,0 l/m 18,0 km/h (3 Bft) O 84 1 min 0,000 mm 0,0 UV-I 203 W/m 9,4 C 8,0 C 22,5 km/h (4 Bft) 91,67 %
21.05.2018 07:02 13,2 C 16,7 C 78 % 1015,7 hPa 0,0 l/m 18,2 km/h (3 Bft) O 88 1 min 0,000 mm 0,0 UV-I 206 W/m 9,4 C 7,9 C 22,5 km/h (4 Bft) 100,00 %
21.05.2018 07:03 13,2 C 16,7 C 78 % 1015,7 hPa 0,0 l/m 17,5 km/h (3 Bft) O-NO 64 1 min 0,000 mm 0,0 UV-I 208 W/m 9,4 C 8,2 C 20,9 km/h (4 Bft) 100,00 %
21.05.2018 07:04 13,2 C 16,7 C 78 % 1015,7 hPa 0,0 l/m 18,7 km/h (3 Bft) O 83 1 min 0,000 mm 0,0 UV-I 212 W/m 9,4 C 7,8 C 27,4 km/h (4 Bft) 92,31 %
21.05.2018 07:05 13,2 C 16,7 C 78 % 1015,7 hPa 0,0 l/m 20,0 km/h (4 Bft) O-NO 64 1 min 0,000 mm 0,0 UV-I 214 W/m 9,4 C 7,4 C 24,1 km/h (4 Bft) 100,00 %
21.05.2018 07:06 13,3 C 16,7 C 78 % 1015,7 hPa 0,0 l/m 21,1 km/h (4 Bft) O 93 1 min 0,000 mm 0,0 UV-I 215 W/m 9,5 C 7,3 C 27,4 km/h (4 Bft) 92,86 %
21.05.2018 07:07 13,3 C 16,7 C 77 % 1015,7 hPa 0,0 l/m 23,3 km/h (4 Bft) O-NO 75 1 min 0,000 mm 0,0 UV-I 217 W/m 9,4 C 6,7 C 27,4 km/h (4 Bft) 100,00 %
21.05.2018 07:08 13,3 C 16,7 C 77 % 1015,7 hPa 0,0 l/m 18,9 km/h (3 Bft) O 86 1 min 0,000 mm 0,0 UV-I 221 W/m 9,4 C 7,9 C 25,7 km/h (4 Bft) 96,15 %
21.05.2018 07:09 13,3 C 16,7 C 77 % 1015,6 hPa 0,0 l/m 20,8 km/h (4 Bft) NO 55 1 min 0,000 mm 0,0 UV-I 223 W/m 9,4 C 7,3 C 25,7 km/h (4 Bft) 96,30 %
21.05.2018 07:10 13,3 C 16,7 C 77 % 1015,6 hPa 0,0 l/m 20,2 km/h (4 Bft) O-NO 57 1 min 0,000 mm 0,0 UV-I 227 W/m 9,4 C 7,5 C 27,4 km/h (4 Bft) 100,00 %
21.05.2018 07:11 13,4 C 16,7 C 77 % 1015,6 hPa 0,0 l/m 19,2 km/h (3 Bft) O-NO 71 1 min 0,000 mm 0,0 UV-I 230 W/m 9,5 C 7,9 C 25,7 km/h (4 Bft) 96,15 %
21.05.2018 07:12 13,4 C 16,7 C 77 % 1015,6 hPa 0,0 l/m 21,8 km/h (4 Bft) O 88 1 min 0,000 mm 0,0 UV-I 231 W/m 9,5 C 7,2 C 27,4 km/h (4 Bft) 100,00 %
21.05.2018 07:13 13,4 C 16,7 C 77 % 1015,6 hPa 0,0 l/m 18,7 km/h (3 Bft) O-NO 72 1 min 0,000 mm 0,0 UV-I 235 W/m 9,5 C 8,1 C 25,7 km/h (4 Bft) 93,33 %
21.05.2018 07:14 13,4 C 16,7 C 77 % 1015,6 hPa 0,0 l/m 17,2 km/h (3 Bft) O-NO 58 1 min 0,000 mm 0,0 UV-I 237 W/m 9,5 C 8,5 C 20,9 km/h (4 Bft) 100,00 %
21.05.2018 07:15 13,4 C 16,7 C 77 % 1015,6 hPa 0,0 l/m 21,8 km/h (4 Bft) O 82 1 min 0,000 mm 0,0 UV-I 241 W/m 9,5 C 7,2 C 30,6 km/h (5 Bft) 95,65 %
21.05.2018 07:16 13,5 C 16,7 C 77 % 1015,6 hPa 0,0 l/m 23,5 km/h (4 Bft) O 98 1 min 0,000 mm 0,0 UV-I 243 W/m 9,5 C 6,9 C 30,6 km/h (5 Bft) 100,00 %
21.05.2018 07:17 13,5 C 16,7 C 77 % 1015,6 hPa 0,0 l/m 19,5 km/h (3 Bft) O 91 1 min 0,000 mm 0,0 UV-I 245 W/m 9,5 C 7,9 C 25,7 km/h (4 Bft) 95,65 %
21.05.2018 07:18 13,6 C 16,7 C 77 % 1015,6 hPa 0,0 l/m 15,9 km/h (3 Bft) O-NO 62 1 min 0,000 mm 0,0 UV-I 248 W/m 9,6 C 9,2 C 25,7 km/h (4 Bft) 100,00 %
21.05.2018 07:19 13,6 C 16,7 C 77 % 1015,6 hPa 0,0 l/m 17,3 km/h (3 Bft) O 84 1 min 0,000 mm 0,0 UV-I 251 W/m 9,6 C 8,7 C 25,7 km/h (4 Bft) 95,65 %
21.05.2018 07:20 13,6 C 16,7 C 77 % 1015,6 hPa 0,0 l/m 19,8 km/h (3 Bft) O 82 1 min 0,000 mm 0,0 UV-I 255 W/m 9,6 C 8,0 C 25,7 km/h (4 Bft) 95,83 %
21.05.2018 07:21 13,6 C 16,7 C 77 % 1015,6 hPa 0,0 l/m 21,8 km/h (4 Bft) O 90 1 min 0,000 mm 0,0 UV-I 257 W/m 9,6 C 7,5 C 29,0 km/h (5 Bft) 100,00 %
21.05.2018 07:23 13,7 C 16,7 C 76 % 1015,5 hPa 0,0 l/m 16,6 km/h (3 Bft) O 84 2 min 0,000 mm 0,0 UV-I 261 W/m 9,5 C 9,1 C 24,1 km/h (4 Bft) 96,43 %
21.05.2018 07:24 13,7 C 16,7 C 76 % 1015,5 hPa 0,0 l/m 16,9 km/h (3 Bft) O-NO 68 1 min 0,000 mm 0,0 UV-I 266 W/m 9,5 C 9,0 C 20,9 km/h (4 Bft) 91,67 %
21.05.2018 07:25 13,7 C 16,7 C 76 % 1015,5 hPa 0,0 l/m 18,6 km/h (3 Bft) O 82 1 min 0,000 mm 0,0 UV-I 268 W/m 9,5 C 8,5 C 22,5 km/h (4 Bft) 96,15 %
21.05.2018 07:26 13,7 C 16,7 C 76 % 1015,5 hPa 0,0 l/m 16,9 km/h (3 Bft) O 93 1 min 0,000 mm 0,4 UV-I 271 W/m 9,5 C 9,0 C 20,9 km/h (4 Bft) 96,67 %
21.05.2018 07:27 13,8 C 16,7 C 76 % 1015,6 hPa 0,0 l/m 16,6 km/h (3 Bft) SO 128 1 min 0,000 mm 0,5 UV-I 273 W/m 9,6 C 9,2 C 20,9 km/h (4 Bft) 86,96 %
21.05.2018 07:28 13,8 C 16,7 C 76 % 1015,5 hPa 0,0 l/m 16,0 km/h (3 Bft) O 81 1 min 0,000 mm 0,5 UV-I 276 W/m 9,6 C 9,4 C 20,9 km/h (4 Bft) 100,00 %
21.05.2018 07:29 13,9 C 16,7 C 76 % 1015,5 hPa 0,0 l/m 13,6 km/h (3 Bft) O-SO 103 1 min 0,000 mm 0,5 UV-I 279 W/m 9,7 C 10,4 C 19,3 km/h (3 Bft) 96,30 %
21.05.2018 07:30 13,9 C 16,7 C 76 % 1015,5 hPa 0,0 l/m 15,8 km/h (3 Bft) O 80 1 min 0,000 mm 0,5 UV-I 282 W/m 9,7 C 9,6 C 22,5 km/h (4 Bft) 96,55 %
21.05.2018 07:31 13,9 C 16,7 C 76 % 1015,5 hPa 0,0 l/m 16,7 km/h (3 Bft) O-SO 104 1 min 0,000 mm 0,5 UV-I 286 W/m 9,7 C 9,3 C 24,1 km/h (4 Bft) 92,31 %
21.05.2018 07:32 13,9 C 16,7 C 75 % 1015,5 hPa 0,0 l/m 18,7 km/h (3 Bft) O 93 1 min 0,000 mm 0,5 UV-I 288 W/m 9,5 C 8,7 C 24,1 km/h (4 Bft) 95,83 %
21.05.2018 07:33 14,0 C 16,7 C 75 % 1015,5 hPa 0,0 l/m 16,0 km/h (3 Bft) O 84 1 min 0,000 mm 0,5 UV-I 289 W/m 9,6 C 9,6 C 22,5 km/h (4 Bft) 91,30 %
21.05.2018 07:34 14,1 C 16,7 C 75 % 1015,5 hPa 0,0 l/m 15,2 km/h (3 Bft) O 90 1 min 0,000 mm 0,5 UV-I 293 W/m 9,7 C 10,0 C 22,5 km/h (4 Bft) 95,83 %
21.05.2018 07:35 14,1 C 16,7 C 75 % 1015,5 hPa 0,0 l/m 14,2 km/h (3 Bft) O-NO 66 1 min 0,000 mm 0,5 UV-I 296 W/m 9,7 C 10,4 C 19,3 km/h (3 Bft) 83,33 %
21.05.2018 07:36 14,1 C 16,7 C 75 % 1015,5 hPa 0,0 l/m 17,7 km/h (3 Bft) O 82 1 min 0,000 mm 0,5 UV-I 299 W/m 9,7 C 9,2 C 20,9 km/h (4 Bft) 96,55 %
21.05.2018 07:37 14,2 C 16,7 C 75 % 1015,5 hPa 0,0 l/m 17,4 km/h (3 Bft) O-SO 103 1 min 0,000 mm 0,5 UV-I 301 W/m 9,8 C 9,4 C 24,1 km/h (4 Bft) 96,30 %
21.05.2018 07:38 14,2 C 16,7 C 75 % 1015,5 hPa 0,0 l/m 18,2 km/h (3 Bft) O-NO 61 1 min 0,000 mm 0,6 UV-I 304 W/m 9,8 C 9,2 C 22,5 km/h (4 Bft) 95,65 %
21.05.2018 07:39 14,2 C 16,7 C 75 % 1015,5 hPa 0,0 l/m 13,8 km/h (3 Bft) O 91 1 min 0,000 mm 0,6 UV-I 308 W/m 9,8 C 10,6 C 17,7 km/h (3 Bft) 100,00 %
21.05.2018 07:40 14,2 C 16,7 C 75 % 1015,5 hPa 0,0 l/m 14,3 km/h (3 Bft) O-SO 105 1 min 0,000 mm 0,6 UV-I 310 W/m 9,8 C 10,5 C 20,9 km/h (4 Bft) 90,91 %
21.05.2018 07:41 14,3 C 16,7 C 75 % 1015,5 hPa 0,0 l/m 14,8 km/h (3 Bft) O-NO 74 1 min 0,000 mm 0,6 UV-I 314 W/m 9,9 C 10,4 C 22,5 km/h (4 Bft) 96,67 %
21.05.2018 07:42 14,3 C 16,7 C 75 % 1015,5 hPa 0,0 l/m 16,1 km/h (3 Bft) O 94 1 min 0,000 mm 0,6 UV-I 316 W/m 9,9 C 10,0 C 19,3 km/h (3 Bft) 92,31 %
21.05.2018 07:43 14,4 C 16,7 C 75 % 1015,5 hPa 0,0 l/m 22,7 km/h (4 Bft) O-SO 111 1 min 0,000 mm 0,6 UV-I 319 W/m 10,0 C 8,3 C 30,6 km/h (5 Bft) 100,00 %
21.05.2018 07:44 14,4 C 16,7 C 74 % 1015,4 hPa 0,0 l/m 20,4 km/h (4 Bft) O 92 1 min 0,000 mm 0,6 UV-I 322 W/m 9,8 C 8,9 C 27,4 km/h (4 Bft) 96,15 %
21.05.2018 07:45 14,4 C 16,7 C 74 % 1015,5 hPa 0,0 l/m 19,4 km/h (3 Bft) O 91 1 min 0,000 mm 0,6 UV-I 326 W/m 9,8 C 9,1 C 27,4 km/h (4 Bft) 100,00 %
21.05.2018 07:46 14,4 C 16,7 C 74 % 1015,5 hPa 0,0 l/m 14,7 km/h (3 Bft) O 91 1 min 0,000 mm 0,6 UV-I 328 W/m 9,8 C 10,6 C 20,9 km/h (4 Bft) 96,15 %
21.05.2018 07:47 14,4 C 16,7 C 74 % 1015,5 hPa 0,0 l/m 18,0 km/h (3 Bft) O 84 1 min 0,000 mm 0,6 UV-I 331 W/m 9,8 C 9,5 C 25,7 km/h (4 Bft) 95,83 %
21.05.2018 07:48 14,4 C 16,7 C 74 % 1015,4 hPa 0,0 l/m 14,3 km/h (3 Bft) O 84 1 min 0,000 mm 0,6 UV-I 333 W/m 9,8 C 10,7 C 19,3 km/h (3 Bft) 100,00 %
21.05.2018 07:49 14,5 C 16,7 C 74 % 1015,4 hPa 0,0 l/m 18,0 km/h (3 Bft) O-NO 77 1 min 0,000 mm 0,7 UV-I 336 W/m 9,9 C 9,6 C 22,5 km/h (4 Bft) 95,83 %
21.05.2018 07:50 14,6 C 16,7 C 74 % 1015,4 hPa 0,0 l/m 19,6 km/h (3 Bft) O-NO 75 1 min 0,000 mm 0,7 UV-I 339 W/m 10,0 C 9,3 C 24,1 km/h (4 Bft) 100,00 %
21.05.2018 07:51 14,6 C 16,7 C 74 % 1015,4 hPa 0,0 l/m 17,7 km/h (3 Bft) O 80 1 min 0,000 mm 0,7 UV-I 342 W/m 10,0 C 9,9 C 20,9 km/h (4 Bft) 96,55 %
21.05.2018 07:52 14,6 C 16,7 C 74 % 1015,4 hPa 0,0 l/m 16,4 km/h (3 Bft) O-NO 71 1 min 0,000 mm 0,7 UV-I 344 W/m 10,0 C 10,3 C 22,5 km/h (4 Bft) 100,00 %
21.05.2018 07:53 14,6 C 16,7 C 74 % 1015,4 hPa 0,0 l/m 18,0 km/h (3 Bft) O 87 1 min 0,000 mm 0,7 UV-I 346 W/m 10,0 C 9,8 C 24,1 km/h (4 Bft) 91,67 %
21.05.2018 07:54 14,6 C 16,7 C 73 % 1015,4 hPa 0,0 l/m 22,0 km/h (4 Bft) O-NO 77 1 min 0,000 mm 0,7 UV-I 340 W/m 9,8 C 8,7 C 27,4 km/h (4 Bft) 100,00 %
21.05.2018 07:55 14,6 C 16,7 C 73 % 1015,4 hPa 0,0 l/m 20,5 km/h (4 Bft) O 100 1 min 0,000 mm 0,7 UV-I 347 W/m 9,8 C 9,1 C 25,7 km/h (4 Bft) 96,15 %
21.05.2018 07:56 14,7 C 16,7 C 73 % 1015,4 hPa 0,0 l/m 21,8 km/h (4 Bft) O-NO 72 1 min 0,000 mm 0,7 UV-I 357 W/m 9,9 C 8,9 C 29,0 km/h (5 Bft) 96,77 %
21.05.2018 07:57 14,6 C 16,7 C 73 % 1015,4 hPa 0,0 l/m 20,4 km/h (4 Bft) O-NO 62 1 min 0,000 mm 0,7 UV-I 359 W/m 9,8 C 9,1 C 25,7 km/h (4 Bft) 100,00 %
21.05.2018 07:58 14,7 C 16,7 C 73 % 1015,4 hPa 0,0 l/m 20,3 km/h (4 Bft) O-NO 62 1 min 0,000 mm 0,7 UV-I 361 W/m 9,9 C 9,3 C 25,7 km/h (4 Bft) 96,97 %
21.05.2018 07:59 14,7 C 16,7 C 73 % 1015,4 hPa 0,0 l/m 17,9 km/h (3 Bft) O 88 1 min 0,000 mm 0,8 UV-I 364 W/m 9,9 C 9,9 C 22,5 km/h (4 Bft) 100,00 %
21.05.2018 08:00 14,7 C 16,7 C 73 % 1015,4 hPa 0,0 l/m 17,6 km/h (3 Bft) O 82 1 min 0,000 mm 0,8 UV-I 367 W/m 9,9 C 10,0 C 24,1 km/h (4 Bft) 96,30 %
21.05.2018 08:02 14,8 C 16,7 C 73 % 1015,3 hPa 0,0 l/m 18,8 km/h (3 Bft) O-NO 78 2 min 0,203 mm 0,8 UV-I 370 W/m 10,0 C 9,8 C 24,1 km/h (4 Bft) 98,21 %
21.05.2018 08:03 14,8 C 16,7 C 73 % 1015,3 hPa 0,0 l/m 20,1 km/h (4 Bft) NO 52 1 min 0,000 mm 0,8 UV-I 373 W/m 10,0 C 9,5 C 29,0 km/h (5 Bft) 100,00 %
21.05.2018 08:04 14,8 C 16,7 C 73 % 1015,3 hPa 0,0 l/m 22,7 km/h (4 Bft) O-NO 59 1 min 0,000 mm 0,8 UV-I 376 W/m 10,0 C 8,8 C 29,0 km/h (5 Bft) 100,00 %
21.05.2018 08:05 14,8 C 16,7 C 72 % 1015,3 hPa 0,0 l/m 23,3 km/h (4 Bft) O 82 1 min 0,000 mm 0,8 UV-I 379 W/m 9,8 C 8,7 C 29,0 km/h (5 Bft) 97,37 %
21.05.2018 08:06 14,8 C 16,7 C 72 % 1015,3 hPa 0,0 l/m 20,7 km/h (4 Bft) O-NO 76 1 min 0,000 mm 0,8 UV-I 382 W/m 9,8 C 9,3 C 27,4 km/h (4 Bft) 96,30 %
21.05.2018 08:07 14,9 C 16,7 C 73 % 1015,3 hPa 0,0 l/m 15,4 km/h (3 Bft) O 94 1 min 0,000 mm 0,8 UV-I 387 W/m 10,1 C 10,9 C 22,5 km/h (4 Bft) 92,31 %
21.05.2018 08:08 14,9 C 16,7 C 73 % 1015,3 hPa 0,0 l/m 20,0 km/h (4 Bft) O 90 1 min 0,000 mm 0,9 UV-I 388 W/m 10,1 C 9,6 C 25,7 km/h (4 Bft) 100,00 %
21.05.2018 08:09 14,9 C 16,7 C 72 % 1015,3 hPa 0,0 l/m 22,1 km/h (4 Bft) O-SO 105 1 min 0,000 mm 0,9 UV-I 390 W/m 9,9 C 9,1 C 32,2 km/h (5 Bft) 96,67 %
21.05.2018 08:10 14,9 C 16,7 C 72 % 1015,3 hPa 0,0 l/m 20,6 km/h (4 Bft) O-SO 110 1 min 0,000 mm 0,9 UV-I 393 W/m 9,9 C 9,5 C 29,0 km/h (5 Bft) 100,00 %
21.05.2018 08:11 14,9 C 16,7 C 72 % 1015,3 hPa 0,0 l/m 19,5 km/h (3 Bft) O-NO 66 1 min 0,000 mm 0,9 UV-I 398 W/m 9,9 C 9,7 C 27,4 km/h (4 Bft) 96,30 %
21.05.2018 08:12 15,0 C 16,7 C 72 % 1015,3 hPa 0,0 l/m 18,2 km/h (3 Bft) O-SO 121 1 min 0,000 mm 0,9 UV-I 400 W/m 10,0 C 10,2 C 24,1 km/h (4 Bft) 100,00 %
21.05.2018 08:13 15,1 C 16,7 C 72 % 1015,3 hPa 0,0 l/m 20,3 km/h (4 Bft) O 85 1 min 0,000 mm 0,9 UV-I 404 W/m 10,1 C 9,8 C 25,7 km/h (4 Bft) 96,30 %
21.05.2018 08:14 15,1 C 16,7 C 72 % 1015,3 hPa 0,0 l/m 22,9 km/h (4 Bft) O 86 1 min 0,000 mm 0,9 UV-I 406 W/m 10,1 C 9,2 C 29,0 km/h (5 Bft) 100,00 %
21.05.2018 08:15 15,2 C 16,7 C 71 % 1015,3 hPa 0,0 l/m 23,4 km/h (4 Bft) O 90 1 min 0,000 mm 0,9 UV-I 409 W/m 10,0 C 9,2 C 29,0 km/h (5 Bft) 96,30 %
21.05.2018 08:16 15,2 C 16,7 C 71 % 1015,3 hPa 0,0 l/m 23,7 km/h (4 Bft) O 93 1 min 0,000 mm 0,9 UV-I 410 W/m 10,0 C 9,1 C 27,4 km/h (4 Bft) 100,00 %
21.05.2018 08:17 15,2 C 16,7 C 71 % 1015,3 hPa 0,0 l/m 20,4 km/h (4 Bft) O 92 1 min 0,000 mm 1,0 UV-I 413 W/m 10,0 C 9,9 C 27,4 km/h (4 Bft) 93,33 %
21.05.2018 08:18 15,2 C 16,7 C 71 % 1015,3 hPa 0,0 l/m 24,3 km/h (4 Bft) NO 50 1 min 0,000 mm 1,0 UV-I 415 W/m 10,0 C 9,0 C 30,6 km/h (5 Bft) 100,00 %
21.05.2018 08:19 15,2 C 16,7 C 71 % 1015,2 hPa 0,0 l/m 18,0 km/h (3 Bft) O 81 1 min 0,000 mm 1,0 UV-I 418 W/m 10,0 C 10,5 C 20,9 km/h (4 Bft) 100,00 %
21.05.2018 08:20 15,3 C 16,7 C 71 % 1015,2 hPa 0,0 l/m 19,2 km/h (3 Bft) O 97 1 min 0,000 mm 1,0 UV-I 423 W/m 10,1 C 10,3 C 29,0 km/h (5 Bft) 93,10 %
21.05.2018 08:21 15,3 C 16,7 C 71 % 1015,3 hPa 0,0 l/m 19,6 km/h (3 Bft) O 88 1 min 0,000 mm 1,0 UV-I 424 W/m 10,1 C 10,2 C 27,4 km/h (4 Bft) 100,00 %
21.05.2018 08:22 15,3 C 16,7 C 72 % 1015,2 hPa 0,0 l/m 17,2 km/h (3 Bft) O 89 1 min 0,000 mm 1,0 UV-I 426 W/m 10,3 C 10,9 C 22,5 km/h (4 Bft) 100,00 %
21.05.2018 08:23 15,3 C 16,7 C 71 % 1015,2 hPa 0,0 l/m 19,5 km/h (3 Bft) O-NO 68 1 min 0,000 mm 1,0 UV-I 430 W/m 10,1 C 10,3 C 25,7 km/h (4 Bft) 100,00 %
21.05.2018 08:24 15,3 C 16,7 C 71 % 1015,2 hPa 0,0 l/m 17,8 km/h (3 Bft) O 84 1 min 0,000 mm 1,1 UV-I 432 W/m 10,1 C 10,7 C 24,1 km/h (4 Bft) 100,00 %
21.05.2018 08:25 15,4 C 16,7 C 72 % 1015,2 hPa 0,0 l/m 14,5 km/h (3 Bft) O 81 1 min 0,000 mm 1,1 UV-I 434 W/m 10,4 C 11,8 C 19,3 km/h (3 Bft) 100,00 %
21.05.2018 08:26 15,5 C 16,7 C 72 % 1015,2 hPa 0,0 l/m 21,5 km/h (4 Bft) O 93 1 min 0,000 mm 1,1 UV-I 438 W/m 10,5 C 10,0 C 25,7 km/h (4 Bft) 100,00 %
21.05.2018 08:27 15,6 C 16,7 C 71 % 1015,2 hPa 0,0 l/m 19,6 km/h (3 Bft) O-NO 77 1 min 0,000 mm 1,1 UV-I 440 W/m 10,4 C 10,6 C 27,4 km/h (4 Bft) 100,00 %
21.05.2018 08:28 15,6 C 16,7 C 71 % 1015,2 hPa 0,0 l/m 16,1 km/h (3 Bft) O 96 1 min 0,000 mm 1,1 UV-I 442 W/m 10,4 C 11,6 C 20,9 km/h (4 Bft) 93,33 %
21.05.2018 08:29 15,6 C 16,7 C 72 % 1015,2 hPa 0,0 l/m 15,9 km/h (3 Bft) O 93 1 min 0,000 mm 1,1 UV-I 444 W/m 10,6 C 11,6 C 22,5 km/h (4 Bft) 100,00 %
21.05.2018 08:30 15,6 C 16,7 C 71 % 1015,2 hPa 0,0 l/m 21,6 km/h (4 Bft) O 100 1 min 0,000 mm 1,1 UV-I 448 W/m 10,4 C 10,1 C 25,7 km/h (4 Bft) 100,00 %
21.05.2018 08:31 15,6 C 16,7 C 71 % 1015,2 hPa 0,0 l/m 18,3 km/h (3 Bft) O-NO 73 1 min 0,000 mm 1,1 UV-I 452 W/m 10,4 C 11,0 C 22,5 km/h (4 Bft) 100,00 %
21.05.2018 08:32 15,6 C 17,2 C 71 % 1015,2 hPa 0,0 l/m 16,3 km/h (3 Bft) O 80 1 min 0,000 mm 1,2 UV-I 454 W/m 10,4 C 11,5 C 24,1 km/h (4 Bft) 100,00 %
21.05.2018 08:33 15,7 C 17,2 C 72 % 1015,2 hPa 0,0 l/m 21,2 km/h (4 Bft) O-NO 59 1 min 0,000 mm 1,2 UV-I 456 W/m 10,7 C 10,4 C 27,4 km/h (4 Bft) 95,65 %
21.05.2018 08:34 15,7 C 16,7 C 71 % 1015,2 hPa 0,0 l/m 19,6 km/h (3 Bft) O 88 1 min 0,000 mm 1,2 UV-I 459 W/m 10,5 C 10,7 C 24,1 km/h (4 Bft) 100,00 %
21.05.2018 08:35 15,7 C 16,7 C 71 % 1015,2 hPa 0,0 l/m 19,0 km/h (3 Bft) O-NO 72 1 min 0,000 mm 1,2 UV-I 462 W/m 10,5 C 10,9 C 24,1 km/h (4 Bft) 100,00 %
21.05.2018 08:36 15,6 C 16,7 C 71 % 1015,2 hPa 0,0 l/m 19,8 km/h (3 Bft) NO 49 1 min 0,000 mm 1,2 UV-I 466 W/m 10,4 C 10,6 C 25,7 km/h (4 Bft) 100,00 %
21.05.2018 08:37 15,6 C 16,7 C 70 % 1015,2 hPa 0,0 l/m 17,9 km/h (3 Bft) O-NO 78 1 min 0,000 mm 1,2 UV-I 466 W/m 10,1 C 11,1 C 25,7 km/h (4 Bft) 100,00 %
21.05.2018 08:38 15,6 C 16,7 C 71 % 1015,2 hPa 0,0 l/m 16,7 km/h (3 Bft) O-NO 61 1 min 0,000 mm 1,2 UV-I 470 W/m 10,4 C 11,4 C 22,5 km/h (4 Bft) 100,00 %
21.05.2018 08:39 15,6 C 16,7 C 70 % 1015,2 hPa 0,0 l/m 16,7 km/h (3 Bft) O 86 1 min 0,000 mm 1,2 UV-I 472 W/m 10,1 C 11,4 C 22,5 km/h (4 Bft) 100,00 %
21.05.2018 08:40 15,6 C 16,7 C 71 % 1015,2 hPa 0,0 l/m 20,9 km/h (4 Bft) O-NO 73 1 min 0,000 mm 1,3 UV-I 475 W/m 10,4 C 10,3 C 25,7 km/h (4 Bft) 100,00 %
21.05.2018 08:41 15,6 C 16,7 C 70 % 1015,2 hPa 0,0 l/m 14,8 km/h (3 Bft) O 86 1 min 0,000 mm 1,3 UV-I 477 W/m 10,1 C 12,0 C 17,7 km/h (3 Bft) 91,67 %
21.05.2018 08:42 15,6 C 16,7 C 71 % 1015,2 hPa 0,0 l/m 13,9 km/h (3 Bft) O 86 1 min 0,000 mm 1,3 UV-I 480 W/m 10,4 C 12,3 C 19,3 km/h (3 Bft) 100,00 %
21.05.2018 08:43 15,6 C 17,2 C 71 % 1015,2 hPa 0,0 l/m 19,1 km/h (3 Bft) O-NO 78 1 min 0,000 mm 1,3 UV-I 483 W/m 10,4 C 10,7 C 24,1 km/h (4 Bft) 100,00 %
21.05.2018 08:44 15,7 C 17,2 C 71 % 1015,2 hPa 0,0 l/m 16,5 km/h (3 Bft) O-NO 67 1 min 0,000 mm 1,3 UV-I 486 W/m 10,5 C 11,6 C 22,5 km/h (4 Bft) 100,00 %
21.05.2018 08:45 15,7 C 16,7 C 71 % 1015,2 hPa 0,0 l/m 17,2 km/h (3 Bft) O-NO 74 1 min 0,000 mm 1,3 UV-I 489 W/m 10,5 C 11,4 C 20,9 km/h (4 Bft) 100,00 %
21.05.2018 08:46 15,8 C 16,7 C 71 % 1015,2 hPa 0,0 l/m 15,9 km/h (3 Bft) O 98 1 min 0,000 mm 1,3 UV-I 492 W/m 10,6 C 11,9 C 20,9 km/h (4 Bft) 100,00 %
21.05.2018 08:47 15,9 C 17,2 C 72 % 1015,2 hPa 0,0 l/m 15,4 km/h (3 Bft) O 92 1 min 0,000 mm 1,3 UV-I 495 W/m 10,9 C 12,2 C 17,7 km/h (3 Bft) 100,00 %
21.05.2018 08:48 16,1 C 17,2 C 71 % 1015,2 hPa 0,0 l/m 15,3 km/h (3 Bft) O-NO 63 1 min 0,000 mm 1,4 UV-I 497 W/m 10,8 C 12,4 C 20,9 km/h (4 Bft) 100,00 %
21.05.2018 08:49 16,2 C 17,2 C 70 % 1015,2 hPa 0,0 l/m 18,2 km/h (3 Bft) O 101 1 min 0,000 mm 1,4 UV-I 500 W/m 10,7 C 11,7 C 25,7 km/h (4 Bft) 100,00 %
21.05.2018 08:50 16,2 C 17,2 C 70 % 1015,2 hPa 0,0 l/m 18,5 km/h (3 Bft) O 95 1 min 0,000 mm 1,4 UV-I 502 W/m 10,7 C 11,7 C 25,7 km/h (4 Bft) 100,00 %
21.05.2018 08:51 16,2 C 17,2 C 69 % 1015,1 hPa 0,0 l/m 24,3 km/h (4 Bft) O 95 1 min 0,000 mm 1,4 UV-I 504 W/m 10,5 C 10,4 C 29,0 km/h (5 Bft) 100,00 %
21.05.2018 08:52 16,2 C 17,2 C 69 % 1015,1 hPa 0,0 l/m 18,8 km/h (3 Bft) O 79 1 min 0,000 mm 1,4 UV-I 507 W/m 10,5 C 11,6 C 24,1 km/h (4 Bft) 100,00 %
21.05.2018 08:53 16,2 C 17,2 C 69 % 1015,1 hPa 0,0 l/m 20,8 km/h (4 Bft) O 80 1 min 0,000 mm 1,4 UV-I 510 W/m 10,5 C 11,1 C 29,0 km/h (5 Bft) 100,00 %
21.05.2018 08:54 16,2 C 17,2 C 68 % 1015,2 hPa 0,0 l/m 24,3 km/h (4 Bft) O 93 1 min 0,000 mm 1,5 UV-I 513 W/m 10,3 C 10,4 C 30,6 km/h (5 Bft) 100,00 %
21.05.2018 08:55 16,2 C 17,2 C 69 % 1015,2 hPa 0,0 l/m 17,1 km/h (3 Bft) O 92 1 min 0,000 mm 1,5 UV-I 515 W/m 10,5 C 12,0 C 22,5 km/h (4 Bft) 100,00 %
21.05.2018 08:56 16,2 C 17,2 C 69 % 1015,1 hPa 0,0 l/m 17,5 km/h (3 Bft) O-NO 78 1 min 0,000 mm 1,5 UV-I 518 W/m 10,5 C 11,9 C 24,1 km/h (4 Bft) 97,94 %
21.05.2018 08:57 16,2 C 17,2 C 70 % 1015,1 hPa 0,0 l/m 22,7 km/h (4 Bft) O 96 1 min 0,000 mm 1,5 UV-I 520 W/m 10,7 C 10,7 C 29,0 km/h (5 Bft) 95,74 %
21.05.2018 08:58 16,3 C 17,2 C 69 % 1015,1 hPa 0,0 l/m 17,1 km/h (3 Bft) O-NO 78 1 min 0,000 mm 1,5 UV-I 523 W/m 10,6 C 12,2 C 24,1 km/h (4 Bft) 100,00 %
21.05.2018 08:59 16,3 C 17,2 C 69 % 1015,1 hPa 0,0 l/m 17,4 km/h (3 Bft) O-SO 104 1 min 0,000 mm 1,5 UV-I 526 W/m 10,6 C 12,1 C 20,9 km/h (4 Bft) 96,15 %
21.05.2018 09:00 16,4 C 17,2 C 69 % 1015,1 hPa 0,0 l/m 20,2 km/h (4 Bft) O 83 1 min 0,000 mm 1,5 UV-I 529 W/m 10,7 C 11,5 C 27,4 km/h (4 Bft) 100,00 %
21.05.2018 09:02 16,4 C 17,2 C 68 % 1015,1 hPa 0,0 l/m 20,6 km/h (4 Bft) O 91 2 min 0,305 mm 1,6 UV-I 533 W/m 10,5 C 11,4 C 24,1 km/h (4 Bft) 100,00 %
21.05.2018 09:03 16,4 C 17,2 C 69 % 1015,1 hPa 0,0 l/m 15,3 km/h (3 Bft) O-SO 117 1 min 0,000 mm 1,6 UV-I 537 W/m 10,7 C 12,8 C 17,7 km/h (3 Bft) 96,15 %
21.05.2018 09:04 16,6 C 17,2 C 69 % 1015,1 hPa 0,0 l/m 16,0 km/h (3 Bft) O 89 1 min 0,000 mm 1,6 UV-I 539 W/m 10,9 C 12,8 C 20,9 km/h (4 Bft) 95,83 %
21.05.2018 09:05 16,6 C 17,2 C 68 % 1015,0 hPa 0,0 l/m 15,2 km/h (3 Bft) O 85 1 min 0,000 mm 1,6 UV-I 543 W/m 10,7 C 13,1 C 24,1 km/h (4 Bft) 96,55 %
21.05.2018 09:06 16,6 C 17,2 C 68 % 1015,1 hPa 0,0 l/m 19,3 km/h (3 Bft) O-SO 113 1 min 0,000 mm 1,6 UV-I 545 W/m 10,7 C 12,0 C 24,1 km/h (4 Bft) 93,33 %
21.05.2018 09:07 16,7 C 17,2 C 68 % 1015,1 hPa 0,0 l/m 18,6 km/h (3 Bft) O-NO 69 1 min 0,000 mm 1,7 UV-I 546 W/m 10,8 C 12,3 C 24,1 km/h (4 Bft) 100,00 %
21.05.2018 09:08 16,8 C 17,2 C 68 % 1015,1 hPa 0,0 l/m 17,6 km/h (3 Bft) O-SO 106 1 min 0,000 mm 1,7 UV-I 549 W/m 10,9 C 12,7 C 24,1 km/h (4 Bft) 91,67 %
21.05.2018 09:09 16,8 C 17,2 C 68 % 1015,1 hPa 0,0 l/m 16,3 km/h (3 Bft) O-SO 108 1 min 0,000 mm 1,7 UV-I 551 W/m 10,9 C 13,0 C 22,5 km/h (4 Bft) 96,88 %
21.05.2018 09:10 16,9 C 17,2 C 68 % 1015,1 hPa 0,0 l/m 16,1 km/h (3 Bft) O 85 1 min 0,000 mm 1,7 UV-I 553 W/m 11,0 C 13,2 C 19,3 km/h (3 Bft) 96,30 %
21.05.2018 09:11 16,9 C 17,2 C 67 % 1015,1 hPa 0,0 l/m 19,1 km/h (3 Bft) O-NO 59 1 min 0,000 mm 1,7 UV-I 555 W/m 10,7 C 12,4 C 22,5 km/h (4 Bft) 96,15 %
21.05.2018 09:12 16,9 C 17,2 C 67 % 1015,1 hPa 0,0 l/m 18,3 km/h (3 Bft) NO 44 1 min 0,000 mm 1,7 UV-I 559 W/m 10,7 C 12,6 C 24,1 km/h (4 Bft) 100,00 %
21.05.2018 09:13 16,9 C 17,2 C 67 % 1015,0 hPa 0,0 l/m 16,7 km/h (3 Bft) O 96 1 min 0,000 mm 1,8 UV-I 562 W/m 10,7 C 13,0 C 22,5 km/h (4 Bft) 96,15 %
21.05.2018 09:14 16,9 C 17,2 C 67 % 1015,0 hPa 0,0 l/m 16,2 km/h (3 Bft) O-NO 60 1 min 0,000 mm 1,8 UV-I 565 W/m 10,7 C 13,2 C 22,5 km/h (4 Bft) 100,00 %
21.05.2018 09:15 16,9 C 17,2 C 68 % 1015,0 hPa 0,0 l/m 13,7 km/h (3 Bft) O 92 1 min 0,000 mm 1,8 UV-I 566 W/m 11,0 C 13,9 C 20,9 km/h (4 Bft) 94,12 %
21.05.2018 09:16 17,1 C 17,2 C 68 % 1014,9 hPa 0,0 l/m 18,8 km/h (3 Bft) O-NO 74 1 min 0,000 mm 1,8 UV-I 569 W/m 11,1 C 12,7 C 24,1 km/h (4 Bft) 100,00 %
21.05.2018 09:17 17,1 C 17,2 C 68 % 1014,9 hPa 0,0 l/m 15,6 km/h (3 Bft) O 92 1 min 0,000 mm 1,8 UV-I 573 W/m 11,1 C 13,6 C 19,3 km/h (3 Bft) 92,31 %
21.05.2018 09:18 17,2 C 17,2 C 67 % 1014,9 hPa 0,0 l/m 15,8 km/h (3 Bft) O 96 1 min 0,000 mm 1,8 UV-I 575 W/m 11,0 C 13,6 C 20,9 km/h (4 Bft) 100,00 %
21.05.2018 09:19 17,2 C 17,2 C 67 % 1014,9 hPa 0,0 l/m 19,0 km/h (3 Bft) O-NO 67 1 min 0,000 mm 1,8 UV-I 577 W/m 11,0 C 12,8 C 25,7 km/h (4 Bft) 96,15 %
21.05.2018 09:20 17,2 C 17,2 C 66 % 1014,9 hPa 0,0 l/m 16,1 km/h (3 Bft) O 90 1 min 0,000 mm 1,9 UV-I 579 W/m 10,8 C 13,5 C 22,5 km/h (4 Bft) 100,00 %
21.05.2018 09:21 17,3 C 17,2 C 67 % 1014,9 hPa 0,0 l/m 13,8 km/h (3 Bft) O 91 1 min 0,000 mm 1,9 UV-I 581 W/m 11,1 C 14,3 C 20,9 km/h (4 Bft) 95,65 %
21.05.2018 09:22 17,4 C 17,2 C 68 % 1014,8 hPa 0,0 l/m 16,8 km/h (3 Bft) O 99 1 min 0,000 mm 1,9 UV-I 584 W/m 11,4 C 13,6 C 22,5 km/h (4 Bft) 100,00 %
21.05.2018 09:23 17,5 C 17,2 C 67 % 1014,8 hPa 0,0 l/m 20,0 km/h (4 Bft) O-NO 66 1 min 0,000 mm 1,9 UV-I 587 W/m 11,3 C 13,0 C 24,1 km/h (4 Bft) 96,30 %
21.05.2018 09:24 17,6 C 17,2 C 66 % 1014,8 hPa 0,0 l/m 21,7 km/h (4 Bft) O 84 1 min 0,000 mm 1,9 UV-I 592 W/m 11,2 C 12,7 C 29,0 km/h (5 Bft) 96,15 %
21.05.2018 09:25 17,6 C 17,2 C 66 % 1014,9 hPa 0,0 l/m 18,4 km/h (3 Bft) O 88 1 min 0,000 mm 2,0 UV-I 595 W/m 11,2 C 13,5 C 22,5 km/h (4 Bft) 100,00 %
21.05.2018 09:26 17,6 C 17,2 C 66 % 1014,8 hPa 0,0 l/m 17,6 km/h (3 Bft) O-NO 71 1 min 0,000 mm 2,0 UV-I 599 W/m 11,2 C 13,7 C 20,9 km/h (4 Bft) 97,88 %
21.05.2018 09:27 17,6 C 17,2 C 65 % 1014,8 hPa 0,0 l/m 17,8 km/h (3 Bft) O-NO 69 1 min 0,000 mm 2,0 UV-I 602 W/m 10,9 C 13,6 C 22,5 km/h (4 Bft) 97,73 %
21.05.2018 09:28 17,6 C 17,2 C 66 % 1014,8 hPa 0,0 l/m 16,7 km/h (3 Bft) O 92 1 min 0,000 mm 2,0 UV-I 605 W/m 11,2 C 13,9 C 20,9 km/h (4 Bft) 100,00 %
21.05.2018 09:29 17,7 C 17,2 C 66 % 1014,9 hPa 0,0 l/m 15,1 km/h (3 Bft) O-NO 78 1 min 0,000 mm 2,0 UV-I 610 W/m 11,3 C 14,4 C 22,5 km/h (4 Bft) 96,30 %
21.05.2018 09:30 17,8 C 17,2 C 66 % 1014,8 hPa 0,0 l/m 15,8 km/h (3 Bft) O-SO 102 1 min 0,000 mm 2,1 UV-I 610 W/m 11,4 C 14,4 C 20,9 km/h (4 Bft) 100,00 %
21.05.2018 09:31 17,8 C 17,2 C 66 % 1014,8 hPa 0,0 l/m 18,7 km/h (3 Bft) O 85 1 min 0,000 mm 2,1 UV-I 614 W/m 11,4 C 13,7 C 25,7 km/h (4 Bft) 100,00 %
21.05.2018 09:32 17,9 C 17,2 C 65 % 1014,8 hPa 0,0 l/m 19,7 km/h (3 Bft) SO 132 1 min 0,000 mm 2,1 UV-I 619 W/m 11,2 C 13,6 C 24,1 km/h (4 Bft) 100,00 %
21.05.2018 09:33 18,0 C 17,2 C 65 % 1014,8 hPa 0,0 l/m 19,6 km/h (3 Bft) O-SO 108 1 min 0,000 mm 2,1 UV-I 621 W/m 11,3 C 13,7 C 25,7 km/h (4 Bft) 97,90 %
21.05.2018 09:34 18,1 C 17,2 C 65 % 1014,8 hPa 0,0 l/m 16,4 km/h (3 Bft) O-NO 65 1 min 0,000 mm 2,1 UV-I 625 W/m 11,4 C 14,6 C 22,5 km/h (4 Bft) 100,00 %
21.05.2018 09:35 18,1 C 17,2 C 64 % 1014,8 hPa 0,0 l/m 19,3 km/h (3 Bft) O 87 1 min 0,000 mm 2,2 UV-I 629 W/m 11,2 C 13,9 C 25,7 km/h (4 Bft) 100,00 %
21.05.2018 09:36 18,1 C 17,2 C 64 % 1014,8 hPa 0,0 l/m 22,1 km/h (4 Bft) O-NO 71 1 min 0,000 mm 2,2 UV-I 631 W/m 11,2 C 13,3 C 29,0 km/h (5 Bft) 100,00 %
21.05.2018 09:38 18,1 C 17,2 C 64 % 1014,7 hPa 0,0 l/m 17,3 km/h (3 Bft) O-NO 60 2 min 0,000 mm 2,2 UV-I 634 W/m 11,2 C 14,4 C 24,1 km/h (4 Bft) 100,00 %
21.05.2018 09:39 18,1 C 17,2 C 64 % 1014,7 hPa 0,0 l/m 18,7 km/h (3 Bft) O-SO 106 1 min 0,000 mm 2,2 UV-I 634 W/m 11,2 C 14,0 C 25,7 km/h (4 Bft) 100,00 %
21.05.2018 09:40 18,1 C 17,2 C 64 % 1014,7 hPa 0,0 l/m 17,5 km/h (3 Bft) O-NO 74 1 min 0,000 mm 2,2 UV-I 635 W/m 11,2 C 14,3 C 24,1 km/h (4 Bft) 100,00 %
21.05.2018 09:41 18,0 C 17,2 C 64 % 1014,7 hPa 0,0 l/m 17,8 km/h (3 Bft) O-NO 67 1 min 0,000 mm 2,2 UV-I 636 W/m 11,1 C 14,1 C 24,1 km/h (4 Bft) 95,00 %
21.05.2018 09:42 18,0 C 17,2 C 64 % 1014,7 hPa 0,0 l/m 20,0 km/h (4 Bft) O-NO 70 1 min 0,000 mm 2,3 UV-I 635 W/m 11,1 C 13,6 C 24,1 km/h (4 Bft) 100,00 %
21.05.2018 09:43 17,9 C 17,2 C 64 % 1014,7 hPa 0,0 l/m 19,8 km/h (3 Bft) O 84 1 min 0,000 mm 2,3 UV-I 637 W/m 11,0 C 13,5 C 27,4 km/h (4 Bft) 100,00 %
21.05.2018 09:44 17,9 C 17,2 C 64 % 1014,7 hPa 0,0 l/m 19,7 km/h (3 Bft) O-NO 63 1 min 0,000 mm 2,3 UV-I 639 W/m 11,0 C 13,6 C 24,1 km/h (4 Bft) 100,00 %
21.05.2018 09:45 17,9 C 17,2 C 64 % 1014,7 hPa 0,0 l/m 17,5 km/h (3 Bft) O 88 1 min 0,000 mm 2,3 UV-I 641 W/m 11,0 C 14,1 C 25,7 km/h (4 Bft) 100,00 %
21.05.2018 09:46 17,9 C 17,2 C 65 % 1014,7 hPa 0,0 l/m 15,7 km/h (3 Bft) O-NO 72 1 min 0,000 mm 2,3 UV-I 645 W/m 11,2 C 14,5 C 19,3 km/h (3 Bft) 100,00 %
21.05.2018 09:47 18,0 C 17,2 C 65 % 1014,7 hPa 0,0 l/m 17,5 km/h (3 Bft) O 90 1 min 0,000 mm 2,3 UV-I 632 W/m 11,3 C 14,2 C 22,5 km/h (4 Bft) 100,00 %
21.05.2018 09:48 18,1 C 17,2 C 64 % 1014,7 hPa 0,0 l/m 16,2 km/h (3 Bft) O-NO 69 1 min 0,000 mm 2,4 UV-I 640 W/m 11,2 C 14,6 C 22,5 km/h (4 Bft) 100,00 %
21.05.2018 09:49 18,1 C 17,2 C 64 % 1014,7 hPa 0,0 l/m 17,4 km/h (3 Bft) O 82 1 min 0,000 mm 2,4 UV-I 649 W/m 11,2 C 14,3 C 24,1 km/h (4 Bft) 100,00 %
21.05.2018 09:50 18,1 C 17,2 C 64 % 1014,7 hPa 0,0 l/m 21,0 km/h (4 Bft) O-NO 70 1 min 0,000 mm 2,4 UV-I 650 W/m 11,2 C 13,5 C 27,4 km/h (4 Bft) 100,00 %
21.05.2018 09:51 18,0 C 17,2 C 64 % 1014,7 hPa 0,0 l/m 20,5 km/h (4 Bft) O-NO 65 1 min 0,000 mm 2,4 UV-I 650 W/m 11,1 C 13,5 C 24,1 km/h (4 Bft) 95,65 %
21.05.2018 09:52 18,1 C 17,2 C 64 % 1014,6 hPa 0,0 l/m 15,3 km/h (3 Bft) O-NO 77 1 min 0,000 mm 2,4 UV-I 652 W/m 11,2 C 14,9 C 20,9 km/h (4 Bft) 95,83 %
21.05.2018 09:53 18,1 C 17,2 C 65 % 1014,6 hPa 0,0 l/m 15,1 km/h (3 Bft) O 86 1 min 0,000 mm 2,5 UV-I 654 W/m 11,4 C 14,9 C 19,3 km/h (3 Bft) 100,00 %
21.05.2018 09:54 18,2 C 17,2 C 65 % 1014,6 hPa 0,0 l/m 19,1 km/h (3 Bft) O-NO 71 1 min 0,000 mm 2,5 UV-I 657 W/m 11,5 C 14,1 C 22,5 km/h (4 Bft) 100,00 %
21.05.2018 09:55 18,3 C 17,2 C 65 % 1014,7 hPa 0,0 l/m 16,1 km/h (3 Bft) O 84 1 min 0,000 mm 2,5 UV-I 660 W/m 11,6 C 14,9 C 19,3 km/h (3 Bft) 100,00 %
21.05.2018 09:56 18,3 C 17,2 C 64 % 1014,6 hPa 0,0 l/m 14,7 km/h (3 Bft) O 95 1 min 0,000 mm 2,5 UV-I 662 W/m 11,4 C 15,3 C 17,7 km/h (3 Bft) 100,00 %
21.05.2018 09:58 18,5 C 17,2 C 64 % 1014,6 hPa 0,0 l/m 16,8 km/h (3 Bft) O-NO 62 2 min 0,000 mm 2,5 UV-I 664 W/m 11,6 C 15,0 C 25,7 km/h (4 Bft) 100,00 %
21.05.2018 09:59 18,6 C 17,2 C 64 % 1014,6 hPa 0,0 l/m 18,0 km/h (3 Bft) O 92 1 min 0,000 mm 2,6 UV-I 665 W/m 11,7 C 14,8 C 25,7 km/h (4 Bft) 100,00 %
21.05.2018 10:00 18,6 C 17,2 C 63 % 1014,6 hPa 0,0 l/m 21,0 km/h (4 Bft) O-NO 71 1 min 0,000 mm 2,6 UV-I 669 W/m 11,4 C 14,2 C 27,4 km/h (4 Bft) 100,00 %
21.05.2018 10:01 18,7 C 17,2 C 63 % 1014,5 hPa 0,0 l/m 19,2 km/h (3 Bft) O-SO 103 1 min 0,406 mm 2,6 UV-I 670 W/m 11,5 C 14,7 C 25,7 km/h (4 Bft) 100,00 %
21.05.2018 10:02 18,7 C 17,2 C 63 % 1014,6 hPa 0,0 l/m 16,6 km/h (3 Bft) O 80 1 min 0,000 mm 2,6 UV-I 672 W/m 11,5 C 15,3 C 22,5 km/h (4 Bft) 100,00 %
21.05.2018 10:03 18,8 C 17,2 C 63 % 1014,5 hPa 0,0 l/m 21,8 km/h (4 Bft) O 88 1 min 0,000 mm 2,6 UV-I 674 W/m 11,6 C 14,3 C 27,4 km/h (4 Bft) 100,00 %
21.05.2018 10:04 18,8 C 17,2 C 62 % 1014,5 hPa 0,0 l/m 23,0 km/h (4 Bft) O 86 1 min 0,000 mm 2,7 UV-I 677 W/m 11,4 C 14,1 C 30,6 km/h (5 Bft) 100,00 %
21.05.2018 10:05 18,8 C 17,2 C 62 % 1014,5 hPa 0,0 l/m 20,8 km/h (4 Bft) O-SO 106 1 min 0,000 mm 2,7 UV-I 679 W/m 11,4 C 14,5 C 27,4 km/h (4 Bft) 95,83 %
21.05.2018 10:06 18,9 C 17,2 C 62 % 1014,5 hPa 0,0 l/m 19,7 km/h (3 Bft) O-NO 72 1 min 0,000 mm 2,7 UV-I 681 W/m 11,5 C 14,8 C 25,7 km/h (4 Bft) 100,00 %
21.05.2018 10:07 18,9 C 17,2 C 62 % 1014,5 hPa 0,0 l/m 21,1 km/h (4 Bft) O-NO 78 1 min 0,000 mm 2,7 UV-I 683 W/m 11,5 C 14,6 C 32,2 km/h (5 Bft) 100,00 %
21.05.2018 10:08 18,9 C 17,2 C 61 % 1014,4 hPa 0,0 l/m 19,8 km/h (3 Bft) NO 42 1 min 0,000 mm 2,7 UV-I 686 W/m 11,2 C 14,8 C 24,1 km/h (4 Bft) 100,00 %
21.05.2018 10:09 18,9 C 17,2 C 61 % 1014,5 hPa 0,0 l/m 17,9 km/h (3 Bft) O-NO 69 1 min 0,000 mm 2,8 UV-I 686 W/m 11,2 C 15,2 C 25,7 km/h (4 Bft) 100,00 %
21.05.2018 10:10 18,9 C 17,2 C 62 % 1014,5 hPa 0,0 l/m 20,3 km/h (4 Bft) O-NO 59 1 min 0,000 mm 2,8 UV-I 687 W/m 11,5 C 14,7 C 32,2 km/h (5 Bft) 100,00 %
21.05.2018 10:11 19,0 C 17,2 C 62 % 1014,5 hPa 0,0 l/m 22,5 km/h (4 Bft) O 86 1 min 0,000 mm 2,8 UV-I 691 W/m 11,6 C 14,4 C 29,0 km/h (5 Bft) 100,00 %
21.05.2018 10:12 19,1 C 17,2 C 62 % 1014,5 hPa 0,0 l/m 22,6 km/h (4 Bft) O-NO 74 1 min 0,000 mm 2,8 UV-I 691 W/m 11,6 C 14,6 C 29,0 km/h (5 Bft) 100,00 %
21.05.2018 10:13 19,0 C 17,2 C 61 % 1014,4 hPa 0,0 l/m 19,0 km/h (3 Bft) O 100 1 min 0,000 mm 2,8 UV-I 690 W/m 11,3 C 15,1 C 25,7 km/h (4 Bft) 93,33 %
21.05.2018 10:14 19,0 C 17,2 C 61 % 1014,4 hPa 0,0 l/m 24,4 km/h (4 Bft) O-NO 62 1 min 0,000 mm 2,8 UV-I 692 W/m 11,3 C 14,1 C 29,0 km/h (5 Bft) 100,00 %
21.05.2018 10:15 19,0 C 17,2 C 61 % 1014,4 hPa 0,0 l/m 24,2 km/h (4 Bft) O-NO 67 1 min 0,000 mm 2,9 UV-I 697 W/m 11,3 C 14,2 C 29,0 km/h (5 Bft) 100,00 %
21.05.2018 10:16 19,1 C 17,2 C 62 % 1014,4 hPa 0,0 l/m 24,1 km/h (4 Bft) O-NO 70 1 min 0,000 mm 2,9 UV-I 701 W/m 11,6 C 14,3 C 27,4 km/h (4 Bft) 96,55 %
21.05.2018 10:17 19,1 C 17,2 C 62 % 1014,5 hPa 0,0 l/m 21,0 km/h (4 Bft) O 84 1 min 0,000 mm 2,9 UV-I 704 W/m 11,6 C 14,9 C 27,4 km/h (4 Bft) 95,83 %
21.05.2018 10:18 19,1 C 17,2 C 61 % 1014,4 hPa 0,0 l/m 19,3 km/h (3 Bft) O 88 1 min 0,000 mm 2,9 UV-I 705 W/m 11,4 C 15,2 C 27,4 km/h (4 Bft) 100,00 %
21.05.2018 10:19 19,2 C 17,2 C 61 % 1014,4 hPa 0,0 l/m 23,2 km/h (4 Bft) O 90 1 min 0,000 mm 2,9 UV-I 705 W/m 11,5 C 14,6 C 29,0 km/h (5 Bft) 100,00 %
21.05.2018 10:20 19,2 C 17,2 C 61 % 1014,4 hPa 0,0 l/m 20,1 km/h (4 Bft) O-NO 68 1 min 0,000 mm 2,9 UV-I 705 W/m 11,5 C 15,2 C 22,5 km/h (4 Bft) 100,00 %
21.05.2018 10:21 19,3 C 17,2 C 61 % 1014,4 hPa 0,0 l/m 18,9 km/h (3 Bft) O 90 1 min 0,000 mm 3,0 UV-I 707 W/m 11,6 C 15,5 C 24,1 km/h (4 Bft) 100,00 %
21.05.2018 10:22 19,3 C 17,2 C 61 % 1014,4 hPa 0,0 l/m 21,5 km/h (4 Bft) NO 53 1 min 0,000 mm 3,0 UV-I 712 W/m 11,6 C 15,0 C 29,0 km/h (5 Bft) 100,00 %
21.05.2018 10:23 19,3 C 17,2 C 61 % 1014,3 hPa 0,0 l/m 19,6 km/h (3 Bft) O-SO 107 1 min 0,000 mm 3,0 UV-I 713 W/m 11,6 C 15,4 C 27,4 km/h (4 Bft) 100,00 %
21.05.2018 10:24 19,4 C 17,2 C 61 % 1014,4 hPa 0,0 l/m 21,5 km/h (4 Bft) O-NO 71 1 min 0,000 mm 3,0 UV-I 714 W/m 11,7 C 15,2 C 27,4 km/h (4 Bft) 100,00 %
21.05.2018 10:25 19,4 C 17,2 C 61 % 1014,4 hPa 0,0 l/m 18,3 km/h (3 Bft) O-NO 77 1 min 0,000 mm 3,0 UV-I 715 W/m 11,7 C 15,8 C 22,5 km/h (4 Bft) 96,15 %
21.05.2018 10:26 19,4 C 17,2 C 60 % 1014,4 hPa 0,0 l/m 19,7 km/h (3 Bft) O-NO 74 1 min 0,000 mm 3,1 UV-I 719 W/m 11,4 C 15,5 C 24,1 km/h (4 Bft) 100,00 %
21.05.2018 10:27 19,5 C 17,2 C 60 % 1014,4 hPa 0,0 l/m 18,2 km/h (3 Bft) O 87 1 min 0,000 mm 3,1 UV-I 722 W/m 11,5 C 15,9 C 25,7 km/h (4 Bft) 100,00 %
21.05.2018 10:28 19,5 C 17,2 C 60 % 1014,4 hPa 0,0 l/m 19,6 km/h (3 Bft) O-NO 75 1 min 0,000 mm 3,1 UV-I 722 W/m 11,5 C 15,6 C 27,4 km/h (4 Bft) 100,00 %
21.05.2018 10:29 19,6 C 17,2 C 61 % 1014,4 hPa 0,0 l/m 17,2 km/h (3 Bft) O 90 1 min 0,000 mm 3,1 UV-I 724 W/m 11,9 C 16,3 C 24,1 km/h (4 Bft) 92,86 %
21.05.2018 10:30 19,7 C 17,2 C 61 % 1014,4 hPa 0,0 l/m 20,6 km/h (4 Bft) O-NO 71 1 min 0,000 mm 3,1 UV-I 727 W/m 12,0 C 15,7 C 24,1 km/h (4 Bft) 100,00 %
21.05.2018 10:31 19,7 C 17,2 C 60 % 1014,4 hPa 0,0 l/m 19,2 km/h (3 Bft) O-SO 111 1 min 0,000 mm 3,2 UV-I 730 W/m 11,7 C 16,0 C 24,1 km/h (4 Bft) 100,00 %
21.05.2018 10:32 19,8 C 17,2 C 59 % 1014,3 hPa 0,0 l/m 23,1 km/h (4 Bft) O 101 1 min 0,000 mm 3,2 UV-I 733 W/m 11,6 C 15,4 C 27,4 km/h (4 Bft) 100,00 %
21.05.2018 10:33 19,8 C 17,2 C 60 % 1014,3 hPa 0,0 l/m 20,4 km/h (4 Bft) O-NO 78 1 min 0,000 mm 3,2 UV-I 735 W/m 11,8 C 15,9 C 24,1 km/h (4 Bft) 100,00 %
21.05.2018 10:34 19,9 C 17,2 C 60 % 1014,3 hPa 0,0 l/m 18,3 km/h (3 Bft) O 86 1 min 0,000 mm 3,3 UV-I 737 W/m 11,9 C 16,4 C 22,5 km/h (4 Bft) 100,00 %
21.05.2018 10:35 19,9 C 17,2 C 60 % 1014,2 hPa 0,0 l/m 19,3 km/h (3 Bft) O 91 1 min 0,000 mm 3,3 UV-I 738 W/m 11,9 C 16,2 C 25,7 km/h (4 Bft) 100,00 %
21.05.2018 10:36 19,9 C 17,2 C 59 % 1014,3 hPa 0,0 l/m 20,9 km/h (4 Bft) O-SO 107 1 min 0,000 mm 3,3 UV-I 740 W/m 11,6 C 15,9 C 27,4 km/h (4 Bft) 100,00 %
21.05.2018 10:37 19,9 C 17,2 C 59 % 1014,2 hPa 0,0 l/m 21,5 km/h (4 Bft) O-SO 104 1 min 0,000 mm 3,3 UV-I 742 W/m 11,6 C 15,8 C 29,0 km/h (5 Bft) 97,14 %
21.05.2018 10:38 19,9 C 17,2 C 60 % 1014,2 hPa 0,0 l/m 19,0 km/h (3 Bft) O-NO 76 1 min 0,000 mm 3,3 UV-I 743 W/m 11,9 C 16,3 C 24,1 km/h (4 Bft) 100,00 %
21.05.2018 10:39 19,9 C 17,2 C 60 % 1014,2 hPa 0,0 l/m 20,8 km/h (4 Bft) O 98 1 min 0,000 mm 3,3 UV-I 744 W/m 11,9 C 15,9 C 27,4 km/h (4 Bft) 100,00 %
21.05.2018 10:40 19,9 C 17,2 C 59 % 1014,2 hPa 0,0 l/m 23,0 km/h (4 Bft) O-SO 115 1 min 0,000 mm 3,3 UV-I 744 W/m 11,6 C 15,6 C 27,4 km/h (4 Bft) 100,00 %
21.05.2018 10:41 19,9 C 17,2 C 60 % 1014,2 hPa 0,0 l/m 19,4 km/h (3 Bft) O-NO 71 1 min 0,000 mm 3,4 UV-I 747 W/m 11,9 C 16,2 C 29,0 km/h (5 Bft) 100,00 %
21.05.2018 10:42 19,9 C 17,2 C 59 % 1014,2 hPa 0,0 l/m 23,0 km/h (4 Bft) O 82 1 min 0,000 mm 3,4 UV-I 746 W/m 11,6 C 15,6 C 27,4 km/h (4 Bft) 100,00 %
21.05.2018 10:43 19,9 C 17,2 C 57 % 1014,2 hPa 0,0 l/m 26,2 km/h (4 Bft) O-NO 64 1 min 0,000 mm 3,4 UV-I 748 W/m 11,1 C 15,1 C 33,8 km/h (5 Bft) 96,30 %
21.05.2018 10:44 19,9 C 17,2 C 58 % 1014,1 hPa 0,0 l/m 23,7 km/h (4 Bft) O-NO 67 1 min 0,000 mm 3,4 UV-I 749 W/m 11,4 C 15,4 C 29,0 km/h (5 Bft) 100,00 %
21.05.2018 10:45 19,9 C 17,2 C 57 % 1014,1 hPa 0,0 l/m 23,4 km/h (4 Bft) O-NO 63 1 min 0,000 mm 3,4 UV-I 752 W/m 11,1 C 15,5 C 27,4 km/h (4 Bft) 96,67 %
21.05.2018 10:46 19,9 C 17,2 C 57 % 1014,1 hPa 0,0 l/m 23,3 km/h (4 Bft) O 86 1 min 0,000 mm 3,4 UV-I 755 W/m 11,1 C 15,5 C 32,2 km/h (5 Bft) 96,15 %
21.05.2018 10:47 19,9 C 17,2 C 58 % 1014,1 hPa 0,0 l/m 19,2 km/h (3 Bft) O-NO 78 1 min 0,000 mm 3,5 UV-I 758 W/m 11,4 C 16,2 C 22,5 km/h (4 Bft) 96,30 %
21.05.2018 10:48 20,1 C 17,2 C 59 % 1014,1 hPa 0,0 l/m 17,6 km/h (3 Bft) O 82 1 min 0,000 mm 3,5 UV-I 759 W/m 11,8 C 16,8 C 24,1 km/h (4 Bft) 82,61 %
21.05.2018 10:49 20,1 C 17,2 C 60 % 1014,1 hPa 0,0 l/m 15,4 km/h (3 Bft) O-NO 73 1 min 0,000 mm 3,5 UV-I 758 W/m 12,1 C 17,3 C 20,9 km/h (4 Bft) 100,00 %
21.05.2018 10:50 20,2 C 17,2 C 62 % 1014,1 hPa 0,0 l/m 17,9 km/h (3 Bft) O-NO 64 1 min 0,000 mm 3,5 UV-I 761 W/m 12,7 C 16,9 C 24,1 km/h (4 Bft) 92,31 %
21.05.2018 10:51 20,3 C 17,2 C 60 % 1014,1 hPa 0,0 l/m 15,0 km/h (3 Bft) O 84 1 min 0,000 mm 3,6 UV-I 763 W/m 12,3 C 17,6 C 19,3 km/h (3 Bft) 96,30 %
21.05.2018 10:52 20,5 C 17,2 C 61 % 1014,1 hPa 0,0 l/m 21,1 km/h (4 Bft) O-NO 70 1 min 0,000 mm 3,6 UV-I 766 W/m 12,7 C 16,7 C 25,7 km/h (4 Bft) 91,30 %
21.05.2018 10:53 20,5 C 17,2 C 58 % 1014,1 hPa 0,0 l/m 24,8 km/h (4 Bft) O 88 1 min 0,000 mm 3,6 UV-I 769 W/m 11,9 C 16,1 C 33,8 km/h (5 Bft) 100,00 %
21.05.2018 10:54 20,4 C 17,2 C 58 % 1014,1 hPa 0,0 l/m 24,3 km/h (4 Bft) O-NO 75 1 min 0,000 mm 3,6 UV-I 770 W/m 11,9 C 16,0 C 32,2 km/h (5 Bft) 91,30 %
21.05.2018 10:55 20,4 C 17,8 C 57 % 1014,1 hPa 0,0 l/m 21,3 km/h (4 Bft) O 96 1 min 0,000 mm 3,6 UV-I 768 W/m 11,6 C 16,5 C 25,7 km/h (4 Bft) 100,00 %
21.05.2018 10:56 20,3 C 17,2 C 58 % 1014,1 hPa 0,0 l/m 17,1 km/h (3 Bft) NO 40 1 min 0,000 mm 3,6 UV-I 772 W/m 11,8 C 17,2 C 22,5 km/h (4 Bft) 91,67 %
21.05.2018 10:57 20,4 C 17,2 C 60 % 1014,1 hPa 0,0 l/m 19,6 km/h (3 Bft) O 80 1 min 0,000 mm 3,7 UV-I 772 W/m 12,4 C 16,8 C 29,0 km/h (5 Bft) 96,15 %
21.05.2018 10:58 20,4 C 17,8 C 59 % 1014,1 hPa 0,0 l/m 21,5 km/h (4 Bft) O 80 1 min 0,000 mm 3,7 UV-I 773 W/m 12,1 C 16,5 C 27,4 km/h (4 Bft) 95,83 %
21.05.2018 10:59 20,5 C 17,8 C 59 % 1014,1 hPa 0,0 l/m 20,2 km/h (4 Bft) O 87 1 min 0,000 mm 3,7 UV-I 772 W/m 12,2 C 16,8 C 29,0 km/h (5 Bft) 93,10 %
21.05.2018 11:00 20,6 C 17,2 C 59 % 1014,1 hPa 0,0 l/m 20,8 km/h (4 Bft) O-NO 69 1 min 0,000 mm 3,7 UV-I 776 W/m 12,3 C 16,8 C 25,7 km/h (4 Bft) 100,00 %
21.05.2018 11:02 20,5 C 17,8 C 57 % 1014,1 hPa 0,0 l/m 23,9 km/h (4 Bft) O 89 2 min 0,533 mm 3,7 UV-I 775 W/m 11,7 C 16,2 C 30,6 km/h (5 Bft) 92,45 %
21.05.2018 11:03 20,5 C 17,8 C 58 % 1014,1 hPa 0,0 l/m 19,7 km/h (3 Bft) O 101 1 min 0,000 mm 3,7 UV-I 773 W/m 11,9 C 16,9 C 24,1 km/h (4 Bft) 91,30 %
21.05.2018 11:04 20,5 C 17,8 C 58 % 1014,1 hPa 0,0 l/m 20,7 km/h (4 Bft) O 84 1 min 0,000 mm 3,7 UV-I 775 W/m 11,9 C 16,7 C 27,4 km/h (4 Bft) 95,83 %
21.05.2018 11:05 20,5 C 17,8 C 57 % 1014,1 hPa 0,0 l/m 23,3 km/h (4 Bft) O-NO 63 1 min 0,000 mm 3,7 UV-I 777 W/m 11,7 C 16,3 C 29,0 km/h (5 Bft) 92,86 %
21.05.2018 11:06 20,6 C 17,8 C 57 % 1014,1 hPa 0,0 l/m 18,3 km/h (3 Bft) O-NO 61 1 min 0,000 mm 3,8 UV-I 781 W/m 11,8 C 17,3 C 24,1 km/h (4 Bft) 96,67 %
21.05.2018 11:07 20,6 C 17,8 C 56 % 1014,1 hPa 0,0 l/m 21,3 km/h (4 Bft) O 86 1 min 0,000 mm 3,8 UV-I 785 W/m 11,5 C 16,8 C 30,6 km/h (5 Bft) 96,15 %
21.05.2018 11:08 20,6 C 17,8 C 57 % 1014,1 hPa 0,0 l/m 25,3 km/h (4 Bft) O 91 1 min 0,000 mm 3,8 UV-I 788 W/m 11,8 C 16,2 C 32,2 km/h (5 Bft) 91,67 %
21.05.2018 11:09 20,6 C 17,8 C 57 % 1014,1 hPa 0,0 l/m 23,3 km/h (4 Bft) O 86 1 min 0,000 mm 3,8 UV-I 789 W/m 11,8 C 16,4 C 32,2 km/h (5 Bft) 100,00 %
21.05.2018 11:10 20,6 C 17,2 C 56 % 1014,1 hPa 0,0 l/m 23,7 km/h (4 Bft) O-SO 105 1 min 0,000 mm 3,9 UV-I 792 W/m 11,5 C 16,4 C 30,6 km/h (5 Bft) 92,59 %
21.05.2018 11:11 20,7 C 17,8 C 57 % 1014,1 hPa 0,0 l/m 21,2 km/h (4 Bft) O 95 1 min 0,000 mm 3,9 UV-I 794 W/m 11,9 C 16,9 C 27,4 km/h (4 Bft) 100,00 %
21.05.2018 11:12 20,7 C 17,8 C 56 % 1014,1 hPa 0,0 l/m 26,1 km/h (4 Bft) O-SO 121 1 min 0,000 mm 3,9 UV-I 795 W/m 11,6 C 16,2 C 35,4 km/h (5 Bft) 92,31 %
21.05.2018 11:13 20,8 C 17,8 C 56 % 1014,1 hPa 0,0 l/m 26,4 km/h (4 Bft) O-NO 76 1 min 0,000 mm 3,9 UV-I 797 W/m 11,7 C 16,3 C 37,0 km/h (5 Bft) 100,00 %
21.05.2018 11:14 20,8 C 17,8 C 56 % 1014,1 hPa 0,0 l/m 23,1 km/h (4 Bft) O 86 1 min 0,000 mm 3,9 UV-I 800 W/m 11,7 C 16,7 C 32,2 km/h (5 Bft) 92,59 %
21.05.2018 11:15 20,8 C 17,8 C 57 % 1014,1 hPa 0,0 l/m 21,6 km/h (4 Bft) O-SO 102 1 min 0,000 mm 3,9 UV-I 800 W/m 12,0 C 17,0 C 29,0 km/h (5 Bft) 96,15 %
21.05.2018 11:16 20,8 C 17,8 C 57 % 1014,1 hPa 0,0 l/m 18,1 km/h (3 Bft) O 90 1 min 0,000 mm 3,9 UV-I 798 W/m 12,0 C 17,6 C 24,1 km/h (4 Bft) 83,33 %
21.05.2018 11:17 20,9 C 17,8 C 57 % 1014,1 hPa 0,0 l/m 20,4 km/h (4 Bft) O 84 1 min 0,000 mm 4,0 UV-I 798 W/m 12,1 C 17,3 C 25,7 km/h (4 Bft) 93,33 %
21.05.2018 11:18 20,9 C 17,8 C 57 % 1014,1 hPa 0,0 l/m 20,3 km/h (4 Bft) O 88 1 min 0,000 mm 4,0 UV-I 799 W/m 12,1 C 17,3 C 24,1 km/h (4 Bft) 96,55 %
21.05.2018 11:19 20,9 C 17,8 C 56 % 1014,1 hPa 0,0 l/m 17,2 km/h (3 Bft) O-NO 78 1 min 0,000 mm 4,0 UV-I 801 W/m 11,8 C 17,9 C 25,7 km/h (4 Bft) 97,87 %
21.05.2018 11:20 20,9 C 17,8 C 58 % 1014,1 hPa 0,0 l/m 18,3 km/h (3 Bft) O 79 1 min 0,000 mm 4,0 UV-I 803 W/m 12,3 C 17,7 C 27,4 km/h (4 Bft) 97,56 %
21.05.2018 11:21 20,9 C 17,8 C 57 % 1014,1 hPa 0,0 l/m 20,0 km/h (4 Bft) O-NO 59 1 min 0,000 mm 4,0 UV-I 805 W/m 12,1 C 17,4 C 29,0 km/h (5 Bft) 95,83 %
21.05.2018 11:22 21,0 C 17,8 C 57 % 1014,0 hPa 0,0 l/m 26,8 km/h (4 Bft) O-NO 67 1 min 0,000 mm 4,0 UV-I 803 W/m 12,1 C 16,5 C 37,0 km/h (5 Bft) 100,00 %
21.05.2018 11:23 21,0 C 17,8 C 56 % 1014,0 hPa 0,0 l/m 21,5 km/h (4 Bft) NO 51 1 min 0,000 mm 4,0 UV-I 805 W/m 11,9 C 17,3 C 32,2 km/h (5 Bft) 96,30 %
21.05.2018 11:24 21,1 C 17,8 C 57 % 1014,0 hPa 0,0 l/m 22,9 km/h (4 Bft) O-NO 62 1 min 0,000 mm 4,0 UV-I 803 W/m 12,2 C 17,2 C 33,8 km/h (5 Bft) 100,00 %
21.05.2018 11:25 21,1 C 17,8 C 56 % 1014,0 hPa 0,0 l/m 22,5 km/h (4 Bft) NO 51 1 min 0,000 mm 4,0 UV-I 803 W/m 12,0 C 17,2 C 29,0 km/h (5 Bft) 93,33 %
21.05.2018 11:26 21,1 C 17,8 C 55 % 1014,0 hPa 0,0 l/m 21,3 km/h (4 Bft) O-NO 63 1 min 0,000 mm 4,0 UV-I 807 W/m 11,7 C 17,4 C 27,4 km/h (4 Bft) 100,00 %
21.05.2018 11:27 21,1 C 17,8 C 54 % 1014,0 hPa 0,0 l/m 22,9 km/h (4 Bft) O 86 1 min 0,000 mm 4,1 UV-I 808 W/m 11,4 C 17,2 C 33,8 km/h (5 Bft) 96,30 %
21.05.2018 11:28 21,1 C 17,8 C 55 % 1014,1 hPa 0,0 l/m 20,6 km/h (4 Bft) O 80 1 min 0,000 mm 4,1 UV-I 809 W/m 11,7 C 17,5 C 25,7 km/h (4 Bft) 100,00 %
21.05.2018 11:29 21,1 C 17,8 C 56 % 1014,0 hPa 0,0 l/m 19,5 km/h (3 Bft) O 98 1 min 0,000 mm 4,1 UV-I 811 W/m 12,0 C 17,7 C 25,7 km/h (4 Bft) 96,67 %
21.05.2018 11:30 21,1 C 17,8 C 56 % 1014,0 hPa 0,0 l/m 22,0 km/h (4 Bft) O-NO 67 1 min 0,000 mm 4,1 UV-I 814 W/m 12,0 C 17,3 C 29,0 km/h (5 Bft) 100,00 %
21.05.2018 11:31 21,2 C 17,8 C 57 % 1013,9 hPa 0,0 l/m 18,0 km/h (3 Bft) NO 42 1 min 0,000 mm 4,1 UV-I 816 W/m 12,3 C 18,1 C 27,4 km/h (4 Bft) 96,30 %
21.05.2018 11:32 21,2 C 17,8 C 56 % 1014,0 hPa 0,0 l/m 18,8 km/h (3 Bft) O-NO 66 1 min 0,000 mm 4,2 UV-I 817 W/m 12,1 C 18,0 C 24,1 km/h (4 Bft) 96,15 %
21.05.2018 11:33 21,2 C 17,8 C 54 % 1014,0 hPa 0,0 l/m 23,4 km/h (4 Bft) O-NO 76 1 min 0,000 mm 4,2 UV-I 818 W/m 11,5 C 17,2 C 30,6 km/h (5 Bft) 100,00 %
21.05.2018 11:34 21,2 C 17,8 C 55 % 1013,9 hPa 0,0 l/m 24,6 km/h (4 Bft) O-NO 74 1 min 0,000 mm 4,2 UV-I 818 W/m 11,8 C 17,1 C 30,6 km/h (5 Bft) 95,83 %
21.05.2018 11:35 21,2 C 17,8 C 55 % 1013,9 hPa 0,0 l/m 24,4 km/h (4 Bft) O-NO 67 1 min 0,000 mm 4,2 UV-I 819 W/m 11,8 C 17,1 C 30,6 km/h (5 Bft) 100,00 %
21.05.2018 11:36 21,1 C 17,8 C 55 % 1013,9 hPa 0,0 l/m 24,5 km/h (4 Bft) O 81 1 min 0,000 mm 4,2 UV-I 820 W/m 11,7 C 16,9 C 29,0 km/h (5 Bft) 91,67 %
21.05.2018 11:37 21,1 C 17,8 C 56 % 1013,9 hPa 0,0 l/m 20,7 km/h (4 Bft) O 84 1 min 0,000 mm 4,2 UV-I 823 W/m 12,0 C 17,5 C 27,4 km/h (4 Bft) 100,00 %
21.05.2018 11:38 21,1 C 17,8 C 56 % 1013,9 hPa 0,0 l/m 19,5 km/h (3 Bft) O-NO 73 1 min 0,000 mm 4,2 UV-I 823 W/m 12,0 C 17,7 C 24,1 km/h (4 Bft) 96,30 %
21.05.2018 11:39 21,1 C 17,8 C 56 % 1013,8 hPa 0,0 l/m 16,1 km/h (3 Bft) O-NO 62 1 min 0,000 mm 4,2 UV-I 821 W/m 12,0 C 18,4 C 25,7 km/h (4 Bft) 100,00 %
21.05.2018 11:40 21,3 C 17,8 C 57 % 1013,8 hPa 0,0 l/m 20,1 km/h (4 Bft) NO 44 1 min 0,000 mm 4,2 UV-I 824 W/m 12,4 C 17,9 C 25,7 km/h (4 Bft) 96,97 %
21.05.2018 11:41 21,3 C 17,8 C 57 % 1013,9 hPa 0,0 l/m 19,6 km/h (3 Bft) O 81 1 min 0,000 mm 4,3 UV-I 825 W/m 12,4 C 18,0 C 25,7 km/h (4 Bft) 100,00 %
21.05.2018 11:42 21,4 C 17,8 C 55 % 1013,8 hPa 0,0 l/m 21,5 km/h (4 Bft) O-NO 74 1 min 0,000 mm 4,3 UV-I 826 W/m 12,0 C 17,8 C 30,6 km/h (5 Bft) 94,44 %
21.05.2018 11:43 21,4 C 17,8 C 54 % 1013,9 hPa 0,0 l/m 22,1 km/h (4 Bft) NO 44 1 min 0,000 mm 4,3 UV-I 824 W/m 11,7 C 17,7 C 32,2 km/h (5 Bft) 97,56 %
21.05.2018 11:44 21,4 C 17,8 C 54 % 1013,9 hPa 0,0 l/m 25,9 km/h (4 Bft) O-NO 57 1 min 0,000 mm 4,3 UV-I 826 W/m 11,7 C 17,2 C 30,6 km/h (5 Bft) 100,00 %
21.05.2018 11:45 21,4 C 17,8 C 54 % 1013,9 hPa 0,0 l/m 18,8 km/h (3 Bft) O-NO 67 1 min 0,000 mm 4,3 UV-I 824 W/m 11,7 C 18,2 C 24,1 km/h (4 Bft) 93,75 %
21.05.2018 11:46 21,5 C 17,8 C 56 % 1013,9 hPa 0,0 l/m 20,0 km/h (4 Bft) O-SO 114 1 min 0,000 mm 4,3 UV-I 824 W/m 12,3 C 18,1 C 27,4 km/h (4 Bft) 100,00 %
21.05.2018 11:47 21,6 C 17,8 C 55 % 1013,9 hPa 0,0 l/m 18,3 km/h (3 Bft) O-SO 113 1 min 0,000 mm 4,3 UV-I 823 W/m 12,2 C 18,6 C 24,1 km/h (4 Bft) 90,91 %
21.05.2018 11:48 21,7 C 17,8 C 56 % 1013,9 hPa 0,0 l/m 16,7 km/h (3 Bft) O 99 1 min 0,000 mm 4,3 UV-I 825 W/m 12,5 C 19,0 C 22,5 km/h (4 Bft) 100,00 %
21.05.2018 11:49 21,8 C 17,8 C 55 % 1013,8 hPa 0,0 l/m 20,7 km/h (4 Bft) O 94 1 min 0,000 mm 4,3 UV-I 828 W/m 12,4 C 18,4 C 29,0 km/h (5 Bft) 95,65 %
21.05.2018 11:50 21,8 C 17,8 C 55 % 1013,9 hPa 0,0 l/m 25,3 km/h (4 Bft) O 94 1 min 0,000 mm 4,4 UV-I 832 W/m 12,4 C 17,8 C 38,6 km/h (5 Bft) 100,00 %
21.05.2018 11:51 21,8 C 17,8 C 54 % 1013,9 hPa 0,0 l/m 20,9 km/h (4 Bft) O-NO 74 1 min 0,000 mm 4,4 UV-I 837 W/m 12,1 C 18,4 C 27,4 km/h (4 Bft) 91,30 %
21.05.2018 11:52 21,7 C 17,8 C 54 % 1013,9 hPa 0,0 l/m 23,8 km/h (4 Bft) O 80 1 min 0,000 mm 4,4 UV-I 836 W/m 12,0 C 17,8 C 32,2 km/h (5 Bft) 100,00 %
21.05.2018 11:53 21,6 C 17,8 C 53 % 1013,8 hPa 0,0 l/m 25,8 km/h (4 Bft) O-NO 76 1 min 0,000 mm 4,4 UV-I 838 W/m 11,6 C 17,5 C 32,2 km/h (5 Bft) 91,67 %
21.05.2018 11:54 21,6 C 17,8 C 53 % 1013,9 hPa 0,0 l/m 24,9 km/h (4 Bft) O-NO 68 1 min 0,000 mm 4,4 UV-I 837 W/m 11,6 C 17,6 C 30,6 km/h (5 Bft) 96,15 %
21.05.2018 11:55 21,5 C 17,8 C 54 % 1013,8 hPa 0,0 l/m 22,4 km/h (4 Bft) O 92 1 min 0,000 mm 4,5 UV-I 841 W/m 11,8 C 17,8 C 30,6 km/h (5 Bft) 100,00 %
21.05.2018 11:56 21,5 C 17,8 C 56 % 1013,8 hPa 0,0 l/m 24,2 km/h (4 Bft) O 100 1 min 0,000 mm 4,5 UV-I 842 W/m 12,3 C 17,5 C 29,0 km/h (5 Bft) 96,15 %
21.05.2018 11:57 21,5 C 17,8 C 54 % 1013,8 hPa 0,0 l/m 23,0 km/h (4 Bft) O 82 1 min 0,000 mm 4,5 UV-I 843 W/m 11,8 C 17,7 C 29,0 km/h (5 Bft) 100,00 %
21.05.2018 11:58 21,6 C 17,8 C 54 % 1013,8 hPa 0,0 l/m 23,8 km/h (4 Bft) O 97 1 min 0,000 mm 4,5 UV-I 842 W/m 11,9 C 17,7 C 32,2 km/h (5 Bft) 96,15 %
21.05.2018 11:59 21,5 C 17,8 C 54 % 1013,8 hPa 0,0 l/m 30,3 km/h (5 Bft) O 82 1 min 0,000 mm 4,5 UV-I 842 W/m 11,8 C 16,8 C 33,8 km/h (5 Bft) 96,30 %
21.05.2018 12:00 21,5 C 17,8 C 53 % 1013,8 hPa 0,0 l/m 20,1 km/h (4 Bft) O-NO 71 1 min 0,000 mm 4,5 UV-I 842 W/m 11,5 C 18,1 C 29,0 km/h (5 Bft) 96,15 %
21.05.2018 12:02 21,6 C 17,8 C 55 % 1013,7 hPa 0,0 l/m 18,7 km/h (3 Bft) O-NO 73 2 min 0,610 mm 4,5 UV-I 842 W/m 12,2 C 18,5 C 25,7 km/h (4 Bft) 100,00 %
21.05.2018 12:03 21,7 C 17,8 C 56 % 1013,7 hPa 0,0 l/m 22,2 km/h (4 Bft) O 92 1 min 0,000 mm 4,5 UV-I 843 W/m 12,5 C 18,1 C 29,0 km/h (5 Bft) 100,00 %
21.05.2018 12:04 21,7 C 17,8 C 54 % 1013,7 hPa 0,0 l/m 19,6 km/h (3 Bft) NO 49 1 min 0,000 mm 4,5 UV-I 844 W/m 12,0 C 18,5 C 27,4 km/h (4 Bft) 100,00 %
21.05.2018 12:05 21,7 C 17,8 C 54 % 1013,7 hPa 0,0 l/m 20,4 km/h (4 Bft) O-NO 69 1 min 0,000 mm 4,5 UV-I 844 W/m 12,0 C 18,3 C 29,0 km/h (5 Bft) 100,00 %
21.05.2018 12:06 21,8 C 17,8 C 55 % 1013,7 hPa 0,0 l/m 19,2 km/h (3 Bft) O 81 1 min 0,000 mm 4,5 UV-I 843 W/m 12,4 C 18,7 C 22,5 km/h (4 Bft) 100,00 %
21.05.2018 12:07 21,9 C 17,8 C 54 % 1013,7 hPa 0,0 l/m 20,1 km/h (4 Bft) O-SO 105 1 min 0,000 mm 4,5 UV-I 842 W/m 12,2 C 18,6 C 30,6 km/h (5 Bft) 100,00 %
21.05.2018 12:08 21,9 C 17,8 C 53 % 1013,7 hPa 0,0 l/m 26,7 km/h (4 Bft) NO 43 1 min 0,000 mm 4,6 UV-I 844 W/m 11,9 C 17,8 C 35,4 km/h (5 Bft) 100,00 %
21.05.2018 12:09 21,9 C 17,8 C 53 % 1013,7 hPa 0,0 l/m 24,5 km/h (4 Bft) O-NO 61 1 min 0,000 mm 4,6 UV-I 846 W/m 11,9 C 18,0 C 30,6 km/h (5 Bft) 100,00 %
21.05.2018 12:10 21,9 C 17,8 C 53 % 1013,7 hPa 0,0 l/m 21,3 km/h (4 Bft) O-NO 73 1 min 0,000 mm 4,6 UV-I 846 W/m 11,9 C 18,5 C 27,4 km/h (4 Bft) 100,00 %
21.05.2018 12:11 21,9 C 17,8 C 54 % 1013,7 hPa 0,0 l/m 23,7 km/h (4 Bft) O-NO 69 1 min 0,000 mm 4,6 UV-I 848 W/m 12,2 C 18,1 C 30,6 km/h (5 Bft) 100,00 %
21.05.2018 12:12 21,9 C 17,8 C 53 % 1013,7 hPa 0,0 l/m 23,0 km/h (4 Bft) O 93 1 min 0,000 mm 4,6 UV-I 849 W/m 11,9 C 18,2 C 32,2 km/h (5 Bft) 100,00 %
21.05.2018 12:13 21,9 C 17,8 C 54 % 1013,6 hPa 0,0 l/m 26,4 km/h (4 Bft) NO 36 1 min 0,000 mm 4,6 UV-I 849 W/m 12,2 C 17,8 C 37,0 km/h (5 Bft) 100,00 %
21.05.2018 12:14 21,8 C 17,8 C 54 % 1013,6 hPa 0,0 l/m 17,2 km/h (3 Bft) O-NO 76 1 min 0,000 mm 4,6 UV-I 851 W/m 12,1 C 19,0 C 24,1 km/h (4 Bft) 94,44 %
21.05.2018 12:15 21,9 C 17,8 C 55 % 1013,6 hPa 0,0 l/m 22,0 km/h (4 Bft) O-SO 103 1 min 0,000 mm 4,6 UV-I 847 W/m 12,4 C 18,4 C 29,0 km/h (5 Bft) 100,00 %
21.05.2018 12:16 22,0 C 17,8 C 53 % 1013,6 hPa 0,0 l/m 18,7 km/h (3 Bft) O-NO 62 1 min 0,000 mm 4,6 UV-I 852 W/m 12,0 C 19,0 C 24,1 km/h (4 Bft) 100,00 %
21.05.2018 12:17 22,1 C 17,8 C 52 % 1013,6 hPa 0,0 l/m 19,6 km/h (3 Bft) O 91 1 min 0,000 mm 4,7 UV-I 854 W/m 11,8 C 19,0 C 27,4 km/h (4 Bft) 100,00 %
21.05.2018 12:18 22,1 C 17,8 C 53 % 1013,6 hPa 0,0 l/m 23,8 km/h (4 Bft) O-NO 78 1 min 0,000 mm 4,7 UV-I 854 W/m 12,1 C 18,4 C 32,2 km/h (5 Bft) 100,00 %
21.05.2018 12:19 22,1 C 17,8 C 51 % 1013,6 hPa 0,0 l/m 28,1 km/h (4 Bft) O 88 1 min 0,000 mm 4,7 UV-I 856 W/m 11,5 C 17,9 C 33,8 km/h (5 Bft) 96,15 %
21.05.2018 12:20 22,1 C 17,8 C 52 % 1013,5 hPa 0,0 l/m 20,7 km/h (4 Bft) O 97 1 min 0,000 mm 4,7 UV-I 858 W/m 11,8 C 18,8 C 25,7 km/h (4 Bft) 100,00 %
21.05.2018 12:21 22,1 C 17,8 C 52 % 1013,6 hPa 0,0 l/m 18,8 km/h (3 Bft) O-NO 78 1 min 0,000 mm 4,7 UV-I 859 W/m 11,8 C 19,1 C 27,4 km/h (4 Bft) 94,12 %
21.05.2018 12:22 22,1 C 17,8 C 52 % 1013,5 hPa 0,0 l/m 25,3 km/h (4 Bft) O 90 1 min 0,000 mm 4,7 UV-I 860 W/m 11,8 C 18,2 C 32,2 km/h (5 Bft) 100,00 %
21.05.2018 12:23 22,1 C 17,8 C 51 % 1013,5 hPa 0,0 l/m 18,9 km/h (3 Bft) O 94 1 min 0,000 mm 4,7 UV-I 857 W/m 11,5 C 19,1 C 27,4 km/h (4 Bft) 100,00 %
21.05.2018 12:24 22,1 C 17,8 C 51 % 1013,5 hPa 0,0 l/m 17,6 km/h (3 Bft) O 86 1 min 0,000 mm 4,7 UV-I 858 W/m 11,5 C 19,3 C 24,1 km/h (4 Bft) 100,00 %
21.05.2018 12:25 22,1 C 17,8 C 54 % 1013,5 hPa 0,0 l/m 19,2 km/h (3 Bft) N-NO 25 1 min 0,000 mm 4,7 UV-I 856 W/m 12,3 C 19,0 C 25,7 km/h (4 Bft) 96,55 %
21.05.2018 12:26 22,2 C 17,8 C 54 % 1013,4 hPa 0,0 l/m 21,2 km/h (4 Bft) NO 46 1 min 0,000 mm 4,7 UV-I 858 W/m 12,4 C 18,9 C 27,4 km/h (4 Bft) 100,00 %
21.05.2018 12:27 22,1 C 17,8 C 54 % 1013,4 hPa 0,0 l/m 26,4 km/h (4 Bft) NO 48 1 min 0,000 mm 4,7 UV-I 858 W/m 12,3 C 18,1 C 37,0 km/h (5 Bft) 92,31 %
21.05.2018 12:28 22,1 C 17,8 C 54 % 1013,4 hPa 0,0 l/m 23,8 km/h (4 Bft) O-NO 66 1 min 0,000 mm 4,7 UV-I 857 W/m 12,3 C 18,4 C 33,8 km/h (5 Bft) 97,88 %
21.05.2018 12:29 22,2 C 17,8 C 55 % 1013,5 hPa 0,0 l/m 22,8 km/h (4 Bft) NO 38 1 min 0,000 mm 4,7 UV-I 854 W/m 12,7 C 18,6 C 30,6 km/h (5 Bft) 97,87 %
21.05.2018 12:30 22,2 C 17,8 C 52 % 1013,4 hPa 0,0 l/m 19,0 km/h (3 Bft) NO 55 1 min 0,000 mm 4,7 UV-I 857 W/m 11,9 C 19,2 C 25,7 km/h (4 Bft) 96,30 %
21.05.2018 12:31 22,2 C 17,8 C 53 % 1013,4 hPa 0,0 l/m 19,5 km/h (3 Bft) NO 51 1 min 0,000 mm 4,8 UV-I 860 W/m 12,2 C 19,1 C 27,4 km/h (4 Bft) 100,00 %
21.05.2018 12:32 22,2 C 17,8 C 52 % 1013,4 hPa 0,0 l/m 18,5 km/h (3 Bft) N-NO 30 1 min 0,000 mm 4,8 UV-I 860 W/m 11,9 C 19,3 C 25,7 km/h (4 Bft) 100,00 %
21.05.2018 12:33 22,3 C 17,8 C 55 % 1013,4 hPa 0,0 l/m 22,9 km/h (4 Bft) NO 44 1 min 0,000 mm 4,8 UV-I 861 W/m 12,8 C 18,8 C 30,6 km/h (5 Bft) 100,00 %
21.05.2018 12:34 22,3 C 17,8 C 52 % 1013,4 hPa 0,0 l/m 22,2 km/h (4 Bft) O-NO 74 1 min 0,000 mm 4,8 UV-I 861 W/m 12,0 C 18,9 C 29,0 km/h (5 Bft) 96,15 %
21.05.2018 12:35 22,4 C 17,8 C 52 % 1013,3 hPa 0,0 l/m 19,3 km/h (3 Bft) O 97 1 min 0,000 mm 4,8 UV-I 857 W/m 12,1 C 19,4 C 27,4 km/h (4 Bft) 100,00 %
21.05.2018 12:36 22,4 C 17,8 C 51 % 1013,4 hPa 0,0 l/m 19,5 km/h (3 Bft) O 84 1 min 0,000 mm 4,8 UV-I 858 W/m 11,8 C 19,4 C 29,0 km/h (5 Bft) 95,65 %
21.05.2018 12:37 22,4 C 17,8 C 50 % 1013,3 hPa 0,0 l/m 17,2 km/h (3 Bft) O 80 1 min 0,000 mm 4,8 UV-I 861 W/m 11,5 C 19,8 C 22,5 km/h (4 Bft) 100,00 %
21.05.2018 12:38 22,3 C 17,8 C 50 % 1013,3 hPa 0,0 l/m 24,3 km/h (4 Bft) O-NO 71 1 min 0,000 mm 4,8 UV-I 861 W/m 11,4 C 18,6 C 33,8 km/h (5 Bft) 96,15 %
21.05.2018 12:39 22,3 C 17,8 C 50 % 1013,3 hPa 0,0 l/m 20,3 km/h (4 Bft) O-NO 76 1 min 0,000 mm 4,8 UV-I 861 W/m 11,4 C 19,1 C 29,0 km/h (5 Bft) 96,30 %
21.05.2018 12:40 22,2 C 17,8 C 51 % 1013,3 hPa 0,0 l/m 20,3 km/h (4 Bft) NO 43 1 min 0,000 mm 4,8 UV-I 862 W/m 11,6 C 19,0 C 24,1 km/h (4 Bft) 100,00 %
21.05.2018 12:41 22,3 C 17,8 C 53 % 1013,3 hPa 0,0 l/m 19,5 km/h (3 Bft) NO 44 1 min 0,000 mm 4,8 UV-I 865 W/m 12,2 C 19,3 C 30,6 km/h (5 Bft) 96,30 %
21.05.2018 12:42 22,3 C 17,8 C 53 % 1013,2 hPa 0,0 l/m 18,9 km/h (3 Bft) O 87 1 min 0,000 mm 4,8 UV-I 861 W/m 12,2 C 19,3 C 25,7 km/h (4 Bft) 94,12 %
21.05.2018 12:43 22,3 C 17,8 C 51 % 1013,2 hPa 0,0 l/m 25,8 km/h (4 Bft) O 94 1 min 0,000 mm 4,8 UV-I 861 W/m 11,7 C 18,4 C 33,8 km/h (5 Bft) 96,67 %
21.05.2018 12:44 22,3 C 17,8 C 51 % 1013,2 hPa 0,0 l/m 23,6 km/h (4 Bft) O 92 1 min 0,000 mm 4,8 UV-I 864 W/m 11,7 C 18,7 C 29,0 km/h (5 Bft) 100,00 %
21.05.2018 12:45 22,3 C 17,8 C 52 % 1013,2 hPa 0,0 l/m 26,2 km/h (4 Bft) O 101 1 min 0,000 mm 4,8 UV-I 866 W/m 12,0 C 18,4 C 37,0 km/h (5 Bft) 96,15 %
21.05.2018 12:46 22,3 C 17,8 C 51 % 1013,2 hPa 0,0 l/m 26,8 km/h (4 Bft) O-NO 78 1 min 0,000 mm 4,8 UV-I 865 W/m 11,7 C 18,3 C 33,8 km/h (5 Bft) 100,00 %
21.05.2018 12:47 22,3 C 17,8 C 52 % 1013,2 hPa 0,0 l/m 22,0 km/h (4 Bft) O 95 1 min 0,000 mm 4,8 UV-I 862 W/m 12,0 C 18,9 C 30,6 km/h (5 Bft) 96,55 %
21.05.2018 12:48 22,3 C 18,3 C 51 % 1013,2 hPa 0,0 l/m 22,3 km/h (4 Bft) O 92 1 min 0,000 mm 4,8 UV-I 861 W/m 11,7 C 18,8 C 25,7 km/h (4 Bft) 100,00 %
21.05.2018 12:49 22,3 C 18,3 C 51 % 1013,2 hPa 0,0 l/m 20,4 km/h (4 Bft) N-NO 33 1 min 0,000 mm 4,8 UV-I 860 W/m 11,7 C 19,1 C 27,4 km/h (4 Bft) 96,88 %
21.05.2018 12:50 22,4 C 18,3 C 52 % 1013,2 hPa 0,0 l/m 20,3 km/h (4 Bft) NO 36 1 min 0,000 mm 4,8 UV-I 861 W/m 12,1 C 19,3 C 25,7 km/h (4 Bft) 91,30 %
21.05.2018 12:51 22,5 C 18,3 C 52 % 1013,2 hPa 0,0 l/m 18,3 km/h (3 Bft) O-NO 78 1 min 0,000 mm 4,8 UV-I 865 W/m 12,1 C 19,7 C 27,4 km/h (4 Bft) 100,00 %
21.05.2018 12:52 22,6 C 18,3 C 53 % 1013,2 hPa 0,0 l/m 22,2 km/h (4 Bft) O 87 1 min 0,000 mm 4,9 UV-I 868 W/m 12,5 C 19,3 C 27,4 km/h (4 Bft) 96,30 %
21.05.2018 12:53 22,7 C 18,3 C 51 % 1013,2 hPa 0,0 l/m 23,1 km/h (4 Bft) N 5 1 min 0,000 mm 4,9 UV-I 868 W/m 12,0 C 19,3 C 30,6 km/h (5 Bft) 100,00 %
21.05.2018 12:54 22,7 C 18,3 C 50 % 1013,2 hPa 0,0 l/m 23,6 km/h (4 Bft) O 84 1 min 0,000 mm 4,9 UV-I 870 W/m 11,7 C 19,2 C 29,0 km/h (5 Bft) 96,67 %
21.05.2018 12:55 22,7 C 18,3 C 50 % 1013,1 hPa 0,0 l/m 25,8 km/h (4 Bft) O 97 1 min 0,000 mm 4,9 UV-I 869 W/m 11,7 C 19,0 C 30,6 km/h (5 Bft) 100,00 %
21.05.2018 12:56 22,6 C 18,3 C 50 % 1013,2 hPa 0,0 l/m 21,9 km/h (4 Bft) O-SO 102 1 min 0,000 mm 4,9 UV-I 873 W/m 11,6 C 19,3 C 33,8 km/h (5 Bft) 95,83 %
21.05.2018 12:58 22,6 C 18,3 C 51 % 1013,1 hPa 0,0 l/m 22,9 km/h (4 Bft) O-NO 75 2 min 0,000 mm 4,9 UV-I 877 W/m 11,9 C 19,2 C 32,2 km/h (5 Bft) 97,73 %
21.05.2018 12:59 22,6 C 18,3 C 51 % 1013,1 hPa 0,0 l/m 20,4 km/h (4 Bft) O 97 1 min 0,000 mm 4,9 UV-I 881 W/m 11,9 C 19,5 C 25,7 km/h (4 Bft) 97,86 %
21.05.2018 13:00 22,6 C 18,3 C 51 % 1013,1 hPa 0,0 l/m 20,5 km/h (4 Bft) O-NO 63 1 min 0,660 mm 4,9 UV-I 882 W/m 11,9 C 19,5 C 32,2 km/h (5 Bft) 97,87 %
21.05.2018 13:01 22,7 C 18,3 C 50 % 1013,2 hPa 0,0 l/m 22,5 km/h (4 Bft) O-NO 73 1 min 0,000 mm 4,9 UV-I 884 W/m 11,7 C 19,3 C 29,0 km/h (5 Bft) 95,65 %
21.05.2018 13:02 22,7 C 18,3 C 50 % 1013,1 hPa 0,0 l/m 21,2 km/h (4 Bft) O 101 1 min 0,000 mm 4,9 UV-I 885 W/m 11,7 C 19,5 C 29,0 km/h (5 Bft) 100,00 %
21.05.2018 13:03 22,6 C 18,3 C 50 % 1013,2 hPa 0,0 l/m 22,5 km/h (4 Bft) O 90 1 min 0,000 mm 4,9 UV-I 887 W/m 11,6 C 19,2 C 30,6 km/h (5 Bft) 95,65 %
21.05.2018 13:04 22,6 C 18,3 C 50 % 1013,1 hPa 0,0 l/m 25,9 km/h (4 Bft) O-SO 102 1 min 0,000 mm 4,9 UV-I 888 W/m 11,6 C 18,8 C 32,2 km/h (5 Bft) 100,00 %
21.05.2018 13:05 22,5 C 18,3 C 50 % 1013,1 hPa 0,0 l/m 22,0 km/h (4 Bft) NO 52 1 min 0,000 mm 4,9 UV-I 886 W/m 11,5 C 19,2 C 30,6 km/h (5 Bft) 95,65 %
21.05.2018 13:06 22,6 C 18,3 C 53 % 1013,1 hPa 0,0 l/m 24,1 km/h (4 Bft) NO 44 1 min 0,000 mm 4,9 UV-I 885 W/m 12,5 C 19,0 C 33,8 km/h (5 Bft) 100,00 %
21.05.2018 13:07 22,6 C 18,3 C 54 % 1012,9 hPa 0,0 l/m 24,3 km/h (4 Bft) O-NO 61 1 min 0,000 mm 4,9 UV-I 880 W/m 12,8 C 19,0 C 35,4 km/h (5 Bft) 100,00 %
21.05.2018 13:08 22,7 C 18,3 C 54 % 1012,9 hPa 0,0 l/m 27,1 km/h (4 Bft) O-NO 67 1 min 0,000 mm 4,9 UV-I 876 W/m 12,9 C 18,8 C 35,4 km/h (5 Bft) 100,00 %
21.05.2018 13:09 22,7 C 18,3 C 52 % 1013,0 hPa 0,0 l/m 24,8 km/h (4 Bft) NO 38 1 min 0,000 mm 4,8 UV-I 874 W/m 12,3 C 19,1 C 35,4 km/h (5 Bft) 100,00 %
21.05.2018 13:10 22,8 C 18,3 C 52 % 1013,0 hPa 0,0 l/m 27,2 km/h (4 Bft) O-NO 63 1 min 0,000 mm 4,9 UV-I 875 W/m 12,4 C 18,9 C 35,4 km/h (5 Bft) 100,00 %
21.05.2018 13:11 22,8 C 18,3 C 50 % 1013,0 hPa 0,0 l/m 18,4 km/h (3 Bft) NO 36 1 min 0,000 mm 4,9 UV-I 877 W/m 11,8 C 20,1 C 27,4 km/h (4 Bft) 100,00 %
21.05.2018 13:12 22,8 C 18,3 C 51 % 1012,9 hPa 0,0 l/m 23,1 km/h (4 Bft) O-SO 102 1 min 0,000 mm 4,9 UV-I 879 W/m 12,1 C 19,4 C 32,2 km/h (5 Bft) 95,65 %
21.05.2018 13:13 22,8 C 18,3 C 50 % 1012,9 hPa 0,0 l/m 26,7 km/h (4 Bft) NO 40 1 min 0,000 mm 4,9 UV-I 879 W/m 11,8 C 19,0 C 30,6 km/h (5 Bft) 100,00 %
21.05.2018 13:14 22,8 C 18,3 C 51 % 1012,9 hPa 0,0 l/m 18,0 km/h (3 Bft) O 80 1 min 0,000 mm 4,9 UV-I 882 W/m 12,1 C 20,1 C 22,5 km/h (4 Bft) 96,97 %
21.05.2018 13:15 22,8 C 18,3 C 50 % 1013,0 hPa 0,0 l/m 22,4 km/h (4 Bft) O 92 1 min 0,000 mm 4,9 UV-I 880 W/m 11,8 C 19,5 C 29,0 km/h (5 Bft) 96,30 %
21.05.2018 13:16 22,8 C 18,3 C 48 % 1013,0 hPa 0,0 l/m 20,4 km/h (4 Bft) O 88 1 min 0,000 mm 4,8 UV-I 873 W/m 11,2 C 19,8 C 27,4 km/h (4 Bft) 100,00 %
21.05.2018 13:17 22,8 C 18,3 C 50 % 1012,9 hPa 0,0 l/m 18,9 km/h (3 Bft) O 84 1 min 0,000 mm 4,8 UV-I 874 W/m 11,8 C 20,0 C 22,5 km/h (4 Bft) 95,24 %
21.05.2018 13:18 22,7 C 18,3 C 49 % 1012,9 hPa 0,0 l/m 26,6 km/h (4 Bft) O-NO 71 1 min 0,000 mm 4,8 UV-I 862 W/m 11,4 C 18,9 C 33,8 km/h (5 Bft) 100,00 %
21.05.2018 13:19 22,7 C 18,3 C 49 % 1012,9 hPa 0,0 l/m 23,9 km/h (4 Bft) O 91 1 min 0,000 mm 4,8 UV-I 873 W/m 11,4 C 19,2 C 33,8 km/h (5 Bft) 100,00 %
21.05.2018 13:20 22,7 C 18,3 C 48 % 1012,9 hPa 0,0 l/m 21,7 km/h (4 Bft) O-SO 105 1 min 0,000 mm 4,9 UV-I 881 W/m 11,1 C 19,5 C 29,0 km/h (5 Bft) 100,00 %
21.05.2018 13:21 22,7 C 18,3 C 49 % 1012,9 hPa 0,0 l/m 21,9 km/h (4 Bft) O-SO 111 1 min 0,000 mm 4,9 UV-I 881 W/m 11,4 C 19,4 C 25,7 km/h (4 Bft) 100,00 %
21.05.2018 13:23 22,8 C 18,3 C 50 % 1012,8 hPa 0,0 l/m 23,5 km/h (4 Bft) O-NO 77 2 min 0,000 mm 4,9 UV-I 878 W/m 11,8 C 19,4 C 35,4 km/h (5 Bft) 100,00 %
21.05.2018 13:24 22,8 C 18,3 C 49 % 1012,8 hPa 0,0 l/m 21,4 km/h (4 Bft) O 94 1 min 0,000 mm 4,9 UV-I 874 W/m 11,5 C 19,6 C 27,4 km/h (4 Bft) 100,00 %
21.05.2018 13:25 22,8 C 18,3 C 49 % 1012,8 hPa 0,0 l/m 23,1 km/h (4 Bft) O-NO 57 1 min 0,000 mm 4,9 UV-I 872 W/m 11,5 C 19,4 C 32,2 km/h (5 Bft) 100,00 %
21.05.2018 13:26 22,8 C 18,3 C 49 % 1012,8 hPa 0,0 l/m 24,1 km/h (4 Bft) O 86 1 min 0,000 mm 4,9 UV-I 872 W/m 11,5 C 19,3 C 30,6 km/h (5 Bft) 96,15 %
21.05.2018 13:27 22,8 C 18,3 C 48 % 1012,9 hPa 0,0 l/m 24,6 km/h (4 Bft) O 88 1 min 0,000 mm 4,9 UV-I 874 W/m 11,2 C 19,2 C 32,2 km/h (5 Bft) 100,00 %
21.05.2018 13:28 22,7 C 18,3 C 49 % 1012,8 hPa 0,0 l/m 24,7 km/h (4 Bft) O 79 1 min 0,000 mm 4,8 UV-I 874 W/m 11,4 C 19,1 C 30,6 km/h (5 Bft) 100,00 %
21.05.2018 13:29 22,8 C 18,3 C 51 % 1012,8 hPa 0,0 l/m 24,0 km/h (4 Bft) O 97 1 min 0,000 mm 4,8 UV-I 874 W/m 12,1 C 19,3 C 29,0 km/h (5 Bft) 100,00 %
21.05.2018 13:30 22,7 C 18,3 C 49 % 1012,8 hPa 0,0 l/m 25,4 km/h (4 Bft) O-SO 105 1 min 0,000 mm 4,8 UV-I 875 W/m 11,4 C 19,0 C 30,6 km/h (5 Bft) 100,00 %
21.05.2018 13:31 22,8 C 18,3 C 48 % 1012,8 hPa 0,0 l/m 22,7 km/h (4 Bft) O-SO 116 1 min 0,000 mm 4,8 UV-I 875 W/m 11,2 C 19,5 C 30,6 km/h (5 Bft) 100,00 %
21.05.2018 13:32 22,8 C 18,3 C 49 % 1012,8 hPa 0,0 l/m 28,4 km/h (4 Bft) O 93 1 min 0,000 mm 4,8 UV-I 876 W/m 11,5 C 18,8 C 35,4 km/h (5 Bft) 100,00 %
21.05.2018 13:33 22,7 C 18,3 C 48 % 1012,8 hPa 0,0 l/m 25,5 km/h (4 Bft) O 85 1 min 0,000 mm 4,8 UV-I 874 W/m 11,1 C 19,0 C 38,6 km/h (5 Bft) 100,00 %
21.05.2018 13:34 22,7 C 18,3 C 49 % 1012,8 hPa 0,0 l/m 20,5 km/h (4 Bft) O 93 1 min 0,000 mm 4,8 UV-I 872 W/m 11,4 C 19,6 C 27,4 km/h (4 Bft) 100,00 %
21.05.2018 13:35 22,7 C 18,3 C 49 % 1012,8 hPa 0,0 l/m 19,2 km/h (3 Bft) O-NO 76 1 min 0,000 mm 4,8 UV-I 872 W/m 11,4 C 19,8 C 27,4 km/h (4 Bft) 100,00 %
21.05.2018 13:36 22,7 C 18,3 C 50 % 1012,8 hPa 0,0 l/m 23,1 km/h (4 Bft) O 92 1 min 0,000 mm 4,8 UV-I 870 W/m 11,7 C 19,3 C 27,4 km/h (4 Bft) 100,00 %
21.05.2018 13:37 22,8 C 18,3 C 50 % 1012,8 hPa 0,0 l/m 24,8 km/h (4 Bft) O-NO 67 1 min 0,000 mm 4,8 UV-I 871 W/m 11,8 C 19,2 C 32,2 km/h (5 Bft) 97,94 %
21.05.2018 13:38 22,8 C 18,3 C 49 % 1012,7 hPa 0,0 l/m 25,8 km/h (4 Bft) O-NO 76 1 min 0,000 mm 4,8 UV-I 872 W/m 11,5 C 19,1 C 33,8 km/h (5 Bft) 100,00 %
21.05.2018 13:39 22,7 C 18,3 C 49 % 1012,8 hPa 0,0 l/m 23,0 km/h (4 Bft) NO 44 1 min 0,000 mm 4,8 UV-I 871 W/m 11,4 C 19,3 C 32,2 km/h (5 Bft) 100,00 %
21.05.2018 13:40 22,7 C 18,3 C 49 % 1012,7 hPa 0,0 l/m 21,2 km/h (4 Bft) O-NO 57 1 min 0,000 mm 4,8 UV-I 872 W/m 11,4 C 19,5 C 25,7 km/h (4 Bft) 100,00 %
21.05.2018 13:41 22,7 C 18,3 C 50 % 1012,7 hPa 0,0 l/m 21,5 km/h (4 Bft) O-SO 106 1 min 0,000 mm 4,8 UV-I 874 W/m 11,7 C 19,5 C 32,2 km/h (5 Bft) 100,00 %
21.05.2018 13:42 22,7 C 18,3 C 49 % 1012,7 hPa 0,0 l/m 22,4 km/h (4 Bft) O 85 1 min 0,000 mm 4,8 UV-I 871 W/m 11,4 C 19,4 C 27,4 km/h (4 Bft) 97,95 %
21.05.2018 13:43 22,7 C 18,3 C 49 % 1012,7 hPa 0,0 l/m 19,5 km/h (3 Bft) O-NO 70 1 min 0,000 mm 4,8 UV-I 869 W/m 11,4 C 19,8 C 29,0 km/h (5 Bft) 100,00 %
21.05.2018 13:44 22,7 C 18,3 C 49 % 1012,7 hPa 0,0 l/m 24,4 km/h (4 Bft) O-NO 75 1 min 0,000 mm 4,8 UV-I 868 W/m 11,4 C 19,1 C 30,6 km/h (5 Bft) 100,00 %
21.05.2018 13:45 22,7 C 18,3 C 49 % 1012,7 hPa 0,0 l/m 20,4 km/h (4 Bft) O 88 1 min 0,000 mm 4,7 UV-I 864 W/m 11,4 C 19,6 C 27,4 km/h (4 Bft) 100,00 %
21.05.2018 13:46 22,7 C 18,3 C 50 % 1012,7 hPa 0,0 l/m 21,2 km/h (4 Bft) NO 55 1 min 0,000 mm 4,7 UV-I 863 W/m 11,7 C 19,5 C 32,2 km/h (5 Bft) 100,00 %
21.05.2018 13:47 22,8 C 18,3 C 50 % 1012,7 hPa 0,0 l/m 21,9 km/h (4 Bft) O 90 1 min 0,000 mm 4,7 UV-I 858 W/m 11,8 C 19,6 C 35,4 km/h (5 Bft) 100,00 %
21.05.2018 13:48 22,8 C 18,3 C 50 % 1012,7 hPa 0,0 l/m 25,0 km/h (4 Bft) O-NO 66 1 min 0,000 mm 4,7 UV-I 856 W/m 11,8 C 19,2 C 35,4 km/h (5 Bft) 100,00 %
21.05.2018 13:49 22,8 C 18,3 C 48 % 1012,7 hPa 0,0 l/m 27,0 km/h (4 Bft) O 97 1 min 0,000 mm 4,7 UV-I 855 W/m 11,2 C 19,0 C 33,8 km/h (5 Bft) 100,00 %
21.05.2018 13:50 22,7 C 18,3 C 48 % 1012,7 hPa 0,0 l/m 24,7 km/h (4 Bft) O-NO 59 1 min 0,000 mm 4,7 UV-I 858 W/m 11,1 C 19,1 C 33,8 km/h (5 Bft) 100,00 %
21.05.2018 13:51 22,7 C 18,3 C 48 % 1012,7 hPa 0,0 l/m 23,4 km/h (4 Bft) O 86 1 min 0,000 mm 4,7 UV-I 860 W/m 11,1 C 19,2 C 33,8 km/h (5 Bft) 97,22 %
21.05.2018 13:53 22,6 C 18,3 C 49 % 1012,7 hPa 0,0 l/m 21,8 km/h (4 Bft) O 96 2 min 0,000 mm 4,7 UV-I 856 W/m 11,3 C 19,3 C 35,4 km/h (5 Bft) 100,00 %
21.05.2018 13:54 22,6 C 18,3 C 50 % 1012,7 hPa 0,0 l/m 26,6 km/h (4 Bft) O-NO 69 1 min 0,000 mm 4,7 UV-I 856 W/m 11,6 C 18,7 C 35,4 km/h (5 Bft) 100,00 %
21.05.2018 13:55 22,6 C 18,3 C 48 % 1012,7 hPa 0,0 l/m 24,6 km/h (4 Bft) O-NO 78 1 min 0,000 mm 4,7 UV-I 855 W/m 11,0 C 19,0 C 30,6 km/h (5 Bft) 100,00 %
21.05.2018 13:56 22,5 C 18,3 C 49 % 1012,6 hPa 0,0 l/m 25,2 km/h (4 Bft) O-NO 76 1 min 0,000 mm 4,7 UV-I 855 W/m 11,2 C 18,7 C 33,8 km/h (5 Bft) 100,00 %
21.05.2018 13:57 22,5 C 18,3 C 50 % 1012,6 hPa 0,0 l/m 23,9 km/h (4 Bft) O-NO 69 1 min 0,000 mm 4,6 UV-I 856 W/m 11,5 C 18,9 C 30,6 km/h (5 Bft) 100,00 %
21.05.2018 13:58 22,6 C 18,3 C 50 % 1012,6 hPa 0,0 l/m 21,3 km/h (4 Bft) O 84 1 min 0,000 mm 4,6 UV-I 858 W/m 11,6 C 19,4 C 29,0 km/h (5 Bft) 100,00 %
21.05.2018 13:59 22,6 C 18,3 C 50 % 1012,5 hPa 0,0 l/m 25,3 km/h (4 Bft) O-NO 61 1 min 0,000 mm 4,7 UV-I 860 W/m 11,6 C 18,9 C 27,4 km/h (4 Bft) 100,00 %
21.05.2018 14:00 22,7 C 18,3 C 49 % 1012,5 hPa 0,0 l/m 25,3 km/h (4 Bft) O-NO 78 1 min 0,000 mm 4,6 UV-I 859 W/m 11,4 C 19,0 C 33,8 km/h (5 Bft) 100,00 %
21.05.2018 14:02 22,7 C 18,3 C 49 % 1012,5 hPa 0,0 l/m 24,0 km/h (4 Bft) O-NO 71 2 min 0,686 mm 4,6 UV-I 853 W/m 11,4 C 19,2 C 32,2 km/h (5 Bft) 100,00 %
21.05.2018 14:03 22,7 C 18,3 C 49 % 1012,5 hPa 0,0 l/m 22,3 km/h (4 Bft) O-SO 108 1 min 0,000 mm 4,5 UV-I 841 W/m 11,4 C 19,4 C 35,4 km/h (5 Bft) 100,00 %
21.05.2018 14:04 22,7 C 18,3 C 48 % 1012,5 hPa 0,0 l/m 30,4 km/h (5 Bft) O 88 1 min 0,000 mm 4,5 UV-I 838 W/m 11,1 C 18,5 C 37,0 km/h (5 Bft) 100,00 %
21.05.2018 14:05 22,6 C 18,3 C 47 % 1012,5 hPa 0,0 l/m 24,3 km/h (4 Bft) O 83 1 min 0,000 mm 4,6 UV-I 847 W/m 10,7 C 19,0 C 30,6 km/h (5 Bft) 100,00 %
21.05.2018 14:06 22,6 C 18,3 C 48 % 1012,5 hPa 0,0 l/m 21,8 km/h (4 Bft) O 98 1 min 0,000 mm 4,6 UV-I 850 W/m 11,0 C 19,3 C 29,0 km/h (5 Bft) 100,00 %
21.05.2018 14:07 22,6 C 18,3 C 49 % 1012,5 hPa 0,0 l/m 21,0 km/h (4 Bft) O-NO 76 1 min 0,000 mm 4,6 UV-I 850 W/m 11,3 C 19,4 C 27,4 km/h (4 Bft) 95,65 %
21.05.2018 14:08 22,7 C 18,3 C 50 % 1012,5 hPa 0,0 l/m 22,1 km/h (4 Bft) O-SO 103 1 min 0,000 mm 4,6 UV-I 850 W/m 11,7 C 19,4 C 33,8 km/h (5 Bft) 100,00 %
21.05.2018 14:09 22,8 C 18,3 C 51 % 1012,5 hPa 0,0 l/m 25,0 km/h (4 Bft) O-NO 69 1 min 0,000 mm 4,5 UV-I 857 W/m 12,1 C 19,2 C 33,8 km/h (5 Bft) 100,00 %
21.05.2018 14:10 22,9 C 18,3 C 49 % 1012,5 hPa 0,0 l/m 21,3 km/h (4 Bft) O 82 1 min 0,000 mm 4,5 UV-I 870 W/m 11,6 C 19,8 C 29,0 km/h (5 Bft) 100,00 %
21.05.2018 14:11 23,0 C 18,3 C 49 % 1012,5 hPa 0,0 l/m 23,9 km/h (4 Bft) O 93 1 min 0,000 mm 4,5 UV-I 876 W/m 11,7 C 19,6 C 30,6 km/h (5 Bft) 100,00 %
21.05.2018 14:12 22,9 C 18,9 C 46 % 1012,5 hPa 0,0 l/m 25,6 km/h (4 Bft) O-NO 69 1 min 0,000 mm 4,5 UV-I 885 W/m 10,7 C 19,2 C 30,6 km/h (5 Bft) 100,00 %
21.05.2018 14:13 22,9 C 18,3 C 47 % 1012,4 hPa 0,0 l/m 25,0 km/h (4 Bft) O 86 1 min 0,000 mm 4,4 UV-I 898 W/m 11,0 C 19,3 C 27,4 km/h (4 Bft) 100,00 %
21.05.2018 14:14 22,9 C 18,3 C 48 % 1012,5 hPa 0,0 l/m 21,6 km/h (4 Bft) O 82 1 min 0,000 mm 4,2 UV-I 900 W/m 11,3 C 19,7 C 25,7 km/h (4 Bft) 100,00 %
21.05.2018 14:15 22,9 C 18,3 C 49 % 1012,4 hPa 0,0 l/m 27,1 km/h (4 Bft) O-NO 71 1 min 0,000 mm 3,4 UV-I 900 W/m 11,6 C 19,1 C 37,0 km/h (5 Bft) 100,00 %
21.05.2018 14:16 22,8 C 18,3 C 47 % 1012,5 hPa 0,0 l/m 28,0 km/h (4 Bft) O 80 0 min 0,000 mm 2,7 UV-I 243 W/m 10,9 C 18,9 C 33,8 km/h (5 Bft) 100,00 %
21.05.2018 14:17 22,6 C 18,3 C 48 % 1012,4 hPa 0,0 l/m 25,2 km/h (4 Bft) O-NO 60 0 min 0,000 mm 3,8 UV-I 247 W/m 11,0 C 18,9 C 33,8 km/h (5 Bft) 100,00 %
21.05.2018 14:18 22,6 C 18,3 C 48 % 1012,4 hPa 0,0 l/m 23,6 km/h (4 Bft) O 84 0 min 0,000 mm 2,9 UV-I 309 W/m 11,0 C 19,1 C 30,6 km/h (5 Bft) 100,00 %
21.05.2018 14:19 22,4 C 18,9 C 47 % 1012,4 hPa 0,0 l/m 21,8 km/h (4 Bft) O-NO 63 1 min 0,000 mm 4,3 UV-I 535 W/m 10,5 C 19,0 C 29,0 km/h (5 Bft) 100,00 %
21.05.2018 14:20 22,4 C 18,9 C 50 % 1012,4 hPa 0,0 l/m 19,0 km/h (3 Bft) NO 55 1 min 0,000 mm 4,1 UV-I 885 W/m 11,5 C 19,5 C 22,5 km/h (4 Bft) 100,00 %
21.05.2018 14:21 22,4 C 18,9 C 50 % 1012,4 hPa 0,0 l/m 21,9 km/h (4 Bft) O-NO 76 1 min 0,000 mm 3,4 UV-I 896 W/m 11,5 C 19,0 C 29,0 km/h (5 Bft) 100,00 %
21.05.2018 14:22 22,4 C 18,9 C 49 % 1012,3 hPa 0,0 l/m 23,0 km/h (4 Bft) O-NO 76 1 min 0,000 mm 2,6 UV-I 812 W/m 11,2 C 18,9 C 32,2 km/h (5 Bft) 100,00 %
21.05.2018 14:23 22,3 C 18,9 C 48 % 1012,4 hPa 0,0 l/m 27,8 km/h (4 Bft) O-NO 78 0 min 0,000 mm 2,5 UV-I 212 W/m 10,8 C 18,2 C 33,8 km/h (5 Bft) 100,00 %
21.05.2018 14:24 22,2 C 18,9 C 47 % 1012,4 hPa 0,0 l/m 22,7 km/h (4 Bft) O-NO 58 0 min 0,000 mm 2,9 UV-I 267 W/m 10,3 C 18,7 C 29,0 km/h (5 Bft) 100,00 %
21.05.2018 14:25 22,1 C 18,9 C 48 % 1012,4 hPa 0,0 l/m 23,7 km/h (4 Bft) O 81 0 min 0,000 mm 2,8 UV-I 279 W/m 10,6 C 18,4 C 33,8 km/h (5 Bft) 100,00 %
21.05.2018 14:26 22,1 C 18,9 C 50 % 1012,4 hPa 0,0 l/m 24,5 km/h (4 Bft) O 86 0 min 0,000 mm 3,6 UV-I 279 W/m 11,2 C 18,3 C 33,8 km/h (5 Bft) 100,00 %
21.05.2018 14:27 22,2 C 18,9 C 51 % 1012,4 hPa 0,0 l/m 24,1 km/h (4 Bft) NO 53 0 min 0,000 mm 4,3 UV-I 279 W/m 11,6 C 18,5 C 35,4 km/h (5 Bft) 91,67 %
21.05.2018 14:28 22,3 C 18,9 C 51 % 1012,3 hPa 0,0 l/m 25,7 km/h (4 Bft) O 80 0 min 0,000 mm 4,1 UV-I 279 W/m 11,7 C 18,4 C 30,6 km/h (5 Bft) 100,00 %
21.05.2018 14:29 22,4 C 18,9 C 51 % 1012,4 hPa 0,0 l/m 17,8 km/h (3 Bft) O-SO 112 0 min 0,000 mm 4,3 UV-I 446 W/m 11,8 C 19,7 C 22,5 km/h (4 Bft) 91,67 %
21.05.2018 14:30 22,6 C 18,9 C 49 % 1012,4 hPa 0,0 l/m 23,6 km/h (4 Bft) O 88 1 min 0,000 mm 4,3 UV-I 882 W/m 11,3 C 19,1 C 27,4 km/h (4 Bft) 96,55 %
21.05.2018 14:31 22,6 C 18,9 C 48 % 1012,3 hPa 0,0 l/m 21,2 km/h (4 Bft) O 94 1 min 0,000 mm 4,2 UV-I 882 W/m 11,0 C 19,4 C 25,7 km/h (4 Bft) 91,67 %
21.05.2018 14:33 22,7 C 18,9 C 48 % 1012,3 hPa 0,0 l/m 21,6 km/h (4 Bft) O 91 2 min 0,000 mm 3,9 UV-I 878 W/m 11,1 C 19,5 C 30,6 km/h (5 Bft) 98,31 %
21.05.2018 14:34 22,7 C 18,9 C 49 % 1012,3 hPa 0,0 l/m 23,7 km/h (4 Bft) O 85 1 min 0,000 mm 4,2 UV-I 822 W/m 11,4 C 19,2 C 27,4 km/h (4 Bft) 96,15 %
21.05.2018 14:35 22,7 C 18,9 C 49 % 1012,3 hPa 0,0 l/m 20,3 km/h (4 Bft) NO 44 1 min 0,000 mm 4,2 UV-I 838 W/m 11,4 C 19,7 C 29,0 km/h (5 Bft) 100,00 %
21.05.2018 14:36 22,7 C 18,9 C 49 % 1012,3 hPa 0,0 l/m 21,5 km/h (4 Bft) O 91 1 min 0,000 mm 4,2 UV-I 831 W/m 11,4 C 19,5 C 29,0 km/h (5 Bft) 92,86 %
21.05.2018 14:37 22,8 C 18,9 C 49 % 1012,3 hPa 0,0 l/m 23,1 km/h (4 Bft) O 81 1 min 0,000 mm 4,2 UV-I 825 W/m 11,5 C 19,4 C 32,2 km/h (5 Bft) 100,00 %
21.05.2018 14:38 22,8 C 18,9 C 50 % 1012,3 hPa 0,0 l/m 24,5 km/h (4 Bft) O 79 1 min 0,000 mm 4,2 UV-I 822 W/m 11,8 C 19,2 C 32,2 km/h (5 Bft) 91,30 %
21.05.2018 14:39 22,9 C 18,9 C 48 % 1012,3 hPa 0,0 l/m 22,5 km/h (4 Bft) O 88 1 min 0,000 mm 4,1 UV-I 823 W/m 11,3 C 19,6 C 29,0 km/h (5 Bft) 95,83 %
21.05.2018 14:40 22,8 C 18,9 C 49 % 1012,3 hPa 0,0 l/m 18,6 km/h (3 Bft) O-NO 57 1 min 0,000 mm 4,2 UV-I 824 W/m 11,5 C 20,0 C 22,5 km/h (4 Bft) 96,55 %
21.05.2018 14:41 22,9 C 18,9 C 50 % 1012,2 hPa 0,0 l/m 21,8 km/h (4 Bft) O-NO 65 1 min 0,000 mm 4,1 UV-I 826 W/m 11,9 C 19,7 C 33,8 km/h (5 Bft) 100,00 %
21.05.2018 14:42 23,0 C 18,9 C 49 % 1012,2 hPa 0,0 l/m 22,3 km/h (4 Bft) O-SO 109 1 min 0,000 mm 4,2 UV-I 830 W/m 11,7 C 19,8 C 27,4 km/h (4 Bft) 92,31 %
21.05.2018 14:43 23,1 C 18,9 C 48 % 1012,2 hPa 0,0 l/m 16,2 km/h (3 Bft) O 81 1 min 0,000 mm 4,1 UV-I 830 W/m 11,5 C 20,8 C 22,5 km/h (4 Bft) 96,30 %
21.05.2018 14:44 23,1 C 18,9 C 49 % 1012,2 hPa 0,0 l/m 16,5 km/h (3 Bft) O 81 1 min 0,000 mm 4,1 UV-I 827 W/m 11,8 C 20,7 C 20,9 km/h (4 Bft) 100,00 %
21.05.2018 14:45 23,2 C 18,9 C 51 % 1012,2 hPa 0,0 l/m 13,0 km/h (3 Bft) NO 42 1 min 0,000 mm 4,1 UV-I 824 W/m 12,5 C 21,5 C 20,9 km/h (4 Bft) 96,15 %
21.05.2018 14:46 23,3 C 18,9 C 49 % 1012,2 hPa 0,0 l/m 16,7 km/h (3 Bft) O-NO 68 1 min 0,000 mm 4,1 UV-I 818 W/m 12,0 C 21,0 C 27,4 km/h (4 Bft) 100,00 %
21.05.2018 14:48 23,3 C 18,9 C 46 % 1012,2 hPa 0,0 l/m 25,9 km/h (4 Bft) O 85 2 min 0,000 mm 4,0 UV-I 818 W/m 11,0 C 19,8 C 33,8 km/h (5 Bft) 96,00 %
21.05.2018 14:49 23,3 C 18,9 C 45 % 1012,2 hPa 0,0 l/m 26,7 km/h (4 Bft) O-NO 76 1 min 0,000 mm 4,0 UV-I 826 W/m 10,7 C 19,7 C 35,4 km/h (5 Bft) 100,00 %
21.05.2018 14:50 23,2 C 18,9 C 48 % 1012,2 hPa 0,0 l/m 19,1 km/h (3 Bft) O-NO 75 1 min 0,000 mm 4,0 UV-I 744 W/m 11,6 C 20,5 C 24,1 km/h (4 Bft) 100,00 %
21.05.2018 14:51 23,2 C 18,9 C 48 % 1012,2 hPa 0,0 l/m 15,4 km/h (3 Bft) O-NO 76 1 min 0,000 mm 4,0 UV-I 664 W/m 11,6 C 21,1 C 27,4 km/h (4 Bft) 96,15 %
21.05.2018 14:52 23,2 C 18,9 C 48 % 1012,2 hPa 0,0 l/m 20,9 km/h (4 Bft) NO 46 1 min 0,000 mm 3,8 UV-I 664 W/m 11,6 C 20,2 C 29,0 km/h (5 Bft) 100,00 %
21.05.2018 14:53 23,2 C 18,9 C 47 % 1012,2 hPa 0,0 l/m 19,3 km/h (3 Bft) O-NO 78 1 min 0,000 mm 2,9 UV-I 664 W/m 11,3 C 20,4 C 22,5 km/h (4 Bft) 96,55 %
21.05.2018 14:54 23,1 C 18,9 C 46 % 1012,2 hPa 0,0 l/m 23,1 km/h (4 Bft) O-SO 121 1 min 0,000 mm 2,5 UV-I 512 W/m 10,8 C 19,8 C 32,2 km/h (5 Bft) 95,83 %
21.05.2018 14:55 22,9 C 18,9 C 46 % 1012,2 hPa 0,0 l/m 22,8 km/h (4 Bft) O 85 0 min 0,000 mm 2,6 UV-I 285 W/m 10,7 C 19,6 C 30,6 km/h (5 Bft) 100,00 %
21.05.2018 14:56 22,8 C 18,9 C 46 % 1012,2 hPa 0,0 l/m 22,0 km/h (4 Bft) O 93 0 min 0,000 mm 2,5 UV-I 274 W/m 10,6 C 19,5 C 27,4 km/h (4 Bft) 96,55 %
21.05.2018 14:57 22,7 C 18,9 C 47 % 1012,2 hPa 0,0 l/m 19,5 km/h (3 Bft) O-NO 59 0 min 0,000 mm 2,5 UV-I 267 W/m 10,8 C 19,8 C 25,7 km/h (4 Bft) 100,00 %
21.05.2018 14:58 22,5 C 18,9 C 48 % 1012,1 hPa 0,0 l/m 19,4 km/h (3 Bft) O-NO 77 0 min 0,000 mm 2,6 UV-I 273 W/m 10,9 C 19,5 C 29,0 km/h (5 Bft) 100,00 %
21.05.2018 14:59 22,4 C 18,9 C 48 % 1012,1 hPa 0,0 l/m 18,9 km/h (3 Bft) O-NO 74 0 min 0,000 mm 2,4 UV-I 262 W/m 10,8 C 19,5 C 24,1 km/h (4 Bft) 95,65 %
21.05.2018 15:00 22,4 C 18,9 C 49 % 1012,2 hPa 0,0 l/m 30,6 km/h (5 Bft) O-NO 67 0 min 0,000 mm 2,4 UV-I 252 W/m 11,2 C 18,0 C 41,8 km/h (6 Bft) 100,00 %
21.05.2018 15:02 22,2 C 18,9 C 47 % 1012,2 hPa 0,0 l/m 24,7 km/h (4 Bft) O-NO 67 0 min 0,584 mm 2,4 UV-I 260 W/m 10,3 C 18,4 C 35,4 km/h (5 Bft) 97,56 %
21.05.2018 15:03 22,1 C 18,9 C 47 % 1012,2 hPa 0,0 l/m 26,9 km/h (4 Bft) O-NO 65 0 min 0,000 mm 2,3 UV-I 230 W/m 10,3 C 18,0 C 38,6 km/h (5 Bft) 100,00 %
21.05.2018 15:04 21,9 C 18,9 C 47 % 1012,1 hPa 0,0 l/m 24,4 km/h (4 Bft) O-SO 105 0 min 0,000 mm 2,3 UV-I 219 W/m 10,1 C 18,0 C 32,2 km/h (5 Bft) 100,00 %
21.05.2018 15:05 21,9 C 18,9 C 48 % 1012,1 hPa 0,0 l/m 22,3 km/h (4 Bft) O-NO 71 0 min 0,000 mm 2,3 UV-I 223 W/m 10,4 C 18,3 C 29,0 km/h (5 Bft) 100,00 %
21.05.2018 15:06 21,8 C 18,9 C 48 % 1012,1 hPa 0,0 l/m 23,6 km/h (4 Bft) O 91 0 min 0,000 mm 2,3 UV-I 236 W/m 10,3 C 18,0 C 29,0 km/h (5 Bft) 95,65 %
21.05.2018 15:07 21,7 C 18,9 C 47 % 1012,1 hPa 0,0 l/m 27,1 km/h (4 Bft) O 94 0 min 0,000 mm 2,5 UV-I 261 W/m 9,9 C 17,4 C 33,8 km/h (5 Bft) 93,33 %
21.05.2018 15:08 21,8 C 18,9 C 48 % 1012,1 hPa 0,0 l/m 24,8 km/h (4 Bft) O-NO 66 0 min 0,000 mm 2,6 UV-I 288 W/m 10,3 C 17,8 C 32,2 km/h (5 Bft) 100,00 %
21.05.2018 15:09 21,8 C 18,9 C 49 % 1012,1 hPa 0,0 l/m 24,0 km/h (4 Bft) O-NO 70 0 min 0,000 mm 2,6 UV-I 285 W/m 10,6 C 18,0 C 29,0 km/h (5 Bft) 100,00 %
21.05.2018 15:10 21,9 C 18,9 C 49 % 1012,0 hPa 0,0 l/m 22,5 km/h (4 Bft) O-NO 65 0 min 0,000 mm 3,5 UV-I 285 W/m 10,7 C 18,3 C 29,0 km/h (5 Bft) 100,00 %
21.05.2018 15:11 22,0 C 18,9 C 49 % 1012,0 hPa 0,0 l/m 26,8 km/h (4 Bft) O 101 1 min 0,000 mm 3,7 UV-I 544 W/m 10,8 C 17,9 C 35,4 km/h (5 Bft) 93,33 %
21.05.2018 15:12 22,1 C 18,9 C 50 % 1012,0 hPa 0,0 l/m 21,9 km/h (4 Bft) NO 44 1 min 0,000 mm 3,7 UV-I 800 W/m 11,2 C 18,6 C 29,0 km/h (5 Bft) 100,00 %
21.05.2018 15:13 22,3 C 18,9 C 48 % 1012,0 hPa 0,0 l/m 20,0 km/h (4 Bft) NO 42 1 min 0,000 mm 3,6 UV-I 778 W/m 10,8 C 19,2 C 27,4 km/h (4 Bft) 100,00 %
21.05.2018 15:14 22,6 C 18,9 C 50 % 1011,9 hPa 0,0 l/m 20,5 km/h (4 Bft) O 90 1 min 0,000 mm 3,6 UV-I 764 W/m 11,6 C 19,5 C 30,6 km/h (5 Bft) 100,00 %
21.05.2018 15:15 22,7 C 18,9 C 49 % 1012,0 hPa 0,0 l/m 20,9 km/h (4 Bft) O-NO 63 1 min 0,000 mm 3,5 UV-I 756 W/m 11,4 C 19,6 C 29,0 km/h (5 Bft) 100,00 %
21.05.2018 15:16 22,8 C 18,9 C 49 % 1011,9 hPa 0,0 l/m 16,4 km/h (3 Bft) O-SO 107 1 min 0,000 mm 3,5 UV-I 767 W/m 11,5 C 20,4 C 27,4 km/h (4 Bft) 100,00 %
21.05.2018 15:17 23,0 C 18,9 C 48 % 1011,9 hPa 0,0 l/m 27,7 km/h (4 Bft) O 92 1 min 0,000 mm 3,5 UV-I 768 W/m 11,4 C 19,2 C 43,5 km/h (6 Bft) 100,00 %
21.05.2018 15:18 23,1 C 18,9 C 47 % 1011,9 hPa 0,0 l/m 20,7 km/h (4 Bft) O 88 1 min 0,000 mm 3,5 UV-I 760 W/m 11,2 C 20,1 C 33,8 km/h (5 Bft) 100,00 %
21.05.2018 15:19 23,1 C 18,9 C 47 % 1011,9 hPa 0,0 l/m 25,1 km/h (4 Bft) O 83 1 min 0,000 mm 3,5 UV-I 752 W/m 11,2 C 19,6 C 32,2 km/h (5 Bft) 100,00 %
21.05.2018 15:20 23,1 C 18,9 C 48 % 1011,9 hPa 0,0 l/m 22,0 km/h (4 Bft) O-NO 71 1 min 0,000 mm 3,5 UV-I 741 W/m 11,5 C 19,9 C 27,4 km/h (4 Bft) 100,00 %
21.05.2018 15:21 23,1 C 18,9 C 49 % 1011,9 hPa 0,0 l/m 27,4 km/h (4 Bft) O 84 1 min 0,000 mm 3,5 UV-I 737 W/m 11,8 C 19,3 C 33,8 km/h (5 Bft) 98,08 %
21.05.2018 15:22 23,1 C 18,9 C 48 % 1011,9 hPa 0,0 l/m 24,9 km/h (4 Bft) O-NO 65 1 min 0,000 mm 3,4 UV-I 734 W/m 11,5 C 19,6 C 29,0 km/h (5 Bft) 97,62 %
21.05.2018 15:23 23,1 C 18,9 C 46 % 1011,9 hPa 0,0 l/m 25,1 km/h (4 Bft) O 87 1 min 0,000 mm 3,4 UV-I 730 W/m 10,8 C 19,6 C 32,2 km/h (5 Bft) 93,10 %
21.05.2018 15:24 23,1 C 18,9 C 47 % 1011,9 hPa 0,0 l/m 25,3 km/h (4 Bft) O-NO 67 1 min 0,000 mm 3,4 UV-I 724 W/m 11,2 C 19,6 C 32,2 km/h (5 Bft) 100,00 %
21.05.2018 15:25 23,1 C 18,9 C 48 % 1011,8 hPa 0,0 l/m 24,3 km/h (4 Bft) O-NO 76 1 min 0,000 mm 3,3 UV-I 713 W/m 11,5 C 19,7 C 30,6 km/h (5 Bft) 92,31 %
21.05.2018 15:26 23,1 C 18,9 C 48 % 1011,9 hPa 0,0 l/m 20,5 km/h (4 Bft) O-SO 109 1 min 0,000 mm 3,3 UV-I 712 W/m 11,5 C 20,1 C 27,4 km/h (4 Bft) 100,00 %
21.05.2018 15:27 23,0 C 18,9 C 48 % 1011,9 hPa 0,0 l/m 20,1 km/h (4 Bft) O-NO 67 1 min 0,000 mm 3,3 UV-I 710 W/m 11,4 C 20,1 C 25,7 km/h (4 Bft) 94,12 %
21.05.2018 15:28 23,0 C 18,9 C 47 % 1011,8 hPa 0,0 l/m 21,0 km/h (4 Bft) O-NO 59 1 min 0,000 mm 3,3 UV-I 710 W/m 11,1 C 19,9 C 27,4 km/h (4 Bft) 100,00 %
21.05.2018 15:29 23,0 C 18,9 C 49 % 1011,8 hPa 0,0 l/m 22,2 km/h (4 Bft) O-NO 77 1 min 0,000 mm 3,3 UV-I 710 W/m 11,7 C 19,8 C 27,4 km/h (4 Bft) 93,75 %
21.05.2018 15:30 23,0 C 18,9 C 48 % 1011,8 hPa 0,0 l/m 25,2 km/h (4 Bft) O-NO 71 1 min 0,000 mm 3,3 UV-I 710 W/m 11,4 C 19,4 C 30,6 km/h (5 Bft) 91,67 %
21.05.2018 15:31 22,9 C 18,9 C 48 % 1011,8 hPa 0,0 l/m 23,7 km/h (4 Bft) O-NO 69 1 min 0,000 mm 3,2 UV-I 709 W/m 11,3 C 19,5 C 32,2 km/h (5 Bft) 100,00 %
21.05.2018 15:32 22,9 C 18,9 C 47 % 1011,8 hPa 0,0 l/m 21,4 km/h (4 Bft) O-SO 112 1 min 0,000 mm 3,2 UV-I 708 W/m 11,0 C 19,8 C 30,6 km/h (5 Bft) 98,05 %
21.05.2018 15:33 22,9 C 18,9 C 49 % 1011,8 hPa 0,0 l/m 17,9 km/h (3 Bft) O 79 1 min 0,000 mm 3,2 UV-I 706 W/m 11,6 C 20,3 C 24,1 km/h (4 Bft) 97,73 %
21.05.2018 15:34 23,0 C 18,9 C 49 % 1011,8 hPa 0,0 l/m 24,9 km/h (4 Bft) O 99 1 min 0,000 mm 3,2 UV-I 702 W/m 11,7 C 19,5 C 29,0 km/h (5 Bft) 95,83 %
21.05.2018 15:35 23,1 C 18,9 C 49 % 1011,8 hPa 0,0 l/m 21,5 km/h (4 Bft) O 92 1 min 0,000 mm 3,2 UV-I 701 W/m 11,8 C 20,0 C 29,0 km/h (5 Bft) 95,65 %
21.05.2018 15:36 23,2 C 18,9 C 49 % 1011,8 hPa 0,0 l/m 21,7 km/h (4 Bft) O-NO 78 1 min 0,000 mm 3,2 UV-I 700 W/m 11,9 C 20,1 C 29,0 km/h (5 Bft) 96,30 %
21.05.2018 15:37 23,2 C 18,9 C 50 % 1011,8 hPa 0,0 l/m 20,3 km/h (4 Bft) O-NO 62 1 min 0,000 mm 3,1 UV-I 695 W/m 12,2 C 20,3 C 33,8 km/h (5 Bft) 91,30 %
21.05.2018 15:38 23,3 C 18,9 C 49 % 1011,8 hPa 0,0 l/m 25,3 km/h (4 Bft) O 82 1 min 0,000 mm 3,1 UV-I 692 W/m 12,0 C 19,8 C 32,2 km/h (5 Bft) 100,00 %
21.05.2018 15:39 23,3 C 18,9 C 49 % 1011,8 hPa 0,0 l/m 23,5 km/h (4 Bft) NO 46 1 min 0,000 mm 3,1 UV-I 694 W/m 12,0 C 20,0 C 30,6 km/h (5 Bft) 93,33 %
21.05.2018 15:40 23,3 C 18,9 C 50 % 1011,8 hPa 0,0 l/m 23,2 km/h (4 Bft) NO 38 1 min 0,000 mm 3,1 UV-I 691 W/m 12,3 C 20,1 C 30,6 km/h (5 Bft) 96,15 %
21.05.2018 15:41 23,3 C 18,9 C 48 % 1011,8 hPa 0,0 l/m 20,2 km/h (4 Bft) O 82 1 min 0,000 mm 3,0 UV-I 688 W/m 11,7 C 20,4 C 25,7 km/h (4 Bft) 96,55 %
21.05.2018 15:42 23,3 C 18,9 C 49 % 1011,8 hPa 0,0 l/m 21,7 km/h (4 Bft) O 85 1 min 0,000 mm 2,8 UV-I 687 W/m 12,0 C 20,2 C 30,6 km/h (5 Bft) 100,00 %
21.05.2018 15:43 23,2 C 18,9 C 48 % 1011,6 hPa 0,0 l/m 24,0 km/h (4 Bft) O-NO 72 1 min 0,000 mm 2,7 UV-I 687 W/m 11,6 C 19,8 C 33,8 km/h (5 Bft) 96,30 %
21.05.2018 15:44 23,1 C 18,9 C 48 % 1011,8 hPa 0,0 l/m 26,1 km/h (4 Bft) O-SO 121 1 min 0,000 mm 2,9 UV-I 685 W/m 11,5 C 19,5 C 38,6 km/h (5 Bft) 100,00 %
21.05.2018 15:45 23,1 C 18,9 C 48 % 1011,7 hPa 0,0 l/m 23,0 km/h (4 Bft) O 101 1 min 0,000 mm 3,0 UV-I 672 W/m 11,5 C 19,8 C 32,2 km/h (5 Bft) 92,59 %
21.05.2018 15:46 23,0 C 18,9 C 49 % 1011,7 hPa 0,0 l/m 27,1 km/h (4 Bft) O 87 1 min 0,000 mm 3,0 UV-I 675 W/m 11,7 C 19,2 C 40,2 km/h (6 Bft) 100,00 %
21.05.2018 15:47 22,9 C 18,9 C 48 % 1011,7 hPa 0,0 l/m 21,9 km/h (4 Bft) NO 49 1 min 0,000 mm 3,0 UV-I 676 W/m 11,3 C 19,7 C 29,0 km/h (5 Bft) 96,30 %
21.05.2018 15:48 22,9 C 18,9 C 50 % 1011,6 hPa 0,0 l/m 22,9 km/h (4 Bft) NO 35 1 min 0,000 mm 2,9 UV-I 675 W/m 11,9 C 19,6 C 29,0 km/h (5 Bft) 96,15 %
21.05.2018 15:49 22,9 C 18,9 C 48 % 1011,6 hPa 0,0 l/m 25,3 km/h (4 Bft) O-NO 58 1 min 0,000 mm 2,9 UV-I 673 W/m 11,3 C 19,3 C 32,2 km/h (5 Bft) 96,30 %
21.05.2018 15:50 22,9 C 18,9 C 50 % 1011,6 hPa 0,0 l/m 23,2 km/h (4 Bft) NO 51 1 min 0,000 mm 2,9 UV-I 670 W/m 11,9 C 19,5 C 30,6 km/h (5 Bft) 95,65 %
21.05.2018 15:51 22,9 C 18,9 C 49 % 1011,6 hPa 0,0 l/m 29,2 km/h (5 Bft) O 96 1 min 0,000 mm 2,9 UV-I 665 W/m 11,6 C 18,9 C 33,8 km/h (5 Bft) 100,00 %
21.05.2018 15:52 22,9 C 18,9 C 49 % 1011,7 hPa 0,0 l/m 24,6 km/h (4 Bft) O 88 1 min 0,000 mm 2,8 UV-I 663 W/m 11,6 C 19,4 C 33,8 km/h (5 Bft) 96,15 %
21.05.2018 15:53 22,9 C 18,9 C 50 % 1011,7 hPa 0,0 l/m 17,2 km/h (3 Bft) O 82 1 min 0,000 mm 2,8 UV-I 661 W/m 11,9 C 20,4 C 22,5 km/h (4 Bft) 100,00 %
21.05.2018 15:54 23,0 C 18,9 C 50 % 1011,7 hPa 0,0 l/m 22,8 km/h (4 Bft) O 101 1 min 0,000 mm 2,8 UV-I 661 W/m 12,0 C 19,7 C 37,0 km/h (5 Bft) 96,97 %
21.05.2018 15:55 23,1 C 18,9 C 48 % 1011,7 hPa 0,0 l/m 24,1 km/h (4 Bft) O-NO 65 1 min 0,000 mm 2,8 UV-I 657 W/m 11,5 C 19,7 C 32,2 km/h (5 Bft) 100,00 %
21.05.2018 15:56 23,1 C 18,9 C 48 % 1011,6 hPa 0,0 l/m 27,5 km/h (4 Bft) NO 52 1 min 0,000 mm 2,8 UV-I 654 W/m 11,5 C 19,3 C 35,4 km/h (5 Bft) 96,30 %
21.05.2018 15:57 23,0 C 18,9 C 49 % 1011,7 hPa 0,0 l/m 28,3 km/h (4 Bft) O-NO 59 1 min 0,000 mm 2,7 UV-I 652 W/m 11,7 C 19,1 C 32,2 km/h (5 Bft) 100,00 %
21.05.2018 15:58 22,9 C 18,9 C 49 % 1011,7 hPa 0,0 l/m 29,9 km/h (5 Bft) O 86 1 min 0,000 mm 2,7 UV-I 651 W/m 11,6 C 18,8 C 40,2 km/h (6 Bft) 96,30 %
21.05.2018 15:59 22,9 C 18,9 C 50 % 1011,6 hPa 0,0 l/m 24,0 km/h (4 Bft) O 84 1 min 0,000 mm 2,7 UV-I 649 W/m 11,9 C 19,4 C 33,8 km/h (5 Bft) 96,15 %
21.05.2018 16:00 22,8 C 18,9 C 50 % 1011,6 hPa 0,0 l/m 28,6 km/h (4 Bft) O-SO 103 1 min 0,000 mm 2,7 UV-I 648 W/m 11,8 C 18,8 C 35,4 km/h (5 Bft) 100,00 %
21.05.2018 16:02 22,8 C 18,9 C 49 % 1011,6 hPa 0,0 l/m 24,0 km/h (4 Bft) O-NO 66 2 min 0,559 mm 2,7 UV-I 644 W/m 11,5 C 19,3 C 30,6 km/h (5 Bft) 96,43 %
21.05.2018 16:03 22,9 C 18,9 C 50 % 1011,6 hPa 0,0 l/m 23,4 km/h (4 Bft) O-NO 77 1 min 0,000 mm 2,6 UV-I 641 W/m 11,9 C 19,5 C 29,0 km/h (5 Bft) 100,00 %
21.05.2018 16:04 22,9 C 18,9 C 51 % 1011,6 hPa 0,0 l/m 21,7 km/h (4 Bft) O 86 1 min 0,000 mm 2,6 UV-I 637 W/m 12,2 C 19,7 C 32,2 km/h (5 Bft) 97,22 %
21.05.2018 16:05 23,1 C 18,9 C 50 % 1011,5 hPa 0,0 l/m 26,4 km/h (4 Bft) O-SO 105 1 min 0,000 mm 2,6 UV-I 636 W/m 12,1 C 19,4 C 38,6 km/h (5 Bft) 90,91 %
21.05.2018 16:06 23,1 C 18,9 C 49 % 1011,6 hPa 0,0 l/m 25,5 km/h (4 Bft) O 89 1 min 0,000 mm 2,6 UV-I 632 W/m 11,8 C 19,5 C 35,4 km/h (5 Bft) 96,67 %
21.05.2018 16:07 23,1 C 18,9 C 50 % 1011,6 hPa 0,0 l/m 26,2 km/h (4 Bft) O-NO 69 1 min 0,000 mm 2,6 UV-I 629 W/m 12,1 C 19,5 C 30,6 km/h (5 Bft) 96,55 %
21.05.2018 16:08 23,1 C 18,9 C 50 % 1011,6 hPa 0,0 l/m 24,1 km/h (4 Bft) O-NO 71 1 min 0,000 mm 2,3 UV-I 553 W/m 12,1 C 19,7 C 30,6 km/h (5 Bft) 100,00 %
21.05.2018 16:09 23,0 C 18,9 C 49 % 1011,6 hPa 0,0 l/m 26,1 km/h (4 Bft) O 100 1 min 0,000 mm 2,3 UV-I 414 W/m 11,7 C 19,3 C 40,2 km/h (6 Bft) 91,30 %
21.05.2018 16:10 22,9 C 18,9 C 49 % 1011,5 hPa 0,0 l/m 31,8 km/h (5 Bft) O-NO 76 1 min 0,000 mm 2,3 UV-I 441 W/m 11,6 C 18,6 C 45,1 km/h (6 Bft) 100,00 %
21.05.2018 16:11 22,9 C 18,9 C 50 % 1011,6 hPa 0,0 l/m 25,3 km/h (4 Bft) O 84 1 min 0,000 mm 2,4 UV-I 441 W/m 11,9 C 19,3 C 37,0 km/h (5 Bft) 91,67 %
21.05.2018 16:12 22,8 C 18,9 C 50 % 1011,6 hPa 0,0 l/m 23,3 km/h (4 Bft) O 94 1 min 0,000 mm 2,3 UV-I 441 W/m 11,8 C 19,4 C 33,8 km/h (5 Bft) 96,88 %
21.05.2018 16:13 22,8 C 18,9 C 50 % 1011,5 hPa 0,0 l/m 27,0 km/h (4 Bft) NO 42 1 min 0,000 mm 2,4 UV-I 602 W/m 11,8 C 19,0 C 35,4 km/h (5 Bft) 100,00 %
21.05.2018 16:14 22,7 C 18,9 C 50 % 1011,5 hPa 0,0 l/m 26,2 km/h (4 Bft) O 87 1 min 0,000 mm 2,4 UV-I 610 W/m 11,7 C 18,9 C 32,2 km/h (5 Bft) 96,30 %
21.05.2018 16:15 22,7 C 18,9 C 49 % 1011,5 hPa 0,0 l/m 24,3 km/h (4 Bft) O 101 1 min 0,000 mm 2,4 UV-I 607 W/m 11,4 C 19,1 C 30,6 km/h (5 Bft) 100,00 %
21.05.2018 16:16 22,6 C 18,9 C 49 % 1011,5 hPa 0,0 l/m 23,1 km/h (4 Bft) O-SO 107 1 min 0,000 mm 2,4 UV-I 606 W/m 11,3 C 19,1 C 32,2 km/h (5 Bft) 96,55 %
21.05.2018 16:17 22,7 C 18,9 C 50 % 1011,5 hPa 0,0 l/m 22,0 km/h (4 Bft) O 94 1 min 0,000 mm 2,4 UV-I 605 W/m 11,7 C 19,4 C 32,2 km/h (5 Bft) 100,00 %
21.05.2018 16:18 22,7 C 18,9 C 51 % 1011,5 hPa 0,0 l/m 25,4 km/h (4 Bft) O-NO 66 1 min 0,000 mm 2,3 UV-I 603 W/m 12,0 C 19,0 C 32,2 km/h (5 Bft) 91,67 %
21.05.2018 16:19 22,7 C 18,9 C 50 % 1011,5 hPa 0,0 l/m 26,8 km/h (4 Bft) O 89 1 min 0,000 mm 2,3 UV-I 599 W/m 11,7 C 18,8 C 32,2 km/h (5 Bft) 100,00 %
21.05.2018 16:20 22,7 C 18,9 C 50 % 1011,5 hPa 0,0 l/m 23,6 km/h (4 Bft) O 82 1 min 0,000 mm 2,3 UV-I 598 W/m 11,7 C 19,2 C 35,4 km/h (5 Bft) 85,71 %
21.05.2018 16:21 22,7 C 18,9 C 50 % 1011,6 hPa 0,0 l/m 29,2 km/h (5 Bft) O 84 1 min 0,000 mm 2,3 UV-I 597 W/m 11,7 C 18,6 C 38,6 km/h (5 Bft) 100,00 %
21.05.2018 16:22 22,6 C 18,9 C 49 % 1011,4 hPa 0,0 l/m 21,9 km/h (4 Bft) O 83 1 min 0,000 mm 2,3 UV-I 595 W/m 11,3 C 19,3 C 29,0 km/h (5 Bft) 91,30 %
21.05.2018 16:23 22,6 C 18,9 C 50 % 1011,5 hPa 0,0 l/m 31,8 km/h (5 Bft) O 93 1 min 0,000 mm 2,3 UV-I 592 W/m 11,6 C 18,2 C 41,8 km/h (6 Bft) 96,97 %
21.05.2018 16:24 22,6 C 18,9 C 49 % 1011,5 hPa 0,0 l/m 27,6 km/h (4 Bft) O-NO 74 1 min 0,000 mm 2,2 UV-I 591 W/m 11,3 C 18,6 C 40,2 km/h (6 Bft) 95,65 %
21.05.2018 16:25 22,5 C 18,9 C 49 % 1011,5 hPa 0,0 l/m 28,4 km/h (4 Bft) O 97 1 min 0,000 mm 2,2 UV-I 589 W/m 11,2 C 18,4 C 32,2 km/h (5 Bft) 87,50 %
21.05.2018 16:26 22,4 C 18,9 C 50 % 1011,5 hPa 0,0 l/m 31,5 km/h (5 Bft) O 91 1 min 0,000 mm 2,2 UV-I 588 W/m 11,5 C 18,0 C 41,8 km/h (6 Bft) 100,00 %
21.05.2018 16:27 22,4 C 18,9 C 50 % 1011,5 hPa 0,0 l/m 30,3 km/h (5 Bft) O-NO 77 1 min 0,000 mm 2,2 UV-I 584 W/m 11,5 C 18,1 C 37,0 km/h (5 Bft) 93,33 %
21.05.2018 16:28 22,3 C 18,9 C 49 % 1011,5 hPa 0,0 l/m 30,3 km/h (5 Bft) O 84 1 min 0,000 mm 2,2 UV-I 582 W/m 11,1 C 17,9 C 40,2 km/h (6 Bft) 100,00 %
21.05.2018 16:29 22,3 C 18,9 C 50 % 1011,5 hPa 0,0 l/m 32,6 km/h (5 Bft) O 84 1 min 0,000 mm 2,2 UV-I 582 W/m 11,4 C 17,7 C 37,0 km/h (5 Bft) 93,10 %
21.05.2018 16:30 22,2 C 18,9 C 51 % 1011,5 hPa 0,0 l/m 28,6 km/h (4 Bft) O 81 1 min 0,000 mm 2,2 UV-I 579 W/m 11,6 C 18,0 C 41,8 km/h (6 Bft) 100,00 %
21.05.2018 16:31 22,2 C 18,9 C 51 % 1011,6 hPa 0,0 l/m 26,6 km/h (4 Bft) O-NO 65 1 min 0,000 mm 2,1 UV-I 578 W/m 11,6 C 18,2 C 33,8 km/h (5 Bft) 90,00 %
21.05.2018 16:32 22,2 C 18,9 C 51 % 1011,5 hPa 0,0 l/m 21,8 km/h (4 Bft) O 91 1 min 0,000 mm 2,1 UV-I 573 W/m 11,6 C 18,8 C 29,0 km/h (5 Bft) 100,00 %
21.05.2018 16:33 22,2 C 18,9 C 52 % 1011,5 hPa 0,0 l/m 26,1 km/h (4 Bft) O-SO 107 1 min 0,000 mm 2,1 UV-I 572 W/m 11,9 C 18,2 C 35,4 km/h (5 Bft) 88,46 %
21.05.2018 16:34 22,3 C 18,9 C 51 % 1011,5 hPa 0,0 l/m 25,7 km/h (4 Bft) O 79 1 min 0,000 mm 2,1 UV-I 569 W/m 11,7 C 18,4 C 33,8 km/h (5 Bft) 96,55 %
21.05.2018 16:35 22,3 C 18,9 C 51 % 1011,5 hPa 0,0 l/m 29,4 km/h (5 Bft) O 84 1 min 0,000 mm 2,1 UV-I 567 W/m 11,7 C 18,0 C 37,0 km/h (5 Bft) 100,00 %
21.05.2018 16:36 22,3 C 18,9 C 50 % 1011,4 hPa 0,0 l/m 29,4 km/h (5 Bft) O-NO 77 1 min 0,000 mm 2,1 UV-I 568 W/m 11,4 C 18,0 C 43,5 km/h (6 Bft) 95,83 %
21.05.2018 16:37 22,3 C 18,9 C 51 % 1011,4 hPa 0,0 l/m 21,5 km/h (4 Bft) O-NO 78 1 min 0,000 mm 2,0 UV-I 568 W/m 11,7 C 19,0 C 29,0 km/h (5 Bft) 100,00 %
21.05.2018 16:38 22,3 C 18,9 C 50 % 1011,5 hPa 0,0 l/m 19,5 km/h (3 Bft) O 86 1 min 0,000 mm 2,0 UV-I 562 W/m 11,4 C 19,3 C 29,0 km/h (5 Bft) 95,83 %
21.05.2018 16:39 22,3 C 18,9 C 52 % 1011,5 hPa 0,0 l/m 22,5 km/h (4 Bft) N-NO 26 1 min 0,000 mm 2,0 UV-I 552 W/m 12,0 C 18,8 C 32,2 km/h (5 Bft) 100,00 %
21.05.2018 16:40 22,3 C 18,9 C 52 % 1011,5 hPa 0,0 l/m 24,1 km/h (4 Bft) NO 49 1 min 0,000 mm 2,0 UV-I 550 W/m 12,0 C 18,6 C 32,2 km/h (5 Bft) 96,67 %
21.05.2018 16:41 22,3 C 18,9 C 52 % 1011,5 hPa 0,0 l/m 27,1 km/h (4 Bft) NO 53 1 min 0,000 mm 1,8 UV-I 552 W/m 12,0 C 18,3 C 37,0 km/h (5 Bft) 96,55 %
21.05.2018 16:42 22,2 C 18,9 C 53 % 1011,4 hPa 0,0 l/m 22,4 km/h (4 Bft) O-NO 73 1 min 0,000 mm 1,9 UV-I 519 W/m 12,2 C 18,7 C 33,8 km/h (5 Bft) 100,00 %
21.05.2018 16:43 22,1 C 18,9 C 52 % 1011,4 hPa 0,0 l/m 21,0 km/h (4 Bft) O-NO 68 1 min 0,000 mm 1,6 UV-I 513 W/m 11,8 C 18,8 C 35,4 km/h (5 Bft) 96,15 %
21.05.2018 16:44 22,1 C 18,9 C 53 % 1011,4 hPa 0,0 l/m 26,0 km/h (4 Bft) O 91 1 min 0,000 mm 1,9 UV-I 523 W/m 12,1 C 18,1 C 35,4 km/h (5 Bft) 100,00 %
21.05.2018 16:45 22,1 C 18,9 C 53 % 1011,4 hPa 0,0 l/m 24,9 km/h (4 Bft) O 86 1 min 0,000 mm 1,9 UV-I 541 W/m 12,1 C 18,2 C 29,0 km/h (5 Bft) 92,86 %
21.05.2018 16:46 22,2 C 18,9 C 52 % 1011,4 hPa 0,0 l/m 24,3 km/h (4 Bft) NO 44 1 min 0,000 mm 1,9 UV-I 540 W/m 11,9 C 18,5 C 32,2 km/h (5 Bft) 100,00 %
21.05.2018 16:47 22,1 C 18,9 C 52 % 1011,4 hPa 0,0 l/m 25,9 km/h (4 Bft) O-NO 74 1 min 0,000 mm 1,9 UV-I 540 W/m 11,8 C 18,1 C 37,0 km/h (5 Bft) 96,15 %
21.05.2018 16:48 22,1 C 18,9 C 51 % 1011,4 hPa 0,0 l/m 31,0 km/h (5 Bft) O 80 1 min 0,000 mm 1,8 UV-I 535 W/m 11,5 C 17,6 C 40,2 km/h (6 Bft) 100,00 %
21.05.2018 16:49 22,0 C 18,9 C 50 % 1011,4 hPa 0,0 l/m 28,6 km/h (4 Bft) O 86 1 min 0,000 mm 1,8 UV-I 536 W/m 11,1 C 17,7 C 38,6 km/h (5 Bft) 95,65 %
21.05.2018 16:50 21,9 C 18,9 C 51 % 1011,3 hPa 0,0 l/m 22,5 km/h (4 Bft) O-NO 78 1 min 0,000 mm 1,8 UV-I 531 W/m 11,3 C 18,3 C 32,2 km/h (5 Bft) 100,00 %
21.05.2018 16:51 21,9 C 18,9 C 52 % 1011,3 hPa 0,0 l/m 21,5 km/h (4 Bft) NO 54 1 min 0,000 mm 1,8 UV-I 526 W/m 11,6 C 18,4 C 37,0 km/h (5 Bft) 96,55 %
21.05.2018 16:52 21,9 C 18,9 C 53 % 1011,2 hPa 0,0 l/m 26,2 km/h (4 Bft) NO 44 1 min 0,000 mm 1,8 UV-I 523 W/m 11,9 C 17,8 C 37,0 km/h (5 Bft) 100,00 %
21.05.2018 16:53 21,9 C 18,9 C 52 % 1011,3 hPa 0,0 l/m 22,6 km/h (4 Bft) O-NO 74 1 min 0,000 mm 1,8 UV-I 519 W/m 11,6 C 18,3 C 32,2 km/h (5 Bft) 100,00 %
21.05.2018 16:54 21,9 C 18,9 C 53 % 1011,2 hPa 0,0 l/m 29,0 km/h (5 Bft) O-NO 70 1 min 0,000 mm 1,7 UV-I 517 W/m 11,9 C 17,5 C 35,4 km/h (5 Bft) 100,00 %
21.05.2018 16:55 21,9 C 18,9 C 51 % 1011,3 hPa 0,0 l/m 27,7 km/h (4 Bft) O-NO 58 1 min 0,000 mm 1,7 UV-I 515 W/m 11,3 C 17,6 C 38,6 km/h (5 Bft) 100,00 %
21.05.2018 16:56 21,9 C 18,9 C 51 % 1011,3 hPa 0,0 l/m 22,1 km/h (4 Bft) NO 55 1 min 0,000 mm 1,7 UV-I 521 W/m 11,3 C 18,3 C 32,2 km/h (5 Bft) 100,00 %
21.05.2018 16:57 21,9 C 18,9 C 51 % 1011,3 hPa 0,0 l/m 31,8 km/h (5 Bft) O-NO 71 1 min 0,000 mm 1,7 UV-I 530 W/m 11,3 C 17,2 C 40,2 km/h (6 Bft) 100,00 %
21.05.2018 16:58 21,8 C 18,9 C 50 % 1011,3 hPa 0,0 l/m 33,0 km/h (5 Bft) O-NO 64 1 min 0,000 mm 1,7 UV-I 534 W/m 10,9 C 17,0 C 41,8 km/h (6 Bft) 96,15 %
21.05.2018 16:59 21,8 C 18,9 C 50 % 1011,2 hPa 0,0 l/m 26,8 km/h (4 Bft) N-NO 28 1 min 0,000 mm 1,7 UV-I 533 W/m 10,9 C 17,6 C 35,4 km/h (5 Bft) 100,00 %
21.05.2018 17:00 21,7 C 18,9 C 50 % 1011,3 hPa 0,0 l/m 25,3 km/h (4 Bft) O-NO 78 1 min 0,000 mm 1,7 UV-I 527 W/m 10,8 C 17,6 C 40,2 km/h (6 Bft) 96,15 %
21.05.2018 17:02 21,6 C 18,9 C 50 % 1011,3 hPa 0,0 l/m 24,5 km/h (4 Bft) O-NO 71 2 min 0,508 mm 1,6 UV-I 514 W/m 10,7 C 17,6 C 37,0 km/h (5 Bft) 100,00 %
21.05.2018 17:03 21,6 C 18,9 C 49 % 1011,2 hPa 0,0 l/m 28,9 km/h (5 Bft) O-NO 74 1 min 0,000 mm 1,6 UV-I 502 W/m 10,4 C 17,1 C 41,8 km/h (6 Bft) 100,00 %
21.05.2018 17:04 21,5 C 18,9 C 49 % 1011,2 hPa 0,0 l/m 29,7 km/h (5 Bft) N-NO 24 1 min 0,000 mm 1,6 UV-I 496 W/m 10,3 C 16,9 C 33,8 km/h (5 Bft) 100,00 %
21.05.2018 17:05 21,5 C 18,9 C 49 % 1011,2 hPa 0,0 l/m 29,1 km/h (5 Bft) O-NO 71 1 min 0,000 mm 1,6 UV-I 491 W/m 10,3 C 16,9 C 37,0 km/h (5 Bft) 100,00 %
21.05.2018 17:06 21,4 C 18,9 C 49 % 1011,2 hPa 0,0 l/m 25,4 km/h (4 Bft) O-NO 61 1 min 0,000 mm 1,5 UV-I 485 W/m 10,2 C 17,2 C 32,2 km/h (5 Bft) 96,15 %
21.05.2018 17:08 21,4 C 18,9 C 49 % 1011,2 hPa 0,0 l/m 26,8 km/h (4 Bft) O-NO 74 2 min 0,000 mm 1,5 UV-I 482 W/m 10,2 C 17,1 C 40,2 km/h (6 Bft) 100,00 %
21.05.2018 17:09 21,4 C 18,9 C 50 % 1011,2 hPa 0,0 l/m 23,5 km/h (4 Bft) O 92 1 min 0,000 mm 1,5 UV-I 483 W/m 10,5 C 17,5 C 30,6 km/h (5 Bft) 100,00 %
21.05.2018 17:10 21,4 C 18,9 C 50 % 1011,2 hPa 0,0 l/m 27,6 km/h (4 Bft) O 84 1 min 0,000 mm 1,5 UV-I 483 W/m 10,5 C 17,0 C 40,2 km/h (6 Bft) 100,00 %
21.05.2018 17:11 21,4 C 18,9 C 50 % 1011,2 hPa 0,0 l/m 28,6 km/h (4 Bft) O-NO 65 1 min 0,000 mm 1,5 UV-I 482 W/m 10,5 C 16,8 C 37,0 km/h (5 Bft) 100,00 %
21.05.2018 17:12 21,5 C 18,9 C 50 % 1011,2 hPa 0,0 l/m 26,8 km/h (4 Bft) O-NO 70 1 min 0,000 mm 1,5 UV-I 480 W/m 10,6 C 17,2 C 37,0 km/h (5 Bft) 100,00 %
21.05.2018 17:13 21,5 C 18,9 C 49 % 1011,2 hPa 0,0 l/m 25,0 km/h (4 Bft) O-NO 75 1 min 0,000 mm 1,5 UV-I 476 W/m 10,3 C 17,4 C 32,2 km/h (5 Bft) 96,88 %
21.05.2018 17:14 21,5 C 18,9 C 50 % 1011,1 hPa 0,0 l/m 23,2 km/h (4 Bft) O 98 1 min 0,000 mm 1,4 UV-I 475 W/m 10,6 C 17,7 C 27,4 km/h (4 Bft) 100,00 %
21.05.2018 17:15 21,5 C 18,9 C 50 % 1011,2 hPa 0,0 l/m 21,3 km/h (4 Bft) O 80 1 min 0,000 mm 1,4 UV-I 473 W/m 10,6 C 17,9 C 30,6 km/h (5 Bft) 100,00 %
21.05.2018 17:16 21,6 C 18,9 C 50 % 1011,2 hPa 0,0 l/m 20,1 km/h (4 Bft) NO 46 1 min 0,000 mm 1,4 UV-I 470 W/m 10,7 C 18,3 C 27,4 km/h (4 Bft) 100,00 %
21.05.2018 17:18 21,6 C 18,9 C 50 % 1011,2 hPa 0,0 l/m 24,1 km/h (4 Bft) O-NO 71 2 min 0,000 mm 1,4 UV-I 462 W/m 10,7 C 17,7 C 32,2 km/h (5 Bft) 100,00 %
21.05.2018 17:19 21,6 C 18,9 C 50 % 1011,2 hPa 0,0 l/m 28,8 km/h (4 Bft) O-NO 73 1 min 0,000 mm 1,4 UV-I 455 W/m 10,7 C 17,1 C 35,4 km/h (5 Bft) 100,00 %
21.05.2018 17:20 21,6 C 18,9 C 50 % 1011,2 hPa 0,0 l/m 20,5 km/h (4 Bft) O 92 1 min 0,000 mm 1,3 UV-I 453 W/m 10,7 C 18,2 C 30,6 km/h (5 Bft) 100,00 %
21.05.2018 17:21 21,6 C 18,9 C 49 % 1011,2 hPa 0,0 l/m 21,1 km/h (4 Bft) N-NO 27 1 min 0,000 mm 1,3 UV-I 452 W/m 10,4 C 18,1 C 25,7 km/h (4 Bft) 100,00 %
21.05.2018 17:22 21,6 C 18,9 C 50 % 1011,2 hPa 0,0 l/m 25,5 km/h (4 Bft) O-NO 73 1 min 0,000 mm 1,3 UV-I 452 W/m 10,7 C 17,5 C 33,8 km/h (5 Bft) 97,14 %
21.05.2018 17:23 21,5 C 18,9 C 49 % 1011,1 hPa 0,0 l/m 21,7 km/h (4 Bft) O-NO 77 1 min 0,000 mm 1,3 UV-I 454 W/m 10,3 C 17,9 C 32,2 km/h (5 Bft) 100,00 %
21.05.2018 17:24 21,4 C 18,9 C 49 % 1011,2 hPa 0,0 l/m 27,2 km/h (4 Bft) O-NO 75 1 min 0,000 mm 1,3 UV-I 452 W/m 10,2 C 17,0 C 37,0 km/h (5 Bft) 100,00 %
21.05.2018 17:25 21,4 C 18,9 C 49 % 1011,2 hPa 0,0 l/m 27,7 km/h (4 Bft) NO 49 1 min 0,000 mm 1,3 UV-I 449 W/m 10,2 C 16,9 C 33,8 km/h (5 Bft) 100,00 %
21.05.2018 17:26 21,4 C 18,9 C 50 % 1011,2 hPa 0,0 l/m 27,8 km/h (4 Bft) O 94 1 min 0,000 mm 1,3 UV-I 445 W/m 10,5 C 16,9 C 35,4 km/h (5 Bft) 100,00 %
21.05.2018 17:28 21,4 C 18,9 C 50 % 1011,2 hPa 0,0 l/m 25,9 km/h (4 Bft) O-NO 65 2 min 0,000 mm 1,3 UV-I 439 W/m 10,5 C 17,2 C 41,8 km/h (6 Bft) 98,11 %
21.05.2018 17:29 21,3 C 18,9 C 50 % 1011,2 hPa 0,0 l/m 23,1 km/h (4 Bft) O 88 1 min 0,000 mm 1,2 UV-I 436 W/m 10,4 C 17,4 C 32,2 km/h (5 Bft) 100,00 %
21.05.2018 17:30 21,3 C 18,9 C 50 % 1011,1 hPa 0,0 l/m 26,1 km/h (4 Bft) O-NO 78 1 min 0,000 mm 1,2 UV-I 434 W/m 10,4 C 17,0 C 33,8 km/h (5 Bft) 100,00 %
21.05.2018 17:31 21,3 C 18,9 C 50 % 1011,1 hPa 0,0 l/m 24,7 km/h (4 Bft) O 90 1 min 0,000 mm 1,2 UV-I 430 W/m 10,4 C 17,2 C 32,2 km/h (5 Bft) 100,00 %
21.05.2018 17:32 21,3 C 18,9 C 50 % 1011,1 hPa 0,0 l/m 25,5 km/h (4 Bft) O-NO 63 1 min 0,000 mm 1,2 UV-I 426 W/m 10,4 C 17,1 C 30,6 km/h (5 Bft) 100,00 %
21.05.2018 17:33 21,3 C 18,9 C 50 % 1011,1 hPa 0,0 l/m 24,7 km/h (4 Bft) O 83 1 min 0,000 mm 1,2 UV-I 421 W/m 10,4 C 17,2 C 29,0 km/h (5 Bft) 100,00 %
21.05.2018 17:34 21,3 C 18,9 C 50 % 1011,2 hPa 0,0 l/m 21,2 km/h (4 Bft) O-NO 78 1 min 0,000 mm 1,2 UV-I 416 W/m 10,4 C 17,7 C 29,0 km/h (5 Bft) 100,00 %
21.05.2018 17:35 21,2 C 18,9 C 50 % 1011,1 hPa 0,0 l/m 19,8 km/h (3 Bft) O-NO 72 1 min 0,000 mm 1,1 UV-I 412 W/m 10,4 C 17,8 C 22,5 km/h (4 Bft) 100,00 %
21.05.2018 17:36 21,2 C 18,9 C 51 % 1011,1 hPa 0,0 l/m 21,1 km/h (4 Bft) O 82 1 min 0,000 mm 1,1 UV-I 413 W/m 10,7 C 17,6 C 24,1 km/h (4 Bft) 100,00 %
21.05.2018 17:37 21,3 C 18,9 C 51 % 1011,2 hPa 0,0 l/m 23,8 km/h (4 Bft) O 94 1 min 0,000 mm 1,1 UV-I 416 W/m 10,7 C 17,3 C 29,0 km/h (5 Bft) 100,00 %
21.05.2018 17:38 21,3 C 18,9 C 50 % 1011,2 hPa 0,0 l/m 27,8 km/h (4 Bft) O 94 1 min 0,000 mm 1,1 UV-I 416 W/m 10,4 C 16,8 C 33,8 km/h (5 Bft) 100,00 %
21.05.2018 17:39 21,3 C 18,9 C 49 % 1011,1 hPa 0,0 l/m 25,8 km/h (4 Bft) O-NO 75 1 min 0,000 mm 1,1 UV-I 415 W/m 10,1 C 17,0 C 35,4 km/h (5 Bft) 100,00 %
21.05.2018 17:40 21,2 C 18,9 C 49 % 1011,1 hPa 0,0 l/m 24,1 km/h (4 Bft) O 99 1 min 0,000 mm 1,1 UV-I 415 W/m 10,1 C 17,1 C 40,2 km/h (6 Bft) 100,00 %
21.05.2018 17:41 21,2 C 18,9 C 49 % 1011,1 hPa 0,0 l/m 32,7 km/h (5 Bft) O 86 1 min 0,000 mm 1,1 UV-I 417 W/m 10,1 C 16,1 C 38,6 km/h (5 Bft) 100,00 %
21.05.2018 17:42 21,2 C 18,9 C 49 % 1011,2 hPa 0,0 l/m 29,9 km/h (5 Bft) O-NO 69 1 min 0,000 mm 1,1 UV-I 418 W/m 10,1 C 16,4 C 40,2 km/h (6 Bft) 100,00 %
21.05.2018 17:43 21,1 C 18,9 C 49 % 1011,2 hPa 0,0 l/m 30,4 km/h (5 Bft) O 93 1 min 0,000 mm 1,1 UV-I 419 W/m 10,0 C 16,2 C 38,6 km/h (5 Bft) 96,30 %
21.05.2018 17:44 21,1 C 18,9 C 49 % 1011,2 hPa 0,0 l/m 29,1 km/h (5 Bft) O 95 1 min 0,000 mm 1,1 UV-I 415 W/m 10,0 C 16,4 C 35,4 km/h (5 Bft) 100,00 %
21.05.2018 17:45 21,1 C 18,9 C 49 % 1011,2 hPa 0,0 l/m 25,5 km/h (4 Bft) O 83 1 min 0,000 mm 1,0 UV-I 410 W/m 10,0 C 16,8 C 33,8 km/h (5 Bft) 100,00 %
21.05.2018 17:46 21,1 C 18,9 C 49 % 1011,2 hPa 0,0 l/m 26,4 km/h (4 Bft) NO 54 1 min 0,000 mm 1,0 UV-I 405 W/m 10,0 C 16,7 C 33,8 km/h (5 Bft) 100,00 %
21.05.2018 17:47 21,1 C 18,9 C 49 % 1011,2 hPa 0,0 l/m 24,7 km/h (4 Bft) O-NO 74 1 min 0,000 mm 1,0 UV-I 399 W/m 10,0 C 16,9 C 38,6 km/h (5 Bft) 100,00 %
21.05.2018 17:48 21,1 C 18,9 C 49 % 1011,2 hPa 0,0 l/m 27,1 km/h (4 Bft) NO 51 1 min 0,000 mm 1,0 UV-I 396 W/m 10,0 C 16,6 C 37,0 km/h (5 Bft) 100,00 %
21.05.2018 17:49 21,1 C 18,9 C 49 % 1011,2 hPa 0,0 l/m 24,1 km/h (4 Bft) O 90 1 min 0,000 mm 1,0 UV-I 393 W/m 10,0 C 17,0 C 32,2 km/h (5 Bft) 100,00 %
21.05.2018 17:50 21,1 C 18,9 C 49 % 1011,2 hPa 0,0 l/m 22,7 km/h (4 Bft) O 98 1 min 0,000 mm 1,0 UV-I 391 W/m 10,0 C 17,2 C 32,2 km/h (5 Bft) 100,00 %
21.05.2018 17:51 21,1 C 18,9 C 49 % 1011,2 hPa 0,0 l/m 26,4 km/h (4 Bft) O-NO 69 1 min 0,000 mm 1,0 UV-I 389 W/m 10,0 C 16,7 C 38,6 km/h (5 Bft) 90,91 %
21.05.2018 17:52 21,1 C 18,9 C 49 % 1011,2 hPa 0,0 l/m 27,0 km/h (4 Bft) O-NO 71 1 min 0,000 mm 1,0 UV-I 387 W/m 10,0 C 16,6 C 38,6 km/h (5 Bft) 98,01 %
21.05.2018 17:53 21,1 C 18,9 C 49 % 1011,2 hPa 0,0 l/m 23,3 km/h (4 Bft) O 92 1 min 0,000 mm 0,9 UV-I 384 W/m 10,0 C 17,1 C 30,6 km/h (5 Bft) 100,00 %
21.05.2018 17:54 21,1 C 18,9 C 49 % 1011,1 hPa 0,0 l/m 26,8 km/h (4 Bft) O 82 1 min 0,000 mm 0,9 UV-I 378 W/m 10,0 C 16,6 C 37,0 km/h (5 Bft) 96,30 %
21.05.2018 17:55 21,1 C 18,9 C 49 % 1011,1 hPa 0,0 l/m 29,1 km/h (5 Bft) O 86 1 min 0,000 mm 0,9 UV-I 372 W/m 10,0 C 16,4 C 38,6 km/h (5 Bft) 100,00 %
21.05.2018 17:56 21,1 C 18,9 C 49 % 1011,1 hPa 0,0 l/m 29,7 km/h (5 Bft) O-SO 107 1 min 0,000 mm 0,9 UV-I 368 W/m 10,0 C 16,3 C 38,6 km/h (5 Bft) 100,00 %
21.05.2018 17:57 21,1 C 18,9 C 49 % 1011,1 hPa 0,0 l/m 26,5 km/h (4 Bft) O 88 1 min 0,000 mm 0,9 UV-I 366 W/m 10,0 C 16,7 C 32,2 km/h (5 Bft) 100,00 %
21.05.2018 17:58 21,0 C 18,9 C 49 % 1011,1 hPa 0,0 l/m 22,6 km/h (4 Bft) O-NO 71 1 min 0,000 mm 0,9 UV-I 364 W/m 9,9 C 17,1 C 30,6 km/h (5 Bft) 100,00 %
21.05.2018 17:59 21,1 C 18,9 C 49 % 1011,1 hPa 0,0 l/m 26,5 km/h (4 Bft) O 82 1 min 0,000 mm 0,9 UV-I 360 W/m 10,0 C 16,7 C 32,2 km/h (5 Bft) 96,15 %
21.05.2018 18:00 21,1 C 18,9 C 49 % 1011,1 hPa 0,0 l/m 23,1 km/h (4 Bft) O-SO 106 1 min 0,000 mm 0,8 UV-I 356 W/m 10,0 C 17,1 C 33,8 km/h (5 Bft) 93,33 %
21.05.2018 18:02 21,1 C 18,9 C 50 % 1011,1 hPa 0,0 l/m 21,6 km/h (4 Bft) O-NO 65 2 min 0,432 mm 0,8 UV-I 352 W/m 10,3 C 17,4 C 29,0 km/h (5 Bft) 98,00 %
21.05.2018 18:03 21,1 C 18,9 C 51 % 1011,1 hPa 0,0 l/m 15,1 km/h (3 Bft) O-NO 76 1 min 0,000 mm 0,8 UV-I 355 W/m 10,6 C 18,6 C 20,9 km/h (4 Bft) 100,00 %
21.05.2018 18:04 21,1 C 18,9 C 50 % 1011,1 hPa 0,0 l/m 18,1 km/h (3 Bft) O-NO 73 1 min 0,000 mm 0,8 UV-I 357 W/m 10,3 C 18,0 C 27,4 km/h (4 Bft) 100,00 %
21.05.2018 18:05 21,2 C 18,9 C 51 % 1011,1 hPa 0,0 l/m 18,8 km/h (3 Bft) O-NO 67 1 min 0,000 mm 0,8 UV-I 353 W/m 10,7 C 18,0 C 27,4 km/h (4 Bft) 100,00 %
21.05.2018 18:06 21,2 C 18,9 C 50 % 1011,0 hPa 0,0 l/m 22,1 km/h (4 Bft) O 82 1 min 0,000 mm 0,8 UV-I 349 W/m 10,4 C 17,4 C 32,2 km/h (5 Bft) 100,00 %
21.05.2018 18:07 21,2 C 18,9 C 50 % 1011,0 hPa 0,0 l/m 21,5 km/h (4 Bft) O-SO 113 1 min 0,000 mm 0,8 UV-I 344 W/m 10,4 C 17,5 C 24,1 km/h (4 Bft) 98,03 %
21.05.2018 18:08 21,2 C 18,9 C 50 % 1011,1 hPa 0,0 l/m 19,3 km/h (3 Bft) O-NO 68 1 min 0,000 mm 0,8 UV-I 340 W/m 10,4 C 17,9 C 27,4 km/h (4 Bft) 100,00 %
21.05.2018 18:09 21,2 C 18,9 C 50 % 1011,1 hPa 0,0 l/m 24,1 km/h (4 Bft) O 80 1 min 0,000 mm 0,7 UV-I 338 W/m 10,4 C 17,1 C 29,0 km/h (5 Bft) 100,00 %
21.05.2018 18:10 21,1 C 18,9 C 49 % 1011,0 hPa 0,0 l/m 20,4 km/h (4 Bft) O 89 1 min 0,000 mm 0,7 UV-I 338 W/m 10,0 C 17,6 C 24,1 km/h (4 Bft) 100,00 %
21.05.2018 18:11 21,1 C 18,9 C 50 % 1011,0 hPa 0,0 l/m 21,9 km/h (4 Bft) O 95 1 min 0,000 mm 0,7 UV-I 339 W/m 10,3 C 17,3 C 27,4 km/h (4 Bft) 100,00 %
21.05.2018 18:12 21,1 C 18,9 C 50 % 1011,0 hPa 0,0 l/m 17,3 km/h (3 Bft) NO 48 1 min 0,000 mm 0,7 UV-I 336 W/m 10,3 C 18,1 C 24,1 km/h (4 Bft) 100,00 %
21.05.2018 18:13 21,1 C 18,9 C 50 % 1011,0 hPa 0,0 l/m 17,7 km/h (3 Bft) O-NO 69 1 min 0,000 mm 0,7 UV-I 324 W/m 10,3 C 18,0 C 22,5 km/h (4 Bft) 100,00 %
21.05.2018 18:14 21,1 C 18,9 C 50 % 1011,0 hPa 0,0 l/m 17,8 km/h (3 Bft) N-NO 26 1 min 0,000 mm 0,7 UV-I 306 W/m 10,3 C 18,0 C 22,5 km/h (4 Bft) 100,00 %
21.05.2018 18:15 21,1 C 18,9 C 51 % 1011,0 hPa 0,0 l/m 20,2 km/h (4 Bft) O-NO 77 1 min 0,000 mm 0,7 UV-I 319 W/m 10,6 C 17,6 C 29,0 km/h (5 Bft) 93,33 %
21.05.2018 18:16 21,1 C 18,9 C 50 % 1011,0 hPa 0,0 l/m 24,1 km/h (4 Bft) O-NO 60 1 min 0,000 mm 0,7 UV-I 327 W/m 10,3 C 17,0 C 32,2 km/h (5 Bft) 100,00 %
21.05.2018 18:17 21,1 C 18,9 C 50 % 1011,0 hPa 0,0 l/m 19,5 km/h (3 Bft) O 84 1 min 0,000 mm 0,7 UV-I 333 W/m 10,3 C 17,7 C 25,7 km/h (4 Bft) 95,83 %
21.05.2018 18:18 21,1 C 18,9 C 51 % 1011,0 hPa 0,0 l/m 21,6 km/h (4 Bft) NO 49 1 min 0,000 mm 0,7 UV-I 339 W/m 10,6 C 17,4 C 32,2 km/h (5 Bft) 96,15 %
21.05.2018 18:19 21,1 C 18,9 C 50 % 1011,0 hPa 0,0 l/m 22,7 km/h (4 Bft) O 94 1 min 0,000 mm 0,7 UV-I 344 W/m 10,3 C 17,2 C 27,4 km/h (4 Bft) 100,00 %
21.05.2018 18:20 21,1 C 18,9 C 50 % 1011,0 hPa 0,0 l/m 21,5 km/h (4 Bft) O-NO 69 1 min 0,000 mm 0,6 UV-I 351 W/m 10,3 C 17,4 C 29,0 km/h (5 Bft) 95,65 %
21.05.2018 18:21 21,0 C 18,9 C 50 % 1011,0 hPa 0,0 l/m 17,1 km/h (3 Bft) O 86 1 min 0,000 mm 0,6 UV-I 353 W/m 10,2 C 18,0 C 19,3 km/h (3 Bft) 100,00 %
21.05.2018 18:22 21,1 C 18,9 C 51 % 1011,0 hPa 0,0 l/m 22,7 km/h (4 Bft) O-NO 70 1 min 0,000 mm 0,6 UV-I 353 W/m 10,6 C 17,2 C 30,6 km/h (5 Bft) 93,10 %
21.05.2018 18:23 21,0 C 18,9 C 50 % 1011,0 hPa 0,0 l/m 26,5 km/h (4 Bft) O 90 1 min 0,000 mm 0,6 UV-I 335 W/m 10,2 C 16,5 C 37,0 km/h (5 Bft) 100,00 %
21.05.2018 18:24 21,0 C 18,9 C 50 % 1011,0 hPa 0,0 l/m 25,0 km/h (4 Bft) O 92 1 min 0,000 mm 0,6 UV-I 305 W/m 10,2 C 16,7 C 35,4 km/h (5 Bft) 92,31 %
21.05.2018 18:25 20,9 C 18,9 C 50 % 1010,9 hPa 0,0 l/m 23,4 km/h (4 Bft) O-NO 61 1 min 0,000 mm 0,6 UV-I 275 W/m 10,1 C 16,8 C 30,6 km/h (5 Bft) 98,03 %
21.05.2018 18:26 20,9 C 18,9 C 50 % 1010,9 hPa 0,0 l/m 27,1 km/h (4 Bft) O 90 1 min 0,000 mm 0,6 UV-I 317 W/m 10,1 C 16,3 C 32,2 km/h (5 Bft) 97,87 %
21.05.2018 18:27 20,9 C 18,9 C 51 % 1010,9 hPa 0,0 l/m 20,3 km/h (4 Bft) O 90 1 min 0,000 mm 0,6 UV-I 338 W/m 10,4 C 17,3 C 25,7 km/h (4 Bft) 95,83 %
21.05.2018 18:28 20,9 C 18,9 C 51 % 1011,0 hPa 0,0 l/m 21,6 km/h (4 Bft) O 94 1 min 0,000 mm 0,6 UV-I 328 W/m 10,4 C 17,1 C 32,2 km/h (5 Bft) 100,00 %
21.05.2018 18:29 20,9 C 18,9 C 51 % 1010,9 hPa 0,0 l/m 21,2 km/h (4 Bft) O-SO 113 1 min 0,000 mm 0,6 UV-I 320 W/m 10,4 C 17,2 C 29,0 km/h (5 Bft) 93,33 %
21.05.2018 18:30 20,9 C 18,9 C 51 % 1010,9 hPa 0,0 l/m 22,7 km/h (4 Bft) O 90 1 min 0,000 mm 0,6 UV-I 312 W/m 10,4 C 16,9 C 30,6 km/h (5 Bft) 100,00 %
21.05.2018 18:31 20,9 C 18,9 C 51 % 1010,9 hPa 0,0 l/m 17,5 km/h (3 Bft) O 88 1 min 0,000 mm 0,5 UV-I 306 W/m 10,4 C 17,8 C 22,5 km/h (4 Bft) 95,65 %
21.05.2018 18:33 20,9 C 18,9 C 52 % 1010,9 hPa 0,0 l/m 18,4 km/h (3 Bft) O 80 2 min 0,000 mm 0,5 UV-I 299 W/m 10,7 C 17,7 C 25,7 km/h (4 Bft) 98,00 %
21.05.2018 18:34 20,9 C 18,9 C 51 % 1010,9 hPa 0,0 l/m 23,4 km/h (4 Bft) O 92 1 min 0,000 mm 0,5 UV-I 295 W/m 10,4 C 16,8 C 32,2 km/h (5 Bft) 100,00 %
21.05.2018 18:35 20,9 C 18,9 C 52 % 1010,8 hPa 0,0 l/m 24,9 km/h (4 Bft) O 80 1 min 0,000 mm 0,5 UV-I 291 W/m 10,7 C 16,6 C 32,2 km/h (5 Bft) 92,86 %
21.05.2018 18:36 20,8 C 18,9 C 52 % 1010,9 hPa 0,0 l/m 20,9 km/h (4 Bft) O 81 1 min 0,000 mm 0,5 UV-I 288 W/m 10,6 C 17,1 C 27,4 km/h (4 Bft) 96,88 %
21.05.2018 18:37 20,8 C 18,9 C 52 % 1010,9 hPa 0,0 l/m 22,7 km/h (4 Bft) O-NO 76 1 min 0,000 mm 0,5 UV-I 285 W/m 10,6 C 16,8 C 29,0 km/h (5 Bft) 100,00 %
21.05.2018 18:38 20,8 C 18,9 C 52 % 1010,9 hPa 0,0 l/m 20,2 km/h (4 Bft) NO 46 1 min 0,000 mm 0,5 UV-I 280 W/m 10,6 C 17,2 C 27,4 km/h (4 Bft) 95,83 %
21.05.2018 18:39 20,8 C 18,9 C 53 % 1010,9 hPa 0,0 l/m 24,5 km/h (4 Bft) O-SO 112 1 min 0,000 mm 0,5 UV-I 275 W/m 10,9 C 16,5 C 29,0 km/h (5 Bft) 100,00 %
21.05.2018 18:40 20,7 C 18,9 C 52 % 1010,9 hPa 0,0 l/m 24,1 km/h (4 Bft) O-NO 68 1 min 0,000 mm 0,5 UV-I 269 W/m 10,5 C 16,5 C 30,6 km/h (5 Bft) 95,83 %
21.05.2018 18:41 20,7 C 18,9 C 53 % 1010,9 hPa 0,0 l/m 21,2 km/h (4 Bft) O-NO 77 1 min 0,000 mm 0,4 UV-I 262 W/m 10,8 C 16,9 C 25,7 km/h (4 Bft) 100,00 %
21.05.2018 18:42 20,7 C 18,9 C 53 % 1010,9 hPa 0,0 l/m 17,3 km/h (3 Bft) O 82 1 min 0,000 mm 0,0 UV-I 256 W/m 10,8 C 17,6 C 22,5 km/h (4 Bft) 95,83 %
21.05.2018 18:43 20,7 C 18,9 C 54 % 1010,9 hPa 0,0 l/m 18,6 km/h (3 Bft) O-SO 120 1 min 0,000 mm 0,0 UV-I 250 W/m 11,1 C 17,4 C 22,5 km/h (4 Bft) 100,00 %
21.05.2018 18:44 20,7 C 18,9 C 53 % 1010,9 hPa 0,0 l/m 21,3 km/h (4 Bft) O-SO 105 1 min 0,000 mm 0,0 UV-I 245 W/m 10,8 C 16,9 C 30,6 km/h (5 Bft) 96,55 %
21.05.2018 18:45 20,7 C 18,9 C 53 % 1010,9 hPa 0,0 l/m 17,6 km/h (3 Bft) NO 55 1 min 0,000 mm 0,0 UV-I 241 W/m 10,8 C 17,6 C 24,1 km/h (4 Bft) 96,15 %
21.05.2018 18:46 20,7 C 18,9 C 53 % 1010,9 hPa 0,0 l/m 17,2 km/h (3 Bft) O-NO 71 1 min 0,000 mm 0,0 UV-I 237 W/m 10,8 C 17,6 C 24,1 km/h (4 Bft) 100,00 %
21.05.2018 18:47 20,7 C 18,9 C 53 % 1010,9 hPa 0,0 l/m 19,0 km/h (3 Bft) O 91 1 min 0,000 mm 0,0 UV-I 234 W/m 10,8 C 17,3 C 25,7 km/h (4 Bft) 98,02 %
21.05.2018 18:48 20,7 C 18,9 C 53 % 1010,9 hPa 0,0 l/m 19,3 km/h (3 Bft) O-SO 118 1 min 0,000 mm 0,0 UV-I 231 W/m 10,8 C 17,2 C 27,4 km/h (4 Bft) 100,00 %
21.05.2018 18:49 20,7 C 18,9 C 53 % 1010,9 hPa 0,0 l/m 20,2 km/h (4 Bft) O 92 1 min 0,000 mm 0,0 UV-I 230 W/m 10,8 C 17,1 C 22,5 km/h (4 Bft) 100,00 %
21.05.2018 18:50 20,7 C 18,9 C 53 % 1010,9 hPa 0,0 l/m 17,0 km/h (3 Bft) O-NO 67 1 min 0,000 mm 0,0 UV-I 230 W/m 10,8 C 17,7 C 22,5 km/h (4 Bft) 96,55 %
21.05.2018 18:51 20,6 C 18,9 C 53 % 1010,9 hPa 0,0 l/m 12,5 km/h (3 Bft) O-NO 59 1 min 0,000 mm 0,0 UV-I 230 W/m 10,7 C 18,6 C 17,7 km/h (3 Bft) 100,00 %
21.05.2018 18:52 20,6 C 18,9 C 53 % 1010,9 hPa 0,0 l/m 15,8 km/h (3 Bft) O 86 1 min 0,000 mm 0,0 UV-I 228 W/m 10,7 C 17,8 C 17,7 km/h (3 Bft) 100,00 %
21.05.2018 18:53 20,6 C 18,9 C 53 % 1010,9 hPa 0,0 l/m 18,4 km/h (3 Bft) O-NO 61 1 min 0,000 mm 0,0 UV-I 224 W/m 10,7 C 17,3 C 22,5 km/h (4 Bft) 100,00 %
21.05.2018 18:54 20,6 C 18,9 C 53 % 1010,9 hPa 0,0 l/m 18,0 km/h (3 Bft) O-NO 65 1 min 0,000 mm 0,0 UV-I 222 W/m 10,7 C 17,3 C 27,4 km/h (4 Bft) 95,65 %
21.05.2018 18:55 20,6 C 18,9 C 54 % 1010,8 hPa 0,0 l/m 19,4 km/h (3 Bft) O 96 1 min 0,000 mm 0,0 UV-I 219 W/m 11,0 C 17,1 C 32,2 km/h (5 Bft) 100,00 %
21.05.2018 18:56 20,6 C 18,9 C 53 % 1010,8 hPa 0,0 l/m 16,6 km/h (3 Bft) O-NO 70 1 min 0,000 mm 0,0 UV-I 216 W/m 10,7 C 17,6 C 25,7 km/h (4 Bft) 95,65 %
21.05.2018 18:58 20,6 C 18,9 C 53 % 1010,8 hPa 0,0 l/m 22,3 km/h (4 Bft) O-NO 78 2 min 0,000 mm 0,0 UV-I 210 W/m 10,7 C 16,6 C 29,0 km/h (5 Bft) 100,00 %
21.05.2018 18:59 20,5 C 18,9 C 53 % 1010,8 hPa 0,0 l/m 19,3 km/h (3 Bft) NO 39 1 min 0,000 mm 0,0 UV-I 206 W/m 10,6 C 17,0 C 27,4 km/h (4 Bft) 100,00 %
21.05.2018 19:00 20,4 C 18,9 C 53 % 1010,8 hPa 0,0 l/m 22,5 km/h (4 Bft) O-NO 69 1 min 0,000 mm 0,0 UV-I 205 W/m 10,5 C 16,3 C 29,0 km/h (5 Bft) 100,00 %
21.05.2018 19:02 20,4 C 18,9 C 53 % 1010,8 hPa 0,0 l/m 20,9 km/h (4 Bft) O 80 2 min 0,305 mm 0,0 UV-I 201 W/m 10,5 C 16,6 C 27,4 km/h (4 Bft) 100,00 %
21.05.2018 19:03 20,4 C 18,9 C 53 % 1010,8 hPa 0,0 l/m 20,3 km/h (4 Bft) O-NO 72 1 min 0,000 mm 0,0 UV-I 194 W/m 10,5 C 16,7 C 29,0 km/h (5 Bft) 100,00 %
21.05.2018 19:04 20,3 C 18,9 C 53 % 1010,8 hPa 0,0 l/m 18,3 km/h (3 Bft) O-NO 68 1 min 0,000 mm 0,0 UV-I 190 W/m 10,4 C 16,9 C 25,7 km/h (4 Bft) 96,30 %
21.05.2018 19:05 20,3 C 18,9 C 53 % 1010,8 hPa 0,0 l/m 15,7 km/h (3 Bft) O 82 1 min 0,000 mm 0,0 UV-I 186 W/m 10,4 C 17,5 C 20,9 km/h (4 Bft) 100,00 %
21.05.2018 19:06 20,3 C 18,9 C 54 % 1010,8 hPa 0,0 l/m 20,2 km/h (4 Bft) O-NO 60 1 min 0,000 mm 0,0 UV-I 182 W/m 10,7 C 16,6 C 30,6 km/h (5 Bft) 100,00 %
21.05.2018 19:08 20,3 C 18,9 C 54 % 1010,9 hPa 0,0 l/m 20,6 km/h (4 Bft) O 89 2 min 0,000 mm 0,0 UV-I 175 W/m 10,7 C 16,5 C 27,4 km/h (4 Bft) 100,00 %
21.05.2018 19:09 20,3 C 18,9 C 54 % 1010,9 hPa 0,0 l/m 24,0 km/h (4 Bft) O-NO 74 1 min 0,000 mm 0,0 UV-I 169 W/m 10,7 C 15,9 C 30,6 km/h (5 Bft) 100,00 %
21.05.2018 19:10 20,3 C 18,9 C 53 % 1010,9 hPa 0,0 l/m 20,5 km/h (4 Bft) O 91 1 min 0,000 mm 0,0 UV-I 166 W/m 10,4 C 16,5 C 25,7 km/h (4 Bft) 100,00 %
21.05.2018 19:11 20,2 C 18,9 C 54 % 1010,8 hPa 0,0 l/m 15,1 km/h (3 Bft) O 82 1 min 0,000 mm 0,0 UV-I 163 W/m 10,6 C 17,5 C 17,7 km/h (3 Bft) 100,00 %
21.05.2018 19:13 20,2 C 18,9 C 55 % 1010,8 hPa 0,0 l/m 16,2 km/h (3 Bft) O 82 2 min 0,000 mm 0,0 UV-I 159 W/m 10,9 C 17,2 C 20,9 km/h (4 Bft) 100,00 %
21.05.2018 19:14 20,2 C 18,9 C 54 % 1010,8 hPa 0,0 l/m 15,4 km/h (3 Bft) NO 52 1 min 0,000 mm 0,0 UV-I 155 W/m 10,6 C 17,4 C 19,3 km/h (3 Bft) 100,00 %
21.05.2018 19:15 20,2 C 18,9 C 54 % 1010,8 hPa 0,0 l/m 21,0 km/h (4 Bft) O 93 1 min 0,000 mm 0,0 UV-I 152 W/m 10,6 C 16,3 C 25,7 km/h (4 Bft) 100,00 %
21.05.2018 19:16 20,2 C 18,9 C 54 % 1010,8 hPa 0,0 l/m 19,7 km/h (3 Bft) O-NO 74 1 min 0,000 mm 0,0 UV-I 149 W/m 10,6 C 16,5 C 25,7 km/h (4 Bft) 100,00 %
21.05.2018 19:18 20,1 C 18,9 C 54 % 1010,8 hPa 0,0 l/m 19,3 km/h (3 Bft) NO 46 2 min 0,000 mm 0,0 UV-I 146 W/m 10,5 C 16,5 C 25,7 km/h (4 Bft) 96,00 %
21.05.2018 19:19 20,1 C 18,9 C 54 % 1010,8 hPa 0,0 l/m 16,2 km/h (3 Bft) O-NO 69 1 min 0,000 mm 0,0 UV-I 142 W/m 10,5 C 17,1 C 20,9 km/h (4 Bft) 100,00 %
21.05.2018 19:20 20,1 C 18,9 C 54 % 1010,9 hPa 0,0 l/m 20,0 km/h (4 Bft) O 95 1 min 0,000 mm 0,0 UV-I 141 W/m 10,5 C 16,3 C 27,4 km/h (4 Bft) 100,00 %
21.05.2018 19:21 20,1 C 18,9 C 53 % 1010,8 hPa 0,0 l/m 24,9 km/h (4 Bft) SO 124 1 min 0,000 mm 0,0 UV-I 139 W/m 10,2 C 15,5 C 30,6 km/h (5 Bft) 96,55 %
21.05.2018 19:23 20,0 C 18,9 C 54 % 1010,9 hPa 0,0 l/m 19,9 km/h (4 Bft) O-SO 106 2 min 0,000 mm 0,0 UV-I 135 W/m 10,4 C 16,2 C 32,2 km/h (5 Bft) 100,00 %
21.05.2018 19:24 20,0 C 18,9 C 54 % 1010,9 hPa 0,0 l/m 17,0 km/h (3 Bft) O-NO 72 1 min 0,000 mm 0,0 UV-I 133 W/m 10,4 C 16,8 C 22,5 km/h (4 Bft) 95,83 %
21.05.2018 19:25 19,9 C 18,9 C 54 % 1010,9 hPa 0,0 l/m 21,6 km/h (4 Bft) O 98 1 min 0,000 mm 0,0 UV-I 132 W/m 10,3 C 15,8 C 25,7 km/h (4 Bft) 93,33 %
21.05.2018 19:26 19,9 C 18,9 C 54 % 1010,9 hPa 0,0 l/m 15,5 km/h (3 Bft) O-NO 63 1 min 0,000 mm 0,0 UV-I 129 W/m 10,3 C 17,0 C 20,9 km/h (4 Bft) 100,00 %
21.05.2018 19:28 19,9 C 18,9 C 54 % 1010,9 hPa 0,0 l/m 16,5 km/h (3 Bft) O-NO 72 2 min 0,000 mm 0,0 UV-I 125 W/m 10,3 C 16,8 C 20,9 km/h (4 Bft) 100,00 %
21.05.2018 19:29 19,9 C 18,9 C 55 % 1010,9 hPa 0,0 l/m 13,9 km/h (3 Bft) O 91 1 min 0,000 mm 0,0 UV-I 120 W/m 10,6 C 17,4 C 19,3 km/h (3 Bft) 100,00 %
21.05.2018 19:30 19,9 C 18,9 C 55 % 1011,0 hPa 0,0 l/m 15,9 km/h (3 Bft) O 86 1 min 0,000 mm 0,0 UV-I 119 W/m 10,6 C 16,9 C 20,9 km/h (4 Bft) 100,00 %
21.05.2018 19:31 19,8 C 18,9 C 55 % 1011,0 hPa 0,0 l/m 17,5 km/h (3 Bft) O-NO 78 1 min 0,000 mm 0,0 UV-I 116 W/m 10,5 C 16,4 C 22,5 km/h (4 Bft) 100,00 %
21.05.2018 19:32 19,8 C 18,9 C 55 % 1011,0 hPa 0,0 l/m 21,2 km/h (4 Bft) O-SO 115 1 min 0,000 mm 0,0 UV-I 114 W/m 10,5 C 15,7 C 27,4 km/h (4 Bft) 100,00 %
21.05.2018 19:33 19,8 C 18,9 C 55 % 1011,0 hPa 0,0 l/m 22,6 km/h (4 Bft) O-SO 121 1 min 0,000 mm 0,0 UV-I 113 W/m 10,5 C 15,5 C 27,4 km/h (4 Bft) 100,00 %
21.05.2018 19:34 19,8 C 18,9 C 55 % 1010,9 hPa 0,0 l/m 20,3 km/h (4 Bft) O-NO 78 1 min 0,000 mm 0,0 UV-I 110 W/m 10,5 C 15,9 C 24,1 km/h (4 Bft) 100,00 %
21.05.2018 19:35 19,8 C 18,9 C 55 % 1010,9 hPa 0,0 l/m 19,5 km/h (3 Bft) O-NO 61 1 min 0,000 mm 0,0 UV-I 106 W/m 10,5 C 16,0 C 25,7 km/h (4 Bft) 100,00 %
21.05.2018 19:36 19,8 C 18,9 C 55 % 1011,0 hPa 0,0 l/m 17,4 km/h (3 Bft) NO 44 1 min 0,000 mm 0,0 UV-I 103 W/m 10,5 C 16,5 C 20,9 km/h (4 Bft) 95,65 %
21.05.2018 19:38 19,7 C 18,9 C 56 % 1011,0 hPa 0,0 l/m 16,8 km/h (3 Bft) O-NO 76 2 min 0,000 mm 0,0 UV-I 103 W/m 10,7 C 16,5 C 24,1 km/h (4 Bft) 100,00 %
21.05.2018 19:39 19,7 C 18,9 C 55 % 1011,0 hPa 0,0 l/m 19,3 km/h (3 Bft) O-NO 63 1 min 0,000 mm 0,0 UV-I 100 W/m 10,4 C 16,0 C 24,1 km/h (4 Bft) 95,83 %
21.05.2018 19:40 19,7 C 18,9 C 56 % 1011,0 hPa 0,0 l/m 12,0 km/h (2 Bft) NO 56 1 min 0,000 mm 0,0 UV-I 98 W/m 10,7 C 17,7 C 17,7 km/h (3 Bft) 100,00 %
21.05.2018 19:41 19,6 C 18,9 C 56 % 1011,0 hPa 0,0 l/m 15,1 km/h (3 Bft) O-NO 69 1 min 0,000 mm 0,0 UV-I 96 W/m 10,6 C 16,7 C 20,9 km/h (4 Bft) 100,00 %
21.05.2018 19:43 19,6 C 18,9 C 56 % 1011,0 hPa 0,0 l/m 21,8 km/h (4 Bft) O-NO 61 2 min 0,000 mm 0,0 UV-I 93 W/m 10,6 C 15,4 C 32,2 km/h (5 Bft) 100,00 %
21.05.2018 19:44 19,6 C 18,9 C 56 % 1011,0 hPa 0,0 l/m 18,0 km/h (3 Bft) O-NO 69 1 min 0,000 mm 0,0 UV-I 91 W/m 10,6 C 16,1 C 22,5 km/h (4 Bft) 100,00 %
21.05.2018 19:45 19,6 C 18,9 C 56 % 1011,0 hPa 0,0 l/m 22,5 km/h (4 Bft) O-NO 65 1 min 0,000 mm 0,0 UV-I 90 W/m 10,6 C 15,2 C 29,0 km/h (5 Bft) 100,00 %
21.05.2018 19:46 19,5 C 18,9 C 56 % 1011,0 hPa 0,0 l/m 19,2 km/h (3 Bft) O-NO 71 1 min 0,000 mm 0,0 UV-I 87 W/m 10,5 C 15,7 C 25,7 km/h (4 Bft) 100,00 %
21.05.2018 19:48 19,4 C 18,9 C 56 % 1011,1 hPa 0,0 l/m 16,4 km/h (3 Bft) O 92 2 min 0,000 mm 0,0 UV-I 84 W/m 10,4 C 16,2 C 22,5 km/h (4 Bft) 98,00 %
21.05.2018 19:49 19,4 C 18,9 C 56 % 1011,1 hPa 0,0 l/m 15,2 km/h (3 Bft) O 87 1 min 0,000 mm 0,0 UV-I 81 W/m 10,4 C 16,5 C 17,7 km/h (3 Bft) 100,00 %
21.05.2018 19:50 19,4 C 18,9 C 57 % 1011,1 hPa 0,0 l/m 17,5 km/h (3 Bft) O 82 1 min 0,000 mm 0,0 UV-I 79 W/m 10,7 C 15,9 C 22,5 km/h (4 Bft) 100,00 %
21.05.2018 19:51 19,3 C 18,9 C 57 % 1011,1 hPa 0,0 l/m 20,2 km/h (4 Bft) NO 51 1 min 0,000 mm 0,0 UV-I 77 W/m 10,6 C 15,3 C 24,1 km/h (4 Bft) 100,00 %
21.05.2018 19:53 19,3 C 18,9 C 57 % 1011,1 hPa 0,0 l/m 17,7 km/h (3 Bft) O-NO 75 2 min 0,000 mm 0,0 UV-I 75 W/m 10,6 C 15,8 C 27,4 km/h (4 Bft) 100,00 %
21.05.2018 19:54 19,3 C 18,9 C 57 % 1011,1 hPa 0,0 l/m 16,6 km/h (3 Bft) O-NO 70 1 min 0,000 mm 0,0 UV-I 73 W/m 10,6 C 16,0 C 19,3 km/h (3 Bft) 100,00 %
21.05.2018 19:55 19,2 C 18,9 C 58 % 1011,1 hPa 0,0 l/m 14,5 km/h (3 Bft) O 80 1 min 0,000 mm 0,0 UV-I 70 W/m 10,7 C 16,4 C 20,9 km/h (4 Bft) 100,00 %
21.05.2018 19:56 19,2 C 18,9 C 58 % 1011,1 hPa 0,0 l/m 20,7 km/h (4 Bft) NO 54 1 min 0,000 mm 0,0 UV-I 69 W/m 10,7 C 15,0 C 24,1 km/h (4 Bft) 100,00 %
21.05.2018 19:58 19,1 C 18,9 C 58 % 1011,1 hPa 0,0 l/m 16,4 km/h (3 Bft) O-NO 65 2 min 0,000 mm 0,0 UV-I 67 W/m 10,6 C 15,8 C 22,5 km/h (4 Bft) 97,37 %
21.05.2018 19:59 19,1 C 18,9 C 58 % 1011,1 hPa 0,0 l/m 14,6 km/h (3 Bft) O-NO 67 1 min 0,000 mm 0,0 UV-I 64 W/m 10,6 C 16,3 C 24,1 km/h (4 Bft) 94,44 %
21.05.2018 20:00 19,1 C 18,9 C 58 % 1011,1 hPa 0,0 l/m 18,7 km/h (3 Bft) O 88 1 min 0,000 mm 0,0 UV-I 62 W/m 10,6 C 15,3 C 22,5 km/h (4 Bft) 96,88 %
21.05.2018 20:02 19,0 C 18,9 C 58 % 1011,1 hPa 0,0 l/m 15,5 km/h (3 Bft) O-NO 65 2 min 0,178 mm 0,0 UV-I 61 W/m 10,5 C 15,9 C 22,5 km/h (4 Bft) 97,87 %
21.05.2018 20:03 19,0 C 18,9 C 58 % 1011,1 hPa 0,0 l/m 14,7 km/h (3 Bft) O 84 1 min 0,000 mm 0,0 UV-I 58 W/m 10,5 C 16,1 C 17,7 km/h (3 Bft) 96,30 %
21.05.2018 20:04 18,9 C 18,9 C 58 % 1011,1 hPa 0,0 l/m 14,1 km/h (3 Bft) O 82 1 min 0,000 mm 0,0 UV-I 56 W/m 10,5 C 16,2 C 17,7 km/h (3 Bft) 100,00 %
21.05.2018 20:05 18,9 C 18,9 C 59 % 1011,0 hPa 0,0 l/m 14,5 km/h (3 Bft) O-NO 76 1 min 0,000 mm 0,0 UV-I 55 W/m 10,7 C 16,0 C 19,3 km/h (3 Bft) 96,30 %
21.05.2018 20:06 18,9 C 18,9 C 59 % 1011,0 hPa 0,0 l/m 16,6 km/h (3 Bft) O 94 1 min 0,000 mm 0,0 UV-I 53 W/m 10,7 C 15,5 C 19,3 km/h (3 Bft) 100,00 %
21.05.2018 20:07 18,9 C 18,9 C 59 % 1011,0 hPa 0,0 l/m 14,5 km/h (3 Bft) NO 36 1 min 0,000 mm 0,0 UV-I 51 W/m 10,7 C 16,0 C 17,7 km/h (3 Bft) 96,67 %
21.05.2018 20:08 18,8 C 18,9 C 59 % 1011,0 hPa 0,0 l/m 10,1 km/h (2 Bft) O-SO 121 1 min 0,000 mm 0,0 UV-I 51 W/m 10,6 C 17,3 C 16,1 km/h (3 Bft) 95,65 %
21.05.2018 20:09 18,8 C 18,9 C 59 % 1011,0 hPa 0,0 l/m 12,3 km/h (3 Bft) O 97 1 min 0,000 mm 0,0 UV-I 48 W/m 10,6 C 16,6 C 16,1 km/h (3 Bft) 95,83 %
21.05.2018 20:10 18,8 C 18,9 C 59 % 1011,0 hPa 0,0 l/m 15,0 km/h (3 Bft) O 82 1 min 0,000 mm 0,0 UV-I 47 W/m 10,6 C 15,8 C 20,9 km/h (4 Bft) 92,31 %
21.05.2018 20:11 18,8 C 18,9 C 60 % 1011,1 hPa 0,0 l/m 13,1 km/h (3 Bft) O-NO 69 1 min 0,000 mm 0,0 UV-I 46 W/m 10,9 C 16,3 C 16,1 km/h (3 Bft) 96,30 %
21.05.2018 20:12 18,7 C 18,9 C 60 % 1011,0 hPa 0,0 l/m 13,1 km/h (3 Bft) O-NO 77 1 min 0,000 mm 0,0 UV-I 44 W/m 10,8 C 16,2 C 17,7 km/h (3 Bft) 94,12 %
21.05.2018 20:13 18,7 C 18,9 C 60 % 1011,0 hPa 0,0 l/m 11,4 km/h (2 Bft) O-NO 65 1 min 0,000 mm 0,0 UV-I 44 W/m 10,8 C 16,7 C 17,7 km/h (3 Bft) 96,30 %
21.05.2018 20:14 18,7 C 18,9 C 60 % 1011,0 hPa 0,0 l/m 12,2 km/h (2 Bft) O-NO 72 1 min 0,000 mm 0,0 UV-I 42 W/m 10,8 C 16,5 C 16,1 km/h (3 Bft) 93,33 %
21.05.2018 20:15 18,5 C 18,9 C 61 % 1011,0 hPa 0,0 l/m 13,2 km/h (3 Bft) O-NO 67 1 min 0,000 mm 0,0 UV-I 40 W/m 10,8 C 15,9 C 19,3 km/h (3 Bft) 92,31 %
21.05.2018 20:16 18,5 C 18,9 C 61 % 1011,1 hPa 0,0 l/m 11,9 km/h (2 Bft) O-NO 67 1 min 0,000 mm 0,0 UV-I 39 W/m 10,8 C 16,3 C 20,9 km/h (4 Bft) 96,15 %
21.05.2018 20:18 18,4 C 18,9 C 61 % 1011,0 hPa 0,0 l/m 14,7 km/h (3 Bft) O-NO 69 2 min 0,000 mm 0,0 UV-I 37 W/m 10,7 C 15,4 C 22,5 km/h (4 Bft) 94,64 %
21.05.2018 20:19 18,5 C 18,9 C 61 % 1011,0 hPa 0,0 l/m 15,0 km/h (3 Bft) O-NO 61 1 min 0,000 mm 0,0 UV-I 33 W/m 10,8 C 15,4 C 19,3 km/h (3 Bft) 100,00 %
21.05.2018 20:20 18,4 C 18,9 C 61 % 1011,0 hPa 0,0 l/m 18,4 km/h (3 Bft) O 90 1 min 0,000 mm 0,0 UV-I 33 W/m 10,7 C 14,5 C 24,1 km/h (4 Bft) 92,59 %
21.05.2018 20:21 18,4 C 18,9 C 61 % 1011,0 hPa 0,0 l/m 12,9 km/h (3 Bft) O-NO 59 1 min 0,000 mm 0,0 UV-I 31 W/m 10,7 C 15,9 C 20,9 km/h (4 Bft) 96,55 %
21.05.2018 20:22 18,4 C 18,9 C 61 % 1011,0 hPa 0,0 l/m 19,6 km/h (3 Bft) O-NO 67 1 min 0,000 mm 0,0 UV-I 30 W/m 10,7 C 14,2 C 24,1 km/h (4 Bft) 95,65 %
21.05.2018 20:23 18,4 C 18,9 C 61 % 1011,0 hPa 0,0 l/m 20,2 km/h (4 Bft) O-NO 74 1 min 0,000 mm 0,0 UV-I 30 W/m 10,7 C 14,1 C 25,7 km/h (4 Bft) 95,83 %
21.05.2018 20:24 18,4 C 18,9 C 61 % 1011,0 hPa 0,0 l/m 15,4 km/h (3 Bft) NO 51 1 min 0,000 mm 0,0 UV-I 30 W/m 10,7 C 15,2 C 20,9 km/h (4 Bft) 95,83 %
21.05.2018 20:25 18,4 C 18,9 C 61 % 1011,0 hPa 0,0 l/m 14,3 km/h (3 Bft) O 82 1 min 0,000 mm 0,0 UV-I 25 W/m 10,7 C 15,5 C 17,7 km/h (3 Bft) 90,91 %
21.05.2018 20:26 18,4 C 18,9 C 61 % 1011,0 hPa 0,0 l/m 14,3 km/h (3 Bft) O-NO 67 1 min 0,000 mm 0,0 UV-I 23 W/m 10,7 C 15,5 C 17,7 km/h (3 Bft) 92,59 %
21.05.2018 20:28 18,3 C 18,9 C 61 % 1011,0 hPa 0,0 l/m 16,0 km/h (3 Bft) O-NO 69 2 min 0,000 mm 0,0 UV-I 21 W/m 10,6 C 14,9 C 22,5 km/h (4 Bft) 96,23 %
21.05.2018 20:29 18,3 C 18,9 C 61 % 1011,0 hPa 0,0 l/m 16,5 km/h (3 Bft) O-NO 62 1 min 0,000 mm 0,0 UV-I 18 W/m 10,6 C 14,8 C 20,9 km/h (4 Bft) 92,31 %
21.05.2018 20:30 18,3 C 18,9 C 62 % 1011,0 hPa 0,0 l/m 13,2 km/h (3 Bft) O-NO 60 1 min 0,000 mm 0,0 UV-I 16 W/m 10,9 C 15,7 C 16,1 km/h (3 Bft) 93,33 %
21.05.2018 20:31 18,2 C 18,9 C 62 % 1011,1 hPa 0,0 l/m 13,2 km/h (3 Bft) O 84 1 min 0,000 mm 0,0 UV-I 16 W/m 10,8 C 15,6 C 19,3 km/h (3 Bft) 92,31 %
21.05.2018 20:33 18,2 C 18,9 C 62 % 1011,0 hPa 0,0 l/m 14,4 km/h (3 Bft) O-NO 64 0 min 0,000 mm 0,0 UV-I 15 W/m 10,8 C 15,2 C 20,9 km/h (4 Bft) 96,23 %
21.05.2018 20:34 18,1 C 18,9 C 62 % 1011,0 hPa 0,0 l/m 11,2 km/h (2 Bft) O-SO 103 0 min 0,000 mm 0,0 UV-I 14 W/m 10,7 C 16,1 C 16,1 km/h (3 Bft) 93,33 %
21.05.2018 20:35 18,1 C 18,9 C 62 % 1011,0 hPa 0,0 l/m 11,6 km/h (2 Bft) O-NO 65 0 min 0,000 mm 0,0 UV-I 12 W/m 10,7 C 16,0 C 14,5 km/h (3 Bft) 96,55 %
21.05.2018 20:36 18,0 C 18,9 C 62 % 1011,0 hPa 0,0 l/m 9,9 km/h (2 Bft) O-NO 65 0 min 0,000 mm 0,0 UV-I 12 W/m 10,6 C 16,5 C 12,9 km/h (3 Bft) 91,67 %
21.05.2018 20:37 18,0 C 18,9 C 62 % 1011,1 hPa 0,0 l/m 12,1 km/h (2 Bft) O 87 0 min 0,000 mm 0,0 UV-I 12 W/m 10,6 C 15,7 C 17,7 km/h (3 Bft) 100,00 %
21.05.2018 20:38 17,9 C 18,9 C 63 % 1011,1 hPa 0,0 l/m 10,0 km/h (2 Bft) O-NO 72 0 min 0,000 mm 0,0 UV-I 11 W/m 10,8 C 16,3 C 14,5 km/h (3 Bft) 92,31 %
21.05.2018 20:39 17,9 C 18,9 C 63 % 1011,1 hPa 0,0 l/m 13,8 km/h (3 Bft) NO 56 0 min 0,000 mm 0,0 UV-I 11 W/m 10,8 C 15,0 C 17,7 km/h (3 Bft) 100,00 %
21.05.2018 20:40 17,9 C 18,9 C 63 % 1011,0 hPa 0,0 l/m 13,5 km/h (3 Bft) O 98 0 min 0,000 mm 0,0 UV-I 11 W/m 10,8 C 15,1 C 19,3 km/h (3 Bft) 96,15 %
21.05.2018 20:41 17,8 C 18,9 C 63 % 1011,0 hPa 0,0 l/m 13,7 km/h (3 Bft) O-NO 69 0 min 0,000 mm 0,0 UV-I 10 W/m 10,7 C 15,0 C 20,9 km/h (4 Bft) 95,83 %
21.05.2018 20:43 17,8 C 18,9 C 63 % 1011,0 hPa 0,0 l/m 16,7 km/h (3 Bft) O-NO 73 0 min 0,000 mm 0,0 UV-I 9 W/m 10,7 C 14,1 C 22,5 km/h (4 Bft) 95,74 %
21.05.2018 20:44 17,8 C 18,9 C 63 % 1011,0 hPa 0,0 l/m 12,9 km/h (3 Bft) O 85 0 min 0,000 mm 0,0 UV-I 9 W/m 10,7 C 15,2 C 14,5 km/h (3 Bft) 95,65 %
21.05.2018 20:45 17,8 C 18,9 C 63 % 1011,0 hPa 0,0 l/m 15,7 km/h (3 Bft) O-NO 76 0 min 0,000 mm 0,0 UV-I 7 W/m 10,7 C 14,4 C 17,7 km/h (3 Bft) 93,33 %
21.05.2018 20:46 17,8 C 18,9 C 63 % 1011,0 hPa 0,0 l/m 15,0 km/h (3 Bft) O 87 0 min 0,000 mm 0,0 UV-I 7 W/m 10,7 C 14,6 C 17,7 km/h (3 Bft) 100,00 %
21.05.2018 20:48 17,8 C 18,9 C 63 % 1011,0 hPa 0,0 l/m 11,5 km/h (2 Bft) O-NO 68 0 min 0,000 mm 0,0 UV-I 7 W/m 10,7 C 15,7 C 17,7 km/h (3 Bft) 98,21 %
21.05.2018 20:49 17,7 C 18,9 C 63 % 1011,0 hPa 0,0 l/m 10,0 km/h (2 Bft) O 86 0 min 0,000 mm 0,0 UV-I 7 W/m 10,6 C 16,1 C 12,9 km/h (3 Bft) 91,67 %
21.05.2018 20:50 17,7 C 18,9 C 63 % 1011,0 hPa 0,0 l/m 11,6 km/h (2 Bft) O 85 0 min 0,000 mm 0,0 UV-I 5 W/m 10,6 C 15,5 C 16,1 km/h (3 Bft) 100,00 %
21.05.2018 20:51 17,6 C 18,9 C 64 % 1011,1 hPa 0,0 l/m 12,6 km/h (3 Bft) O-NO 76 0 min 0,000 mm 0,0 UV-I 5 W/m 10,7 C 15,1 C 16,1 km/h (3 Bft) 95,12 %
21.05.2018 20:53 17,6 C 18,9 C 64 % 1011,0 hPa 0,0 l/m 12,9 km/h (3 Bft) O 94 0 min 0,000 mm 0,0 UV-I 5 W/m 10,7 C 15,0 C 17,7 km/h (3 Bft) 97,87 %
21.05.2018 20:54 17,5 C 18,9 C 64 % 1011,0 hPa 0,0 l/m 11,4 km/h (2 Bft) O-NO 59 0 min 0,000 mm 0,0 UV-I 5 W/m 10,6 C 15,4 C 14,5 km/h (3 Bft) 94,44 %
21.05.2018 20:55 17,5 C 18,9 C 64 % 1011,1 hPa 0,0 l/m 10,3 km/h (2 Bft) O-NO 74 0 min 0,000 mm 0,0 UV-I 5 W/m 10,6 C 15,8 C 12,9 km/h (3 Bft) 100,00 %
21.05.2018 20:56 17,4 C 18,9 C 65 % 1011,0 hPa 0,0 l/m 8,4 km/h (2 Bft) NO 51 0 min 0,000 mm 0,0 UV-I 5 W/m 10,8 C 16,4 C 11,3 km/h (2 Bft) 95,65 %
21.05.2018 20:58 17,3 C 18,9 C 65 % 1011,1 hPa 0,0 l/m 8,7 km/h (2 Bft) NO 53 0 min 0,000 mm 0,0 UV-I 5 W/m 10,7 C 16,2 C 16,1 km/h (3 Bft) 96,23 %
21.05.2018 20:59 17,3 C 18,9 C 65 % 1011,1 hPa 0,0 l/m 9,5 km/h (2 Bft) NO 46 0 min 0,000 mm 0,0 UV-I 1 W/m 10,7 C 15,9 C 14,5 km/h (3 Bft) 100,00 %
21.05.2018 21:00 17,3 C 18,9 C 65 % 1011,1 hPa 0,0 l/m 12,5 km/h (3 Bft) O 81 0 min 0,000 mm 0,0 UV-I 0 W/m 10,7 C 14,8 C 16,1 km/h (3 Bft) 92,59 %
21.05.2018 21:02 17,3 C 18,9 C 65 % 1011,1 hPa 0,0 l/m 10,7 km/h (2 Bft) O-NO 66 0 min 0,076 mm 0,0 UV-I 0 W/m 10,7 C 15,4 C 19,3 km/h (3 Bft) 98,11 %
21.05.2018 21:03 17,3 C 18,9 C 65 % 1011,1 hPa 0,0 l/m 12,4 km/h (3 Bft) O 84 0 min 0,000 mm 0,0 UV-I 0 W/m 10,7 C 14,8 C 20,9 km/h (4 Bft) 95,65 %
21.05.2018 21:04 17,3 C 18,9 C 65 % 1011,1 hPa 0,0 l/m 11,2 km/h (2 Bft) O 96 0 min 0,000 mm 0,0 UV-I 0 W/m 10,7 C 15,2 C 14,5 km/h (3 Bft) 100,00 %
21.05.2018 21:05 17,3 C 18,9 C 65 % 1011,1 hPa 0,0 l/m 8,6 km/h (2 Bft) O-NO 65 0 min 0,000 mm 0,0 UV-I 0 W/m 10,7 C 16,2 C 14,5 km/h (3 Bft) 96,55 %
21.05.2018 21:06 17,3 C 18,9 C 65 % 1011,1 hPa 0,0 l/m 7,9 km/h (2 Bft) NO 54 0 min 0,000 mm 0,0 UV-I 0 W/m 10,7 C 16,6 C 11,3 km/h (2 Bft) 100,00 %
21.05.2018 21:08 17,3 C 18,9 C 65 % 1011,1 hPa 0,0 l/m 9,2 km/h (2 Bft) O-NO 64 0 min 0,000 mm 0,0 UV-I 0 W/m 10,7 C 16,0 C 14,5 km/h (3 Bft) 98,00 %
21.05.2018 21:09 17,3 C 18,9 C 65 % 1011,1 hPa 0,0 l/m 11,1 km/h (2 Bft) NO 50 0 min 0,000 mm 0,0 UV-I 0 W/m 10,7 C 15,2 C 14,5 km/h (3 Bft) 100,00 %
21.05.2018 21:10 17,3 C 18,9 C 65 % 1011,1 hPa 0,0 l/m 8,7 km/h (2 Bft) O-NO 64 0 min 0,000 mm 0,0 UV-I 0 W/m 10,7 C 16,2 C 12,9 km/h (3 Bft) 100,00 %
21.05.2018 21:11 17,2 C 18,9 C 65 % 1011,1 hPa 0,0 l/m 9,0 km/h (2 Bft) O 81 0 min 0,000 mm 0,0 UV-I 0 W/m 10,6 C 16,0 C 16,1 km/h (3 Bft) 95,65 %
21.05.2018 21:12 17,2 C 18,9 C 65 % 1011,1 hPa 0,0 l/m 11,0 km/h (2 Bft) O-NO 74 0 min 0,000 mm 0,0 UV-I 0 W/m 10,6 C 15,2 C 16,1 km/h (3 Bft) 92,59 %
21.05.2018 21:13 17,2 C 18,9 C 65 % 1011,1 hPa 0,0 l/m 9,0 km/h (2 Bft) O-NO 61 0 min 0,000 mm 0,0 UV-I 0 W/m 10,6 C 16,0 C 16,1 km/h (3 Bft) 100,00 %
21.05.2018 21:14 17,1 C 18,9 C 66 % 1011,0 hPa 0,0 l/m 11,1 km/h (2 Bft) O-NO 64 0 min 0,000 mm 0,0 UV-I 0 W/m 10,7 C 15,0 C 16,1 km/h (3 Bft) 100,00 %
21.05.2018 21:15 17,1 C 18,9 C 66 % 1011,1 hPa 0,0 l/m 10,4 km/h (2 Bft) O-NO 64 0 min 0,000 mm 0,0 UV-I 0 W/m 10,7 C 15,3 C 19,3 km/h (3 Bft) 100,00 %
21.05.2018 21:16 17,1 C 18,9 C 66 % 1011,1 hPa 0,0 l/m 12,7 km/h (3 Bft) O-NO 67 0 min 0,000 mm 0,0 UV-I 0 W/m 10,7 C 14,5 C 14,5 km/h (3 Bft) 100,00 %
21.05.2018 21:17 17,1 C 18,9 C 66 % 1011,1 hPa 0,0 l/m 10,0 km/h (2 Bft) O 88 0 min 0,000 mm 0,0 UV-I 0 W/m 10,7 C 15,4 C 14,5 km/h (3 Bft) 100,00 %
21.05.2018 21:18 17,1 C 18,9 C 66 % 1011,1 hPa 0,0 l/m 9,1 km/h (2 Bft) O-NO 72 0 min 0,000 mm 0,0 UV-I 0 W/m 10,7 C 15,8 C 12,9 km/h (3 Bft) 100,00 %
21.05.2018 21:19 17,1 C 18,9 C 66 % 1011,1 hPa 0,0 l/m 11,3 km/h (2 Bft) O 83 0 min 0,000 mm 0,0 UV-I 0 W/m 10,7 C 14,9 C 19,3 km/h (3 Bft) 93,33 %
21.05.2018 21:20 17,1 C 18,9 C 66 % 1011,1 hPa 0,0 l/m 9,5 km/h (2 Bft) NO 53 0 min 0,000 mm 0,0 UV-I 0 W/m 10,7 C 15,6 C 14,5 km/h (3 Bft) 100,00 %
21.05.2018 21:21 17,1 C 18,9 C 66 % 1011,1 hPa 0,0 l/m 6,1 km/h (2 Bft) O 79 0 min 0,000 mm 0,0 UV-I 0 W/m 10,7 C 17,1 C 11,3 km/h (2 Bft) 93,33 %
21.05.2018 21:23 17,0 C 18,9 C 66 % 1011,1 hPa 0,0 l/m 9,0 km/h (2 Bft) O-NO 66 0 min 0,000 mm 0,0 UV-I 0 W/m 10,6 C 15,7 C 12,9 km/h (3 Bft) 100,00 %
21.05.2018 21:24 17,0 C 18,9 C 66 % 1011,1 hPa 0,0 l/m 7,0 km/h (2 Bft) O-NO 63 0 min 0,000 mm 0,0 UV-I 0 W/m 10,6 C 16,7 C 8,0 km/h (2 Bft) 97,56 %
21.05.2018 21:25 16,9 C 18,9 C 66 % 1011,1 hPa 0,0 l/m 9,1 km/h (2 Bft) O-NO 63 0 min 0,000 mm 0,0 UV-I 0 W/m 10,5 C 15,6 C 12,9 km/h (3 Bft) 100,00 %
21.05.2018 21:26 16,9 C 18,9 C 66 % 1011,1 hPa 0,0 l/m 8,9 km/h (2 Bft) O-NO 66 0 min 0,000 mm 0,0 UV-I 0 W/m 10,5 C 15,7 C 12,9 km/h (3 Bft) 100,00 %
21.05.2018 21:28 16,8 C 18,9 C 67 % 1011,2 hPa 0,0 l/m 8,4 km/h (2 Bft) O 80 0 min 0,000 mm 0,0 UV-I 0 W/m 10,6 C 15,8 C 12,9 km/h (3 Bft) 97,73 %
21.05.2018 21:29 16,8 C 18,9 C 66 % 1011,2 hPa 0,0 l/m 9,0 km/h (2 Bft) O-NO 61 0 min 0,000 mm 0,0 UV-I 0 W/m 10,4 C 15,5 C 16,1 km/h (3 Bft) 100,00 %
21.05.2018 21:30 16,8 C 18,9 C 67 % 1011,2 hPa 0,0 l/m 10,6 km/h (2 Bft) NO 34 0 min 0,000 mm 0,0 UV-I 0 W/m 10,6 C 14,9 C 16,1 km/h (3 Bft) 100,00 %
21.05.2018 21:31 16,8 C 18,9 C 67 % 1011,2 hPa 0,0 l/m 8,8 km/h (2 Bft) O 83 0 min 0,000 mm 0,0 UV-I 0 W/m 10,6 C 15,6 C 12,9 km/h (3 Bft) 100,00 %
21.05.2018 21:33 16,7 C 18,9 C 67 % 1011,2 hPa 0,0 l/m 8,5 km/h (2 Bft) O-NO 63 0 min 0,000 mm 0,0 UV-I 0 W/m 10,5 C 15,6 C 14,5 km/h (3 Bft) 100,00 %
21.05.2018 21:34 16,7 C 18,9 C 67 % 1011,2 hPa 0,0 l/m 8,8 km/h (2 Bft) O-NO 57 0 min 0,000 mm 0,0 UV-I 0 W/m 10,5 C 15,5 C 12,9 km/h (3 Bft) 100,00 %
21.05.2018 21:35 16,7 C 18,9 C 67 % 1011,3 hPa 0,0 l/m 8,4 km/h (2 Bft) O-NO 65 0 min 0,000 mm 0,0 UV-I 0 W/m 10,5 C 15,7 C 11,3 km/h (2 Bft) 100,00 %
21.05.2018 21:36 16,7 C 18,9 C 67 % 1011,3 hPa 0,0 l/m 6,5 km/h (2 Bft) O-NO 67 0 min 0,000 mm 0,0 UV-I 0 W/m 10,5 C 16,7 C 9,7 km/h (2 Bft) 95,83 %
21.05.2018 21:38 16,6 C 18,9 C 68 % 1011,2 hPa 0,0 l/m 11,5 km/h (2 Bft) NO 40 0 min 0,000 mm 0,0 UV-I 0 W/m 10,7 C 14,3 C 17,7 km/h (3 Bft) 96,15 %
21.05.2018 21:39 16,6 C 18,9 C 68 % 1011,2 hPa 0,0 l/m 9,1 km/h (2 Bft) NO 45 0 min 0,000 mm 0,0 UV-I 0 W/m 10,7 C 15,3 C 11,3 km/h (2 Bft) 95,83 %
21.05.2018 21:40 16,6 C 18,9 C 68 % 1011,2 hPa 0,0 l/m 9,5 km/h (2 Bft) O-NO 58 0 min 0,000 mm 0,0 UV-I 0 W/m 10,7 C 15,1 C 14,5 km/h (3 Bft) 100,00 %
21.05.2018 21:41 16,5 C 18,9 C 68 % 1011,2 hPa 0,0 l/m 8,9 km/h (2 Bft) NO 45 0 min 0,000 mm 0,0 UV-I 0 W/m 10,6 C 15,3 C 14,5 km/h (3 Bft) 100,00 %
21.05.2018 21:42 16,5 C 18,9 C 68 % 1011,2 hPa 0,0 l/m 8,0 km/h (2 Bft) NO 53 0 min 0,000 mm 0,0 UV-I 0 W/m 10,6 C 15,7 C 11,3 km/h (2 Bft) 95,83 %
21.05.2018 21:43 16,4 C 18,9 C 68 % 1011,1 hPa 0,0 l/m 9,1 km/h (2 Bft) O-NO 63 0 min 0,000 mm 0,0 UV-I 0 W/m 10,5 C 15,1 C 14,5 km/h (3 Bft) 95,65 %
21.05.2018 21:44 16,4 C 18,9 C 68 % 1011,1 hPa 0,0 l/m 8,9 km/h (2 Bft) NO 53 0 min 0,000 mm 0,0 UV-I 0 W/m 10,5 C 15,1 C 14,5 km/h (3 Bft) 100,00 %
21.05.2018 21:45 16,4 C 18,9 C 68 % 1011,1 hPa 0,0 l/m 8,3 km/h (2 Bft) NO 49 0 min 0,000 mm 0,0 UV-I 0 W/m 10,5 C 15,4 C 16,1 km/h (3 Bft) 100,00 %
21.05.2018 21:46 16,4 C 18,9 C 68 % 1011,1 hPa 0,0 l/m 11,0 km/h (2 Bft) O 84 0 min 0,000 mm 0,0 UV-I 0 W/m 10,5 C 14,3 C 14,5 km/h (3 Bft) 100,00 %
21.05.2018 21:47 16,4 C 18,9 C 68 % 1011,1 hPa 0,0 l/m 9,9 km/h (2 Bft) NO 53 0 min 0,000 mm 0,0 UV-I 0 W/m 10,5 C 14,7 C 14,5 km/h (3 Bft) 100,00 %
21.05.2018 21:48 16,5 C 18,9 C 68 % 1011,1 hPa 0,0 l/m 11,7 km/h (2 Bft) O-NO 60 0 min 0,000 mm 0,0 UV-I 0 W/m 10,6 C 14,1 C 16,1 km/h (3 Bft) 100,00 %
21.05.2018 21:49 16,4 C 18,9 C 68 % 1011,1 hPa 0,0 l/m 11,6 km/h (2 Bft) NO 54 0 min 0,000 mm 0,0 UV-I 0 W/m 10,5 C 14,0 C 16,1 km/h (3 Bft) 96,15 %
21.05.2018 21:50 16,4 C 18,9 C 68 % 1011,2 hPa 0,0 l/m 12,0 km/h (2 Bft) NO 46 0 min 0,000 mm 0,0 UV-I 0 W/m 10,5 C 13,9 C 16,1 km/h (3 Bft) 93,33 %
21.05.2018 21:51 16,5 C 18,9 C 68 % 1011,1 hPa 0,0 l/m 10,5 km/h (2 Bft) NO 54 0 min 0,000 mm 0,0 UV-I 0 W/m 10,6 C 14,6 C 16,1 km/h (3 Bft) 100,00 %
21.05.2018 21:53 16,4 C 18,9 C 68 % 1011,1 hPa 0,0 l/m 11,2 km/h (2 Bft) O-NO 62 0 min 0,000 mm 0,0 UV-I 0 W/m 10,5 C 14,2 C 20,9 km/h (4 Bft) 98,21 %
21.05.2018 21:54 16,4 C 18,9 C 68 % 1011,1 hPa 0,0 l/m 10,1 km/h (2 Bft) O-NO 61 0 min 0,000 mm 0,0 UV-I 0 W/m 10,5 C 14,6 C 19,3 km/h (3 Bft) 100,00 %
21.05.2018 21:55 16,4 C 18,9 C 68 % 1011,1 hPa 0,0 l/m 12,8 km/h (3 Bft) NO 51 0 min 0,000 mm 0,0 UV-I 0 W/m 10,5 C 13,6 C 19,3 km/h (3 Bft) 100,00 %
21.05.2018 21:56 16,4 C 18,9 C 68 % 1011,1 hPa 0,0 l/m 13,3 km/h (3 Bft) O-NO 59 0 min 0,000 mm 0,0 UV-I 0 W/m 10,5 C 13,4 C 16,1 km/h (3 Bft) 100,00 %
21.05.2018 21:57 16,4 C 18,9 C 68 % 1011,1 hPa 0,0 l/m 12,2 km/h (2 Bft) NO 56 0 min 0,000 mm 0,0 UV-I 0 W/m 10,5 C 13,8 C 20,9 km/h (4 Bft) 100,00 %
21.05.2018 21:58 16,3 C 18,9 C 68 % 1011,1 hPa 0,0 l/m 13,2 km/h (3 Bft) O-NO 78 0 min 0,000 mm 0,0 UV-I 0 W/m 10,4 C 13,3 C 19,3 km/h (3 Bft) 91,30 %
21.05.2018 21:59 16,4 C 18,9 C 68 % 1011,1 hPa 0,0 l/m 9,7 km/h (2 Bft) O 80 0 min 0,000 mm 0,0 UV-I 0 W/m 10,5 C 14,8 C 14,5 km/h (3 Bft) 95,83 %
21.05.2018 22:00 16,4 C 18,9 C 68 % 1011,1 hPa 0,0 l/m 11,5 km/h (2 Bft) O-NO 71 0 min 0,000 mm 0,0 UV-I 0 W/m 10,5 C 14,1 C 19,3 km/h (3 Bft) 100,00 %
21.05.2018 22:02 16,3 C 18,9 C 68 % 1011,1 hPa 0,0 l/m 8,8 km/h (2 Bft) O-NO 71 0 min 0,051 mm 0,0 UV-I 0 W/m 10,4 C 15,1 C 19,3 km/h (3 Bft) 98,21 %
21.05.2018 22:03 16,3 C 18,9 C 69 % 1011,1 hPa 0,0 l/m 13,3 km/h (3 Bft) NO 34 0 min 0,000 mm 0,0 UV-I 0 W/m 10,6 C 13,3 C 16,1 km/h (3 Bft) 100,00 %
21.05.2018 22:04 16,2 C 18,9 C 69 % 1011,0 hPa 0,0 l/m 15,6 km/h (3 Bft) O-NO 71 0 min 0,000 mm 0,0 UV-I 0 W/m 10,5 C 12,5 C 20,9 km/h (4 Bft) 100,00 %
21.05.2018 22:05 16,2 C 18,9 C 69 % 1011,0 hPa 0,0 l/m 10,7 km/h (2 Bft) O-NO 69 0 min 0,000 mm 0,0 UV-I 0 W/m 10,5 C 14,2 C 17,7 km/h (3 Bft) 100,00 %
21.05.2018 22:06 16,2 C 18,9 C 69 % 1011,0 hPa 0,0 l/m 8,7 km/h (2 Bft) O-NO 58 0 min 0,000 mm 0,0 UV-I 0 W/m 10,5 C 15,0 C 12,9 km/h (3 Bft) 96,15 %
21.05.2018 22:07 16,3 C 18,9 C 68 % 1011,1 hPa 0,0 l/m 11,5 km/h (2 Bft) O-NO 70 0 min 0,000 mm 0,0 UV-I 0 W/m 10,4 C 14,0 C 17,7 km/h (3 Bft) 100,00 %
21.05.2018 22:08 16,3 C 18,9 C 69 % 1011,0 hPa 0,0 l/m 10,0 km/h (2 Bft) O-NO 59 0 min 0,000 mm 0,0 UV-I 0 W/m 10,6 C 14,6 C 14,5 km/h (3 Bft) 98,00 %
21.05.2018 22:09 16,3 C 18,9 C 68 % 1011,0 hPa 0,0 l/m 11,3 km/h (2 Bft) O-NO 69 0 min 0,000 mm 0,0 UV-I 0 W/m 10,4 C 14,0 C 16,1 km/h (3 Bft) 93,10 %
21.05.2018 22:10 16,3 C 18,9 C 68 % 1011,1 hPa 0,0 l/m 10,3 km/h (2 Bft) O-SO 110 0 min 0,000 mm 0,0 UV-I 0 W/m 10,4 C 14,4 C 14,5 km/h (3 Bft) 97,37 %
21.05.2018 22:11 16,3 C 18,9 C 68 % 1011,0 hPa 0,0 l/m 14,1 km/h (3 Bft) NO 55 0 min 0,000 mm 0,0 UV-I 0 W/m 10,4 C 13,0 C 20,9 km/h (4 Bft) 95,83 %
21.05.2018 22:12 16,3 C 18,9 C 68 % 1011,1 hPa 0,0 l/m 13,2 km/h (3 Bft) O-NO 63 0 min 0,000 mm 0,0 UV-I 0 W/m 10,4 C 13,3 C 17,7 km/h (3 Bft) 95,65 %
21.05.2018 22:13 16,3 C 18,9 C 68 % 1011,1 hPa 0,0 l/m 13,4 km/h (3 Bft) O 81 0 min 0,000 mm 0,0 UV-I 0 W/m 10,4 C 13,3 C 17,7 km/h (3 Bft) 96,30 %
21.05.2018 22:14 16,3 C 18,9 C 68 % 1011,1 hPa 0,0 l/m 11,6 km/h (2 Bft) O-NO 71 0 min 0,000 mm 0,0 UV-I 0 W/m 10,4 C 13,9 C 14,5 km/h (3 Bft) 100,00 %
21.05.2018 22:15 16,4 C 18,9 C 68 % 1011,1 hPa 0,0 l/m 8,0 km/h (2 Bft) O-NO 74 0 min 0,000 mm 0,0 UV-I 0 W/m 10,5 C 15,6 C 12,9 km/h (3 Bft) 96,15 %
21.05.2018 22:16 16,4 C 18,9 C 68 % 1011,1 hPa 0,0 l/m 7,4 km/h (2 Bft) O-NO 76 0 min 0,000 mm 0,0 UV-I 0 W/m 10,5 C 15,9 C 11,3 km/h (2 Bft) 100,00 %
21.05.2018 22:18 16,3 C 18,9 C 68 % 1011,0 hPa 0,0 l/m 11,0 km/h (2 Bft) NO 49 0 min 0,000 mm 0,0 UV-I 0 W/m 10,4 C 14,1 C 17,7 km/h (3 Bft) 96,15 %
21.05.2018 22:19 16,3 C 18,9 C 68 % 1011,0 hPa 0,0 l/m 11,1 km/h (2 Bft) O-NO 65 0 min 0,000 mm 0,0 UV-I 0 W/m 10,4 C 14,1 C 16,1 km/h (3 Bft) 100,00 %
21.05.2018 22:20 16,3 C 18,9 C 68 % 1011,0 hPa 0,0 l/m 13,8 km/h (3 Bft) NO 37 0 min 0,000 mm 0,0 UV-I 0 W/m 10,4 C 13,1 C 20,9 km/h (4 Bft) 100,00 %
21.05.2018 22:21 16,2 C 18,9 C 68 % 1011,0 hPa 0,0 l/m 8,0 km/h (2 Bft) O-NO 69 0 min 0,000 mm 0,0 UV-I 0 W/m 10,3 C 15,4 C 12,9 km/h (3 Bft) 96,15 %
21.05.2018 22:22 16,2 C 18,9 C 68 % 1011,0 hPa 0,0 l/m 10,1 km/h (2 Bft) O 90 0 min 0,000 mm 0,0 UV-I 0 W/m 10,3 C 14,4 C 16,1 km/h (3 Bft) 94,44 %
21.05.2018 22:23 16,2 C 18,9 C 68 % 1011,0 hPa 0,0 l/m 8,9 km/h (2 Bft) NO 45 0 min 0,000 mm 0,0 UV-I 0 W/m 10,3 C 14,9 C 16,1 km/h (3 Bft) 100,00 %
21.05.2018 22:24 16,2 C 18,9 C 68 % 1011,0 hPa 0,0 l/m 9,7 km/h (2 Bft) O-NO 75 0 min 0,000 mm 0,0 UV-I 0 W/m 10,3 C 14,6 C 12,9 km/h (3 Bft) 95,83 %
21.05.2018 22:25 16,2 C 18,9 C 68 % 1011,0 hPa 0,0 l/m 9,2 km/h (2 Bft) O-NO 67 0 min 0,000 mm 0,0 UV-I 0 W/m 10,3 C 14,8 C 14,5 km/h (3 Bft) 100,00 %
21.05.2018 22:26 16,2 C 18,9 C 68 % 1011,0 hPa 0,0 l/m 9,1 km/h (2 Bft) O-NO 59 0 min 0,000 mm 0,0 UV-I 0 W/m 10,3 C 14,8 C 14,5 km/h (3 Bft) 88,89 %
21.05.2018 22:28 16,1 C 18,9 C 69 % 1011,0 hPa 0,0 l/m 9,2 km/h (2 Bft) NO 44 0 min 0,000 mm 0,0 UV-I 0 W/m 10,4 C 14,7 C 14,5 km/h (3 Bft) 97,14 %
21.05.2018 22:29 16,1 C 18,9 C 69 % 1011,0 hPa 0,0 l/m 7,9 km/h (2 Bft) O-NO 66 0 min 0,000 mm 0,0 UV-I 0 W/m 10,4 C 15,3 C 11,3 km/h (2 Bft) 97,56 %
21.05.2018 22:30 16,1 C 18,9 C 69 % 1011,0 hPa 0,0 l/m 12,2 km/h (2 Bft) O-NO 69 0 min 0,000 mm 0,0 UV-I 0 W/m 10,4 C 13,5 C 17,7 km/h (3 Bft) 100,00 %
21.05.2018 22:31 16,0 C 18,9 C 69 % 1011,0 hPa 0,0 l/m 10,4 km/h (2 Bft) NO 53 0 min 0,000 mm 0,0 UV-I 0 W/m 10,3 C 14,1 C 14,5 km/h (3 Bft) 96,30 %
21.05.2018 22:32 15,9 C 18,9 C 69 % 1011,0 hPa 0,0 l/m 11,7 km/h (2 Bft) O 79 0 min 0,000 mm 0,0 UV-I 0 W/m 10,2 C 13,4 C 16,1 km/h (3 Bft) 100,00 %
21.05.2018 22:33 15,9 C 18,9 C 69 % 1011,0 hPa 0,0 l/m 11,0 km/h (2 Bft) NO 52 0 min 0,000 mm 0,0 UV-I 0 W/m 10,2 C 13,7 C 16,1 km/h (3 Bft) 95,83 %
21.05.2018 22:34 15,9 C 18,3 C 69 % 1011,0 hPa 0,0 l/m 12,2 km/h (2 Bft) O-NO 66 0 min 0,000 mm 0,0 UV-I 0 W/m 10,2 C 13,2 C 16,1 km/h (3 Bft) 100,00 %
21.05.2018 22:35 15,9 C 18,9 C 69 % 1011,0 hPa 0,0 l/m 9,7 km/h (2 Bft) O 81 0 min 0,000 mm 0,0 UV-I 0 W/m 10,2 C 14,2 C 17,7 km/h (3 Bft) 95,83 %
21.05.2018 22:36 15,9 C 18,9 C 69 % 1011,0 hPa 0,0 l/m 10,2 km/h (2 Bft) NO 44 0 min 0,000 mm 0,0 UV-I 0 W/m 10,2 C 14,0 C 12,9 km/h (3 Bft) 100,00 %
21.05.2018 22:38 15,9 C 18,9 C 69 % 1011,0 hPa 0,0 l/m 12,4 km/h (3 Bft) O-NO 67 0 min 0,000 mm 0,0 UV-I 0 W/m 10,2 C 13,2 C 20,9 km/h (4 Bft) 96,23 %
21.05.2018 22:39 15,9 C 18,9 C 69 % 1011,0 hPa 0,0 l/m 11,6 km/h (2 Bft) O-NO 65 0 min 0,000 mm 0,0 UV-I 0 W/m 10,2 C 13,5 C 14,5 km/h (3 Bft) 100,00 %
21.05.2018 22:40 15,9 C 18,3 C 69 % 1011,0 hPa 0,0 l/m 8,7 km/h (2 Bft) O-NO 76 0 min 0,000 mm 0,0 UV-I 0 W/m 10,2 C 14,7 C 12,9 km/h (3 Bft) 100,00 %
21.05.2018 22:41 15,9 C 18,3 C 69 % 1011,0 hPa 0,0 l/m 8,0 km/h (2 Bft) O-NO 78 0 min 0,000 mm 0,0 UV-I 0 W/m 10,2 C 15,0 C 12,9 km/h (3 Bft) 100,00 %
21.05.2018 22:43 15,9 C 18,3 C 70 % 1011,0 hPa 0,0 l/m 9,0 km/h (2 Bft) O 80 0 min 0,000 mm 0,0 UV-I 0 W/m 10,4 C 14,6 C 16,1 km/h (3 Bft) 100,00 %
21.05.2018 22:44 15,9 C 18,3 C 70 % 1011,0 hPa 0,0 l/m 7,1 km/h (2 Bft) O 80 0 min 0,000 mm 0,0 UV-I 0 W/m 10,4 C 15,5 C 12,9 km/h (3 Bft) 100,00 %
21.05.2018 22:45 15,9 C 18,3 C 69 % 1011,0 hPa 0,0 l/m 7,8 km/h (2 Bft) O 90 0 min 0,000 mm 0,0 UV-I 0 W/m 10,2 C 15,1 C 14,5 km/h (3 Bft) 100,00 %
21.05.2018 22:46 15,9 C 18,3 C 69 % 1011,0 hPa 0,0 l/m 10,9 km/h (2 Bft) O 80 0 min 0,000 mm 0,0 UV-I 0 W/m 10,2 C 13,7 C 14,5 km/h (3 Bft) 92,31 %
21.05.2018 22:47 15,8 C 18,3 C 70 % 1011,0 hPa 0,0 l/m 12,1 km/h (2 Bft) O-NO 77 0 min 0,000 mm 0,0 UV-I 0 W/m 10,3 C 13,2 C 17,7 km/h (3 Bft) 100,00 %
21.05.2018 22:48 15,8 C 18,3 C 70 % 1011,0 hPa 0,0 l/m 8,8 km/h (2 Bft) NO 46 0 min 0,000 mm 0,0 UV-I 0 W/m 10,3 C 14,5 C 12,9 km/h (3 Bft) 96,55 %
21.05.2018 22:49 15,8 C 18,3 C 70 % 1011,0 hPa 0,0 l/m 5,3 km/h (1 Bft) O-NO 65 0 min 0,000 mm 0,0 UV-I 0 W/m 10,3 C 15,8 C 6,4 km/h (2 Bft) 100,00 %
21.05.2018 22:50 15,8 C 18,3 C 70 % 1011,0 hPa 0,0 l/m 9,0 km/h (2 Bft) O-NO 67 0 min 0,000 mm 0,0 UV-I 0 W/m 10,3 C 14,5 C 12,9 km/h (3 Bft) 96,30 %
21.05.2018 22:51 15,7 C 18,3 C 70 % 1011,0 hPa 0,0 l/m 8,1 km/h (2 Bft) O-NO 67 0 min 0,000 mm 0,0 UV-I 0 W/m 10,2 C 14,8 C 14,5 km/h (3 Bft) 100,00 %
21.05.2018 22:52 15,7 C 18,3 C 70 % 1011,0 hPa 0,0 l/m 8,3 km/h (2 Bft) O-NO 63 0 min 0,000 mm 0,0 UV-I 0 W/m 10,2 C 14,7 C 14,5 km/h (3 Bft) 100,00 %
21.05.2018 22:53 15,7 C 18,3 C 70 % 1011,0 hPa 0,0 l/m 9,0 km/h (2 Bft) O-NO 74 0 min 0,000 mm 0,0 UV-I 0 W/m 10,2 C 14,3 C 12,9 km/h (3 Bft) 95,65 %
21.05.2018 22:54 15,7 C 18,3 C 70 % 1011,0 hPa 0,0 l/m 8,1 km/h (2 Bft) O-NO 57 0 min 0,000 mm 0,0 UV-I 0 W/m 10,2 C 14,8 C 11,3 km/h (2 Bft) 100,00 %
21.05.2018 22:55 15,7 C 18,3 C 70 % 1011,0 hPa 0,0 l/m 9,9 km/h (2 Bft) O-NO 58 0 min 0,000 mm 0,0 UV-I 0 W/m 10,2 C 13,9 C 14,5 km/h (3 Bft) 100,00 %
21.05.2018 22:56 15,7 C 18,3 C 70 % 1011,0 hPa 0,0 l/m 8,7 km/h (2 Bft) O-NO 69 0 min 0,000 mm 0,0 UV-I 0 W/m 10,2 C 14,5 C 11,3 km/h (2 Bft) 97,62 %
21.05.2018 22:57 15,7 C 18,3 C 70 % 1011,0 hPa 0,0 l/m 11,0 km/h (2 Bft) O 90 0 min 0,000 mm 0,0 UV-I 0 W/m 10,2 C 13,5 C 14,5 km/h (3 Bft) 100,00 %
21.05.2018 22:58 15,7 C 18,3 C 70 % 1011,0 hPa 0,0 l/m 10,6 km/h (2 Bft) O-NO 67 0 min 0,000 mm 0,0 UV-I 0 W/m 10,2 C 13,6 C 14,5 km/h (3 Bft) 100,00 %
21.05.2018 22:59 15,6 C 18,3 C 71 % 1011,0 hPa 0,0 l/m 13,0 km/h (3 Bft) O-NO 78 0 min 0,000 mm 0,0 UV-I 0 W/m 10,4 C 12,6 C 17,7 km/h (3 Bft) 96,15 %
21.05.2018 23:00 15,6 C 18,3 C 71 % 1011,0 hPa 0,0 l/m 12,6 km/h (3 Bft) O-NO 76 0 min 0,000 mm 0,0 UV-I 0 W/m 10,4 C 12,7 C 14,5 km/h (3 Bft) 100,00 %
21.05.2018 23:02 15,6 C 18,3 C 71 % 1011,0 hPa 0,0 l/m 9,8 km/h (2 Bft) O-NO 75 0 min 0,050 mm 0,0 UV-I 0 W/m 10,4 C 13,9 C 12,9 km/h (3 Bft) 100,00 %
21.05.2018 23:03 15,6 C 18,3 C 71 % 1011,0 hPa 0,0 l/m 8,9 km/h (2 Bft) O 83 0 min 0,000 mm 0,0 UV-I 0 W/m 10,4 C 14,3 C 14,5 km/h (3 Bft) 100,00 %
21.05.2018 23:04 15,6 C 18,3 C 71 % 1011,0 hPa 0,0 l/m 8,2 km/h (2 Bft) O-NO 64 0 min 0,000 mm 0,0 UV-I 0 W/m 10,4 C 14,6 C 9,7 km/h (2 Bft) 100,00 %
21.05.2018 23:05 15,5 C 18,3 C 71 % 1011,0 hPa 0,0 l/m 8,2 km/h (2 Bft) O-NO 75 0 min 0,000 mm 0,0 UV-I 0 W/m 10,3 C 14,5 C 12,9 km/h (3 Bft) 100,00 %
21.05.2018 23:06 15,4 C 18,3 C 71 % 1011,1 hPa 0,0 l/m 6,9 km/h (2 Bft) NO 53 0 min 0,000 mm 0,0 UV-I 0 W/m 10,2 C 15,1 C 11,3 km/h (2 Bft) 100,00 %
21.05.2018 23:07 15,4 C 18,3 C 71 % 1011,0 hPa 0,0 l/m 7,8 km/h (2 Bft) O-NO 74 0 min 0,000 mm 0,0 UV-I 0 W/m 10,2 C 14,6 C 11,3 km/h (2 Bft) 100,00 %
21.05.2018 23:08 15,3 C 18,3 C 71 % 1011,0 hPa 0,0 l/m 7,4 km/h (2 Bft) O-NO 76 0 min 0,000 mm 0,0 UV-I 0 W/m 10,1 C 14,7 C 11,3 km/h (2 Bft) 100,00 %
21.05.2018 23:09 15,3 C 18,3 C 72 % 1011,0 hPa 0,0 l/m 7,0 km/h (2 Bft) NO 55 0 min 0,000 mm 0,0 UV-I 0 W/m 10,3 C 15,0 C 9,7 km/h (2 Bft) 100,00 %
21.05.2018 23:10 15,3 C 18,3 C 72 % 1011,1 hPa 0,0 l/m 7,0 km/h (2 Bft) O-NO 78 0 min 0,000 mm 0,0 UV-I 0 W/m 10,3 C 15,0 C 14,5 km/h (3 Bft) 100,00 %
21.05.2018 23:11 15,3 C 18,3 C 72 % 1011,1 hPa 0,0 l/m 8,9 km/h (2 Bft) O-NO 78 0 min 0,000 mm 0,0 UV-I 0 W/m 10,3 C 14,0 C 17,7 km/h (3 Bft) 100,00 %
21.05.2018 23:12 15,3 C 18,3 C 72 % 1011,1 hPa 0,0 l/m 9,1 km/h (2 Bft) O-NO 74 0 min 0,000 mm 0,0 UV-I 0 W/m 10,3 C 13,9 C 14,5 km/h (3 Bft) 100,00 %
21.05.2018 23:13 15,3 C 18,3 C 72 % 1011,0 hPa 0,0 l/m 10,0 km/h (2 Bft) O 81 0 min 0,000 mm 0,0 UV-I 0 W/m 10,3 C 13,4 C 14,5 km/h (3 Bft) 100,00 %
21.05.2018 23:14 15,2 C 18,3 C 72 % 1011,0 hPa 0,0 l/m 8,2 km/h (2 Bft) O 89 0 min 0,000 mm 0,0 UV-I 0 W/m 10,2 C 14,2 C 11,3 km/h (2 Bft) 96,15 %
21.05.2018 23:15 15,3 C 18,3 C 72 % 1011,0 hPa 0,0 l/m 7,5 km/h (2 Bft) O 82 0 min 0,000 mm 0,0 UV-I 0 W/m 10,3 C 14,7 C 11,3 km/h (2 Bft) 100,00 %
21.05.2018 23:16 15,2 C 18,3 C 72 % 1011,0 hPa 0,0 l/m 7,2 km/h (2 Bft) O-NO 70 0 min 0,000 mm 0,0 UV-I 0 W/m 10,2 C 14,8 C 11,3 km/h (2 Bft) 95,65 %
21.05.2018 23:17 15,2 C 18,3 C 72 % 1011,0 hPa 0,0 l/m 9,1 km/h (2 Bft) O-NO 69 0 min 0,000 mm 0,0 UV-I 0 W/m 10,2 C 13,8 C 12,9 km/h (3 Bft) 100,00 %
21.05.2018 23:18 15,2 C 18,3 C 72 % 1011,0 hPa 0,0 l/m 8,9 km/h (2 Bft) O 88 0 min 0,000 mm 0,0 UV-I 0 W/m 10,2 C 13,9 C 12,9 km/h (3 Bft) 100,00 %
21.05.2018 23:19 15,2 C 18,3 C 73 % 1011,0 hPa 0,0 l/m 8,0 km/h (2 Bft) O-NO 63 0 min 0,000 mm 0,0 UV-I 0 W/m 10,4 C 14,3 C 11,3 km/h (2 Bft) 100,00 %
21.05.2018 23:20 15,1 C 18,3 C 73 % 1010,9 hPa 0,0 l/m 8,1 km/h (2 Bft) O-NO 69 0 min 0,000 mm 0,0 UV-I 0 W/m 10,3 C 14,2 C 12,9 km/h (3 Bft) 100,00 %
21.05.2018 23:21 15,1 C 18,3 C 73 % 1011,0 hPa 0,0 l/m 7,8 km/h (2 Bft) O-NO 66 0 min 0,000 mm 0,0 UV-I 0 W/m 10,3 C 14,3 C 9,7 km/h (2 Bft) 100,00 %
21.05.2018 23:23 15,1 C 18,3 C 73 % 1011,0 hPa 0,0 l/m 8,8 km/h (2 Bft) O 97 0 min 0,000 mm 0,0 UV-I 0 W/m 10,3 C 13,8 C 14,5 km/h (3 Bft) 95,74 %
21.05.2018 23:24 15,0 C 18,3 C 73 % 1011,0 hPa 0,0 l/m 7,4 km/h (2 Bft) O-NO 67 0 min 0,000 mm 0,0 UV-I 0 W/m 10,2 C 14,4 C 9,7 km/h (2 Bft) 96,15 %
21.05.2018 23:25 15,0 C 18,3 C 73 % 1010,9 hPa 0,0 l/m 7,0 km/h (2 Bft) O-NO 64 0 min 0,000 mm 0,0 UV-I 0 W/m 10,2 C 14,7 C 9,7 km/h (2 Bft) 100,00 %
21.05.2018 23:26 15,0 C 18,3 C 73 % 1011,0 hPa 0,0 l/m 9,1 km/h (2 Bft) O-NO 62 0 min 0,000 mm 0,0 UV-I 0 W/m 10,2 C 13,5 C 14,5 km/h (3 Bft) 100,00 %
21.05.2018 23:28 15,0 C 18,3 C 73 % 1010,9 hPa 0,0 l/m 8,6 km/h (2 Bft) O-NO 58 0 min 0,000 mm 0,0 UV-I 0 W/m 10,2 C 13,8 C 12,9 km/h (3 Bft) 100,00 %
21.05.2018 23:29 14,9 C 18,3 C 73 % 1010,9 hPa 0,0 l/m 7,8 km/h (2 Bft) O-NO 60 0 min 0,000 mm 0,0 UV-I 0 W/m 10,1 C 14,1 C 9,7 km/h (2 Bft) 100,00 %
21.05.2018 23:30 14,9 C 18,3 C 74 % 1010,9 hPa 0,0 l/m 7,8 km/h (2 Bft) O 86 0 min 0,000 mm 0,0 UV-I 0 W/m 10,3 C 14,1 C 12,9 km/h (3 Bft) 96,67 %
21.05.2018 23:31 14,9 C 18,3 C 74 % 1010,9 hPa 0,0 l/m 8,4 km/h (2 Bft) O 92 0 min 0,000 mm 0,0 UV-I 0 W/m 10,3 C 13,8 C 11,3 km/h (2 Bft) 100,00 %
21.05.2018 23:33 14,8 C 18,3 C 74 % 1010,9 hPa 0,0 l/m 8,3 km/h (2 Bft) O-NO 73 0 min 0,000 mm 0,0 UV-I 0 W/m 10,2 C 13,7 C 12,9 km/h (3 Bft) 100,00 %
21.05.2018 23:34 14,8 C 18,3 C 74 % 1010,9 hPa 0,0 l/m 9,7 km/h (2 Bft) O-SO 105 0 min 0,000 mm 0,0 UV-I 0 W/m 10,2 C 13,0 C 12,9 km/h (3 Bft) 100,00 %
21.05.2018 23:35 14,8 C 18,3 C 74 % 1010,9 hPa 0,0 l/m 7,9 km/h (2 Bft) O 81 0 min 0,000 mm 0,0 UV-I 0 W/m 10,2 C 13,9 C 12,9 km/h (3 Bft) 100,00 %
21.05.2018 23:36 14,8 C 18,3 C 74 % 1010,9 hPa 0,0 l/m 9,0 km/h (2 Bft) O-NO 76 0 min 0,000 mm 0,0 UV-I 0 W/m 10,2 C 13,4 C 11,3 km/h (2 Bft) 100,00 %
21.05.2018 23:37 14,8 C 18,3 C 74 % 1010,9 hPa 0,0 l/m 7,9 km/h (2 Bft) O-NO 71 0 min 0,000 mm 0,0 UV-I 0 W/m 10,2 C 13,9 C 12,9 km/h (3 Bft) 100,00 %
21.05.2018 23:38 14,8 C 18,3 C 74 % 1010,9 hPa 0,0 l/m 8,4 km/h (2 Bft) O-NO 69 0 min 0,000 mm 0,0 UV-I 0 W/m 10,2 C 13,7 C 14,5 km/h (3 Bft) 95,83 %
21.05.2018 23:39 14,7 C 18,3 C 74 % 1010,9 hPa 0,0 l/m 7,8 km/h (2 Bft) O-NO 77 0 min 0,000 mm 0,0 UV-I 0 W/m 10,1 C 13,9 C 11,3 km/h (2 Bft) 100,00 %
21.05.2018 23:40 14,7 C 18,3 C 75 % 1010,9 hPa 0,0 l/m 7,1 km/h (2 Bft) O 86 0 min 0,000 mm 0,0 UV-I 0 W/m 10,3 C 14,3 C 11,3 km/h (2 Bft) 100,00 %
21.05.2018 23:41 14,7 C 18,3 C 75 % 1010,9 hPa 0,0 l/m 9,0 km/h (2 Bft) O 79 0 min 0,000 mm 0,0 UV-I 0 W/m 10,3 C 13,3 C 12,9 km/h (3 Bft) 100,00 %
21.05.2018 23:42 14,7 C 18,3 C 75 % 1010,9 hPa 0,0 l/m 6,0 km/h (2 Bft) O-NO 74 0 min 0,000 mm 0,0 UV-I 0 W/m 10,3 C 14,7 C 9,7 km/h (2 Bft) 100,00 %
21.05.2018 23:43 14,6 C 18,3 C 75 % 1010,9 hPa 0,0 l/m 7,3 km/h (2 Bft) O-NO 78 0 min 0,000 mm 0,0 UV-I 0 W/m 10,2 C 14,1 C 11,3 km/h (2 Bft) 100,00 %
21.05.2018 23:44 14,6 C 18,3 C 75 % 1010,9 hPa 0,0 l/m 8,0 km/h (2 Bft) O 82 0 min 0,000 mm 0,0 UV-I 0 W/m 10,2 C 13,7 C 11,3 km/h (2 Bft) 100,00 %
21.05.2018 23:45 14,6 C 18,3 C 75 % 1010,9 hPa 0,0 l/m 6,5 km/h (2 Bft) NO 55 0 min 0,000 mm 0,0 UV-I 0 W/m 10,2 C 14,6 C 8,0 km/h (2 Bft) 100,00 %
21.05.2018 23:46 14,6 C 18,3 C 75 % 1010,9 hPa 0,0 l/m 8,1 km/h (2 Bft) O-NO 78 0 min 0,000 mm 0,0 UV-I 0 W/m 10,2 C 13,6 C 11,3 km/h (2 Bft) 100,00 %
21.05.2018 23:47 14,6 C 18,3 C 75 % 1010,9 hPa 0,0 l/m 6,7 km/h (2 Bft) O 80 0 min 0,000 mm 0,0 UV-I 0 W/m 10,2 C 14,4 C 8,0 km/h (2 Bft) 100,00 %
21.05.2018 23:48 14,6 C 18,3 C 75 % 1010,9 hPa 0,0 l/m 7,4 km/h (2 Bft) O-NO 78 0 min 0,000 mm 0,0 UV-I 0 W/m 10,2 C 14,0 C 11,3 km/h (2 Bft) 100,00 %
21.05.2018 23:49 14,6 C 18,3 C 75 % 1010,9 hPa 0,0 l/m 7,2 km/h (2 Bft) O-NO 69 0 min 0,000 mm 0,0 UV-I 0 W/m 10,2 C 14,1 C 9,7 km/h (2 Bft) 100,00 %
21.05.2018 23:50 14,6 C 18,3 C 75 % 1010,9 hPa 0,0 l/m 8,0 km/h (2 Bft) O 95 0 min 0,000 mm 0,0 UV-I 0 W/m 10,2 C 13,7 C 11,3 km/h (2 Bft) 100,00 %
21.05.2018 23:51 14,6 C 18,3 C 75 % 1010,9 hPa 0,0 l/m 7,1 km/h (2 Bft) O-NO 69 0 min 0,000 mm 0,0 UV-I 0 W/m 10,2 C 14,2 C 9,7 km/h (2 Bft) 100,00 %
21.05.2018 23:53 14,6 C 18,3 C 75 % 1010,9 hPa 0,0 l/m 6,0 km/h (2 Bft) O 98 0 min 0,000 mm 0,0 UV-I 0 W/m 10,2 C 14,6 C 11,3 km/h (2 Bft) 97,73 %
21.05.2018 23:54 14,5 C 18,3 C 75 % 1010,9 hPa 0,0 l/m 7,1 km/h (2 Bft) O 98 0 min 0,000 mm 0,0 UV-I 0 W/m 10,1 C 14,1 C 9,7 km/h (2 Bft) 100,00 %
21.05.2018 23:55 14,5 C 18,3 C 75 % 1010,9 hPa 0,0 l/m 9,3 km/h (2 Bft) O-SO 105 0 min 0,000 mm 0,0 UV-I 0 W/m 10,1 C 12,9 C 11,3 km/h (2 Bft) 96,30 %
21.05.2018 23:56 14,5 C 18,3 C 76 % 1010,9 hPa 0,0 l/m 7,5 km/h (2 Bft) O-SO 103 0 min 0,000 mm 0,0 UV-I 0 W/m 10,3 C 13,9 C 11,3 km/h (2 Bft) 100,00 %
21.05.2018 23:58 14,5 C 18,3 C 75 % 1010,9 hPa 0,0 l/m 7,2 km/h (2 Bft) O 96 0 min 0,000 mm 0,0 UV-I 0 W/m 10,1 C 14,0 C 12,9 km/h (3 Bft) 96,72 %
21.05.2018 23:59 14,5 C 18,3 C 75 % 1010,9 hPa 0,0 l/m 7,1 km/h (2 Bft) O 96 0 min 0,000 mm 0,0 UV-I 0 W/m 10,1 C 14,1 C 9,7 km/h (2 Bft) 91,67 %
_ Min-Zeit 00:32 05:07 14:49 18:35 - 00:43 - - - - - - 05:58 05:45 00:07 10:48
Minimum _ 12,3 C 16,7 C 45 % 1010,8 hPa - 3,9 km/h (1 Bft) - - - - - - 8,9 C 5,7 C 6,4 km/h (2 Bft) 82,61 %
_ Max-Zeit 14:48 14:12 00:36 00:00 00:00 16:58 - - 07:23 14:02 12:52 14:14 13:08 14:45 16:10 00:00
Maximum _ 23,4 C 18,9 C 84 % 1017,5 hPa 0,0 l/m 33,0 km/h
O-NO (5 Bft)
- - 2 min 0,686 mm 4,9 UV-I 900 W/m 12,9 C 21,5 C 45,1 km/h
O (6 Bft)
100,00 %
Durchschnitt _ 17,4 C 18,0 C 65 % 1013,6 hPa #0,0 l/m 17,6 km/h (3 Bft) O-NO - #14:36 h #6,502 mm 2,8 UV-I 470 W/m 10,5 C 13,9 C 23,7 km/h (4 Bft) 98,05 %